<?xml version="1.0" encoding="UTF-8" standalone="no" ?>
<gpx xmlns="http://www.topografix.com/GPX/1/1" xmlns:xsi="http://www.w3.org/2001/XMLSchema-instance" xsi:schemaLocation="http://www.topografix.com/GPX/1/1 http://www.topografix.com/GPX/1/1/gpx.xsd" version="1.1" creator="VisuGPX - https://www.visugpx.com">
  <metadata>
    <name>2020-05-31-Minerve</name>
    <desc><![CDATA[Boucle Rustiques-Trèbes-Minerve]]></desc>
  </metadata>
  <trk>
    <name><![CDATA[2020-05-31-07-35-18 on AllTrails]]></name>
    <trkseg>
      <trkpt lat="43.21791" lon="2.4789">
        <ele>125</ele>
        <time>2020-05-31T05:35:18Z</time>
      </trkpt>
      <trkpt lat="43.21793" lon="2.47892">
        <ele>125</ele>
        <time>2020-05-31T05:35:19Z</time>
      </trkpt>
      <trkpt lat="43.2181" lon="2.47906">
        <ele>126</ele>
        <time>2020-05-31T05:35:26Z</time>
      </trkpt>
      <trkpt lat="43.21813" lon="2.47923">
        <ele>126</ele>
        <time>2020-05-31T05:35:31Z</time>
      </trkpt>
      <trkpt lat="43.21813" lon="2.47927">
        <ele>126</ele>
        <time>2020-05-31T05:35:32Z</time>
      </trkpt>
      <trkpt lat="43.21814" lon="2.47955">
        <ele>125</ele>
        <time>2020-05-31T05:35:38Z</time>
      </trkpt>
      <trkpt lat="43.21814" lon="2.47959">
        <ele>125</ele>
        <time>2020-05-31T05:35:39Z</time>
      </trkpt>
      <trkpt lat="43.21812" lon="2.47969">
        <ele>125</ele>
        <time>2020-05-31T05:35:41Z</time>
      </trkpt>
      <trkpt lat="43.21809" lon="2.47979">
        <ele>125</ele>
        <time>2020-05-31T05:35:44Z</time>
      </trkpt>
      <trkpt lat="43.21808" lon="2.47982">
        <ele>125</ele>
        <time>2020-05-31T05:35:45Z</time>
      </trkpt>
      <trkpt lat="43.21806" lon="2.47991">
        <ele>125</ele>
        <time>2020-05-31T05:35:48Z</time>
      </trkpt>
      <trkpt lat="43.21804" lon="2.47994">
        <ele>125</ele>
        <time>2020-05-31T05:35:49Z</time>
      </trkpt>
      <trkpt lat="43.21803" lon="2.47997">
        <ele>125</ele>
        <time>2020-05-31T05:35:50Z</time>
      </trkpt>
      <trkpt lat="43.21801" lon="2.48">
        <ele>125</ele>
        <time>2020-05-31T05:35:51Z</time>
      </trkpt>
      <trkpt lat="43.218" lon="2.48004">
        <ele>124</ele>
        <time>2020-05-31T05:35:52Z</time>
      </trkpt>
      <trkpt lat="43.21799" lon="2.48007">
        <ele>124</ele>
        <time>2020-05-31T05:35:53Z</time>
      </trkpt>
      <trkpt lat="43.21798" lon="2.48015">
        <ele>123</ele>
        <time>2020-05-31T05:35:56Z</time>
      </trkpt>
      <trkpt lat="43.21797" lon="2.48025">
        <ele>122</ele>
        <time>2020-05-31T05:36:00Z</time>
      </trkpt>
      <trkpt lat="43.21797" lon="2.48036">
        <ele>121</ele>
        <time>2020-05-31T05:36:04Z</time>
      </trkpt>
      <trkpt lat="43.218" lon="2.48044">
        <ele>121</ele>
        <time>2020-05-31T05:36:07Z</time>
      </trkpt>
      <trkpt lat="43.21803" lon="2.48051">
        <ele>121</ele>
        <time>2020-05-31T05:36:11Z</time>
      </trkpt>
      <trkpt lat="43.21806" lon="2.48052">
        <ele>121</ele>
        <time>2020-05-31T05:36:14Z</time>
      </trkpt>
      <trkpt lat="43.21806" lon="2.4805">
        <ele>121</ele>
        <time>2020-05-31T05:36:46Z</time>
      </trkpt>
      <trkpt lat="43.21814" lon="2.48048">
        <ele>122</ele>
        <time>2020-05-31T05:36:50Z</time>
      </trkpt>
      <trkpt lat="43.21822" lon="2.48045">
        <ele>122</ele>
        <time>2020-05-31T05:36:53Z</time>
      </trkpt>
      <trkpt lat="43.21831" lon="2.4804">
        <ele>123</ele>
        <time>2020-05-31T05:36:56Z</time>
      </trkpt>
      <trkpt lat="43.21853" lon="2.48038">
        <ele>123</ele>
        <time>2020-05-31T05:37:02Z</time>
      </trkpt>
      <trkpt lat="43.21865" lon="2.48047">
        <ele>123</ele>
        <time>2020-05-31T05:37:06Z</time>
      </trkpt>
      <trkpt lat="43.21871" lon="2.48059">
        <ele>122</ele>
        <time>2020-05-31T05:37:11Z</time>
      </trkpt>
      <trkpt lat="43.21872" lon="2.48059">
        <ele>122</ele>
        <time>2020-05-31T05:37:13Z</time>
      </trkpt>
      <trkpt lat="43.2187" lon="2.48052">
        <ele>123</ele>
        <time>2020-05-31T05:37:25Z</time>
      </trkpt>
      <trkpt lat="43.21869" lon="2.4805">
        <ele>123</ele>
        <time>2020-05-31T05:37:26Z</time>
      </trkpt>
      <trkpt lat="43.2186" lon="2.48039">
        <ele>123</ele>
        <time>2020-05-31T05:37:32Z</time>
      </trkpt>
      <trkpt lat="43.21844" lon="2.48035">
        <ele>124</ele>
        <time>2020-05-31T05:37:38Z</time>
      </trkpt>
      <trkpt lat="43.21822" lon="2.48044">
        <ele>122</ele>
        <time>2020-05-31T05:37:46Z</time>
      </trkpt>
      <trkpt lat="43.21803" lon="2.48043">
        <ele>122</ele>
        <time>2020-05-31T05:37:52Z</time>
      </trkpt>
      <trkpt lat="43.21794" lon="2.48028">
        <ele>122</ele>
        <time>2020-05-31T05:37:56Z</time>
      </trkpt>
      <trkpt lat="43.21795" lon="2.48009">
        <ele>123</ele>
        <time>2020-05-31T05:38:00Z</time>
      </trkpt>
      <trkpt lat="43.21796" lon="2.48005">
        <ele>124</ele>
        <time>2020-05-31T05:38:01Z</time>
      </trkpt>
      <trkpt lat="43.21804" lon="2.47979">
        <ele>124</ele>
        <time>2020-05-31T05:38:07Z</time>
      </trkpt>
      <trkpt lat="43.21808" lon="2.47953">
        <ele>125</ele>
        <time>2020-05-31T05:38:13Z</time>
      </trkpt>
      <trkpt lat="43.21809" lon="2.47944">
        <ele>125</ele>
        <time>2020-05-31T05:38:15Z</time>
      </trkpt>
      <trkpt lat="43.21805" lon="2.47907">
        <ele>126</ele>
        <time>2020-05-31T05:38:23Z</time>
      </trkpt>
      <trkpt lat="43.21794" lon="2.47891">
        <ele>126</ele>
        <time>2020-05-31T05:38:28Z</time>
      </trkpt>
      <trkpt lat="43.21777" lon="2.47881">
        <ele>125</ele>
        <time>2020-05-31T05:38:33Z</time>
      </trkpt>
      <trkpt lat="43.21773" lon="2.47879">
        <ele>125</ele>
        <time>2020-05-31T05:38:34Z</time>
      </trkpt>
      <trkpt lat="43.21743" lon="2.47871">
        <ele>124</ele>
        <time>2020-05-31T05:38:42Z</time>
      </trkpt>
      <trkpt lat="43.21722" lon="2.47865">
        <ele>124</ele>
        <time>2020-05-31T05:38:48Z</time>
      </trkpt>
      <trkpt lat="43.21712" lon="2.47861">
        <ele>124</ele>
        <time>2020-05-31T05:38:51Z</time>
      </trkpt>
      <trkpt lat="43.21698" lon="2.47845">
        <ele>124</ele>
        <time>2020-05-31T05:38:56Z</time>
      </trkpt>
      <trkpt lat="43.21696" lon="2.4784">
        <ele>124</ele>
        <time>2020-05-31T05:38:57Z</time>
      </trkpt>
      <trkpt lat="43.21696" lon="2.47824">
        <ele>125</ele>
        <time>2020-05-31T05:39:00Z</time>
      </trkpt>
      <trkpt lat="43.21701" lon="2.47782">
        <ele>126</ele>
        <time>2020-05-31T05:39:07Z</time>
      </trkpt>
      <trkpt lat="43.21706" lon="2.47723">
        <ele>125</ele>
        <time>2020-05-31T05:39:15Z</time>
      </trkpt>
      <trkpt lat="43.21704" lon="2.47682">
        <ele>125</ele>
        <time>2020-05-31T05:39:21Z</time>
      </trkpt>
      <trkpt lat="43.21702" lon="2.47663">
        <ele>125</ele>
        <time>2020-05-31T05:39:24Z</time>
      </trkpt>
      <trkpt lat="43.21697" lon="2.47639">
        <ele>125</ele>
        <time>2020-05-31T05:39:28Z</time>
      </trkpt>
      <trkpt lat="43.21689" lon="2.47606">
        <ele>124</ele>
        <time>2020-05-31T05:39:34Z</time>
      </trkpt>
      <trkpt lat="43.21683" lon="2.47582">
        <ele>125</ele>
        <time>2020-05-31T05:39:39Z</time>
      </trkpt>
      <trkpt lat="43.21676" lon="2.47554">
        <ele>124</ele>
        <time>2020-05-31T05:39:44Z</time>
      </trkpt>
      <trkpt lat="43.21675" lon="2.47548">
        <ele>124</ele>
        <time>2020-05-31T05:39:45Z</time>
      </trkpt>
      <trkpt lat="43.21674" lon="2.47535">
        <ele>124</ele>
        <time>2020-05-31T05:39:47Z</time>
      </trkpt>
      <trkpt lat="43.21674" lon="2.4751">
        <ele>124</ele>
        <time>2020-05-31T05:39:51Z</time>
      </trkpt>
      <trkpt lat="43.21674" lon="2.47497">
        <ele>124</ele>
        <time>2020-05-31T05:39:53Z</time>
      </trkpt>
      <trkpt lat="43.21676" lon="2.47485">
        <ele>124</ele>
        <time>2020-05-31T05:39:55Z</time>
      </trkpt>
      <trkpt lat="43.21676" lon="2.47478">
        <ele>124</ele>
        <time>2020-05-31T05:39:56Z</time>
      </trkpt>
      <trkpt lat="43.21676" lon="2.47459">
        <ele>124</ele>
        <time>2020-05-31T05:39:59Z</time>
      </trkpt>
      <trkpt lat="43.21677" lon="2.4741">
        <ele>124</ele>
        <time>2020-05-31T05:40:06Z</time>
      </trkpt>
      <trkpt lat="43.21678" lon="2.47376">
        <ele>122</ele>
        <time>2020-05-31T05:40:11Z</time>
      </trkpt>
      <trkpt lat="43.21676" lon="2.4737">
        <ele>122</ele>
        <time>2020-05-31T05:40:12Z</time>
      </trkpt>
      <trkpt lat="43.21673" lon="2.47364">
        <ele>122</ele>
        <time>2020-05-31T05:40:13Z</time>
      </trkpt>
      <trkpt lat="43.21665" lon="2.47357">
        <ele>122</ele>
        <time>2020-05-31T05:40:15Z</time>
      </trkpt>
      <trkpt lat="43.21655" lon="2.47354">
        <ele>122</ele>
        <time>2020-05-31T05:40:17Z</time>
      </trkpt>
      <trkpt lat="43.21637" lon="2.47344">
        <ele>122</ele>
        <time>2020-05-31T05:40:21Z</time>
      </trkpt>
      <trkpt lat="43.21632" lon="2.47341">
        <ele>121</ele>
        <time>2020-05-31T05:40:22Z</time>
      </trkpt>
      <trkpt lat="43.21624" lon="2.47333">
        <ele>120</ele>
        <time>2020-05-31T05:40:24Z</time>
      </trkpt>
      <trkpt lat="43.21621" lon="2.47328">
        <ele>120</ele>
        <time>2020-05-31T05:40:25Z</time>
      </trkpt>
      <trkpt lat="43.21619" lon="2.47322">
        <ele>120</ele>
        <time>2020-05-31T05:40:26Z</time>
      </trkpt>
      <trkpt lat="43.21613" lon="2.47301">
        <ele>121</ele>
        <time>2020-05-31T05:40:30Z</time>
      </trkpt>
      <trkpt lat="43.2161" lon="2.4729">
        <ele>120</ele>
        <time>2020-05-31T05:40:32Z</time>
      </trkpt>
      <trkpt lat="43.21607" lon="2.47279">
        <ele>120</ele>
        <time>2020-05-31T05:40:34Z</time>
      </trkpt>
      <trkpt lat="43.21604" lon="2.47274">
        <ele>121</ele>
        <time>2020-05-31T05:40:35Z</time>
      </trkpt>
      <trkpt lat="43.21601" lon="2.4727">
        <ele>121</ele>
        <time>2020-05-31T05:40:36Z</time>
      </trkpt>
      <trkpt lat="43.21593" lon="2.47263">
        <ele>121</ele>
        <time>2020-05-31T05:40:38Z</time>
      </trkpt>
      <trkpt lat="43.21589" lon="2.47262">
        <ele>121</ele>
        <time>2020-05-31T05:40:39Z</time>
      </trkpt>
      <trkpt lat="43.21575" lon="2.47257">
        <ele>121</ele>
        <time>2020-05-31T05:40:43Z</time>
      </trkpt>
      <trkpt lat="43.21563" lon="2.47253">
        <ele>121</ele>
        <time>2020-05-31T05:40:46Z</time>
      </trkpt>
      <trkpt lat="43.21537" lon="2.47239">
        <ele>123</ele>
        <time>2020-05-31T05:40:53Z</time>
      </trkpt>
      <trkpt lat="43.2153" lon="2.47236">
        <ele>123</ele>
        <time>2020-05-31T05:40:55Z</time>
      </trkpt>
      <trkpt lat="43.21511" lon="2.4723">
        <ele>124</ele>
        <time>2020-05-31T05:41:00Z</time>
      </trkpt>
      <trkpt lat="43.21476" lon="2.47227">
        <ele>123</ele>
        <time>2020-05-31T05:41:08Z</time>
      </trkpt>
      <trkpt lat="43.21471" lon="2.47227">
        <ele>123</ele>
        <time>2020-05-31T05:41:09Z</time>
      </trkpt>
      <trkpt lat="43.2144" lon="2.47229">
        <ele>122</ele>
        <time>2020-05-31T05:41:16Z</time>
      </trkpt>
      <trkpt lat="43.21399" lon="2.47231">
        <ele>122</ele>
        <time>2020-05-31T05:41:25Z</time>
      </trkpt>
      <trkpt lat="43.2136" lon="2.47224">
        <ele>122</ele>
        <time>2020-05-31T05:41:33Z</time>
      </trkpt>
      <trkpt lat="43.21345" lon="2.47218">
        <ele>122</ele>
        <time>2020-05-31T05:41:36Z</time>
      </trkpt>
      <trkpt lat="43.21331" lon="2.47209">
        <ele>122</ele>
        <time>2020-05-31T05:41:39Z</time>
      </trkpt>
      <trkpt lat="43.21318" lon="2.47195">
        <ele>123</ele>
        <time>2020-05-31T05:41:42Z</time>
      </trkpt>
      <trkpt lat="43.21312" lon="2.47183">
        <ele>124</ele>
        <time>2020-05-31T05:41:44Z</time>
      </trkpt>
      <trkpt lat="43.21306" lon="2.47171">
        <ele>124</ele>
        <time>2020-05-31T05:41:46Z</time>
      </trkpt>
      <trkpt lat="43.21301" lon="2.47149">
        <ele>124</ele>
        <time>2020-05-31T05:41:49Z</time>
      </trkpt>
      <trkpt lat="43.21299" lon="2.47142">
        <ele>124</ele>
        <time>2020-05-31T05:41:50Z</time>
      </trkpt>
      <trkpt lat="43.21299" lon="2.47134">
        <ele>124</ele>
        <time>2020-05-31T05:41:51Z</time>
      </trkpt>
      <trkpt lat="43.21299" lon="2.47119">
        <ele>123</ele>
        <time>2020-05-31T05:41:53Z</time>
      </trkpt>
      <trkpt lat="43.213" lon="2.47111">
        <ele>123</ele>
        <time>2020-05-31T05:41:54Z</time>
      </trkpt>
      <trkpt lat="43.21301" lon="2.47104">
        <ele>123</ele>
        <time>2020-05-31T05:41:55Z</time>
      </trkpt>
      <trkpt lat="43.21308" lon="2.47075">
        <ele>122</ele>
        <time>2020-05-31T05:41:59Z</time>
      </trkpt>
      <trkpt lat="43.21312" lon="2.47061">
        <ele>122</ele>
        <time>2020-05-31T05:42:01Z</time>
      </trkpt>
      <trkpt lat="43.21332" lon="2.46992">
        <ele>122</ele>
        <time>2020-05-31T05:42:11Z</time>
      </trkpt>
      <trkpt lat="43.21336" lon="2.46979">
        <ele>122</ele>
        <time>2020-05-31T05:42:13Z</time>
      </trkpt>
      <trkpt lat="43.21341" lon="2.46959">
        <ele>122</ele>
        <time>2020-05-31T05:42:16Z</time>
      </trkpt>
      <trkpt lat="43.21351" lon="2.46925">
        <ele>123</ele>
        <time>2020-05-31T05:42:21Z</time>
      </trkpt>
      <trkpt lat="43.21355" lon="2.46912">
        <ele>123</ele>
        <time>2020-05-31T05:42:23Z</time>
      </trkpt>
      <trkpt lat="43.21357" lon="2.46905">
        <ele>123</ele>
        <time>2020-05-31T05:42:24Z</time>
      </trkpt>
      <trkpt lat="43.21369" lon="2.46857">
        <ele>123</ele>
        <time>2020-05-31T05:42:31Z</time>
      </trkpt>
      <trkpt lat="43.2137" lon="2.4685">
        <ele>123</ele>
        <time>2020-05-31T05:42:32Z</time>
      </trkpt>
      <trkpt lat="43.2137" lon="2.468">
        <ele>122</ele>
        <time>2020-05-31T05:42:39Z</time>
      </trkpt>
      <trkpt lat="43.21363" lon="2.46763">
        <ele>121</ele>
        <time>2020-05-31T05:42:44Z</time>
      </trkpt>
      <trkpt lat="43.21362" lon="2.46755">
        <ele>121</ele>
        <time>2020-05-31T05:42:45Z</time>
      </trkpt>
      <trkpt lat="43.21358" lon="2.46738">
        <ele>120</ele>
        <time>2020-05-31T05:42:47Z</time>
      </trkpt>
      <trkpt lat="43.21352" lon="2.4671">
        <ele>119</ele>
        <time>2020-05-31T05:42:50Z</time>
      </trkpt>
      <trkpt lat="43.21349" lon="2.467">
        <ele>118</ele>
        <time>2020-05-31T05:42:51Z</time>
      </trkpt>
      <trkpt lat="43.21345" lon="2.46681">
        <ele>117</ele>
        <time>2020-05-31T05:42:53Z</time>
      </trkpt>
      <trkpt lat="43.21334" lon="2.46631">
        <ele>112</ele>
        <time>2020-05-31T05:42:58Z</time>
      </trkpt>
      <trkpt lat="43.21328" lon="2.466">
        <ele>111</ele>
        <time>2020-05-31T05:43:01Z</time>
      </trkpt>
      <trkpt lat="43.21319" lon="2.46559">
        <ele>110</ele>
        <time>2020-05-31T05:43:05Z</time>
      </trkpt>
      <trkpt lat="43.21316" lon="2.46548">
        <ele>110</ele>
        <time>2020-05-31T05:43:06Z</time>
      </trkpt>
      <trkpt lat="43.21312" lon="2.46527">
        <ele>111</ele>
        <time>2020-05-31T05:43:08Z</time>
      </trkpt>
      <trkpt lat="43.21307" lon="2.46506">
        <ele>111</ele>
        <time>2020-05-31T05:43:10Z</time>
      </trkpt>
      <trkpt lat="43.21302" lon="2.46485">
        <ele>110</ele>
        <time>2020-05-31T05:43:12Z</time>
      </trkpt>
      <trkpt lat="43.21297" lon="2.46465">
        <ele>109</ele>
        <time>2020-05-31T05:43:14Z</time>
      </trkpt>
      <trkpt lat="43.21295" lon="2.46455">
        <ele>109</ele>
        <time>2020-05-31T05:43:15Z</time>
      </trkpt>
      <trkpt lat="43.21288" lon="2.46415">
        <ele>109</ele>
        <time>2020-05-31T05:43:19Z</time>
      </trkpt>
      <trkpt lat="43.21287" lon="2.46406">
        <ele>109</ele>
        <time>2020-05-31T05:43:20Z</time>
      </trkpt>
      <trkpt lat="43.21286" lon="2.46396">
        <ele>109</ele>
        <time>2020-05-31T05:43:21Z</time>
      </trkpt>
      <trkpt lat="43.21283" lon="2.46378">
        <ele>108</ele>
        <time>2020-05-31T05:43:23Z</time>
      </trkpt>
      <trkpt lat="43.21278" lon="2.46325">
        <ele>107</ele>
        <time>2020-05-31T05:43:29Z</time>
      </trkpt>
      <trkpt lat="43.21277" lon="2.46316">
        <ele>107</ele>
        <time>2020-05-31T05:43:30Z</time>
      </trkpt>
      <trkpt lat="43.21274" lon="2.46266">
        <ele>108</ele>
        <time>2020-05-31T05:43:36Z</time>
      </trkpt>
      <trkpt lat="43.21261" lon="2.46204">
        <ele>108</ele>
        <time>2020-05-31T05:43:44Z</time>
      </trkpt>
      <trkpt lat="43.21246" lon="2.46161">
        <ele>106</ele>
        <time>2020-05-31T05:43:50Z</time>
      </trkpt>
      <trkpt lat="43.21242" lon="2.46148">
        <ele>106</ele>
        <time>2020-05-31T05:43:52Z</time>
      </trkpt>
      <trkpt lat="43.21225" lon="2.46095">
        <ele>105</ele>
        <time>2020-05-31T05:44:00Z</time>
      </trkpt>
      <trkpt lat="43.21217" lon="2.46051">
        <ele>105</ele>
        <time>2020-05-31T05:44:06Z</time>
      </trkpt>
      <trkpt lat="43.21215" lon="2.46043">
        <ele>105</ele>
        <time>2020-05-31T05:44:07Z</time>
      </trkpt>
      <trkpt lat="43.21212" lon="2.46013">
        <ele>106</ele>
        <time>2020-05-31T05:44:11Z</time>
      </trkpt>
      <trkpt lat="43.2121" lon="2.45991">
        <ele>107</ele>
        <time>2020-05-31T05:44:14Z</time>
      </trkpt>
      <trkpt lat="43.21207" lon="2.45952">
        <ele>106</ele>
        <time>2020-05-31T05:44:19Z</time>
      </trkpt>
      <trkpt lat="43.21206" lon="2.45936">
        <ele>106</ele>
        <time>2020-05-31T05:44:20Z</time>
      </trkpt>
      <trkpt lat="43.21205" lon="2.4592">
        <ele>106</ele>
        <time>2020-05-31T05:44:23Z</time>
      </trkpt>
      <trkpt lat="43.21204" lon="2.45912">
        <ele>106</ele>
        <time>2020-05-31T05:44:24Z</time>
      </trkpt>
      <trkpt lat="43.21198" lon="2.45862">
        <ele>105</ele>
        <time>2020-05-31T05:44:30Z</time>
      </trkpt>
      <trkpt lat="43.21192" lon="2.4583">
        <ele>104</ele>
        <time>2020-05-31T05:44:34Z</time>
      </trkpt>
      <trkpt lat="43.21186" lon="2.45797">
        <ele>104</ele>
        <time>2020-05-31T05:44:38Z</time>
      </trkpt>
      <trkpt lat="43.21185" lon="2.4579">
        <ele>103</ele>
        <time>2020-05-31T05:44:39Z</time>
      </trkpt>
      <trkpt lat="43.21183" lon="2.45774">
        <ele>103</ele>
        <time>2020-05-31T05:44:41Z</time>
      </trkpt>
      <trkpt lat="43.21177" lon="2.45726">
        <ele>104</ele>
        <time>2020-05-31T05:44:47Z</time>
      </trkpt>
      <trkpt lat="43.21172" lon="2.45637">
        <ele>104</ele>
        <time>2020-05-31T05:44:57Z</time>
      </trkpt>
      <trkpt lat="43.21168" lon="2.45577">
        <ele>105</ele>
        <time>2020-05-31T05:45:05Z</time>
      </trkpt>
      <trkpt lat="43.21167" lon="2.45562">
        <ele>105</ele>
        <time>2020-05-31T05:45:08Z</time>
      </trkpt>
      <trkpt lat="43.21162" lon="2.45504">
        <ele>107</ele>
        <time>2020-05-31T05:45:15Z</time>
      </trkpt>
      <trkpt lat="43.21161" lon="2.45491">
        <ele>107</ele>
        <time>2020-05-31T05:45:18Z</time>
      </trkpt>
      <trkpt lat="43.21149" lon="2.4544">
        <ele>108</ele>
        <time>2020-05-31T05:45:25Z</time>
      </trkpt>
      <trkpt lat="43.2113" lon="2.45393">
        <ele>106</ele>
        <time>2020-05-31T05:45:33Z</time>
      </trkpt>
      <trkpt lat="43.21123" lon="2.45375">
        <ele>105</ele>
        <time>2020-05-31T05:45:37Z</time>
      </trkpt>
      <trkpt lat="43.21121" lon="2.4536">
        <ele>104</ele>
        <time>2020-05-31T05:45:39Z</time>
      </trkpt>
      <trkpt lat="43.21121" lon="2.45353">
        <ele>104</ele>
        <time>2020-05-31T05:45:40Z</time>
      </trkpt>
      <trkpt lat="43.21121" lon="2.45346">
        <ele>103</ele>
        <time>2020-05-31T05:45:41Z</time>
      </trkpt>
      <trkpt lat="43.2112" lon="2.45332">
        <ele>102</ele>
        <time>2020-05-31T05:45:43Z</time>
      </trkpt>
      <trkpt lat="43.21115" lon="2.45318">
        <ele>102</ele>
        <time>2020-05-31T05:45:44Z</time>
      </trkpt>
      <trkpt lat="43.21109" lon="2.45304">
        <ele>101</ele>
        <time>2020-05-31T05:45:47Z</time>
      </trkpt>
      <trkpt lat="43.21106" lon="2.45288">
        <ele>101</ele>
        <time>2020-05-31T05:45:48Z</time>
      </trkpt>
      <trkpt lat="43.21105" lon="2.4528">
        <ele>101</ele>
        <time>2020-05-31T05:45:49Z</time>
      </trkpt>
      <trkpt lat="43.211" lon="2.45236">
        <ele>101</ele>
        <time>2020-05-31T05:45:54Z</time>
      </trkpt>
      <trkpt lat="43.21095" lon="2.45201">
        <ele>101</ele>
        <time>2020-05-31T05:45:59Z</time>
      </trkpt>
      <trkpt lat="43.21092" lon="2.45176">
        <ele>100</ele>
        <time>2020-05-31T05:46:02Z</time>
      </trkpt>
      <trkpt lat="43.21082" lon="2.45112">
        <ele>100</ele>
        <time>2020-05-31T05:46:09Z</time>
      </trkpt>
      <trkpt lat="43.21072" lon="2.45045">
        <ele>101</ele>
        <time>2020-05-31T05:46:18Z</time>
      </trkpt>
      <trkpt lat="43.21071" lon="2.45038">
        <ele>101</ele>
        <time>2020-05-31T05:46:19Z</time>
      </trkpt>
      <trkpt lat="43.21068" lon="2.45016">
        <ele>100</ele>
        <time>2020-05-31T05:46:22Z</time>
      </trkpt>
      <trkpt lat="43.21067" lon="2.44993">
        <ele>100</ele>
        <time>2020-05-31T05:46:25Z</time>
      </trkpt>
      <trkpt lat="43.21067" lon="2.44978">
        <ele>99</ele>
        <time>2020-05-31T05:46:27Z</time>
      </trkpt>
      <trkpt lat="43.21068" lon="2.44964">
        <ele>99</ele>
        <time>2020-05-31T05:46:29Z</time>
      </trkpt>
      <trkpt lat="43.21073" lon="2.44935">
        <ele>98</ele>
        <time>2020-05-31T05:46:34Z</time>
      </trkpt>
      <trkpt lat="43.21086" lon="2.44863">
        <ele>100</ele>
        <time>2020-05-31T05:46:44Z</time>
      </trkpt>
      <trkpt lat="43.21097" lon="2.44804">
        <ele>101</ele>
        <time>2020-05-31T05:46:53Z</time>
      </trkpt>
      <trkpt lat="43.21105" lon="2.44749">
        <ele>100</ele>
        <time>2020-05-31T05:47:01Z</time>
      </trkpt>
      <trkpt lat="43.21106" lon="2.44742">
        <ele>100</ele>
        <time>2020-05-31T05:47:02Z</time>
      </trkpt>
      <trkpt lat="43.21103" lon="2.44705">
        <ele>100</ele>
        <time>2020-05-31T05:47:07Z</time>
      </trkpt>
      <trkpt lat="43.21102" lon="2.44697">
        <ele>100</ele>
        <time>2020-05-31T05:47:08Z</time>
      </trkpt>
      <trkpt lat="43.21094" lon="2.44661">
        <ele>99</ele>
        <time>2020-05-31T05:47:13Z</time>
      </trkpt>
      <trkpt lat="43.21089" lon="2.44632">
        <ele>100</ele>
        <time>2020-05-31T05:47:17Z</time>
      </trkpt>
      <trkpt lat="43.21088" lon="2.44624">
        <ele>100</ele>
        <time>2020-05-31T05:47:18Z</time>
      </trkpt>
      <trkpt lat="43.21087" lon="2.44579">
        <ele>101</ele>
        <time>2020-05-31T05:47:24Z</time>
      </trkpt>
      <trkpt lat="43.21095" lon="2.44512">
        <ele>99</ele>
        <time>2020-05-31T05:47:33Z</time>
      </trkpt>
      <trkpt lat="43.21099" lon="2.44484">
        <ele>98</ele>
        <time>2020-05-31T05:47:37Z</time>
      </trkpt>
      <trkpt lat="43.21102" lon="2.44455">
        <ele>97</ele>
        <time>2020-05-31T05:47:41Z</time>
      </trkpt>
      <trkpt lat="43.21104" lon="2.44441">
        <ele>97</ele>
        <time>2020-05-31T05:47:43Z</time>
      </trkpt>
      <trkpt lat="43.21108" lon="2.4439">
        <ele>99</ele>
        <time>2020-05-31T05:47:51Z</time>
      </trkpt>
      <trkpt lat="43.21114" lon="2.44358">
        <ele>99</ele>
        <time>2020-05-31T05:47:58Z</time>
      </trkpt>
      <trkpt lat="43.21109" lon="2.44345">
        <ele>98</ele>
        <time>2020-05-31T05:48:02Z</time>
      </trkpt>
      <trkpt lat="43.21103" lon="2.44345">
        <ele>97</ele>
        <time>2020-05-31T05:48:04Z</time>
      </trkpt>
      <trkpt lat="43.211" lon="2.44346">
        <ele>97</ele>
        <time>2020-05-31T05:48:05Z</time>
      </trkpt>
      <trkpt lat="43.21089" lon="2.44355">
        <ele>97</ele>
        <time>2020-05-31T05:48:08Z</time>
      </trkpt>
      <trkpt lat="43.2108" lon="2.44358">
        <ele>96</ele>
        <time>2020-05-31T05:48:10Z</time>
      </trkpt>
      <trkpt lat="43.2107" lon="2.44358">
        <ele>96</ele>
        <time>2020-05-31T05:48:12Z</time>
      </trkpt>
      <trkpt lat="43.21052" lon="2.44355">
        <ele>94</ele>
        <time>2020-05-31T05:48:15Z</time>
      </trkpt>
      <trkpt lat="43.21045" lon="2.44352">
        <ele>94</ele>
        <time>2020-05-31T05:48:18Z</time>
      </trkpt>
      <trkpt lat="43.21039" lon="2.44346">
        <ele>94</ele>
        <time>2020-05-31T05:48:20Z</time>
      </trkpt>
      <trkpt lat="43.21035" lon="2.44326">
        <ele>94</ele>
        <time>2020-05-31T05:48:24Z</time>
      </trkpt>
      <trkpt lat="43.21033" lon="2.44313">
        <ele>94</ele>
        <time>2020-05-31T05:48:27Z</time>
      </trkpt>
      <trkpt lat="43.21032" lon="2.44309">
        <ele>94</ele>
        <time>2020-05-31T05:48:28Z</time>
      </trkpt>
      <trkpt lat="43.21021" lon="2.44305">
        <ele>94</ele>
        <time>2020-05-31T05:48:32Z</time>
      </trkpt>
      <trkpt lat="43.21015" lon="2.44306">
        <ele>93</ele>
        <time>2020-05-31T05:48:34Z</time>
      </trkpt>
      <trkpt lat="43.21007" lon="2.44308">
        <ele>92</ele>
        <time>2020-05-31T05:48:37Z</time>
      </trkpt>
      <trkpt lat="43.21004" lon="2.44309">
        <ele>92</ele>
        <time>2020-05-31T05:48:38Z</time>
      </trkpt>
      <trkpt lat="43.20999" lon="2.44314">
        <ele>91</ele>
        <time>2020-05-31T05:48:41Z</time>
      </trkpt>
      <trkpt lat="43.20993" lon="2.44318">
        <ele>91</ele>
        <time>2020-05-31T05:48:44Z</time>
      </trkpt>
      <trkpt lat="43.20987" lon="2.44326">
        <ele>90</ele>
        <time>2020-05-31T05:48:47Z</time>
      </trkpt>
      <trkpt lat="43.20979" lon="2.44352">
        <ele>90</ele>
        <time>2020-05-31T05:48:53Z</time>
      </trkpt>
      <trkpt lat="43.20977" lon="2.44362">
        <ele>90</ele>
        <time>2020-05-31T05:48:56Z</time>
      </trkpt>
      <trkpt lat="43.20976" lon="2.44374">
        <ele>90</ele>
        <time>2020-05-31T05:49:00Z</time>
      </trkpt>
      <trkpt lat="43.20976" lon="2.44377">
        <ele>90</ele>
        <time>2020-05-31T05:49:01Z</time>
      </trkpt>
      <trkpt lat="43.20975" lon="2.44389">
        <ele>89</ele>
        <time>2020-05-31T05:49:06Z</time>
      </trkpt>
      <trkpt lat="43.20974" lon="2.44409">
        <ele>88</ele>
        <time>2020-05-31T05:49:12Z</time>
      </trkpt>
      <trkpt lat="43.20973" lon="2.44432">
        <ele>88</ele>
        <time>2020-05-31T05:49:19Z</time>
      </trkpt>
      <trkpt lat="43.20968" lon="2.44465">
        <ele>88</ele>
        <time>2020-05-31T05:49:28Z</time>
      </trkpt>
      <trkpt lat="43.20962" lon="2.44489">
        <ele>90</ele>
        <time>2020-05-31T05:49:35Z</time>
      </trkpt>
      <trkpt lat="43.20957" lon="2.44492">
        <ele>90</ele>
        <time>2020-05-31T05:49:37Z</time>
      </trkpt>
      <trkpt lat="43.20952" lon="2.44491">
        <ele>90</ele>
        <time>2020-05-31T05:49:38Z</time>
      </trkpt>
      <trkpt lat="43.20949" lon="2.4449">
        <ele>90</ele>
        <time>2020-05-31T05:49:39Z</time>
      </trkpt>
      <trkpt lat="43.20934" lon="2.44484">
        <ele>89</ele>
        <time>2020-05-31T05:49:45Z</time>
      </trkpt>
      <trkpt lat="43.20932" lon="2.44484">
        <ele>89</ele>
        <time>2020-05-31T05:49:46Z</time>
      </trkpt>
      <trkpt lat="43.20931" lon="2.44486">
        <ele>89</ele>
        <time>2020-05-31T05:49:48Z</time>
      </trkpt>
      <trkpt lat="43.2093" lon="2.44489">
        <ele>89</ele>
        <time>2020-05-31T05:49:49Z</time>
      </trkpt>
      <trkpt lat="43.20932" lon="2.44495">
        <ele>89</ele>
        <time>2020-05-31T05:49:51Z</time>
      </trkpt>
      <trkpt lat="43.20935" lon="2.44498">
        <ele>90</ele>
        <time>2020-05-31T05:49:53Z</time>
      </trkpt>
      <trkpt lat="43.20938" lon="2.44499">
        <ele>90</ele>
        <time>2020-05-31T05:49:57Z</time>
      </trkpt>
      <trkpt lat="43.20933" lon="2.445">
        <ele>90</ele>
        <time>2020-05-31T06:02:41Z</time>
      </trkpt>
      <trkpt lat="43.20932" lon="2.44499">
        <ele>90</ele>
        <time>2020-05-31T06:02:42Z</time>
      </trkpt>
      <trkpt lat="43.20931" lon="2.44498">
        <ele>89</ele>
        <time>2020-05-31T06:02:43Z</time>
      </trkpt>
      <trkpt lat="43.20928" lon="2.4449">
        <ele>89</ele>
        <time>2020-05-31T06:02:47Z</time>
      </trkpt>
      <trkpt lat="43.20929" lon="2.44487">
        <ele>89</ele>
        <time>2020-05-31T06:02:48Z</time>
      </trkpt>
      <trkpt lat="43.20933" lon="2.44485">
        <ele>89</ele>
        <time>2020-05-31T06:02:50Z</time>
      </trkpt>
      <trkpt lat="43.20942" lon="2.44488">
        <ele>90</ele>
        <time>2020-05-31T06:02:54Z</time>
      </trkpt>
      <trkpt lat="43.20946" lon="2.44491">
        <ele>90</ele>
        <time>2020-05-31T06:02:56Z</time>
      </trkpt>
      <trkpt lat="43.20956" lon="2.4449">
        <ele>90</ele>
        <time>2020-05-31T06:03:00Z</time>
      </trkpt>
      <trkpt lat="43.20962" lon="2.44483">
        <ele>89</ele>
        <time>2020-05-31T06:03:03Z</time>
      </trkpt>
      <trkpt lat="43.20964" lon="2.44475">
        <ele>89</ele>
        <time>2020-05-31T06:03:05Z</time>
      </trkpt>
      <trkpt lat="43.20967" lon="2.44462">
        <ele>88</ele>
        <time>2020-05-31T06:03:08Z</time>
      </trkpt>
      <trkpt lat="43.20971" lon="2.44439">
        <ele>88</ele>
        <time>2020-05-31T06:03:13Z</time>
      </trkpt>
      <trkpt lat="43.20974" lon="2.44388">
        <ele>90</ele>
        <time>2020-05-31T06:03:23Z</time>
      </trkpt>
      <trkpt lat="43.20976" lon="2.44362">
        <ele>90</ele>
        <time>2020-05-31T06:03:29Z</time>
      </trkpt>
      <trkpt lat="43.20977" lon="2.44357">
        <ele>90</ele>
        <time>2020-05-31T06:03:30Z</time>
      </trkpt>
      <trkpt lat="43.20983" lon="2.44333">
        <ele>90</ele>
        <time>2020-05-31T06:03:36Z</time>
      </trkpt>
      <trkpt lat="43.20988" lon="2.44323">
        <ele>90</ele>
        <time>2020-05-31T06:03:39Z</time>
      </trkpt>
      <trkpt lat="43.20994" lon="2.44318">
        <ele>91</ele>
        <time>2020-05-31T06:03:41Z</time>
      </trkpt>
      <trkpt lat="43.21" lon="2.44314">
        <ele>91</ele>
        <time>2020-05-31T06:03:43Z</time>
      </trkpt>
      <trkpt lat="43.21003" lon="2.44311">
        <ele>92</ele>
        <time>2020-05-31T06:03:44Z</time>
      </trkpt>
      <trkpt lat="43.21008" lon="2.44308">
        <ele>92</ele>
        <time>2020-05-31T06:03:46Z</time>
      </trkpt>
      <trkpt lat="43.21011" lon="2.44307">
        <ele>93</ele>
        <time>2020-05-31T06:03:48Z</time>
      </trkpt>
      <trkpt lat="43.21025" lon="2.44308">
        <ele>94</ele>
        <time>2020-05-31T06:03:52Z</time>
      </trkpt>
      <trkpt lat="43.21026" lon="2.44311">
        <ele>94</ele>
        <time>2020-05-31T06:03:53Z</time>
      </trkpt>
      <trkpt lat="43.21028" lon="2.44331">
        <ele>94</ele>
        <time>2020-05-31T06:03:57Z</time>
      </trkpt>
      <trkpt lat="43.21037" lon="2.44353">
        <ele>93</ele>
        <time>2020-05-31T06:04:02Z</time>
      </trkpt>
      <trkpt lat="43.21057" lon="2.4436">
        <ele>95</ele>
        <time>2020-05-31T06:04:07Z</time>
      </trkpt>
      <trkpt lat="43.21064" lon="2.44361">
        <ele>95</ele>
        <time>2020-05-31T06:04:09Z</time>
      </trkpt>
      <trkpt lat="43.21078" lon="2.44362">
        <ele>96</ele>
        <time>2020-05-31T06:04:13Z</time>
      </trkpt>
      <trkpt lat="43.21082" lon="2.44361">
        <ele>96</ele>
        <time>2020-05-31T06:04:14Z</time>
      </trkpt>
      <trkpt lat="43.21095" lon="2.44366">
        <ele>97</ele>
        <time>2020-05-31T06:04:19Z</time>
      </trkpt>
      <trkpt lat="43.21101" lon="2.44376">
        <ele>98</ele>
        <time>2020-05-31T06:04:22Z</time>
      </trkpt>
      <trkpt lat="43.21102" lon="2.44385">
        <ele>98</ele>
        <time>2020-05-31T06:04:24Z</time>
      </trkpt>
      <trkpt lat="43.21102" lon="2.44389">
        <ele>99</ele>
        <time>2020-05-31T06:04:25Z</time>
      </trkpt>
      <trkpt lat="43.21102" lon="2.44422">
        <ele>97</ele>
        <time>2020-05-31T06:04:31Z</time>
      </trkpt>
      <trkpt lat="43.21097" lon="2.44479">
        <ele>97</ele>
        <time>2020-05-31T06:04:40Z</time>
      </trkpt>
      <trkpt lat="43.21091" lon="2.44524">
        <ele>100</ele>
        <time>2020-05-31T06:04:47Z</time>
      </trkpt>
      <trkpt lat="43.2109" lon="2.44531">
        <ele>100</ele>
        <time>2020-05-31T06:04:48Z</time>
      </trkpt>
      <trkpt lat="43.21086" lon="2.44564">
        <ele>101</ele>
        <time>2020-05-31T06:04:53Z</time>
      </trkpt>
      <trkpt lat="43.21085" lon="2.44614">
        <ele>100</ele>
        <time>2020-05-31T06:05:00Z</time>
      </trkpt>
      <trkpt lat="43.2109" lon="2.44655">
        <ele>100</ele>
        <time>2020-05-31T06:05:06Z</time>
      </trkpt>
      <trkpt lat="43.21104" lon="2.44724">
        <ele>100</ele>
        <time>2020-05-31T06:05:16Z</time>
      </trkpt>
      <trkpt lat="43.21102" lon="2.44772">
        <ele>101</ele>
        <time>2020-05-31T06:05:23Z</time>
      </trkpt>
      <trkpt lat="43.21094" lon="2.44825">
        <ele>101</ele>
        <time>2020-05-31T06:05:31Z</time>
      </trkpt>
      <trkpt lat="43.21092" lon="2.44831">
        <ele>101</ele>
        <time>2020-05-31T06:05:32Z</time>
      </trkpt>
      <trkpt lat="43.21083" lon="2.44882">
        <ele>99</ele>
        <time>2020-05-31T06:05:39Z</time>
      </trkpt>
      <trkpt lat="43.21082" lon="2.44889">
        <ele>99</ele>
        <time>2020-05-31T06:05:40Z</time>
      </trkpt>
      <trkpt lat="43.2107" lon="2.44955">
        <ele>98</ele>
        <time>2020-05-31T06:05:49Z</time>
      </trkpt>
      <trkpt lat="43.21066" lon="2.44999">
        <ele>100</ele>
        <time>2020-05-31T06:05:55Z</time>
      </trkpt>
      <trkpt lat="43.21069" lon="2.45031">
        <ele>101</ele>
        <time>2020-05-31T06:06:00Z</time>
      </trkpt>
      <trkpt lat="43.2107" lon="2.45038">
        <ele>101</ele>
        <time>2020-05-31T06:06:01Z</time>
      </trkpt>
      <trkpt lat="43.21071" lon="2.4505">
        <ele>101</ele>
        <time>2020-05-31T06:06:03Z</time>
      </trkpt>
      <trkpt lat="43.21073" lon="2.45062">
        <ele>101</ele>
        <time>2020-05-31T06:06:05Z</time>
      </trkpt>
      <trkpt lat="43.21076" lon="2.45079">
        <ele>101</ele>
        <time>2020-05-31T06:06:08Z</time>
      </trkpt>
      <trkpt lat="43.21078" lon="2.45096">
        <ele>101</ele>
        <time>2020-05-31T06:06:11Z</time>
      </trkpt>
      <trkpt lat="43.21081" lon="2.45113">
        <ele>100</ele>
        <time>2020-05-31T06:06:14Z</time>
      </trkpt>
      <trkpt lat="43.21081" lon="2.45119">
        <ele>100</ele>
        <time>2020-05-31T06:06:15Z</time>
      </trkpt>
      <trkpt lat="43.21083" lon="2.4513">
        <ele>100</ele>
        <time>2020-05-31T06:06:17Z</time>
      </trkpt>
      <trkpt lat="43.21085" lon="2.45141">
        <ele>100</ele>
        <time>2020-05-31T06:06:19Z</time>
      </trkpt>
      <trkpt lat="43.21086" lon="2.45147">
        <ele>100</ele>
        <time>2020-05-31T06:06:20Z</time>
      </trkpt>
      <trkpt lat="43.21086" lon="2.45152">
        <ele>100</ele>
        <time>2020-05-31T06:06:21Z</time>
      </trkpt>
      <trkpt lat="43.21091" lon="2.45185">
        <ele>101</ele>
        <time>2020-05-31T06:06:27Z</time>
      </trkpt>
      <trkpt lat="43.21094" lon="2.45207">
        <ele>101</ele>
        <time>2020-05-31T06:06:31Z</time>
      </trkpt>
      <trkpt lat="43.21099" lon="2.45244">
        <ele>101</ele>
        <time>2020-05-31T06:06:38Z</time>
      </trkpt>
      <trkpt lat="43.211" lon="2.45265">
        <ele>101</ele>
        <time>2020-05-31T06:06:42Z</time>
      </trkpt>
      <trkpt lat="43.211" lon="2.45281">
        <ele>101</ele>
        <time>2020-05-31T06:06:45Z</time>
      </trkpt>
      <trkpt lat="43.21099" lon="2.45306">
        <ele>102</ele>
        <time>2020-05-31T06:06:50Z</time>
      </trkpt>
      <trkpt lat="43.21098" lon="2.45311">
        <ele>102</ele>
        <time>2020-05-31T06:06:51Z</time>
      </trkpt>
      <trkpt lat="43.21089" lon="2.4534">
        <ele>103</ele>
        <time>2020-05-31T06:06:57Z</time>
      </trkpt>
      <trkpt lat="43.2109" lon="2.4535">
        <ele>103</ele>
        <time>2020-05-31T06:06:59Z</time>
      </trkpt>
      <trkpt lat="43.21093" lon="2.45358">
        <ele>104</ele>
        <time>2020-05-31T06:07:01Z</time>
      </trkpt>
      <trkpt lat="43.2111" lon="2.45376">
        <ele>105</ele>
        <time>2020-05-31T06:07:07Z</time>
      </trkpt>
      <trkpt lat="43.21115" lon="2.45382">
        <ele>105</ele>
        <time>2020-05-31T06:07:09Z</time>
      </trkpt>
      <trkpt lat="43.21126" lon="2.45403">
        <ele>107</ele>
        <time>2020-05-31T06:07:14Z</time>
      </trkpt>
      <trkpt lat="43.21146" lon="2.45445">
        <ele>108</ele>
        <time>2020-05-31T06:07:23Z</time>
      </trkpt>
      <trkpt lat="43.21158" lon="2.45491">
        <ele>107</ele>
        <time>2020-05-31T06:07:31Z</time>
      </trkpt>
      <trkpt lat="43.21163" lon="2.45525">
        <ele>106</ele>
        <time>2020-05-31T06:07:36Z</time>
      </trkpt>
      <trkpt lat="43.21164" lon="2.45547">
        <ele>106</ele>
        <time>2020-05-31T06:07:39Z</time>
      </trkpt>
      <trkpt lat="43.21166" lon="2.45568">
        <ele>105</ele>
        <time>2020-05-31T06:07:42Z</time>
      </trkpt>
      <trkpt lat="43.21166" lon="2.45583">
        <ele>105</ele>
        <time>2020-05-31T06:07:44Z</time>
      </trkpt>
      <trkpt lat="43.21169" lon="2.45618">
        <ele>104</ele>
        <time>2020-05-31T06:07:49Z</time>
      </trkpt>
      <trkpt lat="43.21174" lon="2.45681">
        <ele>103</ele>
        <time>2020-05-31T06:07:58Z</time>
      </trkpt>
      <trkpt lat="43.21174" lon="2.45694">
        <ele>103</ele>
        <time>2020-05-31T06:08:00Z</time>
      </trkpt>
      <trkpt lat="43.21176" lon="2.45726">
        <ele>104</ele>
        <time>2020-05-31T06:08:05Z</time>
      </trkpt>
      <trkpt lat="43.21178" lon="2.45752">
        <ele>103</ele>
        <time>2020-05-31T06:08:09Z</time>
      </trkpt>
      <trkpt lat="43.21186" lon="2.4581">
        <ele>104</ele>
        <time>2020-05-31T06:08:18Z</time>
      </trkpt>
      <trkpt lat="43.21197" lon="2.45877">
        <ele>105</ele>
        <time>2020-05-31T06:08:28Z</time>
      </trkpt>
      <trkpt lat="43.21198" lon="2.45884">
        <ele>105</ele>
        <time>2020-05-31T06:08:29Z</time>
      </trkpt>
      <trkpt lat="43.21203" lon="2.45931">
        <ele>106</ele>
        <time>2020-05-31T06:08:36Z</time>
      </trkpt>
      <trkpt lat="43.2121" lon="2.46011">
        <ele>106</ele>
        <time>2020-05-31T06:08:48Z</time>
      </trkpt>
      <trkpt lat="43.21211" lon="2.46024">
        <ele>106</ele>
        <time>2020-05-31T06:08:50Z</time>
      </trkpt>
      <trkpt lat="43.21218" lon="2.46076">
        <ele>105</ele>
        <time>2020-05-31T06:08:58Z</time>
      </trkpt>
      <trkpt lat="43.21223" lon="2.46095">
        <ele>105</ele>
        <time>2020-05-31T06:09:01Z</time>
      </trkpt>
      <trkpt lat="43.21231" lon="2.46127">
        <ele>106</ele>
        <time>2020-05-31T06:09:06Z</time>
      </trkpt>
      <trkpt lat="43.21252" lon="2.4619">
        <ele>107</ele>
        <time>2020-05-31T06:09:16Z</time>
      </trkpt>
      <trkpt lat="43.21269" lon="2.46256">
        <ele>108</ele>
        <time>2020-05-31T06:09:26Z</time>
      </trkpt>
      <trkpt lat="43.21275" lon="2.46305">
        <ele>107</ele>
        <time>2020-05-31T06:09:33Z</time>
      </trkpt>
      <trkpt lat="43.21276" lon="2.46312">
        <ele>107</ele>
        <time>2020-05-31T06:09:34Z</time>
      </trkpt>
      <trkpt lat="43.21282" lon="2.46372">
        <ele>108</ele>
        <time>2020-05-31T06:09:43Z</time>
      </trkpt>
      <trkpt lat="43.21283" lon="2.46378">
        <ele>108</ele>
        <time>2020-05-31T06:09:44Z</time>
      </trkpt>
      <trkpt lat="43.2129" lon="2.46436">
        <ele>109</ele>
        <time>2020-05-31T06:09:53Z</time>
      </trkpt>
      <trkpt lat="43.21291" lon="2.46443">
        <ele>109</ele>
        <time>2020-05-31T06:09:54Z</time>
      </trkpt>
      <trkpt lat="43.213" lon="2.46487">
        <ele>110</ele>
        <time>2020-05-31T06:10:01Z</time>
      </trkpt>
      <trkpt lat="43.21304" lon="2.46506">
        <ele>110</ele>
        <time>2020-05-31T06:10:04Z</time>
      </trkpt>
      <trkpt lat="43.21314" lon="2.4655">
        <ele>110</ele>
        <time>2020-05-31T06:10:11Z</time>
      </trkpt>
      <trkpt lat="43.21319" lon="2.46573">
        <ele>110</ele>
        <time>2020-05-31T06:10:15Z</time>
      </trkpt>
      <trkpt lat="43.21327" lon="2.4661">
        <ele>111</ele>
        <time>2020-05-31T06:10:21Z</time>
      </trkpt>
      <trkpt lat="43.21331" lon="2.46628">
        <ele>112</ele>
        <time>2020-05-31T06:10:24Z</time>
      </trkpt>
      <trkpt lat="43.21336" lon="2.46652">
        <ele>114</ele>
        <time>2020-05-31T06:10:28Z</time>
      </trkpt>
      <trkpt lat="43.21341" lon="2.46674">
        <ele>116</ele>
        <time>2020-05-31T06:10:32Z</time>
      </trkpt>
      <trkpt lat="43.21343" lon="2.46686">
        <ele>117</ele>
        <time>2020-05-31T06:10:34Z</time>
      </trkpt>
      <trkpt lat="43.2135" lon="2.46719">
        <ele>119</ele>
        <time>2020-05-31T06:10:40Z</time>
      </trkpt>
      <trkpt lat="43.21354" lon="2.46737">
        <ele>120</ele>
        <time>2020-05-31T06:10:43Z</time>
      </trkpt>
      <trkpt lat="43.21358" lon="2.46755">
        <ele>121</ele>
        <time>2020-05-31T06:10:46Z</time>
      </trkpt>
      <trkpt lat="43.21362" lon="2.46771">
        <ele>121</ele>
        <time>2020-05-31T06:10:49Z</time>
      </trkpt>
      <trkpt lat="43.21364" lon="2.46782">
        <ele>121</ele>
        <time>2020-05-31T06:10:51Z</time>
      </trkpt>
      <trkpt lat="43.21369" lon="2.46825">
        <ele>122</ele>
        <time>2020-05-31T06:10:59Z</time>
      </trkpt>
      <trkpt lat="43.21368" lon="2.46851">
        <ele>123</ele>
        <time>2020-05-31T06:11:03Z</time>
      </trkpt>
      <trkpt lat="43.21365" lon="2.4687">
        <ele>123</ele>
        <time>2020-05-31T06:11:06Z</time>
      </trkpt>
      <trkpt lat="43.21364" lon="2.46876">
        <ele>123</ele>
        <time>2020-05-31T06:11:07Z</time>
      </trkpt>
      <trkpt lat="43.21354" lon="2.46912">
        <ele>123</ele>
        <time>2020-05-31T06:11:13Z</time>
      </trkpt>
      <trkpt lat="43.21337" lon="2.46973">
        <ele>122</ele>
        <time>2020-05-31T06:11:23Z</time>
      </trkpt>
      <trkpt lat="43.21323" lon="2.47022">
        <ele>122</ele>
        <time>2020-05-31T06:11:31Z</time>
      </trkpt>
      <trkpt lat="43.21317" lon="2.4704">
        <ele>122</ele>
        <time>2020-05-31T06:11:34Z</time>
      </trkpt>
      <trkpt lat="43.21303" lon="2.4709">
        <ele>122</ele>
        <time>2020-05-31T06:11:42Z</time>
      </trkpt>
      <trkpt lat="43.21297" lon="2.47122">
        <ele>123</ele>
        <time>2020-05-31T06:11:47Z</time>
      </trkpt>
      <trkpt lat="43.21297" lon="2.47136">
        <ele>123</ele>
        <time>2020-05-31T06:11:49Z</time>
      </trkpt>
      <trkpt lat="43.21297" lon="2.47142">
        <ele>124</ele>
        <time>2020-05-31T06:11:50Z</time>
      </trkpt>
      <trkpt lat="43.213" lon="2.47161">
        <ele>124</ele>
        <time>2020-05-31T06:11:53Z</time>
      </trkpt>
      <trkpt lat="43.21304" lon="2.47173">
        <ele>124</ele>
        <time>2020-05-31T06:11:55Z</time>
      </trkpt>
      <trkpt lat="43.21308" lon="2.47185">
        <ele>124</ele>
        <time>2020-05-31T06:11:57Z</time>
      </trkpt>
      <trkpt lat="43.2132" lon="2.47205">
        <ele>123</ele>
        <time>2020-05-31T06:12:01Z</time>
      </trkpt>
      <trkpt lat="43.21323" lon="2.4721">
        <ele>123</ele>
        <time>2020-05-31T06:12:02Z</time>
      </trkpt>
      <trkpt lat="43.21345" lon="2.47226">
        <ele>122</ele>
        <time>2020-05-31T06:12:07Z</time>
      </trkpt>
      <trkpt lat="43.21378" lon="2.47237">
        <ele>121</ele>
        <time>2020-05-31T06:12:14Z</time>
      </trkpt>
      <trkpt lat="43.21414" lon="2.47237">
        <ele>121</ele>
        <time>2020-05-31T06:12:21Z</time>
      </trkpt>
      <trkpt lat="43.21453" lon="2.47234">
        <ele>122</ele>
        <time>2020-05-31T06:12:29Z</time>
      </trkpt>
      <trkpt lat="43.21478" lon="2.47234">
        <ele>123</ele>
        <time>2020-05-31T06:12:34Z</time>
      </trkpt>
      <trkpt lat="43.21488" lon="2.47234">
        <ele>123</ele>
        <time>2020-05-31T06:12:36Z</time>
      </trkpt>
      <trkpt lat="43.21512" lon="2.47236">
        <ele>123</ele>
        <time>2020-05-31T06:12:41Z</time>
      </trkpt>
      <trkpt lat="43.2152" lon="2.47238">
        <ele>123</ele>
        <time>2020-05-31T06:12:43Z</time>
      </trkpt>
      <trkpt lat="43.21525" lon="2.4724">
        <ele>123</ele>
        <time>2020-05-31T06:12:44Z</time>
      </trkpt>
      <trkpt lat="43.21533" lon="2.47242">
        <ele>122</ele>
        <time>2020-05-31T06:12:46Z</time>
      </trkpt>
      <trkpt lat="43.21543" lon="2.47244">
        <ele>122</ele>
        <time>2020-05-31T06:12:48Z</time>
      </trkpt>
      <trkpt lat="43.2157" lon="2.47251">
        <ele>122</ele>
        <time>2020-05-31T06:12:53Z</time>
      </trkpt>
      <trkpt lat="43.2158" lon="2.47254">
        <ele>122</ele>
        <time>2020-05-31T06:12:55Z</time>
      </trkpt>
      <trkpt lat="43.216" lon="2.47262">
        <ele>122</ele>
        <time>2020-05-31T06:12:59Z</time>
      </trkpt>
      <trkpt lat="43.21608" lon="2.47273">
        <ele>121</ele>
        <time>2020-05-31T06:13:01Z</time>
      </trkpt>
      <trkpt lat="43.21613" lon="2.47287">
        <ele>121</ele>
        <time>2020-05-31T06:13:03Z</time>
      </trkpt>
      <trkpt lat="43.21616" lon="2.47301">
        <ele>121</ele>
        <time>2020-05-31T06:13:05Z</time>
      </trkpt>
      <trkpt lat="43.21618" lon="2.47308">
        <ele>121</ele>
        <time>2020-05-31T06:13:06Z</time>
      </trkpt>
      <trkpt lat="43.21622" lon="2.47321">
        <ele>121</ele>
        <time>2020-05-31T06:13:08Z</time>
      </trkpt>
      <trkpt lat="43.21629" lon="2.47332">
        <ele>121</ele>
        <time>2020-05-31T06:13:10Z</time>
      </trkpt>
      <trkpt lat="43.21632" lon="2.47336">
        <ele>121</ele>
        <time>2020-05-31T06:13:11Z</time>
      </trkpt>
      <trkpt lat="43.21636" lon="2.4734">
        <ele>122</ele>
        <time>2020-05-31T06:13:12Z</time>
      </trkpt>
      <trkpt lat="43.21641" lon="2.47343">
        <ele>122</ele>
        <time>2020-05-31T06:13:13Z</time>
      </trkpt>
      <trkpt lat="43.21645" lon="2.47346">
        <ele>122</ele>
        <time>2020-05-31T06:13:14Z</time>
      </trkpt>
      <trkpt lat="43.2165" lon="2.47348">
        <ele>122</ele>
        <time>2020-05-31T06:13:15Z</time>
      </trkpt>
      <trkpt lat="43.21664" lon="2.47354">
        <ele>122</ele>
        <time>2020-05-31T06:13:19Z</time>
      </trkpt>
      <trkpt lat="43.2167" lon="2.47358">
        <ele>122</ele>
        <time>2020-05-31T06:13:21Z</time>
      </trkpt>
      <trkpt lat="43.21674" lon="2.47373">
        <ele>122</ele>
        <time>2020-05-31T06:13:24Z</time>
      </trkpt>
      <trkpt lat="43.21675" lon="2.47411">
        <ele>124</ele>
        <time>2020-05-31T06:13:30Z</time>
      </trkpt>
      <trkpt lat="43.21674" lon="2.47424">
        <ele>124</ele>
        <time>2020-05-31T06:13:32Z</time>
      </trkpt>
      <trkpt lat="43.21674" lon="2.47464">
        <ele>125</ele>
        <time>2020-05-31T06:13:38Z</time>
      </trkpt>
      <trkpt lat="43.21673" lon="2.47482">
        <ele>125</ele>
        <time>2020-05-31T06:13:41Z</time>
      </trkpt>
      <trkpt lat="43.21672" lon="2.47519">
        <ele>124</ele>
        <time>2020-05-31T06:13:47Z</time>
      </trkpt>
      <trkpt lat="43.21673" lon="2.4753">
        <ele>124</ele>
        <time>2020-05-31T06:13:49Z</time>
      </trkpt>
      <trkpt lat="43.21676" lon="2.47553">
        <ele>124</ele>
        <time>2020-05-31T06:13:53Z</time>
      </trkpt>
      <trkpt lat="43.21677" lon="2.47559">
        <ele>124</ele>
        <time>2020-05-31T06:13:54Z</time>
      </trkpt>
      <trkpt lat="43.2168" lon="2.47569">
        <ele>124</ele>
        <time>2020-05-31T06:13:56Z</time>
      </trkpt>
      <trkpt lat="43.21686" lon="2.4759">
        <ele>125</ele>
        <time>2020-05-31T06:14:00Z</time>
      </trkpt>
      <trkpt lat="43.2169" lon="2.47602">
        <ele>124</ele>
        <time>2020-05-31T06:14:02Z</time>
      </trkpt>
      <trkpt lat="43.21693" lon="2.47614">
        <ele>124</ele>
        <time>2020-05-31T06:14:04Z</time>
      </trkpt>
      <trkpt lat="43.21695" lon="2.47626">
        <ele>125</ele>
        <time>2020-05-31T06:14:06Z</time>
      </trkpt>
      <trkpt lat="43.21699" lon="2.47642">
        <ele>125</ele>
        <time>2020-05-31T06:14:09Z</time>
      </trkpt>
      <trkpt lat="43.21701" lon="2.47648">
        <ele>125</ele>
        <time>2020-05-31T06:14:10Z</time>
      </trkpt>
      <trkpt lat="43.21706" lon="2.47682">
        <ele>125</ele>
        <time>2020-05-31T06:14:15Z</time>
      </trkpt>
      <trkpt lat="43.21706" lon="2.47697">
        <ele>124</ele>
        <time>2020-05-31T06:14:17Z</time>
      </trkpt>
      <trkpt lat="43.21706" lon="2.47705">
        <ele>125</ele>
        <time>2020-05-31T06:14:18Z</time>
      </trkpt>
      <trkpt lat="43.21706" lon="2.47719">
        <ele>125</ele>
        <time>2020-05-31T06:14:20Z</time>
      </trkpt>
      <trkpt lat="43.21705" lon="2.47739">
        <ele>125</ele>
        <time>2020-05-31T06:14:23Z</time>
      </trkpt>
      <trkpt lat="43.21705" lon="2.47746">
        <ele>125</ele>
        <time>2020-05-31T06:14:24Z</time>
      </trkpt>
      <trkpt lat="43.217" lon="2.47797">
        <ele>126</ele>
        <time>2020-05-31T06:14:32Z</time>
      </trkpt>
      <trkpt lat="43.21699" lon="2.47808">
        <ele>126</ele>
        <time>2020-05-31T06:14:34Z</time>
      </trkpt>
      <trkpt lat="43.21697" lon="2.47825">
        <ele>125</ele>
        <time>2020-05-31T06:14:37Z</time>
      </trkpt>
      <trkpt lat="43.21697" lon="2.47835">
        <ele>125</ele>
        <time>2020-05-31T06:14:39Z</time>
      </trkpt>
      <trkpt lat="43.217" lon="2.4785">
        <ele>124</ele>
        <time>2020-05-31T06:14:42Z</time>
      </trkpt>
      <trkpt lat="43.21703" lon="2.47855">
        <ele>124</ele>
        <time>2020-05-31T06:14:43Z</time>
      </trkpt>
      <trkpt lat="43.21707" lon="2.47859">
        <ele>124</ele>
        <time>2020-05-31T06:14:44Z</time>
      </trkpt>
      <trkpt lat="43.21715" lon="2.47865">
        <ele>124</ele>
        <time>2020-05-31T06:14:46Z</time>
      </trkpt>
      <trkpt lat="43.21719" lon="2.47867">
        <ele>124</ele>
        <time>2020-05-31T06:14:47Z</time>
      </trkpt>
      <trkpt lat="43.21749" lon="2.47875">
        <ele>124</ele>
        <time>2020-05-31T06:14:53Z</time>
      </trkpt>
      <trkpt lat="43.21764" lon="2.47878">
        <ele>124</ele>
        <time>2020-05-31T06:14:56Z</time>
      </trkpt>
      <trkpt lat="43.21777" lon="2.47883">
        <ele>125</ele>
        <time>2020-05-31T06:14:59Z</time>
      </trkpt>
      <trkpt lat="43.21798" lon="2.47897">
        <ele>126</ele>
        <time>2020-05-31T06:15:04Z</time>
      </trkpt>
      <trkpt lat="43.21802" lon="2.47901">
        <ele>126</ele>
        <time>2020-05-31T06:15:05Z</time>
      </trkpt>
      <trkpt lat="43.21805" lon="2.47906">
        <ele>126</ele>
        <time>2020-05-31T06:15:06Z</time>
      </trkpt>
      <trkpt lat="43.21809" lon="2.47918">
        <ele>126</ele>
        <time>2020-05-31T06:15:08Z</time>
      </trkpt>
      <trkpt lat="43.2181" lon="2.47925">
        <ele>126</ele>
        <time>2020-05-31T06:15:09Z</time>
      </trkpt>
      <trkpt lat="43.21811" lon="2.47939">
        <ele>125</ele>
        <time>2020-05-31T06:15:11Z</time>
      </trkpt>
      <trkpt lat="43.2181" lon="2.47969">
        <ele>125</ele>
        <time>2020-05-31T06:15:15Z</time>
      </trkpt>
      <trkpt lat="43.21809" lon="2.47976">
        <ele>125</ele>
        <time>2020-05-31T06:15:16Z</time>
      </trkpt>
      <trkpt lat="43.21805" lon="2.4799">
        <ele>125</ele>
        <time>2020-05-31T06:15:18Z</time>
      </trkpt>
      <trkpt lat="43.21801" lon="2.48004">
        <ele>124</ele>
        <time>2020-05-31T06:15:20Z</time>
      </trkpt>
      <trkpt lat="43.21797" lon="2.48018">
        <ele>123</ele>
        <time>2020-05-31T06:15:22Z</time>
      </trkpt>
      <trkpt lat="43.21799" lon="2.48033">
        <ele>122</ele>
        <time>2020-05-31T06:15:24Z</time>
      </trkpt>
      <trkpt lat="43.21802" lon="2.48039">
        <ele>122</ele>
        <time>2020-05-31T06:15:25Z</time>
      </trkpt>
      <trkpt lat="43.21806" lon="2.48045">
        <ele>122</ele>
        <time>2020-05-31T06:15:26Z</time>
      </trkpt>
      <trkpt lat="43.2181" lon="2.48049">
        <ele>121</ele>
        <time>2020-05-31T06:15:27Z</time>
      </trkpt>
      <trkpt lat="43.21815" lon="2.4805">
        <ele>121</ele>
        <time>2020-05-31T06:15:28Z</time>
      </trkpt>
      <trkpt lat="43.2182" lon="2.4805">
        <ele>122</ele>
        <time>2020-05-31T06:15:29Z</time>
      </trkpt>
      <trkpt lat="43.21825" lon="2.48048">
        <ele>122</ele>
        <time>2020-05-31T06:15:30Z</time>
      </trkpt>
      <trkpt lat="43.21841" lon="2.48042">
        <ele>123</ele>
        <time>2020-05-31T06:15:33Z</time>
      </trkpt>
      <trkpt lat="43.21852" lon="2.48042">
        <ele>123</ele>
        <time>2020-05-31T06:15:35Z</time>
      </trkpt>
      <trkpt lat="43.21862" lon="2.48047">
        <ele>122</ele>
        <time>2020-05-31T06:15:37Z</time>
      </trkpt>
      <trkpt lat="43.21866" lon="2.48053">
        <ele>122</ele>
        <time>2020-05-31T06:15:38Z</time>
      </trkpt>
      <trkpt lat="43.2187" lon="2.4806">
        <ele>122</ele>
        <time>2020-05-31T06:15:39Z</time>
      </trkpt>
      <trkpt lat="43.21873" lon="2.48077">
        <ele>122</ele>
        <time>2020-05-31T06:15:41Z</time>
      </trkpt>
      <trkpt lat="43.21874" lon="2.48086">
        <ele>121</ele>
        <time>2020-05-31T06:15:42Z</time>
      </trkpt>
      <trkpt lat="43.21874" lon="2.48095">
        <ele>121</ele>
        <time>2020-05-31T06:15:43Z</time>
      </trkpt>
      <trkpt lat="43.21872" lon="2.48121">
        <ele>120</ele>
        <time>2020-05-31T06:15:46Z</time>
      </trkpt>
      <trkpt lat="43.21871" lon="2.48129">
        <ele>119</ele>
        <time>2020-05-31T06:15:47Z</time>
      </trkpt>
      <trkpt lat="43.21871" lon="2.48138">
        <ele>119</ele>
        <time>2020-05-31T06:15:48Z</time>
      </trkpt>
      <trkpt lat="43.21872" lon="2.48156">
        <ele>117</ele>
        <time>2020-05-31T06:15:50Z</time>
      </trkpt>
      <trkpt lat="43.21874" lon="2.48164">
        <ele>117</ele>
        <time>2020-05-31T06:15:51Z</time>
      </trkpt>
      <trkpt lat="43.21878" lon="2.48171">
        <ele>117</ele>
        <time>2020-05-31T06:15:52Z</time>
      </trkpt>
      <trkpt lat="43.21887" lon="2.48185">
        <ele>117</ele>
        <time>2020-05-31T06:15:55Z</time>
      </trkpt>
      <trkpt lat="43.21895" lon="2.48193">
        <ele>117</ele>
        <time>2020-05-31T06:15:58Z</time>
      </trkpt>
      <trkpt lat="43.21899" lon="2.48197">
        <ele>117</ele>
        <time>2020-05-31T06:16:00Z</time>
      </trkpt>
      <trkpt lat="43.21912" lon="2.48209">
        <ele>117</ele>
        <time>2020-05-31T06:16:06Z</time>
      </trkpt>
      <trkpt lat="43.21917" lon="2.48215">
        <ele>117</ele>
        <time>2020-05-31T06:16:08Z</time>
      </trkpt>
      <trkpt lat="43.21931" lon="2.48226">
        <ele>118</ele>
        <time>2020-05-31T06:16:12Z</time>
      </trkpt>
      <trkpt lat="43.21951" lon="2.48242">
        <ele>119</ele>
        <time>2020-05-31T06:16:17Z</time>
      </trkpt>
      <trkpt lat="43.2196" lon="2.48248">
        <ele>120</ele>
        <time>2020-05-31T06:16:19Z</time>
      </trkpt>
      <trkpt lat="43.21965" lon="2.4825">
        <ele>120</ele>
        <time>2020-05-31T06:16:20Z</time>
      </trkpt>
      <trkpt lat="43.21982" lon="2.48254">
        <ele>121</ele>
        <time>2020-05-31T06:16:23Z</time>
      </trkpt>
      <trkpt lat="43.21993" lon="2.48254">
        <ele>121</ele>
        <time>2020-05-31T06:16:25Z</time>
      </trkpt>
      <trkpt lat="43.2201" lon="2.48254">
        <ele>121</ele>
        <time>2020-05-31T06:16:28Z</time>
      </trkpt>
      <trkpt lat="43.22015" lon="2.48253">
        <ele>121</ele>
        <time>2020-05-31T06:16:29Z</time>
      </trkpt>
      <trkpt lat="43.22021" lon="2.48253">
        <ele>121</ele>
        <time>2020-05-31T06:16:30Z</time>
      </trkpt>
      <trkpt lat="43.22028" lon="2.48253">
        <ele>120</ele>
        <time>2020-05-31T06:16:31Z</time>
      </trkpt>
      <trkpt lat="43.2205" lon="2.48253">
        <ele>118</ele>
        <time>2020-05-31T06:16:34Z</time>
      </trkpt>
      <trkpt lat="43.22057" lon="2.48256">
        <ele>117</ele>
        <time>2020-05-31T06:16:35Z</time>
      </trkpt>
      <trkpt lat="43.22078" lon="2.48268">
        <ele>116</ele>
        <time>2020-05-31T06:16:38Z</time>
      </trkpt>
      <trkpt lat="43.22084" lon="2.48275">
        <ele>115</ele>
        <time>2020-05-31T06:16:39Z</time>
      </trkpt>
      <trkpt lat="43.2209" lon="2.48283">
        <ele>115</ele>
        <time>2020-05-31T06:16:40Z</time>
      </trkpt>
      <trkpt lat="43.22094" lon="2.48292">
        <ele>114</ele>
        <time>2020-05-31T06:16:41Z</time>
      </trkpt>
      <trkpt lat="43.22099" lon="2.48312">
        <ele>113</ele>
        <time>2020-05-31T06:16:43Z</time>
      </trkpt>
      <trkpt lat="43.22104" lon="2.48344">
        <ele>111</ele>
        <time>2020-05-31T06:16:46Z</time>
      </trkpt>
      <trkpt lat="43.22108" lon="2.48376">
        <ele>110</ele>
        <time>2020-05-31T06:16:49Z</time>
      </trkpt>
      <trkpt lat="43.22117" lon="2.48446">
        <ele>108</ele>
        <time>2020-05-31T06:16:55Z</time>
      </trkpt>
      <trkpt lat="43.22118" lon="2.48458">
        <ele>108</ele>
        <time>2020-05-31T06:16:56Z</time>
      </trkpt>
      <trkpt lat="43.2212" lon="2.48469">
        <ele>107</ele>
        <time>2020-05-31T06:16:57Z</time>
      </trkpt>
      <trkpt lat="43.22123" lon="2.48481">
        <ele>106</ele>
        <time>2020-05-31T06:16:58Z</time>
      </trkpt>
      <trkpt lat="43.22125" lon="2.48492">
        <ele>106</ele>
        <time>2020-05-31T06:16:59Z</time>
      </trkpt>
      <trkpt lat="43.22129" lon="2.48504">
        <ele>105</ele>
        <time>2020-05-31T06:17:00Z</time>
      </trkpt>
      <trkpt lat="43.22132" lon="2.48516">
        <ele>104</ele>
        <time>2020-05-31T06:17:01Z</time>
      </trkpt>
      <trkpt lat="43.22141" lon="2.48538">
        <ele>102</ele>
        <time>2020-05-31T06:17:03Z</time>
      </trkpt>
      <trkpt lat="43.22146" lon="2.48549">
        <ele>101</ele>
        <time>2020-05-31T06:17:04Z</time>
      </trkpt>
      <trkpt lat="43.22151" lon="2.4856">
        <ele>100</ele>
        <time>2020-05-31T06:17:05Z</time>
      </trkpt>
      <trkpt lat="43.22157" lon="2.4857">
        <ele>100</ele>
        <time>2020-05-31T06:17:06Z</time>
      </trkpt>
      <trkpt lat="43.22162" lon="2.48581">
        <ele>100</ele>
        <time>2020-05-31T06:17:07Z</time>
      </trkpt>
      <trkpt lat="43.22182" lon="2.48623">
        <ele>99</ele>
        <time>2020-05-31T06:17:11Z</time>
      </trkpt>
      <trkpt lat="43.22195" lon="2.48656">
        <ele>99</ele>
        <time>2020-05-31T06:17:14Z</time>
      </trkpt>
      <trkpt lat="43.22198" lon="2.48668">
        <ele>99</ele>
        <time>2020-05-31T06:17:15Z</time>
      </trkpt>
      <trkpt lat="43.22207" lon="2.48705">
        <ele>99</ele>
        <time>2020-05-31T06:17:18Z</time>
      </trkpt>
      <trkpt lat="43.22213" lon="2.4873">
        <ele>99</ele>
        <time>2020-05-31T06:17:20Z</time>
      </trkpt>
      <trkpt lat="43.22218" lon="2.48754">
        <ele>99</ele>
        <time>2020-05-31T06:17:22Z</time>
      </trkpt>
      <trkpt lat="43.22225" lon="2.48787">
        <ele>99</ele>
        <time>2020-05-31T06:17:25Z</time>
      </trkpt>
      <trkpt lat="43.22227" lon="2.48798">
        <ele>99</ele>
        <time>2020-05-31T06:17:26Z</time>
      </trkpt>
      <trkpt lat="43.22232" lon="2.48817">
        <ele>99</ele>
        <time>2020-05-31T06:17:28Z</time>
      </trkpt>
      <trkpt lat="43.22236" lon="2.48837">
        <ele>98</ele>
        <time>2020-05-31T06:17:30Z</time>
      </trkpt>
      <trkpt lat="43.22238" lon="2.48847">
        <ele>98</ele>
        <time>2020-05-31T06:17:31Z</time>
      </trkpt>
      <trkpt lat="43.22245" lon="2.48877">
        <ele>98</ele>
        <time>2020-05-31T06:17:34Z</time>
      </trkpt>
      <trkpt lat="43.22247" lon="2.48887">
        <ele>97</ele>
        <time>2020-05-31T06:17:35Z</time>
      </trkpt>
      <trkpt lat="43.22254" lon="2.48916">
        <ele>96</ele>
        <time>2020-05-31T06:17:38Z</time>
      </trkpt>
      <trkpt lat="43.22256" lon="2.48926">
        <ele>95</ele>
        <time>2020-05-31T06:17:39Z</time>
      </trkpt>
      <trkpt lat="43.22265" lon="2.48966">
        <ele>94</ele>
        <time>2020-05-31T06:17:43Z</time>
      </trkpt>
      <trkpt lat="43.22268" lon="2.48977">
        <ele>94</ele>
        <time>2020-05-31T06:17:44Z</time>
      </trkpt>
      <trkpt lat="43.22284" lon="2.4905">
        <ele>95</ele>
        <time>2020-05-31T06:17:51Z</time>
      </trkpt>
      <trkpt lat="43.22287" lon="2.4906">
        <ele>94</ele>
        <time>2020-05-31T06:17:52Z</time>
      </trkpt>
      <trkpt lat="43.22297" lon="2.49078">
        <ele>94</ele>
        <time>2020-05-31T06:17:54Z</time>
      </trkpt>
      <trkpt lat="43.22303" lon="2.49086">
        <ele>94</ele>
        <time>2020-05-31T06:17:55Z</time>
      </trkpt>
      <trkpt lat="43.2233" lon="2.49115">
        <ele>94</ele>
        <time>2020-05-31T06:17:59Z</time>
      </trkpt>
      <trkpt lat="43.22337" lon="2.49122">
        <ele>94</ele>
        <time>2020-05-31T06:18:00Z</time>
      </trkpt>
      <trkpt lat="43.2235" lon="2.49137">
        <ele>94</ele>
        <time>2020-05-31T06:18:02Z</time>
      </trkpt>
      <trkpt lat="43.22362" lon="2.49151">
        <ele>93</ele>
        <time>2020-05-31T06:18:04Z</time>
      </trkpt>
      <trkpt lat="43.22374" lon="2.49164">
        <ele>93</ele>
        <time>2020-05-31T06:18:06Z</time>
      </trkpt>
      <trkpt lat="43.22418" lon="2.49213">
        <ele>93</ele>
        <time>2020-05-31T06:18:13Z</time>
      </trkpt>
      <trkpt lat="43.2243" lon="2.49227">
        <ele>93</ele>
        <time>2020-05-31T06:18:15Z</time>
      </trkpt>
      <trkpt lat="43.22443" lon="2.49242">
        <ele>93</ele>
        <time>2020-05-31T06:18:17Z</time>
      </trkpt>
      <trkpt lat="43.22449" lon="2.49249">
        <ele>94</ele>
        <time>2020-05-31T06:18:18Z</time>
      </trkpt>
      <trkpt lat="43.22461" lon="2.49263">
        <ele>94</ele>
        <time>2020-05-31T06:18:20Z</time>
      </trkpt>
      <trkpt lat="43.22473" lon="2.49277">
        <ele>95</ele>
        <time>2020-05-31T06:18:22Z</time>
      </trkpt>
      <trkpt lat="43.22479" lon="2.49284">
        <ele>95</ele>
        <time>2020-05-31T06:18:23Z</time>
      </trkpt>
      <trkpt lat="43.225" lon="2.49315">
        <ele>99</ele>
        <time>2020-05-31T06:18:27Z</time>
      </trkpt>
      <trkpt lat="43.22505" lon="2.49324">
        <ele>100</ele>
        <time>2020-05-31T06:18:28Z</time>
      </trkpt>
      <trkpt lat="43.22527" lon="2.49363">
        <ele>102</ele>
        <time>2020-05-31T06:18:33Z</time>
      </trkpt>
      <trkpt lat="43.22535" lon="2.49377">
        <ele>102</ele>
        <time>2020-05-31T06:18:35Z</time>
      </trkpt>
      <trkpt lat="43.22541" lon="2.49389">
        <ele>102</ele>
        <time>2020-05-31T06:18:37Z</time>
      </trkpt>
      <trkpt lat="43.22543" lon="2.49395">
        <ele>102</ele>
        <time>2020-05-31T06:18:38Z</time>
      </trkpt>
      <trkpt lat="43.22545" lon="2.494">
        <ele>102</ele>
        <time>2020-05-31T06:18:39Z</time>
      </trkpt>
      <trkpt lat="43.22548" lon="2.49412">
        <ele>102</ele>
        <time>2020-05-31T06:18:41Z</time>
      </trkpt>
      <trkpt lat="43.22552" lon="2.49433">
        <ele>101</ele>
        <time>2020-05-31T06:18:44Z</time>
      </trkpt>
      <trkpt lat="43.22554" lon="2.4944">
        <ele>101</ele>
        <time>2020-05-31T06:18:45Z</time>
      </trkpt>
      <trkpt lat="43.2256" lon="2.49466">
        <ele>98</ele>
        <time>2020-05-31T06:18:48Z</time>
      </trkpt>
      <trkpt lat="43.22567" lon="2.49493">
        <ele>96</ele>
        <time>2020-05-31T06:18:51Z</time>
      </trkpt>
      <trkpt lat="43.2258" lon="2.49541">
        <ele>94</ele>
        <time>2020-05-31T06:18:56Z</time>
      </trkpt>
      <trkpt lat="43.22585" lon="2.49562">
        <ele>95</ele>
        <time>2020-05-31T06:18:58Z</time>
      </trkpt>
      <trkpt lat="43.22587" lon="2.49572">
        <ele>95</ele>
        <time>2020-05-31T06:18:59Z</time>
      </trkpt>
      <trkpt lat="43.22587" lon="2.49594">
        <ele>94</ele>
        <time>2020-05-31T06:19:01Z</time>
      </trkpt>
      <trkpt lat="43.22582" lon="2.49615">
        <ele>93</ele>
        <time>2020-05-31T06:19:03Z</time>
      </trkpt>
      <trkpt lat="43.22577" lon="2.49624">
        <ele>93</ele>
        <time>2020-05-31T06:19:04Z</time>
      </trkpt>
      <trkpt lat="43.22572" lon="2.49633">
        <ele>93</ele>
        <time>2020-05-31T06:19:05Z</time>
      </trkpt>
      <trkpt lat="43.22553" lon="2.49668">
        <ele>91</ele>
        <time>2020-05-31T06:19:09Z</time>
      </trkpt>
      <trkpt lat="43.2255" lon="2.49677">
        <ele>91</ele>
        <time>2020-05-31T06:19:10Z</time>
      </trkpt>
      <trkpt lat="43.22547" lon="2.49687">
        <ele>91</ele>
        <time>2020-05-31T06:19:11Z</time>
      </trkpt>
      <trkpt lat="43.22545" lon="2.49696">
        <ele>90</ele>
        <time>2020-05-31T06:19:12Z</time>
      </trkpt>
      <trkpt lat="43.22542" lon="2.49705">
        <ele>90</ele>
        <time>2020-05-31T06:19:13Z</time>
      </trkpt>
      <trkpt lat="43.22538" lon="2.49723">
        <ele>89</ele>
        <time>2020-05-31T06:19:15Z</time>
      </trkpt>
      <trkpt lat="43.22535" lon="2.49732">
        <ele>89</ele>
        <time>2020-05-31T06:19:16Z</time>
      </trkpt>
      <trkpt lat="43.22516" lon="2.49799">
        <ele>88</ele>
        <time>2020-05-31T06:19:24Z</time>
      </trkpt>
      <trkpt lat="43.2251" lon="2.49814">
        <ele>87</ele>
        <time>2020-05-31T06:19:26Z</time>
      </trkpt>
      <trkpt lat="43.22499" lon="2.49845">
        <ele>88</ele>
        <time>2020-05-31T06:19:30Z</time>
      </trkpt>
      <trkpt lat="43.22495" lon="2.49861">
        <ele>88</ele>
        <time>2020-05-31T06:19:32Z</time>
      </trkpt>
      <trkpt lat="43.22487" lon="2.49893">
        <ele>89</ele>
        <time>2020-05-31T06:19:36Z</time>
      </trkpt>
      <trkpt lat="43.22483" lon="2.49908">
        <ele>89</ele>
        <time>2020-05-31T06:19:38Z</time>
      </trkpt>
      <trkpt lat="43.22475" lon="2.49931">
        <ele>88</ele>
        <time>2020-05-31T06:19:41Z</time>
      </trkpt>
      <trkpt lat="43.22471" lon="2.49938">
        <ele>87</ele>
        <time>2020-05-31T06:19:42Z</time>
      </trkpt>
      <trkpt lat="43.22468" lon="2.49945">
        <ele>86</ele>
        <time>2020-05-31T06:19:43Z</time>
      </trkpt>
      <trkpt lat="43.22461" lon="2.49959">
        <ele>86</ele>
        <time>2020-05-31T06:19:45Z</time>
      </trkpt>
      <trkpt lat="43.22457" lon="2.49966">
        <ele>86</ele>
        <time>2020-05-31T06:19:46Z</time>
      </trkpt>
      <trkpt lat="43.22446" lon="2.49986">
        <ele>86</ele>
        <time>2020-05-31T06:19:49Z</time>
      </trkpt>
      <trkpt lat="43.2243" lon="2.50032">
        <ele>87</ele>
        <time>2020-05-31T06:19:55Z</time>
      </trkpt>
      <trkpt lat="43.22414" lon="2.50079">
        <ele>86</ele>
        <time>2020-05-31T06:20:01Z</time>
      </trkpt>
      <trkpt lat="43.22405" lon="2.50093">
        <ele>86</ele>
        <time>2020-05-31T06:20:03Z</time>
      </trkpt>
      <trkpt lat="43.22401" lon="2.50099">
        <ele>86</ele>
        <time>2020-05-31T06:20:04Z</time>
      </trkpt>
      <trkpt lat="43.22396" lon="2.50104">
        <ele>86</ele>
        <time>2020-05-31T06:20:05Z</time>
      </trkpt>
      <trkpt lat="43.22391" lon="2.5011">
        <ele>86</ele>
        <time>2020-05-31T06:20:06Z</time>
      </trkpt>
      <trkpt lat="43.2238" lon="2.5012">
        <ele>85</ele>
        <time>2020-05-31T06:20:08Z</time>
      </trkpt>
      <trkpt lat="43.22349" lon="2.5015">
        <ele>85</ele>
        <time>2020-05-31T06:20:14Z</time>
      </trkpt>
      <trkpt lat="43.22338" lon="2.5016">
        <ele>85</ele>
        <time>2020-05-31T06:20:16Z</time>
      </trkpt>
      <trkpt lat="43.22333" lon="2.50165">
        <ele>85</ele>
        <time>2020-05-31T06:20:17Z</time>
      </trkpt>
      <trkpt lat="43.22303" lon="2.50199">
        <ele>84</ele>
        <time>2020-05-31T06:20:23Z</time>
      </trkpt>
      <trkpt lat="43.22285" lon="2.50235">
        <ele>84</ele>
        <time>2020-05-31T06:20:28Z</time>
      </trkpt>
      <trkpt lat="43.22262" lon="2.50288">
        <ele>85</ele>
        <time>2020-05-31T06:20:35Z</time>
      </trkpt>
      <trkpt lat="43.22258" lon="2.50296">
        <ele>85</ele>
        <time>2020-05-31T06:20:36Z</time>
      </trkpt>
      <trkpt lat="43.22251" lon="2.50311">
        <ele>85</ele>
        <time>2020-05-31T06:20:38Z</time>
      </trkpt>
      <trkpt lat="43.22242" lon="2.50325">
        <ele>84</ele>
        <time>2020-05-31T06:20:40Z</time>
      </trkpt>
      <trkpt lat="43.22238" lon="2.50331">
        <ele>84</ele>
        <time>2020-05-31T06:20:41Z</time>
      </trkpt>
      <trkpt lat="43.22201" lon="2.50379">
        <ele>83</ele>
        <time>2020-05-31T06:20:49Z</time>
      </trkpt>
      <trkpt lat="43.22161" lon="2.50434">
        <ele>84</ele>
        <time>2020-05-31T06:20:58Z</time>
      </trkpt>
      <trkpt lat="43.22156" lon="2.50441">
        <ele>84</ele>
        <time>2020-05-31T06:20:59Z</time>
      </trkpt>
      <trkpt lat="43.22134" lon="2.5048">
        <ele>83</ele>
        <time>2020-05-31T06:21:05Z</time>
      </trkpt>
      <trkpt lat="43.22127" lon="2.50493">
        <ele>83</ele>
        <time>2020-05-31T06:21:07Z</time>
      </trkpt>
      <trkpt lat="43.22112" lon="2.50517">
        <ele>83</ele>
        <time>2020-05-31T06:21:11Z</time>
      </trkpt>
      <trkpt lat="43.22097" lon="2.50538">
        <ele>84</ele>
        <time>2020-05-31T06:21:15Z</time>
      </trkpt>
      <trkpt lat="43.22083" lon="2.50558">
        <ele>84</ele>
        <time>2020-05-31T06:21:19Z</time>
      </trkpt>
      <trkpt lat="43.22076" lon="2.50568">
        <ele>84</ele>
        <time>2020-05-31T06:21:21Z</time>
      </trkpt>
      <trkpt lat="43.22069" lon="2.50577">
        <ele>84</ele>
        <time>2020-05-31T06:21:23Z</time>
      </trkpt>
      <trkpt lat="43.22058" lon="2.50592">
        <ele>84</ele>
        <time>2020-05-31T06:21:26Z</time>
      </trkpt>
      <trkpt lat="43.22054" lon="2.50597">
        <ele>85</ele>
        <time>2020-05-31T06:21:27Z</time>
      </trkpt>
      <trkpt lat="43.22046" lon="2.50614">
        <ele>84</ele>
        <time>2020-05-31T06:21:30Z</time>
      </trkpt>
      <trkpt lat="43.22043" lon="2.5062">
        <ele>84</ele>
        <time>2020-05-31T06:21:31Z</time>
      </trkpt>
      <trkpt lat="43.22041" lon="2.50627">
        <ele>84</ele>
        <time>2020-05-31T06:21:32Z</time>
      </trkpt>
      <trkpt lat="43.22029" lon="2.50666">
        <ele>84</ele>
        <time>2020-05-31T06:21:38Z</time>
      </trkpt>
      <trkpt lat="43.22027" lon="2.50673">
        <ele>84</ele>
        <time>2020-05-31T06:21:39Z</time>
      </trkpt>
      <trkpt lat="43.22022" lon="2.50693">
        <ele>83</ele>
        <time>2020-05-31T06:21:42Z</time>
      </trkpt>
      <trkpt lat="43.22019" lon="2.50707">
        <ele>83</ele>
        <time>2020-05-31T06:21:44Z</time>
      </trkpt>
      <trkpt lat="43.22015" lon="2.5072">
        <ele>83</ele>
        <time>2020-05-31T06:21:46Z</time>
      </trkpt>
      <trkpt lat="43.22013" lon="2.50727">
        <ele>83</ele>
        <time>2020-05-31T06:21:47Z</time>
      </trkpt>
      <trkpt lat="43.22005" lon="2.50754">
        <ele>83</ele>
        <time>2020-05-31T06:21:51Z</time>
      </trkpt>
      <trkpt lat="43.21999" lon="2.50767">
        <ele>84</ele>
        <time>2020-05-31T06:21:53Z</time>
      </trkpt>
      <trkpt lat="43.21991" lon="2.50787">
        <ele>84</ele>
        <time>2020-05-31T06:21:56Z</time>
      </trkpt>
      <trkpt lat="43.21988" lon="2.50793">
        <ele>84</ele>
        <time>2020-05-31T06:21:57Z</time>
      </trkpt>
      <trkpt lat="43.21985" lon="2.508">
        <ele>84</ele>
        <time>2020-05-31T06:21:58Z</time>
      </trkpt>
      <trkpt lat="43.21983" lon="2.50805">
        <ele>84</ele>
        <time>2020-05-31T06:21:59Z</time>
      </trkpt>
      <trkpt lat="43.2198" lon="2.5081">
        <ele>84</ele>
        <time>2020-05-31T06:22:00Z</time>
      </trkpt>
      <trkpt lat="43.21972" lon="2.50824">
        <ele>83</ele>
        <time>2020-05-31T06:22:03Z</time>
      </trkpt>
      <trkpt lat="43.2197" lon="2.5083">
        <ele>83</ele>
        <time>2020-05-31T06:22:04Z</time>
      </trkpt>
      <trkpt lat="43.21969" lon="2.50835">
        <ele>82</ele>
        <time>2020-05-31T06:22:05Z</time>
      </trkpt>
      <trkpt lat="43.21969" lon="2.50848">
        <ele>82</ele>
        <time>2020-05-31T06:22:07Z</time>
      </trkpt>
      <trkpt lat="43.21968" lon="2.50861">
        <ele>81</ele>
        <time>2020-05-31T06:22:09Z</time>
      </trkpt>
      <trkpt lat="43.21961" lon="2.50895">
        <ele>80</ele>
        <time>2020-05-31T06:22:14Z</time>
      </trkpt>
      <trkpt lat="43.21954" lon="2.50929">
        <ele>80</ele>
        <time>2020-05-31T06:22:20Z</time>
      </trkpt>
      <trkpt lat="43.21953" lon="2.50943">
        <ele>80</ele>
        <time>2020-05-31T06:22:22Z</time>
      </trkpt>
      <trkpt lat="43.21953" lon="2.5095">
        <ele>80</ele>
        <time>2020-05-31T06:22:23Z</time>
      </trkpt>
      <trkpt lat="43.21952" lon="2.50964">
        <ele>80</ele>
        <time>2020-05-31T06:22:25Z</time>
      </trkpt>
      <trkpt lat="43.21951" lon="2.50983">
        <ele>79</ele>
        <time>2020-05-31T06:22:28Z</time>
      </trkpt>
      <trkpt lat="43.21947" lon="2.50995">
        <ele>79</ele>
        <time>2020-05-31T06:22:30Z</time>
      </trkpt>
      <trkpt lat="43.21932" lon="2.5103">
        <ele>80</ele>
        <time>2020-05-31T06:22:36Z</time>
      </trkpt>
      <trkpt lat="43.21925" lon="2.51051">
        <ele>80</ele>
        <time>2020-05-31T06:22:41Z</time>
      </trkpt>
      <trkpt lat="43.21925" lon="2.51062">
        <ele>80</ele>
        <time>2020-05-31T06:22:45Z</time>
      </trkpt>
      <trkpt lat="43.21929" lon="2.51077">
        <ele>80</ele>
        <time>2020-05-31T06:22:48Z</time>
      </trkpt>
      <trkpt lat="43.21931" lon="2.51083">
        <ele>79</ele>
        <time>2020-05-31T06:22:49Z</time>
      </trkpt>
      <trkpt lat="43.21932" lon="2.51089">
        <ele>79</ele>
        <time>2020-05-31T06:22:50Z</time>
      </trkpt>
      <trkpt lat="43.21943" lon="2.51119">
        <ele>79</ele>
        <time>2020-05-31T06:22:55Z</time>
      </trkpt>
      <trkpt lat="43.21945" lon="2.51125">
        <ele>78</ele>
        <time>2020-05-31T06:22:56Z</time>
      </trkpt>
      <trkpt lat="43.21949" lon="2.51135">
        <ele>78</ele>
        <time>2020-05-31T06:22:58Z</time>
      </trkpt>
      <trkpt lat="43.21956" lon="2.51153">
        <ele>77</ele>
        <time>2020-05-31T06:23:01Z</time>
      </trkpt>
      <trkpt lat="43.21963" lon="2.51171">
        <ele>77</ele>
        <time>2020-05-31T06:23:04Z</time>
      </trkpt>
      <trkpt lat="43.2197" lon="2.51191">
        <ele>77</ele>
        <time>2020-05-31T06:23:07Z</time>
      </trkpt>
      <trkpt lat="43.21973" lon="2.51198">
        <ele>76</ele>
        <time>2020-05-31T06:23:08Z</time>
      </trkpt>
      <trkpt lat="43.21985" lon="2.51226">
        <ele>77</ele>
        <time>2020-05-31T06:23:12Z</time>
      </trkpt>
      <trkpt lat="43.21994" lon="2.51248">
        <ele>77</ele>
        <time>2020-05-31T06:23:15Z</time>
      </trkpt>
      <trkpt lat="43.22" lon="2.51264">
        <ele>76</ele>
        <time>2020-05-31T06:23:17Z</time>
      </trkpt>
      <trkpt lat="43.22004" lon="2.5128">
        <ele>76</ele>
        <time>2020-05-31T06:23:19Z</time>
      </trkpt>
      <trkpt lat="43.22008" lon="2.51296">
        <ele>77</ele>
        <time>2020-05-31T06:23:21Z</time>
      </trkpt>
      <trkpt lat="43.22016" lon="2.51353">
        <ele>77</ele>
        <time>2020-05-31T06:23:28Z</time>
      </trkpt>
      <trkpt lat="43.22022" lon="2.51402">
        <ele>75</ele>
        <time>2020-05-31T06:23:34Z</time>
      </trkpt>
      <trkpt lat="43.22025" lon="2.51419">
        <ele>75</ele>
        <time>2020-05-31T06:23:36Z</time>
      </trkpt>
      <trkpt lat="43.22028" lon="2.51435">
        <ele>74</ele>
        <time>2020-05-31T06:23:38Z</time>
      </trkpt>
      <trkpt lat="43.2203" lon="2.51444">
        <ele>74</ele>
        <time>2020-05-31T06:23:39Z</time>
      </trkpt>
      <trkpt lat="43.22041" lon="2.51477">
        <ele>74</ele>
        <time>2020-05-31T06:23:43Z</time>
      </trkpt>
      <trkpt lat="43.2206" lon="2.51525">
        <ele>74</ele>
        <time>2020-05-31T06:23:49Z</time>
      </trkpt>
      <trkpt lat="43.22069" lon="2.51549">
        <ele>73</ele>
        <time>2020-05-31T06:23:52Z</time>
      </trkpt>
      <trkpt lat="43.22075" lon="2.51566">
        <ele>73</ele>
        <time>2020-05-31T06:23:54Z</time>
      </trkpt>
      <trkpt lat="43.22101" lon="2.51636">
        <ele>72</ele>
        <time>2020-05-31T06:24:03Z</time>
      </trkpt>
      <trkpt lat="43.22125" lon="2.51687">
        <ele>72</ele>
        <time>2020-05-31T06:24:10Z</time>
      </trkpt>
      <trkpt lat="43.22134" lon="2.517">
        <ele>71</ele>
        <time>2020-05-31T06:24:12Z</time>
      </trkpt>
      <trkpt lat="43.22162" lon="2.51749">
        <ele>71</ele>
        <time>2020-05-31T06:24:19Z</time>
      </trkpt>
      <trkpt lat="43.22173" lon="2.51772">
        <ele>71</ele>
        <time>2020-05-31T06:24:22Z</time>
      </trkpt>
      <trkpt lat="43.22179" lon="2.51788">
        <ele>71</ele>
        <time>2020-05-31T06:24:24Z</time>
      </trkpt>
      <trkpt lat="43.22186" lon="2.51804">
        <ele>71</ele>
        <time>2020-05-31T06:24:26Z</time>
      </trkpt>
      <trkpt lat="43.22207" lon="2.51861">
        <ele>71</ele>
        <time>2020-05-31T06:24:33Z</time>
      </trkpt>
      <trkpt lat="43.22216" lon="2.51885">
        <ele>71</ele>
        <time>2020-05-31T06:24:36Z</time>
      </trkpt>
      <trkpt lat="43.22223" lon="2.519">
        <ele>70</ele>
        <time>2020-05-31T06:24:38Z</time>
      </trkpt>
      <trkpt lat="43.22226" lon="2.51908">
        <ele>70</ele>
        <time>2020-05-31T06:24:39Z</time>
      </trkpt>
      <trkpt lat="43.22241" lon="2.51948">
        <ele>68</ele>
        <time>2020-05-31T06:24:44Z</time>
      </trkpt>
      <trkpt lat="43.22247" lon="2.51965">
        <ele>68</ele>
        <time>2020-05-31T06:24:46Z</time>
      </trkpt>
      <trkpt lat="43.2225" lon="2.51973">
        <ele>68</ele>
        <time>2020-05-31T06:24:47Z</time>
      </trkpt>
      <trkpt lat="43.22263" lon="2.52006">
        <ele>68</ele>
        <time>2020-05-31T06:24:51Z</time>
      </trkpt>
      <trkpt lat="43.22275" lon="2.52038">
        <ele>69</ele>
        <time>2020-05-31T06:24:55Z</time>
      </trkpt>
      <trkpt lat="43.2228" lon="2.52055">
        <ele>69</ele>
        <time>2020-05-31T06:24:57Z</time>
      </trkpt>
      <trkpt lat="43.2229" lon="2.52097">
        <ele>69</ele>
        <time>2020-05-31T06:25:02Z</time>
      </trkpt>
      <trkpt lat="43.22297" lon="2.52131">
        <ele>68</ele>
        <time>2020-05-31T06:25:06Z</time>
      </trkpt>
      <trkpt lat="43.22311" lon="2.52189">
        <ele>67</ele>
        <time>2020-05-31T06:25:13Z</time>
      </trkpt>
      <trkpt lat="43.22328" lon="2.52236">
        <ele>66</ele>
        <time>2020-05-31T06:25:19Z</time>
      </trkpt>
      <trkpt lat="43.22361" lon="2.52296">
        <ele>65</ele>
        <time>2020-05-31T06:25:27Z</time>
      </trkpt>
      <trkpt lat="43.22366" lon="2.52303">
        <ele>65</ele>
        <time>2020-05-31T06:25:28Z</time>
      </trkpt>
      <trkpt lat="43.22374" lon="2.52319">
        <ele>65</ele>
        <time>2020-05-31T06:25:30Z</time>
      </trkpt>
      <trkpt lat="43.22379" lon="2.52327">
        <ele>65</ele>
        <time>2020-05-31T06:25:31Z</time>
      </trkpt>
      <trkpt lat="43.22392" lon="2.5235">
        <ele>64</ele>
        <time>2020-05-31T06:25:34Z</time>
      </trkpt>
      <trkpt lat="43.2241" lon="2.52381">
        <ele>64</ele>
        <time>2020-05-31T06:25:38Z</time>
      </trkpt>
      <trkpt lat="43.22428" lon="2.52412">
        <ele>63</ele>
        <time>2020-05-31T06:25:42Z</time>
      </trkpt>
      <trkpt lat="43.22437" lon="2.52427">
        <ele>63</ele>
        <time>2020-05-31T06:25:44Z</time>
      </trkpt>
      <trkpt lat="43.22442" lon="2.52435">
        <ele>63</ele>
        <time>2020-05-31T06:25:45Z</time>
      </trkpt>
      <trkpt lat="43.2245" lon="2.5245">
        <ele>62</ele>
        <time>2020-05-31T06:25:47Z</time>
      </trkpt>
      <trkpt lat="43.22468" lon="2.52479">
        <ele>62</ele>
        <time>2020-05-31T06:25:51Z</time>
      </trkpt>
      <trkpt lat="43.22476" lon="2.52493">
        <ele>62</ele>
        <time>2020-05-31T06:25:53Z</time>
      </trkpt>
      <trkpt lat="43.22493" lon="2.52523">
        <ele>62</ele>
        <time>2020-05-31T06:25:57Z</time>
      </trkpt>
      <trkpt lat="43.22515" lon="2.52559">
        <ele>62</ele>
        <time>2020-05-31T06:26:02Z</time>
      </trkpt>
      <trkpt lat="43.22524" lon="2.52574">
        <ele>62</ele>
        <time>2020-05-31T06:26:04Z</time>
      </trkpt>
      <trkpt lat="43.22536" lon="2.52596">
        <ele>63</ele>
        <time>2020-05-31T06:26:07Z</time>
      </trkpt>
      <trkpt lat="43.22545" lon="2.5261">
        <ele>63</ele>
        <time>2020-05-31T06:26:09Z</time>
      </trkpt>
      <trkpt lat="43.22565" lon="2.52645">
        <ele>62</ele>
        <time>2020-05-31T06:26:14Z</time>
      </trkpt>
      <trkpt lat="43.22569" lon="2.52652">
        <ele>62</ele>
        <time>2020-05-31T06:26:15Z</time>
      </trkpt>
      <trkpt lat="43.22573" lon="2.52659">
        <ele>62</ele>
        <time>2020-05-31T06:26:16Z</time>
      </trkpt>
      <trkpt lat="43.22577" lon="2.52666">
        <ele>62</ele>
        <time>2020-05-31T06:26:17Z</time>
      </trkpt>
      <trkpt lat="43.22612" lon="2.52727">
        <ele>61</ele>
        <time>2020-05-31T06:26:26Z</time>
      </trkpt>
      <trkpt lat="43.22624" lon="2.52746">
        <ele>61</ele>
        <time>2020-05-31T06:26:29Z</time>
      </trkpt>
      <trkpt lat="43.22654" lon="2.52797">
        <ele>59</ele>
        <time>2020-05-31T06:26:37Z</time>
      </trkpt>
      <trkpt lat="43.22662" lon="2.5281">
        <ele>59</ele>
        <time>2020-05-31T06:26:39Z</time>
      </trkpt>
      <trkpt lat="43.22665" lon="2.52817">
        <ele>59</ele>
        <time>2020-05-31T06:26:40Z</time>
      </trkpt>
      <trkpt lat="43.22692" lon="2.52862">
        <ele>59</ele>
        <time>2020-05-31T06:26:47Z</time>
      </trkpt>
      <trkpt lat="43.22695" lon="2.52868">
        <ele>60</ele>
        <time>2020-05-31T06:26:48Z</time>
      </trkpt>
      <trkpt lat="43.22706" lon="2.52887">
        <ele>60</ele>
        <time>2020-05-31T06:26:51Z</time>
      </trkpt>
      <trkpt lat="43.22713" lon="2.529">
        <ele>61</ele>
        <time>2020-05-31T06:26:53Z</time>
      </trkpt>
      <trkpt lat="43.22728" lon="2.52924">
        <ele>60</ele>
        <time>2020-05-31T06:26:57Z</time>
      </trkpt>
      <trkpt lat="43.22735" lon="2.52937">
        <ele>60</ele>
        <time>2020-05-31T06:26:59Z</time>
      </trkpt>
      <trkpt lat="43.22771" lon="2.52997">
        <ele>61</ele>
        <time>2020-05-31T06:27:09Z</time>
      </trkpt>
      <trkpt lat="43.22778" lon="2.53009">
        <ele>61</ele>
        <time>2020-05-31T06:27:11Z</time>
      </trkpt>
      <trkpt lat="43.22784" lon="2.53021">
        <ele>61</ele>
        <time>2020-05-31T06:27:13Z</time>
      </trkpt>
      <trkpt lat="43.22812" lon="2.53067">
        <ele>60</ele>
        <time>2020-05-31T06:27:21Z</time>
      </trkpt>
      <trkpt lat="43.22819" lon="2.53079">
        <ele>60</ele>
        <time>2020-05-31T06:27:23Z</time>
      </trkpt>
      <trkpt lat="43.22836" lon="2.53108">
        <ele>60</ele>
        <time>2020-05-31T06:27:28Z</time>
      </trkpt>
      <trkpt lat="43.22842" lon="2.5312">
        <ele>60</ele>
        <time>2020-05-31T06:27:30Z</time>
      </trkpt>
      <trkpt lat="43.22861" lon="2.53158">
        <ele>61</ele>
        <time>2020-05-31T06:27:36Z</time>
      </trkpt>
      <trkpt lat="43.22867" lon="2.5317">
        <ele>62</ele>
        <time>2020-05-31T06:27:38Z</time>
      </trkpt>
      <trkpt lat="43.22873" lon="2.53183">
        <ele>62</ele>
        <time>2020-05-31T06:27:40Z</time>
      </trkpt>
      <trkpt lat="43.22892" lon="2.53216">
        <ele>62</ele>
        <time>2020-05-31T06:27:46Z</time>
      </trkpt>
      <trkpt lat="43.22894" lon="2.53222">
        <ele>62</ele>
        <time>2020-05-31T06:27:47Z</time>
      </trkpt>
      <trkpt lat="43.22896" lon="2.53228">
        <ele>63</ele>
        <time>2020-05-31T06:27:48Z</time>
      </trkpt>
      <trkpt lat="43.22904" lon="2.53245">
        <ele>63</ele>
        <time>2020-05-31T06:27:51Z</time>
      </trkpt>
      <trkpt lat="43.2291" lon="2.53256">
        <ele>63</ele>
        <time>2020-05-31T06:27:53Z</time>
      </trkpt>
      <trkpt lat="43.22913" lon="2.53261">
        <ele>64</ele>
        <time>2020-05-31T06:27:54Z</time>
      </trkpt>
      <trkpt lat="43.2293" lon="2.53296">
        <ele>64</ele>
        <time>2020-05-31T06:28:01Z</time>
      </trkpt>
      <trkpt lat="43.22944" lon="2.53315">
        <ele>63</ele>
        <time>2020-05-31T06:28:06Z</time>
      </trkpt>
      <trkpt lat="43.22948" lon="2.53318">
        <ele>63</ele>
        <time>2020-05-31T06:28:07Z</time>
      </trkpt>
      <trkpt lat="43.22952" lon="2.53321">
        <ele>63</ele>
        <time>2020-05-31T06:28:08Z</time>
      </trkpt>
      <trkpt lat="43.2296" lon="2.53325">
        <ele>62</ele>
        <time>2020-05-31T06:28:10Z</time>
      </trkpt>
      <trkpt lat="43.22974" lon="2.53333">
        <ele>61</ele>
        <time>2020-05-31T06:28:13Z</time>
      </trkpt>
      <trkpt lat="43.23" lon="2.53353">
        <ele>61</ele>
        <time>2020-05-31T06:28:19Z</time>
      </trkpt>
      <trkpt lat="43.23004" lon="2.53356">
        <ele>61</ele>
        <time>2020-05-31T06:28:20Z</time>
      </trkpt>
      <trkpt lat="43.23017" lon="2.53365">
        <ele>61</ele>
        <time>2020-05-31T06:28:23Z</time>
      </trkpt>
      <trkpt lat="43.23033" lon="2.53379">
        <ele>61</ele>
        <time>2020-05-31T06:28:27Z</time>
      </trkpt>
      <trkpt lat="43.23034" lon="2.53386">
        <ele>61</ele>
        <time>2020-05-31T06:28:28Z</time>
      </trkpt>
      <trkpt lat="43.23034" lon="2.53393">
        <ele>61</ele>
        <time>2020-05-31T06:28:29Z</time>
      </trkpt>
      <trkpt lat="43.23032" lon="2.53406">
        <ele>61</ele>
        <time>2020-05-31T06:28:31Z</time>
      </trkpt>
      <trkpt lat="43.23024" lon="2.53436">
        <ele>61</ele>
        <time>2020-05-31T06:28:36Z</time>
      </trkpt>
      <trkpt lat="43.23022" lon="2.53442">
        <ele>61</ele>
        <time>2020-05-31T06:28:37Z</time>
      </trkpt>
      <trkpt lat="43.23022" lon="2.53456">
        <ele>61</ele>
        <time>2020-05-31T06:28:40Z</time>
      </trkpt>
      <trkpt lat="43.23033" lon="2.53475">
        <ele>61</ele>
        <time>2020-05-31T06:28:44Z</time>
      </trkpt>
      <trkpt lat="43.23036" lon="2.53479">
        <ele>61</ele>
        <time>2020-05-31T06:28:45Z</time>
      </trkpt>
      <trkpt lat="43.23046" lon="2.53492">
        <ele>61</ele>
        <time>2020-05-31T06:28:48Z</time>
      </trkpt>
      <trkpt lat="43.23052" lon="2.53498">
        <ele>61</ele>
        <time>2020-05-31T06:28:50Z</time>
      </trkpt>
      <trkpt lat="43.23055" lon="2.53501">
        <ele>62</ele>
        <time>2020-05-31T06:28:51Z</time>
      </trkpt>
      <trkpt lat="43.23059" lon="2.53503">
        <ele>62</ele>
        <time>2020-05-31T06:28:52Z</time>
      </trkpt>
      <trkpt lat="43.23065" lon="2.53508">
        <ele>62</ele>
        <time>2020-05-31T06:28:54Z</time>
      </trkpt>
      <trkpt lat="43.23069" lon="2.5351">
        <ele>62</ele>
        <time>2020-05-31T06:28:55Z</time>
      </trkpt>
      <trkpt lat="43.23077" lon="2.53513">
        <ele>63</ele>
        <time>2020-05-31T06:28:57Z</time>
      </trkpt>
      <trkpt lat="43.23086" lon="2.53514">
        <ele>64</ele>
        <time>2020-05-31T06:28:59Z</time>
      </trkpt>
      <trkpt lat="43.2311" lon="2.53515">
        <ele>65</ele>
        <time>2020-05-31T06:29:04Z</time>
      </trkpt>
      <trkpt lat="43.23115" lon="2.53516">
        <ele>66</ele>
        <time>2020-05-31T06:29:05Z</time>
      </trkpt>
      <trkpt lat="43.23123" lon="2.53519">
        <ele>66</ele>
        <time>2020-05-31T06:29:07Z</time>
      </trkpt>
      <trkpt lat="43.23131" lon="2.53524">
        <ele>66</ele>
        <time>2020-05-31T06:29:09Z</time>
      </trkpt>
      <trkpt lat="43.23159" lon="2.53545">
        <ele>65</ele>
        <time>2020-05-31T06:29:15Z</time>
      </trkpt>
      <trkpt lat="43.23163" lon="2.53549">
        <ele>65</ele>
        <time>2020-05-31T06:29:16Z</time>
      </trkpt>
      <trkpt lat="43.23168" lon="2.53553">
        <ele>66</ele>
        <time>2020-05-31T06:29:17Z</time>
      </trkpt>
      <trkpt lat="43.23177" lon="2.5356">
        <ele>66</ele>
        <time>2020-05-31T06:29:19Z</time>
      </trkpt>
      <trkpt lat="43.23203" lon="2.53581">
        <ele>67</ele>
        <time>2020-05-31T06:29:25Z</time>
      </trkpt>
      <trkpt lat="43.23211" lon="2.53589">
        <ele>67</ele>
        <time>2020-05-31T06:29:27Z</time>
      </trkpt>
      <trkpt lat="43.23219" lon="2.53597">
        <ele>67</ele>
        <time>2020-05-31T06:29:29Z</time>
      </trkpt>
      <trkpt lat="43.23227" lon="2.53605">
        <ele>67</ele>
        <time>2020-05-31T06:29:31Z</time>
      </trkpt>
      <trkpt lat="43.23253" lon="2.53626">
        <ele>66</ele>
        <time>2020-05-31T06:29:37Z</time>
      </trkpt>
      <trkpt lat="43.23257" lon="2.53629">
        <ele>66</ele>
        <time>2020-05-31T06:29:38Z</time>
      </trkpt>
      <trkpt lat="43.23261" lon="2.53633">
        <ele>66</ele>
        <time>2020-05-31T06:29:39Z</time>
      </trkpt>
      <trkpt lat="43.23299" lon="2.53665">
        <ele>65</ele>
        <time>2020-05-31T06:29:48Z</time>
      </trkpt>
      <trkpt lat="43.23303" lon="2.53668">
        <ele>64</ele>
        <time>2020-05-31T06:29:49Z</time>
      </trkpt>
      <trkpt lat="43.23307" lon="2.53672">
        <ele>64</ele>
        <time>2020-05-31T06:29:50Z</time>
      </trkpt>
      <trkpt lat="43.23333" lon="2.53695">
        <ele>64</ele>
        <time>2020-05-31T06:29:56Z</time>
      </trkpt>
      <trkpt lat="43.23342" lon="2.53703">
        <ele>64</ele>
        <time>2020-05-31T06:29:58Z</time>
      </trkpt>
      <trkpt lat="43.23377" lon="2.53732">
        <ele>65</ele>
        <time>2020-05-31T06:30:06Z</time>
      </trkpt>
      <trkpt lat="43.23411" lon="2.53762">
        <ele>66</ele>
        <time>2020-05-31T06:30:14Z</time>
      </trkpt>
      <trkpt lat="43.23428" lon="2.53778">
        <ele>65</ele>
        <time>2020-05-31T06:30:18Z</time>
      </trkpt>
      <trkpt lat="43.23445" lon="2.53797">
        <ele>64</ele>
        <time>2020-05-31T06:30:22Z</time>
      </trkpt>
      <trkpt lat="43.23456" lon="2.53813">
        <ele>64</ele>
        <time>2020-05-31T06:30:25Z</time>
      </trkpt>
      <trkpt lat="43.23476" lon="2.53851">
        <ele>63</ele>
        <time>2020-05-31T06:30:31Z</time>
      </trkpt>
      <trkpt lat="43.2348" lon="2.53858">
        <ele>63</ele>
        <time>2020-05-31T06:30:32Z</time>
      </trkpt>
      <trkpt lat="43.23484" lon="2.53865">
        <ele>62</ele>
        <time>2020-05-31T06:30:33Z</time>
      </trkpt>
      <trkpt lat="43.23497" lon="2.53885">
        <ele>62</ele>
        <time>2020-05-31T06:30:36Z</time>
      </trkpt>
      <trkpt lat="43.23503" lon="2.5389">
        <ele>61</ele>
        <time>2020-05-31T06:30:37Z</time>
      </trkpt>
      <trkpt lat="43.23508" lon="2.53895">
        <ele>61</ele>
        <time>2020-05-31T06:30:38Z</time>
      </trkpt>
      <trkpt lat="43.23533" lon="2.53908">
        <ele>60</ele>
        <time>2020-05-31T06:30:42Z</time>
      </trkpt>
      <trkpt lat="43.23546" lon="2.53913">
        <ele>59</ele>
        <time>2020-05-31T06:30:44Z</time>
      </trkpt>
      <trkpt lat="43.23552" lon="2.53916">
        <ele>59</ele>
        <time>2020-05-31T06:30:45Z</time>
      </trkpt>
      <trkpt lat="43.23576" lon="2.53926">
        <ele>59</ele>
        <time>2020-05-31T06:30:49Z</time>
      </trkpt>
      <trkpt lat="43.23588" lon="2.53931">
        <ele>59</ele>
        <time>2020-05-31T06:30:51Z</time>
      </trkpt>
      <trkpt lat="43.23644" lon="2.53955">
        <ele>58</ele>
        <time>2020-05-31T06:31:01Z</time>
      </trkpt>
      <trkpt lat="43.2369" lon="2.53975">
        <ele>58</ele>
        <time>2020-05-31T06:31:09Z</time>
      </trkpt>
      <trkpt lat="43.23695" lon="2.53977">
        <ele>58</ele>
        <time>2020-05-31T06:31:10Z</time>
      </trkpt>
      <trkpt lat="43.237" lon="2.53979">
        <ele>58</ele>
        <time>2020-05-31T06:31:11Z</time>
      </trkpt>
      <trkpt lat="43.23715" lon="2.53985">
        <ele>58</ele>
        <time>2020-05-31T06:31:14Z</time>
      </trkpt>
      <trkpt lat="43.2372" lon="2.53988">
        <ele>58</ele>
        <time>2020-05-31T06:31:15Z</time>
      </trkpt>
      <trkpt lat="43.23724" lon="2.5399">
        <ele>58</ele>
        <time>2020-05-31T06:31:16Z</time>
      </trkpt>
      <trkpt lat="43.23729" lon="2.53992">
        <ele>58</ele>
        <time>2020-05-31T06:31:17Z</time>
      </trkpt>
      <trkpt lat="43.23734" lon="2.53995">
        <ele>58</ele>
        <time>2020-05-31T06:31:18Z</time>
      </trkpt>
      <trkpt lat="43.23753" lon="2.54006">
        <ele>58</ele>
        <time>2020-05-31T06:31:22Z</time>
      </trkpt>
      <trkpt lat="43.23758" lon="2.54009">
        <ele>58</ele>
        <time>2020-05-31T06:31:23Z</time>
      </trkpt>
      <trkpt lat="43.23762" lon="2.54012">
        <ele>58</ele>
        <time>2020-05-31T06:31:24Z</time>
      </trkpt>
      <trkpt lat="43.23793" lon="2.54031">
        <ele>59</ele>
        <time>2020-05-31T06:31:31Z</time>
      </trkpt>
      <trkpt lat="43.23797" lon="2.54034">
        <ele>59</ele>
        <time>2020-05-31T06:31:32Z</time>
      </trkpt>
      <trkpt lat="43.23806" lon="2.5404">
        <ele>59</ele>
        <time>2020-05-31T06:31:34Z</time>
      </trkpt>
      <trkpt lat="43.23819" lon="2.54049">
        <ele>59</ele>
        <time>2020-05-31T06:31:37Z</time>
      </trkpt>
      <trkpt lat="43.23837" lon="2.54062">
        <ele>59</ele>
        <time>2020-05-31T06:31:41Z</time>
      </trkpt>
      <trkpt lat="43.23841" lon="2.54065">
        <ele>59</ele>
        <time>2020-05-31T06:31:42Z</time>
      </trkpt>
      <trkpt lat="43.23883" lon="2.541">
        <ele>58</ele>
        <time>2020-05-31T06:31:51Z</time>
      </trkpt>
      <trkpt lat="43.23887" lon="2.54105">
        <ele>58</ele>
        <time>2020-05-31T06:31:52Z</time>
      </trkpt>
      <trkpt lat="43.23891" lon="2.5411">
        <ele>58</ele>
        <time>2020-05-31T06:31:53Z</time>
      </trkpt>
      <trkpt lat="43.23899" lon="2.54121">
        <ele>58</ele>
        <time>2020-05-31T06:31:55Z</time>
      </trkpt>
      <trkpt lat="43.23916" lon="2.5415">
        <ele>58</ele>
        <time>2020-05-31T06:32:00Z</time>
      </trkpt>
      <trkpt lat="43.23922" lon="2.54161">
        <ele>58</ele>
        <time>2020-05-31T06:32:02Z</time>
      </trkpt>
      <trkpt lat="43.23936" lon="2.54182">
        <ele>58</ele>
        <time>2020-05-31T06:32:06Z</time>
      </trkpt>
      <trkpt lat="43.23939" lon="2.54186">
        <ele>58</ele>
        <time>2020-05-31T06:32:07Z</time>
      </trkpt>
      <trkpt lat="43.23953" lon="2.54209">
        <ele>58</ele>
        <time>2020-05-31T06:32:13Z</time>
      </trkpt>
      <trkpt lat="43.23972" lon="2.54236">
        <ele>57</ele>
        <time>2020-05-31T06:32:21Z</time>
      </trkpt>
      <trkpt lat="43.23977" lon="2.54241">
        <ele>58</ele>
        <time>2020-05-31T06:32:23Z</time>
      </trkpt>
      <trkpt lat="43.2398" lon="2.54244">
        <ele>58</ele>
        <time>2020-05-31T06:32:24Z</time>
      </trkpt>
      <trkpt lat="43.23992" lon="2.54256">
        <ele>58</ele>
        <time>2020-05-31T06:32:28Z</time>
      </trkpt>
      <trkpt lat="43.24017" lon="2.54276">
        <ele>59</ele>
        <time>2020-05-31T06:32:36Z</time>
      </trkpt>
      <trkpt lat="43.24027" lon="2.54283">
        <ele>60</ele>
        <time>2020-05-31T06:32:39Z</time>
      </trkpt>
      <trkpt lat="43.24037" lon="2.54291">
        <ele>60</ele>
        <time>2020-05-31T06:32:42Z</time>
      </trkpt>
      <trkpt lat="43.2404" lon="2.54293">
        <ele>61</ele>
        <time>2020-05-31T06:32:43Z</time>
      </trkpt>
      <trkpt lat="43.24054" lon="2.54303">
        <ele>61</ele>
        <time>2020-05-31T06:32:47Z</time>
      </trkpt>
      <trkpt lat="43.24082" lon="2.54323">
        <ele>62</ele>
        <time>2020-05-31T06:32:55Z</time>
      </trkpt>
      <trkpt lat="43.24089" lon="2.54328">
        <ele>62</ele>
        <time>2020-05-31T06:32:57Z</time>
      </trkpt>
      <trkpt lat="43.24092" lon="2.5433">
        <ele>62</ele>
        <time>2020-05-31T06:32:58Z</time>
      </trkpt>
      <trkpt lat="43.24128" lon="2.54353">
        <ele>64</ele>
        <time>2020-05-31T06:33:08Z</time>
      </trkpt>
      <trkpt lat="43.24148" lon="2.54366">
        <ele>65</ele>
        <time>2020-05-31T06:33:14Z</time>
      </trkpt>
      <trkpt lat="43.24155" lon="2.5437">
        <ele>65</ele>
        <time>2020-05-31T06:33:16Z</time>
      </trkpt>
      <trkpt lat="43.24162" lon="2.54374">
        <ele>65</ele>
        <time>2020-05-31T06:33:18Z</time>
      </trkpt>
      <trkpt lat="43.24165" lon="2.54377">
        <ele>65</ele>
        <time>2020-05-31T06:33:19Z</time>
      </trkpt>
      <trkpt lat="43.24195" lon="2.54391">
        <ele>64</ele>
        <time>2020-05-31T06:33:27Z</time>
      </trkpt>
      <trkpt lat="43.24228" lon="2.54401">
        <ele>64</ele>
        <time>2020-05-31T06:33:36Z</time>
      </trkpt>
      <trkpt lat="43.24247" lon="2.5441">
        <ele>64</ele>
        <time>2020-05-31T06:33:41Z</time>
      </trkpt>
      <trkpt lat="43.24257" lon="2.54416">
        <ele>65</ele>
        <time>2020-05-31T06:33:44Z</time>
      </trkpt>
      <trkpt lat="43.24278" lon="2.54428">
        <ele>66</ele>
        <time>2020-05-31T06:33:50Z</time>
      </trkpt>
      <trkpt lat="43.24282" lon="2.5443">
        <ele>66</ele>
        <time>2020-05-31T06:33:51Z</time>
      </trkpt>
      <trkpt lat="43.24289" lon="2.54435">
        <ele>67</ele>
        <time>2020-05-31T06:33:53Z</time>
      </trkpt>
      <trkpt lat="43.24315" lon="2.54455">
        <ele>68</ele>
        <time>2020-05-31T06:34:01Z</time>
      </trkpt>
      <trkpt lat="43.24321" lon="2.5446">
        <ele>68</ele>
        <time>2020-05-31T06:34:03Z</time>
      </trkpt>
      <trkpt lat="43.24324" lon="2.54463">
        <ele>69</ele>
        <time>2020-05-31T06:34:04Z</time>
      </trkpt>
      <trkpt lat="43.24336" lon="2.54473">
        <ele>70</ele>
        <time>2020-05-31T06:34:08Z</time>
      </trkpt>
      <trkpt lat="43.24345" lon="2.54481">
        <ele>70</ele>
        <time>2020-05-31T06:34:11Z</time>
      </trkpt>
      <trkpt lat="43.24353" lon="2.54489">
        <ele>70</ele>
        <time>2020-05-31T06:34:14Z</time>
      </trkpt>
      <trkpt lat="43.24372" lon="2.54507">
        <ele>71</ele>
        <time>2020-05-31T06:34:20Z</time>
      </trkpt>
      <trkpt lat="43.24375" lon="2.5451">
        <ele>71</ele>
        <time>2020-05-31T06:34:21Z</time>
      </trkpt>
      <trkpt lat="43.24381" lon="2.54516">
        <ele>71</ele>
        <time>2020-05-31T06:34:23Z</time>
      </trkpt>
      <trkpt lat="43.24391" lon="2.54524">
        <ele>72</ele>
        <time>2020-05-31T06:34:26Z</time>
      </trkpt>
      <trkpt lat="43.24394" lon="2.54526">
        <ele>72</ele>
        <time>2020-05-31T06:34:27Z</time>
      </trkpt>
      <trkpt lat="43.244" lon="2.54532">
        <ele>73</ele>
        <time>2020-05-31T06:34:29Z</time>
      </trkpt>
      <trkpt lat="43.24411" lon="2.54543">
        <ele>73</ele>
        <time>2020-05-31T06:34:33Z</time>
      </trkpt>
      <trkpt lat="43.24417" lon="2.54549">
        <ele>74</ele>
        <time>2020-05-31T06:34:35Z</time>
      </trkpt>
      <trkpt lat="43.2444" lon="2.54565">
        <ele>75</ele>
        <time>2020-05-31T06:34:42Z</time>
      </trkpt>
      <trkpt lat="43.24443" lon="2.54566">
        <ele>75</ele>
        <time>2020-05-31T06:34:43Z</time>
      </trkpt>
      <trkpt lat="43.2448" lon="2.54584">
        <ele>75</ele>
        <time>2020-05-31T06:34:53Z</time>
      </trkpt>
      <trkpt lat="43.24509" lon="2.54596">
        <ele>75</ele>
        <time>2020-05-31T06:35:00Z</time>
      </trkpt>
      <trkpt lat="43.24514" lon="2.54598">
        <ele>75</ele>
        <time>2020-05-31T06:35:01Z</time>
      </trkpt>
      <trkpt lat="43.24535" lon="2.54605">
        <ele>75</ele>
        <time>2020-05-31T06:35:05Z</time>
      </trkpt>
      <trkpt lat="43.24547" lon="2.5461">
        <ele>75</ele>
        <time>2020-05-31T06:35:07Z</time>
      </trkpt>
      <trkpt lat="43.24553" lon="2.54613">
        <ele>75</ele>
        <time>2020-05-31T06:35:08Z</time>
      </trkpt>
      <trkpt lat="43.2456" lon="2.54615">
        <ele>74</ele>
        <time>2020-05-31T06:35:09Z</time>
      </trkpt>
      <trkpt lat="43.24567" lon="2.54618">
        <ele>73</ele>
        <time>2020-05-31T06:35:10Z</time>
      </trkpt>
      <trkpt lat="43.24574" lon="2.5462">
        <ele>73</ele>
        <time>2020-05-31T06:35:11Z</time>
      </trkpt>
      <trkpt lat="43.24589" lon="2.54626">
        <ele>72</ele>
        <time>2020-05-31T06:35:13Z</time>
      </trkpt>
      <trkpt lat="43.24596" lon="2.54629">
        <ele>71</ele>
        <time>2020-05-31T06:35:14Z</time>
      </trkpt>
      <trkpt lat="43.2462" lon="2.54639">
        <ele>70</ele>
        <time>2020-05-31T06:35:17Z</time>
      </trkpt>
      <trkpt lat="43.24645" lon="2.54648">
        <ele>68</ele>
        <time>2020-05-31T06:35:20Z</time>
      </trkpt>
      <trkpt lat="43.24662" lon="2.54655">
        <ele>66</ele>
        <time>2020-05-31T06:35:22Z</time>
      </trkpt>
      <trkpt lat="43.24711" lon="2.54674">
        <ele>63</ele>
        <time>2020-05-31T06:35:28Z</time>
      </trkpt>
      <trkpt lat="43.24734" lon="2.54684">
        <ele>63</ele>
        <time>2020-05-31T06:35:31Z</time>
      </trkpt>
      <trkpt lat="43.24749" lon="2.5469">
        <ele>63</ele>
        <time>2020-05-31T06:35:33Z</time>
      </trkpt>
      <trkpt lat="43.24763" lon="2.54694">
        <ele>63</ele>
        <time>2020-05-31T06:35:35Z</time>
      </trkpt>
      <trkpt lat="43.24783" lon="2.54699">
        <ele>63</ele>
        <time>2020-05-31T06:35:38Z</time>
      </trkpt>
      <trkpt lat="43.24795" lon="2.54702">
        <ele>63</ele>
        <time>2020-05-31T06:35:40Z</time>
      </trkpt>
      <trkpt lat="43.24807" lon="2.54703">
        <ele>62</ele>
        <time>2020-05-31T06:35:42Z</time>
      </trkpt>
      <trkpt lat="43.24813" lon="2.54703">
        <ele>62</ele>
        <time>2020-05-31T06:35:43Z</time>
      </trkpt>
      <trkpt lat="43.24858" lon="2.54707">
        <ele>62</ele>
        <time>2020-05-31T06:35:51Z</time>
      </trkpt>
      <trkpt lat="43.24915" lon="2.54713">
        <ele>62</ele>
        <time>2020-05-31T06:36:01Z</time>
      </trkpt>
      <trkpt lat="43.24921" lon="2.54713">
        <ele>62</ele>
        <time>2020-05-31T06:36:02Z</time>
      </trkpt>
      <trkpt lat="43.24947" lon="2.54716">
        <ele>63</ele>
        <time>2020-05-31T06:36:07Z</time>
      </trkpt>
      <trkpt lat="43.24956" lon="2.54718">
        <ele>63</ele>
        <time>2020-05-31T06:36:09Z</time>
      </trkpt>
      <trkpt lat="43.24962" lon="2.54719">
        <ele>63</ele>
        <time>2020-05-31T06:36:10Z</time>
      </trkpt>
      <trkpt lat="43.24967" lon="2.54722">
        <ele>63</ele>
        <time>2020-05-31T06:36:11Z</time>
      </trkpt>
      <trkpt lat="43.24977" lon="2.5473">
        <ele>63</ele>
        <time>2020-05-31T06:36:13Z</time>
      </trkpt>
      <trkpt lat="43.24988" lon="2.54737">
        <ele>63</ele>
        <time>2020-05-31T06:36:15Z</time>
      </trkpt>
      <trkpt lat="43.25003" lon="2.54748">
        <ele>63</ele>
        <time>2020-05-31T06:36:18Z</time>
      </trkpt>
      <trkpt lat="43.25018" lon="2.54758">
        <ele>62</ele>
        <time>2020-05-31T06:36:21Z</time>
      </trkpt>
      <trkpt lat="43.25022" lon="2.54762">
        <ele>62</ele>
        <time>2020-05-31T06:36:22Z</time>
      </trkpt>
      <trkpt lat="43.25027" lon="2.54765">
        <ele>62</ele>
        <time>2020-05-31T06:36:23Z</time>
      </trkpt>
      <trkpt lat="43.25051" lon="2.54782">
        <ele>61</ele>
        <time>2020-05-31T06:36:28Z</time>
      </trkpt>
      <trkpt lat="43.25061" lon="2.54789">
        <ele>61</ele>
        <time>2020-05-31T06:36:30Z</time>
      </trkpt>
      <trkpt lat="43.25105" lon="2.54821">
        <ele>61</ele>
        <time>2020-05-31T06:36:39Z</time>
      </trkpt>
      <trkpt lat="43.2511" lon="2.54824">
        <ele>61</ele>
        <time>2020-05-31T06:36:40Z</time>
      </trkpt>
      <trkpt lat="43.25115" lon="2.54828">
        <ele>62</ele>
        <time>2020-05-31T06:36:41Z</time>
      </trkpt>
      <trkpt lat="43.25129" lon="2.54839">
        <ele>62</ele>
        <time>2020-05-31T06:36:44Z</time>
      </trkpt>
      <trkpt lat="43.25134" lon="2.54842">
        <ele>62</ele>
        <time>2020-05-31T06:36:45Z</time>
      </trkpt>
      <trkpt lat="43.25153" lon="2.54856">
        <ele>62</ele>
        <time>2020-05-31T06:36:49Z</time>
      </trkpt>
      <trkpt lat="43.25158" lon="2.5486">
        <ele>62</ele>
        <time>2020-05-31T06:36:50Z</time>
      </trkpt>
      <trkpt lat="43.25167" lon="2.54867">
        <ele>61</ele>
        <time>2020-05-31T06:36:52Z</time>
      </trkpt>
      <trkpt lat="43.25182" lon="2.54877">
        <ele>61</ele>
        <time>2020-05-31T06:36:55Z</time>
      </trkpt>
      <trkpt lat="43.25187" lon="2.5488">
        <ele>61</ele>
        <time>2020-05-31T06:36:56Z</time>
      </trkpt>
      <trkpt lat="43.25191" lon="2.54884">
        <ele>61</ele>
        <time>2020-05-31T06:36:57Z</time>
      </trkpt>
      <trkpt lat="43.252" lon="2.54892">
        <ele>61</ele>
        <time>2020-05-31T06:36:59Z</time>
      </trkpt>
      <trkpt lat="43.25208" lon="2.54903">
        <ele>61</ele>
        <time>2020-05-31T06:37:01Z</time>
      </trkpt>
      <trkpt lat="43.25211" lon="2.54909">
        <ele>61</ele>
        <time>2020-05-31T06:37:02Z</time>
      </trkpt>
      <trkpt lat="43.25214" lon="2.54916">
        <ele>61</ele>
        <time>2020-05-31T06:37:03Z</time>
      </trkpt>
      <trkpt lat="43.25219" lon="2.54937">
        <ele>61</ele>
        <time>2020-05-31T06:37:06Z</time>
      </trkpt>
      <trkpt lat="43.25221" lon="2.54944">
        <ele>61</ele>
        <time>2020-05-31T06:37:07Z</time>
      </trkpt>
      <trkpt lat="43.25223" lon="2.54951">
        <ele>62</ele>
        <time>2020-05-31T06:37:08Z</time>
      </trkpt>
      <trkpt lat="43.25232" lon="2.54983">
        <ele>63</ele>
        <time>2020-05-31T06:37:13Z</time>
      </trkpt>
      <trkpt lat="43.25235" lon="2.54996">
        <ele>63</ele>
        <time>2020-05-31T06:37:15Z</time>
      </trkpt>
      <trkpt lat="43.25236" lon="2.55002">
        <ele>64</ele>
        <time>2020-05-31T06:37:16Z</time>
      </trkpt>
      <trkpt lat="43.2524" lon="2.55014">
        <ele>64</ele>
        <time>2020-05-31T06:37:18Z</time>
      </trkpt>
      <trkpt lat="43.25244" lon="2.5503">
        <ele>65</ele>
        <time>2020-05-31T06:37:21Z</time>
      </trkpt>
      <trkpt lat="43.25246" lon="2.55035">
        <ele>65</ele>
        <time>2020-05-31T06:37:22Z</time>
      </trkpt>
      <trkpt lat="43.25252" lon="2.55058">
        <ele>66</ele>
        <time>2020-05-31T06:37:26Z</time>
      </trkpt>
      <trkpt lat="43.25255" lon="2.5507">
        <ele>66</ele>
        <time>2020-05-31T06:37:28Z</time>
      </trkpt>
      <trkpt lat="43.25261" lon="2.55094">
        <ele>67</ele>
        <time>2020-05-31T06:37:32Z</time>
      </trkpt>
      <trkpt lat="43.25264" lon="2.55106">
        <ele>67</ele>
        <time>2020-05-31T06:37:34Z</time>
      </trkpt>
      <trkpt lat="43.25266" lon="2.55118">
        <ele>68</ele>
        <time>2020-05-31T06:37:36Z</time>
      </trkpt>
      <trkpt lat="43.25268" lon="2.55125">
        <ele>68</ele>
        <time>2020-05-31T06:37:37Z</time>
      </trkpt>
      <trkpt lat="43.25273" lon="2.55149">
        <ele>68</ele>
        <time>2020-05-31T06:37:41Z</time>
      </trkpt>
      <trkpt lat="43.25275" lon="2.55161">
        <ele>69</ele>
        <time>2020-05-31T06:37:43Z</time>
      </trkpt>
      <trkpt lat="43.25278" lon="2.55173">
        <ele>70</ele>
        <time>2020-05-31T06:37:45Z</time>
      </trkpt>
      <trkpt lat="43.25283" lon="2.55191">
        <ele>70</ele>
        <time>2020-05-31T06:37:48Z</time>
      </trkpt>
      <trkpt lat="43.25284" lon="2.55196">
        <ele>70</ele>
        <time>2020-05-31T06:37:49Z</time>
      </trkpt>
      <trkpt lat="43.25287" lon="2.55208">
        <ele>70</ele>
        <time>2020-05-31T06:37:51Z</time>
      </trkpt>
      <trkpt lat="43.25296" lon="2.55235">
        <ele>71</ele>
        <time>2020-05-31T06:37:56Z</time>
      </trkpt>
      <trkpt lat="43.25299" lon="2.5524">
        <ele>71</ele>
        <time>2020-05-31T06:37:57Z</time>
      </trkpt>
      <trkpt lat="43.25302" lon="2.55245">
        <ele>71</ele>
        <time>2020-05-31T06:37:58Z</time>
      </trkpt>
      <trkpt lat="43.25318" lon="2.55269">
        <ele>70</ele>
        <time>2020-05-31T06:38:03Z</time>
      </trkpt>
      <trkpt lat="43.25328" lon="2.55282">
        <ele>70</ele>
        <time>2020-05-31T06:38:06Z</time>
      </trkpt>
      <trkpt lat="43.25336" lon="2.55291">
        <ele>70</ele>
        <time>2020-05-31T06:38:08Z</time>
      </trkpt>
      <trkpt lat="43.25344" lon="2.553">
        <ele>70</ele>
        <time>2020-05-31T06:38:10Z</time>
      </trkpt>
      <trkpt lat="43.25356" lon="2.55313">
        <ele>70</ele>
        <time>2020-05-31T06:38:13Z</time>
      </trkpt>
      <trkpt lat="43.25364" lon="2.55321">
        <ele>70</ele>
        <time>2020-05-31T06:38:15Z</time>
      </trkpt>
      <trkpt lat="43.25368" lon="2.55325">
        <ele>70</ele>
        <time>2020-05-31T06:38:16Z</time>
      </trkpt>
      <trkpt lat="43.25386" lon="2.5534">
        <ele>70</ele>
        <time>2020-05-31T06:38:20Z</time>
      </trkpt>
      <trkpt lat="43.25408" lon="2.55356">
        <ele>71</ele>
        <time>2020-05-31T06:38:25Z</time>
      </trkpt>
      <trkpt lat="43.2544" lon="2.5538">
        <ele>72</ele>
        <time>2020-05-31T06:38:32Z</time>
      </trkpt>
      <trkpt lat="43.25445" lon="2.55384">
        <ele>72</ele>
        <time>2020-05-31T06:38:33Z</time>
      </trkpt>
      <trkpt lat="43.25459" lon="2.55395">
        <ele>71</ele>
        <time>2020-05-31T06:38:36Z</time>
      </trkpt>
      <trkpt lat="43.25484" lon="2.55412">
        <ele>70</ele>
        <time>2020-05-31T06:38:41Z</time>
      </trkpt>
      <trkpt lat="43.2549" lon="2.55415">
        <ele>69</ele>
        <time>2020-05-31T06:38:42Z</time>
      </trkpt>
      <trkpt lat="43.25495" lon="2.55418">
        <ele>69</ele>
        <time>2020-05-31T06:38:43Z</time>
      </trkpt>
      <trkpt lat="43.25537" lon="2.55441">
        <ele>68</ele>
        <time>2020-05-31T06:38:50Z</time>
      </trkpt>
      <trkpt lat="43.25555" lon="2.55451">
        <ele>67</ele>
        <time>2020-05-31T06:38:53Z</time>
      </trkpt>
      <trkpt lat="43.2558" lon="2.55464">
        <ele>65</ele>
        <time>2020-05-31T06:38:57Z</time>
      </trkpt>
      <trkpt lat="43.25586" lon="2.55468">
        <ele>65</ele>
        <time>2020-05-31T06:38:58Z</time>
      </trkpt>
      <trkpt lat="43.25598" lon="2.55474">
        <ele>64</ele>
        <time>2020-05-31T06:39:00Z</time>
      </trkpt>
      <trkpt lat="43.25616" lon="2.55484">
        <ele>64</ele>
        <time>2020-05-31T06:39:03Z</time>
      </trkpt>
      <trkpt lat="43.25628" lon="2.5549">
        <ele>64</ele>
        <time>2020-05-31T06:39:05Z</time>
      </trkpt>
      <trkpt lat="43.25645" lon="2.555">
        <ele>63</ele>
        <time>2020-05-31T06:39:08Z</time>
      </trkpt>
      <trkpt lat="43.2565" lon="2.55503">
        <ele>62</ele>
        <time>2020-05-31T06:39:09Z</time>
      </trkpt>
      <trkpt lat="43.25656" lon="2.55506">
        <ele>62</ele>
        <time>2020-05-31T06:39:10Z</time>
      </trkpt>
      <trkpt lat="43.25666" lon="2.55512">
        <ele>61</ele>
        <time>2020-05-31T06:39:12Z</time>
      </trkpt>
      <trkpt lat="43.25702" lon="2.55531">
        <ele>60</ele>
        <time>2020-05-31T06:39:19Z</time>
      </trkpt>
      <trkpt lat="43.25745" lon="2.55554">
        <ele>62</ele>
        <time>2020-05-31T06:39:28Z</time>
      </trkpt>
      <trkpt lat="43.2576" lon="2.55562">
        <ele>62</ele>
        <time>2020-05-31T06:39:31Z</time>
      </trkpt>
      <trkpt lat="43.25765" lon="2.55565">
        <ele>62</ele>
        <time>2020-05-31T06:39:32Z</time>
      </trkpt>
      <trkpt lat="43.25799" lon="2.55584">
        <ele>60</ele>
        <time>2020-05-31T06:39:39Z</time>
      </trkpt>
      <trkpt lat="43.25809" lon="2.55589">
        <ele>60</ele>
        <time>2020-05-31T06:39:41Z</time>
      </trkpt>
      <trkpt lat="43.25824" lon="2.55597">
        <ele>60</ele>
        <time>2020-05-31T06:39:44Z</time>
      </trkpt>
      <trkpt lat="43.25829" lon="2.55599">
        <ele>60</ele>
        <time>2020-05-31T06:39:45Z</time>
      </trkpt>
      <trkpt lat="43.2584" lon="2.55603">
        <ele>61</ele>
        <time>2020-05-31T06:39:47Z</time>
      </trkpt>
      <trkpt lat="43.2586" lon="2.55606">
        <ele>61</ele>
        <time>2020-05-31T06:39:51Z</time>
      </trkpt>
      <trkpt lat="43.2587" lon="2.55605">
        <ele>60</ele>
        <time>2020-05-31T06:39:53Z</time>
      </trkpt>
      <trkpt lat="43.25879" lon="2.55603">
        <ele>60</ele>
        <time>2020-05-31T06:39:55Z</time>
      </trkpt>
      <trkpt lat="43.25884" lon="2.55603">
        <ele>60</ele>
        <time>2020-05-31T06:39:56Z</time>
      </trkpt>
      <trkpt lat="43.2589" lon="2.55603">
        <ele>60</ele>
        <time>2020-05-31T06:39:57Z</time>
      </trkpt>
      <trkpt lat="43.25895" lon="2.55604">
        <ele>60</ele>
        <time>2020-05-31T06:39:58Z</time>
      </trkpt>
      <trkpt lat="43.25912" lon="2.55611">
        <ele>60</ele>
        <time>2020-05-31T06:40:01Z</time>
      </trkpt>
      <trkpt lat="43.25918" lon="2.55615">
        <ele>60</ele>
        <time>2020-05-31T06:40:02Z</time>
      </trkpt>
      <trkpt lat="43.25923" lon="2.55619">
        <ele>60</ele>
        <time>2020-05-31T06:40:03Z</time>
      </trkpt>
      <trkpt lat="43.25948" lon="2.55644">
        <ele>60</ele>
        <time>2020-05-31T06:40:08Z</time>
      </trkpt>
      <trkpt lat="43.25957" lon="2.55654">
        <ele>61</ele>
        <time>2020-05-31T06:40:10Z</time>
      </trkpt>
      <trkpt lat="43.25971" lon="2.55668">
        <ele>61</ele>
        <time>2020-05-31T06:40:13Z</time>
      </trkpt>
      <trkpt lat="43.25996" lon="2.55695">
        <ele>63</ele>
        <time>2020-05-31T06:40:19Z</time>
      </trkpt>
      <trkpt lat="43.26" lon="2.557">
        <ele>63</ele>
        <time>2020-05-31T06:40:20Z</time>
      </trkpt>
      <trkpt lat="43.26017" lon="2.55724">
        <ele>64</ele>
        <time>2020-05-31T06:40:25Z</time>
      </trkpt>
      <trkpt lat="43.2602" lon="2.55728">
        <ele>64</ele>
        <time>2020-05-31T06:40:26Z</time>
      </trkpt>
      <trkpt lat="43.26023" lon="2.55732">
        <ele>64</ele>
        <time>2020-05-31T06:40:27Z</time>
      </trkpt>
      <trkpt lat="43.2603" lon="2.55743">
        <ele>64</ele>
        <time>2020-05-31T06:40:30Z</time>
      </trkpt>
      <trkpt lat="43.26033" lon="2.55746">
        <ele>64</ele>
        <time>2020-05-31T06:40:31Z</time>
      </trkpt>
      <trkpt lat="43.26047" lon="2.5576">
        <ele>64</ele>
        <time>2020-05-31T06:40:37Z</time>
      </trkpt>
      <trkpt lat="43.2606" lon="2.55771">
        <ele>65</ele>
        <time>2020-05-31T06:40:41Z</time>
      </trkpt>
      <trkpt lat="43.26064" lon="2.55775">
        <ele>65</ele>
        <time>2020-05-31T06:40:42Z</time>
      </trkpt>
      <trkpt lat="43.26097" lon="2.55802">
        <ele>65</ele>
        <time>2020-05-31T06:40:50Z</time>
      </trkpt>
      <trkpt lat="43.26114" lon="2.55815">
        <ele>64</ele>
        <time>2020-05-31T06:40:54Z</time>
      </trkpt>
      <trkpt lat="43.26131" lon="2.55828">
        <ele>64</ele>
        <time>2020-05-31T06:40:58Z</time>
      </trkpt>
      <trkpt lat="43.26162" lon="2.55856">
        <ele>64</ele>
        <time>2020-05-31T06:41:06Z</time>
      </trkpt>
      <trkpt lat="43.26166" lon="2.5586">
        <ele>65</ele>
        <time>2020-05-31T06:41:07Z</time>
      </trkpt>
      <trkpt lat="43.26197" lon="2.55892">
        <ele>66</ele>
        <time>2020-05-31T06:41:15Z</time>
      </trkpt>
      <trkpt lat="43.26208" lon="2.55908">
        <ele>66</ele>
        <time>2020-05-31T06:41:18Z</time>
      </trkpt>
      <trkpt lat="43.26214" lon="2.55921">
        <ele>65</ele>
        <time>2020-05-31T06:41:20Z</time>
      </trkpt>
      <trkpt lat="43.26216" lon="2.55928">
        <ele>65</ele>
        <time>2020-05-31T06:41:21Z</time>
      </trkpt>
      <trkpt lat="43.2622" lon="2.5595">
        <ele>64</ele>
        <time>2020-05-31T06:41:24Z</time>
      </trkpt>
      <trkpt lat="43.26222" lon="2.55977">
        <ele>64</ele>
        <time>2020-05-31T06:41:28Z</time>
      </trkpt>
      <trkpt lat="43.26224" lon="2.5599">
        <ele>64</ele>
        <time>2020-05-31T06:41:30Z</time>
      </trkpt>
      <trkpt lat="43.26229" lon="2.56009">
        <ele>64</ele>
        <time>2020-05-31T06:41:33Z</time>
      </trkpt>
      <trkpt lat="43.26231" lon="2.56015">
        <ele>64</ele>
        <time>2020-05-31T06:41:34Z</time>
      </trkpt>
      <trkpt lat="43.26236" lon="2.56026">
        <ele>64</ele>
        <time>2020-05-31T06:41:36Z</time>
      </trkpt>
      <trkpt lat="43.26258" lon="2.56061">
        <ele>67</ele>
        <time>2020-05-31T06:41:43Z</time>
      </trkpt>
      <trkpt lat="43.26277" lon="2.56092">
        <ele>67</ele>
        <time>2020-05-31T06:41:49Z</time>
      </trkpt>
      <trkpt lat="43.26286" lon="2.56109">
        <ele>68</ele>
        <time>2020-05-31T06:41:52Z</time>
      </trkpt>
      <trkpt lat="43.26291" lon="2.5612">
        <ele>68</ele>
        <time>2020-05-31T06:41:54Z</time>
      </trkpt>
      <trkpt lat="43.26312" lon="2.56167">
        <ele>67</ele>
        <time>2020-05-31T06:42:02Z</time>
      </trkpt>
      <trkpt lat="43.2632" lon="2.56185">
        <ele>67</ele>
        <time>2020-05-31T06:42:05Z</time>
      </trkpt>
      <trkpt lat="43.26322" lon="2.5619">
        <ele>67</ele>
        <time>2020-05-31T06:42:06Z</time>
      </trkpt>
      <trkpt lat="43.26332" lon="2.56213">
        <ele>68</ele>
        <time>2020-05-31T06:42:10Z</time>
      </trkpt>
      <trkpt lat="43.26344" lon="2.56241">
        <ele>68</ele>
        <time>2020-05-31T06:42:15Z</time>
      </trkpt>
      <trkpt lat="43.26346" lon="2.56247">
        <ele>68</ele>
        <time>2020-05-31T06:42:16Z</time>
      </trkpt>
      <trkpt lat="43.26353" lon="2.56263">
        <ele>68</ele>
        <time>2020-05-31T06:42:19Z</time>
      </trkpt>
      <trkpt lat="43.26379" lon="2.56319">
        <ele>69</ele>
        <time>2020-05-31T06:42:29Z</time>
      </trkpt>
      <trkpt lat="43.26388" lon="2.56339">
        <ele>68</ele>
        <time>2020-05-31T06:42:32Z</time>
      </trkpt>
      <trkpt lat="43.2639" lon="2.56346">
        <ele>68</ele>
        <time>2020-05-31T06:42:33Z</time>
      </trkpt>
      <trkpt lat="43.26396" lon="2.56359">
        <ele>67</ele>
        <time>2020-05-31T06:42:35Z</time>
      </trkpt>
      <trkpt lat="43.26405" lon="2.56379">
        <ele>67</ele>
        <time>2020-05-31T06:42:38Z</time>
      </trkpt>
      <trkpt lat="43.26414" lon="2.56398">
        <ele>66</ele>
        <time>2020-05-31T06:42:41Z</time>
      </trkpt>
      <trkpt lat="43.26417" lon="2.56405">
        <ele>67</ele>
        <time>2020-05-31T06:42:42Z</time>
      </trkpt>
      <trkpt lat="43.26426" lon="2.56424">
        <ele>67</ele>
        <time>2020-05-31T06:42:45Z</time>
      </trkpt>
      <trkpt lat="43.26429" lon="2.56431">
        <ele>66</ele>
        <time>2020-05-31T06:42:46Z</time>
      </trkpt>
      <trkpt lat="43.26453" lon="2.56483">
        <ele>66</ele>
        <time>2020-05-31T06:42:54Z</time>
      </trkpt>
      <trkpt lat="43.26471" lon="2.56526">
        <ele>66</ele>
        <time>2020-05-31T06:43:00Z</time>
      </trkpt>
      <trkpt lat="43.26484" lon="2.56567">
        <ele>64</ele>
        <time>2020-05-31T06:43:05Z</time>
      </trkpt>
      <trkpt lat="43.26487" lon="2.56575">
        <ele>64</ele>
        <time>2020-05-31T06:43:06Z</time>
      </trkpt>
      <trkpt lat="43.26491" lon="2.56583">
        <ele>64</ele>
        <time>2020-05-31T06:43:07Z</time>
      </trkpt>
      <trkpt lat="43.26498" lon="2.56598">
        <ele>64</ele>
        <time>2020-05-31T06:43:09Z</time>
      </trkpt>
      <trkpt lat="43.26511" lon="2.56619">
        <ele>65</ele>
        <time>2020-05-31T06:43:12Z</time>
      </trkpt>
      <trkpt lat="43.26523" lon="2.5664">
        <ele>65</ele>
        <time>2020-05-31T06:43:15Z</time>
      </trkpt>
      <trkpt lat="43.26551" lon="2.56692">
        <ele>64</ele>
        <time>2020-05-31T06:43:23Z</time>
      </trkpt>
      <trkpt lat="43.26563" lon="2.56718">
        <ele>64</ele>
        <time>2020-05-31T06:43:27Z</time>
      </trkpt>
      <trkpt lat="43.26573" lon="2.56737">
        <ele>64</ele>
        <time>2020-05-31T06:43:30Z</time>
      </trkpt>
      <trkpt lat="43.26585" lon="2.56755">
        <ele>65</ele>
        <time>2020-05-31T06:43:33Z</time>
      </trkpt>
      <trkpt lat="43.26614" lon="2.56802">
        <ele>67</ele>
        <time>2020-05-31T06:43:41Z</time>
      </trkpt>
      <trkpt lat="43.26648" lon="2.56869">
        <ele>67</ele>
        <time>2020-05-31T06:43:52Z</time>
      </trkpt>
      <trkpt lat="43.26664" lon="2.56899">
        <ele>67</ele>
        <time>2020-05-31T06:43:57Z</time>
      </trkpt>
      <trkpt lat="43.26674" lon="2.56917">
        <ele>66</ele>
        <time>2020-05-31T06:44:00Z</time>
      </trkpt>
      <trkpt lat="43.26702" lon="2.56962">
        <ele>66</ele>
        <time>2020-05-31T06:44:08Z</time>
      </trkpt>
      <trkpt lat="43.26726" lon="2.56999">
        <ele>67</ele>
        <time>2020-05-31T06:44:15Z</time>
      </trkpt>
      <trkpt lat="43.26735" lon="2.57015">
        <ele>68</ele>
        <time>2020-05-31T06:44:18Z</time>
      </trkpt>
      <trkpt lat="43.2675" lon="2.57042">
        <ele>68</ele>
        <time>2020-05-31T06:44:23Z</time>
      </trkpt>
      <trkpt lat="43.2676" lon="2.5706">
        <ele>68</ele>
        <time>2020-05-31T06:44:26Z</time>
      </trkpt>
      <trkpt lat="43.26783" lon="2.57101">
        <ele>68</ele>
        <time>2020-05-31T06:44:33Z</time>
      </trkpt>
      <trkpt lat="43.26815" lon="2.57157">
        <ele>68</ele>
        <time>2020-05-31T06:44:43Z</time>
      </trkpt>
      <trkpt lat="43.26847" lon="2.57202">
        <ele>69</ele>
        <time>2020-05-31T06:44:52Z</time>
      </trkpt>
      <trkpt lat="43.26858" lon="2.57214">
        <ele>69</ele>
        <time>2020-05-31T06:44:55Z</time>
      </trkpt>
      <trkpt lat="43.26861" lon="2.57218">
        <ele>69</ele>
        <time>2020-05-31T06:44:56Z</time>
      </trkpt>
      <trkpt lat="43.2687" lon="2.57225">
        <ele>70</ele>
        <time>2020-05-31T06:44:58Z</time>
      </trkpt>
      <trkpt lat="43.26878" lon="2.5723">
        <ele>70</ele>
        <time>2020-05-31T06:45:00Z</time>
      </trkpt>
      <trkpt lat="43.26897" lon="2.57237">
        <ele>70</ele>
        <time>2020-05-31T06:45:04Z</time>
      </trkpt>
      <trkpt lat="43.26901" lon="2.5724">
        <ele>70</ele>
        <time>2020-05-31T06:45:05Z</time>
      </trkpt>
      <trkpt lat="43.26906" lon="2.57241">
        <ele>70</ele>
        <time>2020-05-31T06:45:06Z</time>
      </trkpt>
      <trkpt lat="43.26934" lon="2.5725">
        <ele>71</ele>
        <time>2020-05-31T06:45:12Z</time>
      </trkpt>
      <trkpt lat="43.26972" lon="2.57262">
        <ele>72</ele>
        <time>2020-05-31T06:45:20Z</time>
      </trkpt>
      <trkpt lat="43.26996" lon="2.57269">
        <ele>73</ele>
        <time>2020-05-31T06:45:25Z</time>
      </trkpt>
      <trkpt lat="43.27005" lon="2.57272">
        <ele>73</ele>
        <time>2020-05-31T06:45:27Z</time>
      </trkpt>
      <trkpt lat="43.27022" lon="2.57277">
        <ele>73</ele>
        <time>2020-05-31T06:45:31Z</time>
      </trkpt>
      <trkpt lat="43.27039" lon="2.57283">
        <ele>73</ele>
        <time>2020-05-31T06:45:35Z</time>
      </trkpt>
      <trkpt lat="43.2706" lon="2.57292">
        <ele>74</ele>
        <time>2020-05-31T06:45:40Z</time>
      </trkpt>
      <trkpt lat="43.27064" lon="2.57294">
        <ele>74</ele>
        <time>2020-05-31T06:45:41Z</time>
      </trkpt>
      <trkpt lat="43.27067" lon="2.57297">
        <ele>75</ele>
        <time>2020-05-31T06:45:42Z</time>
      </trkpt>
      <trkpt lat="43.27075" lon="2.57303">
        <ele>75</ele>
        <time>2020-05-31T06:45:44Z</time>
      </trkpt>
      <trkpt lat="43.27081" lon="2.5731">
        <ele>76</ele>
        <time>2020-05-31T06:45:46Z</time>
      </trkpt>
      <trkpt lat="43.27099" lon="2.57335">
        <ele>78</ele>
        <time>2020-05-31T06:45:52Z</time>
      </trkpt>
      <trkpt lat="43.27104" lon="2.57344">
        <ele>79</ele>
        <time>2020-05-31T06:45:54Z</time>
      </trkpt>
      <trkpt lat="43.27114" lon="2.5736">
        <ele>80</ele>
        <time>2020-05-31T06:45:58Z</time>
      </trkpt>
      <trkpt lat="43.27131" lon="2.57391">
        <ele>81</ele>
        <time>2020-05-31T06:46:05Z</time>
      </trkpt>
      <trkpt lat="43.27133" lon="2.57396">
        <ele>81</ele>
        <time>2020-05-31T06:46:06Z</time>
      </trkpt>
      <trkpt lat="43.27135" lon="2.57401">
        <ele>81</ele>
        <time>2020-05-31T06:46:07Z</time>
      </trkpt>
      <trkpt lat="43.27142" lon="2.57422">
        <ele>82</ele>
        <time>2020-05-31T06:46:11Z</time>
      </trkpt>
      <trkpt lat="43.27145" lon="2.57443">
        <ele>82</ele>
        <time>2020-05-31T06:46:15Z</time>
      </trkpt>
      <trkpt lat="43.27147" lon="2.57464">
        <ele>83</ele>
        <time>2020-05-31T06:46:19Z</time>
      </trkpt>
      <trkpt lat="43.27148" lon="2.57469">
        <ele>83</ele>
        <time>2020-05-31T06:46:20Z</time>
      </trkpt>
      <trkpt lat="43.27149" lon="2.57501">
        <ele>84</ele>
        <time>2020-05-31T06:46:26Z</time>
      </trkpt>
      <trkpt lat="43.2715" lon="2.57516">
        <ele>84</ele>
        <time>2020-05-31T06:46:29Z</time>
      </trkpt>
      <trkpt lat="43.27152" lon="2.57552">
        <ele>84</ele>
        <time>2020-05-31T06:46:36Z</time>
      </trkpt>
      <trkpt lat="43.27154" lon="2.57605">
        <ele>87</ele>
        <time>2020-05-31T06:46:46Z</time>
      </trkpt>
      <trkpt lat="43.27154" lon="2.57617">
        <ele>88</ele>
        <time>2020-05-31T06:46:48Z</time>
      </trkpt>
      <trkpt lat="43.27157" lon="2.57655">
        <ele>90</ele>
        <time>2020-05-31T06:46:55Z</time>
      </trkpt>
      <trkpt lat="43.27162" lon="2.57681">
        <ele>91</ele>
        <time>2020-05-31T06:47:00Z</time>
      </trkpt>
      <trkpt lat="43.27164" lon="2.57685">
        <ele>91</ele>
        <time>2020-05-31T06:47:01Z</time>
      </trkpt>
      <trkpt lat="43.27175" lon="2.57699">
        <ele>91</ele>
        <time>2020-05-31T06:47:05Z</time>
      </trkpt>
      <trkpt lat="43.27194" lon="2.57705">
        <ele>91</ele>
        <time>2020-05-31T06:47:10Z</time>
      </trkpt>
      <trkpt lat="43.27216" lon="2.57703">
        <ele>92</ele>
        <time>2020-05-31T06:47:16Z</time>
      </trkpt>
      <trkpt lat="43.2722" lon="2.57702">
        <ele>92</ele>
        <time>2020-05-31T06:47:17Z</time>
      </trkpt>
      <trkpt lat="43.27227" lon="2.577">
        <ele>93</ele>
        <time>2020-05-31T06:47:19Z</time>
      </trkpt>
      <trkpt lat="43.27246" lon="2.57698">
        <ele>94</ele>
        <time>2020-05-31T06:47:24Z</time>
      </trkpt>
      <trkpt lat="43.27262" lon="2.57699">
        <ele>95</ele>
        <time>2020-05-31T06:47:28Z</time>
      </trkpt>
      <trkpt lat="43.27278" lon="2.577">
        <ele>95</ele>
        <time>2020-05-31T06:47:32Z</time>
      </trkpt>
      <trkpt lat="43.27301" lon="2.57709">
        <ele>97</ele>
        <time>2020-05-31T06:47:38Z</time>
      </trkpt>
      <trkpt lat="43.27304" lon="2.5771">
        <ele>97</ele>
        <time>2020-05-31T06:47:39Z</time>
      </trkpt>
      <trkpt lat="43.27333" lon="2.57724">
        <ele>97</ele>
        <time>2020-05-31T06:47:47Z</time>
      </trkpt>
      <trkpt lat="43.27337" lon="2.57726">
        <ele>98</ele>
        <time>2020-05-31T06:47:48Z</time>
      </trkpt>
      <trkpt lat="43.27363" lon="2.57739">
        <ele>100</ele>
        <time>2020-05-31T06:47:55Z</time>
      </trkpt>
      <trkpt lat="43.27395" lon="2.57754">
        <ele>104</ele>
        <time>2020-05-31T06:48:04Z</time>
      </trkpt>
      <trkpt lat="43.27399" lon="2.57756">
        <ele>104</ele>
        <time>2020-05-31T06:48:05Z</time>
      </trkpt>
      <trkpt lat="43.2742" lon="2.57769">
        <ele>107</ele>
        <time>2020-05-31T06:48:11Z</time>
      </trkpt>
      <trkpt lat="43.27427" lon="2.57774">
        <ele>107</ele>
        <time>2020-05-31T06:48:13Z</time>
      </trkpt>
      <trkpt lat="43.27436" lon="2.57782">
        <ele>107</ele>
        <time>2020-05-31T06:48:16Z</time>
      </trkpt>
      <trkpt lat="43.27439" lon="2.57785">
        <ele>107</ele>
        <time>2020-05-31T06:48:17Z</time>
      </trkpt>
      <trkpt lat="43.27445" lon="2.57791">
        <ele>107</ele>
        <time>2020-05-31T06:48:19Z</time>
      </trkpt>
      <trkpt lat="43.27448" lon="2.57795">
        <ele>107</ele>
        <time>2020-05-31T06:48:20Z</time>
      </trkpt>
      <trkpt lat="43.27468" lon="2.57822">
        <ele>106</ele>
        <time>2020-05-31T06:48:27Z</time>
      </trkpt>
      <trkpt lat="43.2747" lon="2.57827">
        <ele>106</ele>
        <time>2020-05-31T06:48:28Z</time>
      </trkpt>
      <trkpt lat="43.27485" lon="2.57857">
        <ele>106</ele>
        <time>2020-05-31T06:48:35Z</time>
      </trkpt>
      <trkpt lat="43.27487" lon="2.57862">
        <ele>106</ele>
        <time>2020-05-31T06:48:36Z</time>
      </trkpt>
      <trkpt lat="43.27497" lon="2.57889">
        <ele>108</ele>
        <time>2020-05-31T06:48:42Z</time>
      </trkpt>
      <trkpt lat="43.27499" lon="2.579">
        <ele>110</ele>
        <time>2020-05-31T06:48:44Z</time>
      </trkpt>
      <trkpt lat="43.275" lon="2.5792">
        <ele>112</ele>
        <time>2020-05-31T06:48:48Z</time>
      </trkpt>
      <trkpt lat="43.27498" lon="2.57941">
        <ele>113</ele>
        <time>2020-05-31T06:48:52Z</time>
      </trkpt>
      <trkpt lat="43.27495" lon="2.57957">
        <ele>113</ele>
        <time>2020-05-31T06:48:55Z</time>
      </trkpt>
      <trkpt lat="43.27494" lon="2.57962">
        <ele>114</ele>
        <time>2020-05-31T06:48:56Z</time>
      </trkpt>
      <trkpt lat="43.27493" lon="2.57967">
        <ele>114</ele>
        <time>2020-05-31T06:48:57Z</time>
      </trkpt>
      <trkpt lat="43.27489" lon="2.57992">
        <ele>114</ele>
        <time>2020-05-31T06:49:02Z</time>
      </trkpt>
      <trkpt lat="43.27487" lon="2.58012">
        <ele>114</ele>
        <time>2020-05-31T06:49:06Z</time>
      </trkpt>
      <trkpt lat="43.27487" lon="2.58016">
        <ele>115</ele>
        <time>2020-05-31T06:49:07Z</time>
      </trkpt>
      <trkpt lat="43.27488" lon="2.58026">
        <ele>115</ele>
        <time>2020-05-31T06:49:09Z</time>
      </trkpt>
      <trkpt lat="43.27489" lon="2.58037">
        <ele>116</ele>
        <time>2020-05-31T06:49:11Z</time>
      </trkpt>
      <trkpt lat="43.27492" lon="2.58047">
        <ele>117</ele>
        <time>2020-05-31T06:49:13Z</time>
      </trkpt>
      <trkpt lat="43.27497" lon="2.58061">
        <ele>119</ele>
        <time>2020-05-31T06:49:16Z</time>
      </trkpt>
      <trkpt lat="43.27504" lon="2.58074">
        <ele>120</ele>
        <time>2020-05-31T06:49:19Z</time>
      </trkpt>
      <trkpt lat="43.27512" lon="2.58084">
        <ele>121</ele>
        <time>2020-05-31T06:49:22Z</time>
      </trkpt>
      <trkpt lat="43.27521" lon="2.58094">
        <ele>122</ele>
        <time>2020-05-31T06:49:25Z</time>
      </trkpt>
      <trkpt lat="43.2753" lon="2.58103">
        <ele>122</ele>
        <time>2020-05-31T06:49:28Z</time>
      </trkpt>
      <trkpt lat="43.27542" lon="2.58115">
        <ele>123</ele>
        <time>2020-05-31T06:49:32Z</time>
      </trkpt>
      <trkpt lat="43.27545" lon="2.58117">
        <ele>123</ele>
        <time>2020-05-31T06:49:33Z</time>
      </trkpt>
      <trkpt lat="43.27548" lon="2.5812">
        <ele>124</ele>
        <time>2020-05-31T06:49:34Z</time>
      </trkpt>
      <trkpt lat="43.27555" lon="2.58125">
        <ele>124</ele>
        <time>2020-05-31T06:49:36Z</time>
      </trkpt>
      <trkpt lat="43.27562" lon="2.58131">
        <ele>125</ele>
        <time>2020-05-31T06:49:38Z</time>
      </trkpt>
      <trkpt lat="43.27577" lon="2.58143">
        <ele>127</ele>
        <time>2020-05-31T06:49:43Z</time>
      </trkpt>
      <trkpt lat="43.2758" lon="2.58145">
        <ele>127</ele>
        <time>2020-05-31T06:49:44Z</time>
      </trkpt>
      <trkpt lat="43.27597" lon="2.58157">
        <ele>129</ele>
        <time>2020-05-31T06:49:50Z</time>
      </trkpt>
      <trkpt lat="43.27601" lon="2.5816">
        <ele>129</ele>
        <time>2020-05-31T06:49:52Z</time>
      </trkpt>
      <trkpt lat="43.27615" lon="2.58169">
        <ele>129</ele>
        <time>2020-05-31T06:49:57Z</time>
      </trkpt>
      <trkpt lat="43.27629" lon="2.58175">
        <ele>129</ele>
        <time>2020-05-31T06:50:00Z</time>
      </trkpt>
      <trkpt lat="43.2764" lon="2.58179">
        <ele>128</ele>
        <time>2020-05-31T06:50:02Z</time>
      </trkpt>
      <trkpt lat="43.27658" lon="2.58187">
        <ele>127</ele>
        <time>2020-05-31T06:50:05Z</time>
      </trkpt>
      <trkpt lat="43.27671" lon="2.58197">
        <ele>126</ele>
        <time>2020-05-31T06:50:07Z</time>
      </trkpt>
      <trkpt lat="43.27677" lon="2.58203">
        <ele>125</ele>
        <time>2020-05-31T06:50:08Z</time>
      </trkpt>
      <trkpt lat="43.27703" lon="2.58225">
        <ele>123</ele>
        <time>2020-05-31T06:50:12Z</time>
      </trkpt>
      <trkpt lat="43.27711" lon="2.58229">
        <ele>122</ele>
        <time>2020-05-31T06:50:13Z</time>
      </trkpt>
      <trkpt lat="43.27719" lon="2.58232">
        <ele>120</ele>
        <time>2020-05-31T06:50:14Z</time>
      </trkpt>
      <trkpt lat="43.27728" lon="2.58235">
        <ele>118</ele>
        <time>2020-05-31T06:50:15Z</time>
      </trkpt>
      <trkpt lat="43.27737" lon="2.58239">
        <ele>117</ele>
        <time>2020-05-31T06:50:16Z</time>
      </trkpt>
      <trkpt lat="43.27745" lon="2.58245">
        <ele>115</ele>
        <time>2020-05-31T06:50:17Z</time>
      </trkpt>
      <trkpt lat="43.27752" lon="2.58254">
        <ele>114</ele>
        <time>2020-05-31T06:50:18Z</time>
      </trkpt>
      <trkpt lat="43.27757" lon="2.58265">
        <ele>113</ele>
        <time>2020-05-31T06:50:19Z</time>
      </trkpt>
      <trkpt lat="43.27761" lon="2.58278">
        <ele>112</ele>
        <time>2020-05-31T06:50:20Z</time>
      </trkpt>
      <trkpt lat="43.27762" lon="2.58292">
        <ele>112</ele>
        <time>2020-05-31T06:50:21Z</time>
      </trkpt>
      <trkpt lat="43.27762" lon="2.58305">
        <ele>112</ele>
        <time>2020-05-31T06:50:22Z</time>
      </trkpt>
      <trkpt lat="43.27761" lon="2.58333">
        <ele>112</ele>
        <time>2020-05-31T06:50:24Z</time>
      </trkpt>
      <trkpt lat="43.27758" lon="2.58347">
        <ele>111</ele>
        <time>2020-05-31T06:50:25Z</time>
      </trkpt>
      <trkpt lat="43.27755" lon="2.58361">
        <ele>110</ele>
        <time>2020-05-31T06:50:26Z</time>
      </trkpt>
      <trkpt lat="43.27753" lon="2.58374">
        <ele>110</ele>
        <time>2020-05-31T06:50:27Z</time>
      </trkpt>
      <trkpt lat="43.27757" lon="2.58397">
        <ele>107</ele>
        <time>2020-05-31T06:50:29Z</time>
      </trkpt>
      <trkpt lat="43.27771" lon="2.58411">
        <ele>104</ele>
        <time>2020-05-31T06:50:31Z</time>
      </trkpt>
      <trkpt lat="43.27789" lon="2.58409">
        <ele>102</ele>
        <time>2020-05-31T06:50:33Z</time>
      </trkpt>
      <trkpt lat="43.27808" lon="2.58397">
        <ele>101</ele>
        <time>2020-05-31T06:50:35Z</time>
      </trkpt>
      <trkpt lat="43.27817" lon="2.58389">
        <ele>101</ele>
        <time>2020-05-31T06:50:36Z</time>
      </trkpt>
      <trkpt lat="43.27827" lon="2.58382">
        <ele>102</ele>
        <time>2020-05-31T06:50:37Z</time>
      </trkpt>
      <trkpt lat="43.27855" lon="2.5836">
        <ele>101</ele>
        <time>2020-05-31T06:50:40Z</time>
      </trkpt>
      <trkpt lat="43.27865" lon="2.58356">
        <ele>101</ele>
        <time>2020-05-31T06:50:41Z</time>
      </trkpt>
      <trkpt lat="43.27875" lon="2.58355">
        <ele>101</ele>
        <time>2020-05-31T06:50:42Z</time>
      </trkpt>
      <trkpt lat="43.27893" lon="2.5836">
        <ele>101</ele>
        <time>2020-05-31T06:50:44Z</time>
      </trkpt>
      <trkpt lat="43.27909" lon="2.58372">
        <ele>102</ele>
        <time>2020-05-31T06:50:46Z</time>
      </trkpt>
      <trkpt lat="43.27924" lon="2.58384">
        <ele>103</ele>
        <time>2020-05-31T06:50:48Z</time>
      </trkpt>
      <trkpt lat="43.27941" lon="2.58401">
        <ele>104</ele>
        <time>2020-05-31T06:50:51Z</time>
      </trkpt>
      <trkpt lat="43.27946" lon="2.58406">
        <ele>105</ele>
        <time>2020-05-31T06:50:52Z</time>
      </trkpt>
      <trkpt lat="43.27956" lon="2.58415">
        <ele>106</ele>
        <time>2020-05-31T06:50:54Z</time>
      </trkpt>
      <trkpt lat="43.27961" lon="2.58419">
        <ele>106</ele>
        <time>2020-05-31T06:50:55Z</time>
      </trkpt>
      <trkpt lat="43.27975" lon="2.5843">
        <ele>108</ele>
        <time>2020-05-31T06:50:58Z</time>
      </trkpt>
      <trkpt lat="43.27982" lon="2.58434">
        <ele>110</ele>
        <time>2020-05-31T06:51:00Z</time>
      </trkpt>
      <trkpt lat="43.2799" lon="2.58439">
        <ele>111</ele>
        <time>2020-05-31T06:51:03Z</time>
      </trkpt>
      <trkpt lat="43.27992" lon="2.58441">
        <ele>112</ele>
        <time>2020-05-31T06:51:04Z</time>
      </trkpt>
      <trkpt lat="43.28002" lon="2.58449">
        <ele>114</ele>
        <time>2020-05-31T06:51:08Z</time>
      </trkpt>
      <trkpt lat="43.28004" lon="2.58451">
        <ele>114</ele>
        <time>2020-05-31T06:51:09Z</time>
      </trkpt>
      <trkpt lat="43.28014" lon="2.58456">
        <ele>116</ele>
        <time>2020-05-31T06:51:13Z</time>
      </trkpt>
      <trkpt lat="43.28017" lon="2.58458">
        <ele>116</ele>
        <time>2020-05-31T06:51:14Z</time>
      </trkpt>
      <trkpt lat="43.28032" lon="2.58463">
        <ele>118</ele>
        <time>2020-05-31T06:51:19Z</time>
      </trkpt>
      <trkpt lat="43.28035" lon="2.58465">
        <ele>118</ele>
        <time>2020-05-31T06:51:20Z</time>
      </trkpt>
      <trkpt lat="43.28045" lon="2.58471">
        <ele>118</ele>
        <time>2020-05-31T06:51:23Z</time>
      </trkpt>
      <trkpt lat="43.28048" lon="2.58472">
        <ele>118</ele>
        <time>2020-05-31T06:51:24Z</time>
      </trkpt>
      <trkpt lat="43.28054" lon="2.58475">
        <ele>118</ele>
        <time>2020-05-31T06:51:26Z</time>
      </trkpt>
      <trkpt lat="43.28059" lon="2.58481">
        <ele>118</ele>
        <time>2020-05-31T06:51:28Z</time>
      </trkpt>
      <trkpt lat="43.2806" lon="2.58486">
        <ele>118</ele>
        <time>2020-05-31T06:51:29Z</time>
      </trkpt>
      <trkpt lat="43.28059" lon="2.58496">
        <ele>118</ele>
        <time>2020-05-31T06:51:31Z</time>
      </trkpt>
      <trkpt lat="43.28056" lon="2.58522">
        <ele>117</ele>
        <time>2020-05-31T06:51:36Z</time>
      </trkpt>
      <trkpt lat="43.28054" lon="2.58537">
        <ele>117</ele>
        <time>2020-05-31T06:51:39Z</time>
      </trkpt>
      <trkpt lat="43.28051" lon="2.58555">
        <ele>117</ele>
        <time>2020-05-31T06:51:43Z</time>
      </trkpt>
      <trkpt lat="43.2805" lon="2.5857">
        <ele>117</ele>
        <time>2020-05-31T06:51:46Z</time>
      </trkpt>
      <trkpt lat="43.28041" lon="2.58607">
        <ele>118</ele>
        <time>2020-05-31T06:51:54Z</time>
      </trkpt>
      <trkpt lat="43.28035" lon="2.58639">
        <ele>117</ele>
        <time>2020-05-31T06:52:00Z</time>
      </trkpt>
      <trkpt lat="43.28033" lon="2.5865">
        <ele>117</ele>
        <time>2020-05-31T06:52:02Z</time>
      </trkpt>
      <trkpt lat="43.28032" lon="2.58655">
        <ele>117</ele>
        <time>2020-05-31T06:52:03Z</time>
      </trkpt>
      <trkpt lat="43.28029" lon="2.58672">
        <ele>117</ele>
        <time>2020-05-31T06:52:06Z</time>
      </trkpt>
      <trkpt lat="43.28029" lon="2.58678">
        <ele>117</ele>
        <time>2020-05-31T06:52:07Z</time>
      </trkpt>
      <trkpt lat="43.28027" lon="2.58691">
        <ele>117</ele>
        <time>2020-05-31T06:52:09Z</time>
      </trkpt>
      <trkpt lat="43.28022" lon="2.58742">
        <ele>117</ele>
        <time>2020-05-31T06:52:17Z</time>
      </trkpt>
      <trkpt lat="43.28022" lon="2.58748">
        <ele>117</ele>
        <time>2020-05-31T06:52:18Z</time>
      </trkpt>
      <trkpt lat="43.2802" lon="2.58795">
        <ele>116</ele>
        <time>2020-05-31T06:52:25Z</time>
      </trkpt>
      <trkpt lat="43.2802" lon="2.58802">
        <ele>116</ele>
        <time>2020-05-31T06:52:26Z</time>
      </trkpt>
      <trkpt lat="43.28022" lon="2.58856">
        <ele>116</ele>
        <time>2020-05-31T06:52:34Z</time>
      </trkpt>
      <trkpt lat="43.28022" lon="2.58862">
        <ele>116</ele>
        <time>2020-05-31T06:52:35Z</time>
      </trkpt>
      <trkpt lat="43.28024" lon="2.58876">
        <ele>116</ele>
        <time>2020-05-31T06:52:37Z</time>
      </trkpt>
      <trkpt lat="43.28025" lon="2.58887">
        <ele>116</ele>
        <time>2020-05-31T06:52:39Z</time>
      </trkpt>
      <trkpt lat="43.28026" lon="2.58898">
        <ele>116</ele>
        <time>2020-05-31T06:52:41Z</time>
      </trkpt>
      <trkpt lat="43.28027" lon="2.58939">
        <ele>116</ele>
        <time>2020-05-31T06:52:49Z</time>
      </trkpt>
      <trkpt lat="43.28028" lon="2.58946">
        <ele>117</ele>
        <time>2020-05-31T06:52:53Z</time>
      </trkpt>
      <trkpt lat="43.28029" lon="2.58949">
        <ele>117</ele>
        <time>2020-05-31T06:53:12Z</time>
      </trkpt>
      <trkpt lat="43.2803" lon="2.58954">
        <ele>117</ele>
        <time>2020-05-31T06:53:14Z</time>
      </trkpt>
      <trkpt lat="43.28032" lon="2.58979">
        <ele>117</ele>
        <time>2020-05-31T06:53:20Z</time>
      </trkpt>
      <trkpt lat="43.28035" lon="2.59003">
        <ele>117</ele>
        <time>2020-05-31T06:53:24Z</time>
      </trkpt>
      <trkpt lat="43.28038" lon="2.59022">
        <ele>116</ele>
        <time>2020-05-31T06:53:27Z</time>
      </trkpt>
      <trkpt lat="43.28039" lon="2.59029">
        <ele>116</ele>
        <time>2020-05-31T06:53:28Z</time>
      </trkpt>
      <trkpt lat="43.28043" lon="2.5905">
        <ele>114</ele>
        <time>2020-05-31T06:53:31Z</time>
      </trkpt>
      <trkpt lat="43.28045" lon="2.59058">
        <ele>114</ele>
        <time>2020-05-31T06:53:32Z</time>
      </trkpt>
      <trkpt lat="43.28049" lon="2.5908">
        <ele>113</ele>
        <time>2020-05-31T06:53:35Z</time>
      </trkpt>
      <trkpt lat="43.28054" lon="2.59101">
        <ele>113</ele>
        <time>2020-05-31T06:53:38Z</time>
      </trkpt>
      <trkpt lat="43.28057" lon="2.59115">
        <ele>114</ele>
        <time>2020-05-31T06:53:40Z</time>
      </trkpt>
      <trkpt lat="43.2806" lon="2.59128">
        <ele>114</ele>
        <time>2020-05-31T06:53:42Z</time>
      </trkpt>
      <trkpt lat="43.28064" lon="2.59142">
        <ele>114</ele>
        <time>2020-05-31T06:53:44Z</time>
      </trkpt>
      <trkpt lat="43.28069" lon="2.59164">
        <ele>114</ele>
        <time>2020-05-31T06:53:47Z</time>
      </trkpt>
      <trkpt lat="43.28074" lon="2.59186">
        <ele>114</ele>
        <time>2020-05-31T06:53:50Z</time>
      </trkpt>
      <trkpt lat="43.28078" lon="2.59201">
        <ele>114</ele>
        <time>2020-05-31T06:53:52Z</time>
      </trkpt>
      <trkpt lat="43.28082" lon="2.59222">
        <ele>114</ele>
        <time>2020-05-31T06:53:55Z</time>
      </trkpt>
      <trkpt lat="43.28087" lon="2.59242">
        <ele>114</ele>
        <time>2020-05-31T06:53:58Z</time>
      </trkpt>
      <trkpt lat="43.28089" lon="2.59249">
        <ele>114</ele>
        <time>2020-05-31T06:53:59Z</time>
      </trkpt>
      <trkpt lat="43.2809" lon="2.59256">
        <ele>114</ele>
        <time>2020-05-31T06:54:00Z</time>
      </trkpt>
      <trkpt lat="43.28091" lon="2.59268">
        <ele>114</ele>
        <time>2020-05-31T06:54:02Z</time>
      </trkpt>
      <trkpt lat="43.28092" lon="2.59275">
        <ele>114</ele>
        <time>2020-05-31T06:54:03Z</time>
      </trkpt>
      <trkpt lat="43.28092" lon="2.59281">
        <ele>114</ele>
        <time>2020-05-31T06:54:04Z</time>
      </trkpt>
      <trkpt lat="43.28091" lon="2.59302">
        <ele>114</ele>
        <time>2020-05-31T06:54:07Z</time>
      </trkpt>
      <trkpt lat="43.28092" lon="2.59309">
        <ele>114</ele>
        <time>2020-05-31T06:54:08Z</time>
      </trkpt>
      <trkpt lat="43.281" lon="2.59341">
        <ele>115</ele>
        <time>2020-05-31T06:54:13Z</time>
      </trkpt>
      <trkpt lat="43.28101" lon="2.59346">
        <ele>115</ele>
        <time>2020-05-31T06:54:14Z</time>
      </trkpt>
      <trkpt lat="43.28113" lon="2.59393">
        <ele>116</ele>
        <time>2020-05-31T06:54:22Z</time>
      </trkpt>
      <trkpt lat="43.28118" lon="2.59413">
        <ele>116</ele>
        <time>2020-05-31T06:54:26Z</time>
      </trkpt>
      <trkpt lat="43.28119" lon="2.59418">
        <ele>115</ele>
        <time>2020-05-31T06:54:27Z</time>
      </trkpt>
      <trkpt lat="43.28124" lon="2.59433">
        <ele>115</ele>
        <time>2020-05-31T06:54:30Z</time>
      </trkpt>
      <trkpt lat="43.28128" lon="2.59443">
        <ele>115</ele>
        <time>2020-05-31T06:54:32Z</time>
      </trkpt>
      <trkpt lat="43.2813" lon="2.59449">
        <ele>114</ele>
        <time>2020-05-31T06:54:33Z</time>
      </trkpt>
      <trkpt lat="43.28131" lon="2.59455">
        <ele>114</ele>
        <time>2020-05-31T06:54:34Z</time>
      </trkpt>
      <trkpt lat="43.2814" lon="2.59487">
        <ele>113</ele>
        <time>2020-05-31T06:54:39Z</time>
      </trkpt>
      <trkpt lat="43.28147" lon="2.59517">
        <ele>112</ele>
        <time>2020-05-31T06:54:43Z</time>
      </trkpt>
      <trkpt lat="43.28155" lon="2.59552">
        <ele>112</ele>
        <time>2020-05-31T06:54:48Z</time>
      </trkpt>
      <trkpt lat="43.28167" lon="2.59599">
        <ele>113</ele>
        <time>2020-05-31T06:54:55Z</time>
      </trkpt>
      <trkpt lat="43.28176" lon="2.5964">
        <ele>113</ele>
        <time>2020-05-31T06:55:01Z</time>
      </trkpt>
      <trkpt lat="43.28186" lon="2.59685">
        <ele>112</ele>
        <time>2020-05-31T06:55:07Z</time>
      </trkpt>
      <trkpt lat="43.28191" lon="2.59707">
        <ele>112</ele>
        <time>2020-05-31T06:55:10Z</time>
      </trkpt>
      <trkpt lat="43.282" lon="2.59743">
        <ele>112</ele>
        <time>2020-05-31T06:55:15Z</time>
      </trkpt>
      <trkpt lat="43.28204" lon="2.59757">
        <ele>112</ele>
        <time>2020-05-31T06:55:17Z</time>
      </trkpt>
      <trkpt lat="43.28206" lon="2.59764">
        <ele>112</ele>
        <time>2020-05-31T06:55:18Z</time>
      </trkpt>
      <trkpt lat="43.28211" lon="2.59786">
        <ele>112</ele>
        <time>2020-05-31T06:55:21Z</time>
      </trkpt>
      <trkpt lat="43.28214" lon="2.59801">
        <ele>112</ele>
        <time>2020-05-31T06:55:23Z</time>
      </trkpt>
      <trkpt lat="43.28218" lon="2.59816">
        <ele>112</ele>
        <time>2020-05-31T06:55:25Z</time>
      </trkpt>
      <trkpt lat="43.28219" lon="2.59823">
        <ele>112</ele>
        <time>2020-05-31T06:55:26Z</time>
      </trkpt>
      <trkpt lat="43.28221" lon="2.5983">
        <ele>112</ele>
        <time>2020-05-31T06:55:27Z</time>
      </trkpt>
      <trkpt lat="43.28223" lon="2.59838">
        <ele>112</ele>
        <time>2020-05-31T06:55:28Z</time>
      </trkpt>
      <trkpt lat="43.28227" lon="2.59852">
        <ele>112</ele>
        <time>2020-05-31T06:55:30Z</time>
      </trkpt>
      <trkpt lat="43.28236" lon="2.59891">
        <ele>111</ele>
        <time>2020-05-31T06:55:35Z</time>
      </trkpt>
      <trkpt lat="43.28243" lon="2.59921">
        <ele>110</ele>
        <time>2020-05-31T06:55:39Z</time>
      </trkpt>
      <trkpt lat="43.28249" lon="2.5995">
        <ele>109</ele>
        <time>2020-05-31T06:55:43Z</time>
      </trkpt>
      <trkpt lat="43.28253" lon="2.59965">
        <ele>108</ele>
        <time>2020-05-31T06:55:45Z</time>
      </trkpt>
      <trkpt lat="43.2826" lon="2.59997">
        <ele>107</ele>
        <time>2020-05-31T06:55:49Z</time>
      </trkpt>
      <trkpt lat="43.28263" lon="2.60006">
        <ele>107</ele>
        <time>2020-05-31T06:55:50Z</time>
      </trkpt>
      <trkpt lat="43.28268" lon="2.60025">
        <ele>105</ele>
        <time>2020-05-31T06:55:52Z</time>
      </trkpt>
      <trkpt lat="43.28273" lon="2.60046">
        <ele>103</ele>
        <time>2020-05-31T06:55:54Z</time>
      </trkpt>
      <trkpt lat="43.28278" lon="2.60068">
        <ele>103</ele>
        <time>2020-05-31T06:55:56Z</time>
      </trkpt>
      <trkpt lat="43.28281" lon="2.60079">
        <ele>103</ele>
        <time>2020-05-31T06:55:57Z</time>
      </trkpt>
      <trkpt lat="43.28284" lon="2.60091">
        <ele>102</ele>
        <time>2020-05-31T06:55:58Z</time>
      </trkpt>
      <trkpt lat="43.28287" lon="2.60103">
        <ele>102</ele>
        <time>2020-05-31T06:55:59Z</time>
      </trkpt>
      <trkpt lat="43.2829" lon="2.60115">
        <ele>101</ele>
        <time>2020-05-31T06:56:00Z</time>
      </trkpt>
      <trkpt lat="43.28293" lon="2.60127">
        <ele>101</ele>
        <time>2020-05-31T06:56:01Z</time>
      </trkpt>
      <trkpt lat="43.28299" lon="2.60152">
        <ele>100</ele>
        <time>2020-05-31T06:56:03Z</time>
      </trkpt>
      <trkpt lat="43.28301" lon="2.60178">
        <ele>100</ele>
        <time>2020-05-31T06:56:05Z</time>
      </trkpt>
      <trkpt lat="43.28301" lon="2.60191">
        <ele>100</ele>
        <time>2020-05-31T06:56:06Z</time>
      </trkpt>
      <trkpt lat="43.28301" lon="2.60204">
        <ele>100</ele>
        <time>2020-05-31T06:56:07Z</time>
      </trkpt>
      <trkpt lat="43.28301" lon="2.6023">
        <ele>100</ele>
        <time>2020-05-31T06:56:09Z</time>
      </trkpt>
      <trkpt lat="43.28301" lon="2.60257">
        <ele>100</ele>
        <time>2020-05-31T06:56:11Z</time>
      </trkpt>
      <trkpt lat="43.28301" lon="2.60284">
        <ele>99</ele>
        <time>2020-05-31T06:56:13Z</time>
      </trkpt>
      <trkpt lat="43.28301" lon="2.60297">
        <ele>98</ele>
        <time>2020-05-31T06:56:14Z</time>
      </trkpt>
      <trkpt lat="43.28301" lon="2.6031">
        <ele>97</ele>
        <time>2020-05-31T06:56:15Z</time>
      </trkpt>
      <trkpt lat="43.28302" lon="2.60324">
        <ele>97</ele>
        <time>2020-05-31T06:56:16Z</time>
      </trkpt>
      <trkpt lat="43.28302" lon="2.60337">
        <ele>97</ele>
        <time>2020-05-31T06:56:17Z</time>
      </trkpt>
      <trkpt lat="43.28303" lon="2.60408">
        <ele>97</ele>
        <time>2020-05-31T06:56:23Z</time>
      </trkpt>
      <trkpt lat="43.28303" lon="2.60428">
        <ele>97</ele>
        <time>2020-05-31T06:56:25Z</time>
      </trkpt>
      <trkpt lat="43.28304" lon="2.60446">
        <ele>97</ele>
        <time>2020-05-31T06:56:27Z</time>
      </trkpt>
      <trkpt lat="43.28304" lon="2.60454">
        <ele>97</ele>
        <time>2020-05-31T06:56:28Z</time>
      </trkpt>
      <trkpt lat="43.28305" lon="2.60514">
        <ele>96</ele>
        <time>2020-05-31T06:56:35Z</time>
      </trkpt>
      <trkpt lat="43.28305" lon="2.60542">
        <ele>95</ele>
        <time>2020-05-31T06:56:38Z</time>
      </trkpt>
      <trkpt lat="43.28305" lon="2.60583">
        <ele>95</ele>
        <time>2020-05-31T06:56:42Z</time>
      </trkpt>
      <trkpt lat="43.28305" lon="2.60593">
        <ele>95</ele>
        <time>2020-05-31T06:56:43Z</time>
      </trkpt>
      <trkpt lat="43.28306" lon="2.60651">
        <ele>95</ele>
        <time>2020-05-31T06:56:49Z</time>
      </trkpt>
      <trkpt lat="43.28306" lon="2.60661">
        <ele>95</ele>
        <time>2020-05-31T06:56:50Z</time>
      </trkpt>
      <trkpt lat="43.28306" lon="2.6067">
        <ele>95</ele>
        <time>2020-05-31T06:56:51Z</time>
      </trkpt>
      <trkpt lat="43.28307" lon="2.60728">
        <ele>95</ele>
        <time>2020-05-31T06:56:57Z</time>
      </trkpt>
      <trkpt lat="43.28307" lon="2.60737">
        <ele>95</ele>
        <time>2020-05-31T06:56:58Z</time>
      </trkpt>
      <trkpt lat="43.28308" lon="2.60765">
        <ele>94</ele>
        <time>2020-05-31T06:57:01Z</time>
      </trkpt>
      <trkpt lat="43.28308" lon="2.60775">
        <ele>94</ele>
        <time>2020-05-31T06:57:02Z</time>
      </trkpt>
      <trkpt lat="43.28308" lon="2.60784">
        <ele>94</ele>
        <time>2020-05-31T06:57:03Z</time>
      </trkpt>
      <trkpt lat="43.28309" lon="2.6082">
        <ele>94</ele>
        <time>2020-05-31T06:57:07Z</time>
      </trkpt>
      <trkpt lat="43.2831" lon="2.60845">
        <ele>94</ele>
        <time>2020-05-31T06:57:10Z</time>
      </trkpt>
      <trkpt lat="43.28311" lon="2.60902">
        <ele>93</ele>
        <time>2020-05-31T06:57:17Z</time>
      </trkpt>
      <trkpt lat="43.28314" lon="2.60982">
        <ele>92</ele>
        <time>2020-05-31T06:57:27Z</time>
      </trkpt>
      <trkpt lat="43.28316" lon="2.6102">
        <ele>93</ele>
        <time>2020-05-31T06:57:32Z</time>
      </trkpt>
      <trkpt lat="43.28316" lon="2.61027">
        <ele>94</ele>
        <time>2020-05-31T06:57:33Z</time>
      </trkpt>
      <trkpt lat="43.28316" lon="2.61034">
        <ele>94</ele>
        <time>2020-05-31T06:57:34Z</time>
      </trkpt>
      <trkpt lat="43.28316" lon="2.61055">
        <ele>93</ele>
        <time>2020-05-31T06:57:37Z</time>
      </trkpt>
      <trkpt lat="43.28317" lon="2.61083">
        <ele>93</ele>
        <time>2020-05-31T06:57:41Z</time>
      </trkpt>
      <trkpt lat="43.28319" lon="2.61139">
        <ele>94</ele>
        <time>2020-05-31T06:57:49Z</time>
      </trkpt>
      <trkpt lat="43.2832" lon="2.61161">
        <ele>94</ele>
        <time>2020-05-31T06:57:52Z</time>
      </trkpt>
      <trkpt lat="43.28322" lon="2.61202">
        <ele>93</ele>
        <time>2020-05-31T06:57:58Z</time>
      </trkpt>
      <trkpt lat="43.28322" lon="2.61209">
        <ele>93</ele>
        <time>2020-05-31T06:57:59Z</time>
      </trkpt>
      <trkpt lat="43.28323" lon="2.61251">
        <ele>93</ele>
        <time>2020-05-31T06:58:05Z</time>
      </trkpt>
      <trkpt lat="43.28324" lon="2.61264">
        <ele>93</ele>
        <time>2020-05-31T06:58:07Z</time>
      </trkpt>
      <trkpt lat="43.28325" lon="2.61329">
        <ele>93</ele>
        <time>2020-05-31T06:58:16Z</time>
      </trkpt>
      <trkpt lat="43.28325" lon="2.61382">
        <ele>94</ele>
        <time>2020-05-31T06:58:23Z</time>
      </trkpt>
      <trkpt lat="43.28324" lon="2.61426">
        <ele>94</ele>
        <time>2020-05-31T06:58:29Z</time>
      </trkpt>
      <trkpt lat="43.28323" lon="2.61449">
        <ele>94</ele>
        <time>2020-05-31T06:58:32Z</time>
      </trkpt>
      <trkpt lat="43.28323" lon="2.61457">
        <ele>94</ele>
        <time>2020-05-31T06:58:33Z</time>
      </trkpt>
      <trkpt lat="43.28323" lon="2.61472">
        <ele>94</ele>
        <time>2020-05-31T06:58:35Z</time>
      </trkpt>
      <trkpt lat="43.28321" lon="2.61524">
        <ele>93</ele>
        <time>2020-05-31T06:58:42Z</time>
      </trkpt>
      <trkpt lat="43.28321" lon="2.61531">
        <ele>93</ele>
        <time>2020-05-31T06:58:43Z</time>
      </trkpt>
      <trkpt lat="43.28319" lon="2.61577">
        <ele>92</ele>
        <time>2020-05-31T06:58:49Z</time>
      </trkpt>
      <trkpt lat="43.28319" lon="2.61593">
        <ele>91</ele>
        <time>2020-05-31T06:58:51Z</time>
      </trkpt>
      <trkpt lat="43.28318" lon="2.61616">
        <ele>91</ele>
        <time>2020-05-31T06:58:54Z</time>
      </trkpt>
      <trkpt lat="43.28316" lon="2.6168">
        <ele>90</ele>
        <time>2020-05-31T06:59:02Z</time>
      </trkpt>
      <trkpt lat="43.28316" lon="2.61688">
        <ele>90</ele>
        <time>2020-05-31T06:59:03Z</time>
      </trkpt>
      <trkpt lat="43.28316" lon="2.61696">
        <ele>90</ele>
        <time>2020-05-31T06:59:04Z</time>
      </trkpt>
      <trkpt lat="43.28316" lon="2.61734">
        <ele>89</ele>
        <time>2020-05-31T06:59:09Z</time>
      </trkpt>
      <trkpt lat="43.28316" lon="2.61749">
        <ele>89</ele>
        <time>2020-05-31T06:59:11Z</time>
      </trkpt>
      <trkpt lat="43.28315" lon="2.61813">
        <ele>90</ele>
        <time>2020-05-31T06:59:19Z</time>
      </trkpt>
      <trkpt lat="43.28314" lon="2.61838">
        <ele>91</ele>
        <time>2020-05-31T06:59:22Z</time>
      </trkpt>
      <trkpt lat="43.28313" lon="2.61871">
        <ele>91</ele>
        <time>2020-05-31T06:59:26Z</time>
      </trkpt>
      <trkpt lat="43.28311" lon="2.61902">
        <ele>91</ele>
        <time>2020-05-31T06:59:30Z</time>
      </trkpt>
      <trkpt lat="43.28311" lon="2.61911">
        <ele>91</ele>
        <time>2020-05-31T06:59:31Z</time>
      </trkpt>
      <trkpt lat="43.2831" lon="2.61927">
        <ele>90</ele>
        <time>2020-05-31T06:59:33Z</time>
      </trkpt>
      <trkpt lat="43.2831" lon="2.61935">
        <ele>90</ele>
        <time>2020-05-31T06:59:34Z</time>
      </trkpt>
      <trkpt lat="43.28308" lon="2.61968">
        <ele>89</ele>
        <time>2020-05-31T06:59:38Z</time>
      </trkpt>
      <trkpt lat="43.28307" lon="2.62011">
        <ele>87</ele>
        <time>2020-05-31T06:59:43Z</time>
      </trkpt>
      <trkpt lat="43.28307" lon="2.62019">
        <ele>87</ele>
        <time>2020-05-31T06:59:44Z</time>
      </trkpt>
      <trkpt lat="43.28306" lon="2.62045">
        <ele>87</ele>
        <time>2020-05-31T06:59:47Z</time>
      </trkpt>
      <trkpt lat="43.28304" lon="2.62104">
        <ele>86</ele>
        <time>2020-05-31T06:59:54Z</time>
      </trkpt>
      <trkpt lat="43.28304" lon="2.62139">
        <ele>84</ele>
        <time>2020-05-31T06:59:58Z</time>
      </trkpt>
      <trkpt lat="43.28306" lon="2.62157">
        <ele>84</ele>
        <time>2020-05-31T07:00:00Z</time>
      </trkpt>
      <trkpt lat="43.28308" lon="2.62166">
        <ele>84</ele>
        <time>2020-05-31T07:00:01Z</time>
      </trkpt>
      <trkpt lat="43.28322" lon="2.62207">
        <ele>83</ele>
        <time>2020-05-31T07:00:06Z</time>
      </trkpt>
      <trkpt lat="43.2833" lon="2.62222">
        <ele>82</ele>
        <time>2020-05-31T07:00:08Z</time>
      </trkpt>
      <trkpt lat="43.28353" lon="2.62263">
        <ele>83</ele>
        <time>2020-05-31T07:00:14Z</time>
      </trkpt>
      <trkpt lat="43.28377" lon="2.62298">
        <ele>84</ele>
        <time>2020-05-31T07:00:20Z</time>
      </trkpt>
      <trkpt lat="43.28381" lon="2.62304">
        <ele>84</ele>
        <time>2020-05-31T07:00:21Z</time>
      </trkpt>
      <trkpt lat="43.2839" lon="2.62316">
        <ele>84</ele>
        <time>2020-05-31T07:00:23Z</time>
      </trkpt>
      <trkpt lat="43.28405" lon="2.6235">
        <ele>83</ele>
        <time>2020-05-31T07:00:28Z</time>
      </trkpt>
      <trkpt lat="43.28411" lon="2.62372">
        <ele>82</ele>
        <time>2020-05-31T07:00:31Z</time>
      </trkpt>
      <trkpt lat="43.28413" lon="2.62379">
        <ele>82</ele>
        <time>2020-05-31T07:00:32Z</time>
      </trkpt>
      <trkpt lat="43.2842" lon="2.62407">
        <ele>83</ele>
        <time>2020-05-31T07:00:36Z</time>
      </trkpt>
      <trkpt lat="43.28422" lon="2.62414">
        <ele>83</ele>
        <time>2020-05-31T07:00:37Z</time>
      </trkpt>
      <trkpt lat="43.28429" lon="2.6245">
        <ele>83</ele>
        <time>2020-05-31T07:00:42Z</time>
      </trkpt>
      <trkpt lat="43.28433" lon="2.62473">
        <ele>83</ele>
        <time>2020-05-31T07:00:45Z</time>
      </trkpt>
      <trkpt lat="43.28436" lon="2.62488">
        <ele>83</ele>
        <time>2020-05-31T07:00:47Z</time>
      </trkpt>
      <trkpt lat="43.28447" lon="2.62532">
        <ele>81</ele>
        <time>2020-05-31T07:00:53Z</time>
      </trkpt>
      <trkpt lat="43.2847" lon="2.62602">
        <ele>82</ele>
        <time>2020-05-31T07:01:03Z</time>
      </trkpt>
      <trkpt lat="43.28476" lon="2.62616">
        <ele>83</ele>
        <time>2020-05-31T07:01:05Z</time>
      </trkpt>
      <trkpt lat="43.28484" lon="2.62637">
        <ele>83</ele>
        <time>2020-05-31T07:01:08Z</time>
      </trkpt>
      <trkpt lat="43.28491" lon="2.62658">
        <ele>84</ele>
        <time>2020-05-31T07:01:11Z</time>
      </trkpt>
      <trkpt lat="43.28494" lon="2.62665">
        <ele>84</ele>
        <time>2020-05-31T07:01:12Z</time>
      </trkpt>
      <trkpt lat="43.28499" lon="2.62679">
        <ele>84</ele>
        <time>2020-05-31T07:01:14Z</time>
      </trkpt>
      <trkpt lat="43.2852" lon="2.62734">
        <ele>85</ele>
        <time>2020-05-31T07:01:22Z</time>
      </trkpt>
      <trkpt lat="43.28526" lon="2.62748">
        <ele>84</ele>
        <time>2020-05-31T07:01:24Z</time>
      </trkpt>
      <trkpt lat="43.28554" lon="2.62811">
        <ele>87</ele>
        <time>2020-05-31T07:01:33Z</time>
      </trkpt>
      <trkpt lat="43.28558" lon="2.62818">
        <ele>88</ele>
        <time>2020-05-31T07:01:34Z</time>
      </trkpt>
      <trkpt lat="43.28581" lon="2.62855">
        <ele>86</ele>
        <time>2020-05-31T07:01:39Z</time>
      </trkpt>
      <trkpt lat="43.28585" lon="2.62863">
        <ele>85</ele>
        <time>2020-05-31T07:01:40Z</time>
      </trkpt>
      <trkpt lat="43.28589" lon="2.62871">
        <ele>85</ele>
        <time>2020-05-31T07:01:41Z</time>
      </trkpt>
      <trkpt lat="43.28597" lon="2.62887">
        <ele>85</ele>
        <time>2020-05-31T07:01:43Z</time>
      </trkpt>
      <trkpt lat="43.28604" lon="2.62903">
        <ele>85</ele>
        <time>2020-05-31T07:01:45Z</time>
      </trkpt>
      <trkpt lat="43.28612" lon="2.62919">
        <ele>87</ele>
        <time>2020-05-31T07:01:47Z</time>
      </trkpt>
      <trkpt lat="43.28616" lon="2.62926">
        <ele>88</ele>
        <time>2020-05-31T07:01:48Z</time>
      </trkpt>
      <trkpt lat="43.2863" lon="2.62957">
        <ele>90</ele>
        <time>2020-05-31T07:01:52Z</time>
      </trkpt>
      <trkpt lat="43.28641" lon="2.62981">
        <ele>91</ele>
        <time>2020-05-31T07:01:55Z</time>
      </trkpt>
      <trkpt lat="43.28647" lon="2.62996">
        <ele>91</ele>
        <time>2020-05-31T07:01:57Z</time>
      </trkpt>
      <trkpt lat="43.28668" lon="2.63037">
        <ele>86</ele>
        <time>2020-05-31T07:02:03Z</time>
      </trkpt>
      <trkpt lat="43.28683" lon="2.63066">
        <ele>84</ele>
        <time>2020-05-31T07:02:07Z</time>
      </trkpt>
      <trkpt lat="43.28687" lon="2.63074">
        <ele>84</ele>
        <time>2020-05-31T07:02:08Z</time>
      </trkpt>
      <trkpt lat="43.28694" lon="2.63092">
        <ele>84</ele>
        <time>2020-05-31T07:02:10Z</time>
      </trkpt>
      <trkpt lat="43.28697" lon="2.63101">
        <ele>83</ele>
        <time>2020-05-31T07:02:11Z</time>
      </trkpt>
      <trkpt lat="43.28701" lon="2.63111">
        <ele>83</ele>
        <time>2020-05-31T07:02:12Z</time>
      </trkpt>
      <trkpt lat="43.28705" lon="2.63121">
        <ele>82</ele>
        <time>2020-05-31T07:02:13Z</time>
      </trkpt>
      <trkpt lat="43.2873" lon="2.63163">
        <ele>80</ele>
        <time>2020-05-31T07:02:18Z</time>
      </trkpt>
      <trkpt lat="43.28758" lon="2.63203">
        <ele>80</ele>
        <time>2020-05-31T07:02:24Z</time>
      </trkpt>
      <trkpt lat="43.28762" lon="2.63209">
        <ele>80</ele>
        <time>2020-05-31T07:02:25Z</time>
      </trkpt>
      <trkpt lat="43.28771" lon="2.63221">
        <ele>80</ele>
        <time>2020-05-31T07:02:27Z</time>
      </trkpt>
      <trkpt lat="43.28786" lon="2.63246">
        <ele>80</ele>
        <time>2020-05-31T07:02:31Z</time>
      </trkpt>
      <trkpt lat="43.28789" lon="2.63253">
        <ele>81</ele>
        <time>2020-05-31T07:02:32Z</time>
      </trkpt>
      <trkpt lat="43.28794" lon="2.63276">
        <ele>81</ele>
        <time>2020-05-31T07:02:35Z</time>
      </trkpt>
      <trkpt lat="43.28796" lon="2.63284">
        <ele>81</ele>
        <time>2020-05-31T07:02:36Z</time>
      </trkpt>
      <trkpt lat="43.28801" lon="2.63316">
        <ele>80</ele>
        <time>2020-05-31T07:02:40Z</time>
      </trkpt>
      <trkpt lat="43.28803" lon="2.63332">
        <ele>80</ele>
        <time>2020-05-31T07:02:42Z</time>
      </trkpt>
      <trkpt lat="43.28807" lon="2.63357">
        <ele>80</ele>
        <time>2020-05-31T07:02:45Z</time>
      </trkpt>
      <trkpt lat="43.28812" lon="2.6339">
        <ele>80</ele>
        <time>2020-05-31T07:02:49Z</time>
      </trkpt>
      <trkpt lat="43.28814" lon="2.63399">
        <ele>80</ele>
        <time>2020-05-31T07:02:50Z</time>
      </trkpt>
      <trkpt lat="43.28819" lon="2.63435">
        <ele>79</ele>
        <time>2020-05-31T07:02:54Z</time>
      </trkpt>
      <trkpt lat="43.2882" lon="2.63444">
        <ele>80</ele>
        <time>2020-05-31T07:02:55Z</time>
      </trkpt>
      <trkpt lat="43.28823" lon="2.6349">
        <ele>80</ele>
        <time>2020-05-31T07:03:00Z</time>
      </trkpt>
      <trkpt lat="43.28822" lon="2.63499">
        <ele>80</ele>
        <time>2020-05-31T07:03:01Z</time>
      </trkpt>
      <trkpt lat="43.28812" lon="2.63553">
        <ele>79</ele>
        <time>2020-05-31T07:03:07Z</time>
      </trkpt>
      <trkpt lat="43.28797" lon="2.63627">
        <ele>77</ele>
        <time>2020-05-31T07:03:15Z</time>
      </trkpt>
      <trkpt lat="43.28795" lon="2.63636">
        <ele>77</ele>
        <time>2020-05-31T07:03:16Z</time>
      </trkpt>
      <trkpt lat="43.28791" lon="2.63654">
        <ele>76</ele>
        <time>2020-05-31T07:03:18Z</time>
      </trkpt>
      <trkpt lat="43.28775" lon="2.63711">
        <ele>77</ele>
        <time>2020-05-31T07:03:25Z</time>
      </trkpt>
      <trkpt lat="43.28765" lon="2.63743">
        <ele>77</ele>
        <time>2020-05-31T07:03:29Z</time>
      </trkpt>
      <trkpt lat="43.2875" lon="2.6379">
        <ele>76</ele>
        <time>2020-05-31T07:03:35Z</time>
      </trkpt>
      <trkpt lat="43.28726" lon="2.63863">
        <ele>77</ele>
        <time>2020-05-31T07:03:44Z</time>
      </trkpt>
      <trkpt lat="43.28705" lon="2.63921">
        <ele>76</ele>
        <time>2020-05-31T07:03:51Z</time>
      </trkpt>
      <trkpt lat="43.28698" lon="2.63937">
        <ele>76</ele>
        <time>2020-05-31T07:03:53Z</time>
      </trkpt>
      <trkpt lat="43.28681" lon="2.63981">
        <ele>76</ele>
        <time>2020-05-31T07:03:58Z</time>
      </trkpt>
      <trkpt lat="43.28667" lon="2.64015">
        <ele>76</ele>
        <time>2020-05-31T07:04:02Z</time>
      </trkpt>
      <trkpt lat="43.28664" lon="2.64024">
        <ele>75</ele>
        <time>2020-05-31T07:04:03Z</time>
      </trkpt>
      <trkpt lat="43.28657" lon="2.64041">
        <ele>75</ele>
        <time>2020-05-31T07:04:05Z</time>
      </trkpt>
      <trkpt lat="43.28639" lon="2.64088">
        <ele>76</ele>
        <time>2020-05-31T07:04:11Z</time>
      </trkpt>
      <trkpt lat="43.28629" lon="2.6411">
        <ele>76</ele>
        <time>2020-05-31T07:04:14Z</time>
      </trkpt>
      <trkpt lat="43.28625" lon="2.64117">
        <ele>77</ele>
        <time>2020-05-31T07:04:15Z</time>
      </trkpt>
      <trkpt lat="43.28603" lon="2.64166">
        <ele>78</ele>
        <time>2020-05-31T07:04:22Z</time>
      </trkpt>
      <trkpt lat="43.28596" lon="2.64179">
        <ele>77</ele>
        <time>2020-05-31T07:04:24Z</time>
      </trkpt>
      <trkpt lat="43.28576" lon="2.64212">
        <ele>77</ele>
        <time>2020-05-31T07:04:29Z</time>
      </trkpt>
      <trkpt lat="43.28541" lon="2.64249">
        <ele>77</ele>
        <time>2020-05-31T07:04:36Z</time>
      </trkpt>
      <trkpt lat="43.28493" lon="2.64294">
        <ele>77</ele>
        <time>2020-05-31T07:04:45Z</time>
      </trkpt>
      <trkpt lat="43.28487" lon="2.64299">
        <ele>77</ele>
        <time>2020-05-31T07:04:46Z</time>
      </trkpt>
      <trkpt lat="43.28453" lon="2.64338">
        <ele>78</ele>
        <time>2020-05-31T07:04:53Z</time>
      </trkpt>
      <trkpt lat="43.28448" lon="2.64344">
        <ele>79</ele>
        <time>2020-05-31T07:04:54Z</time>
      </trkpt>
      <trkpt lat="43.28439" lon="2.64357">
        <ele>80</ele>
        <time>2020-05-31T07:04:56Z</time>
      </trkpt>
      <trkpt lat="43.28426" lon="2.64376">
        <ele>80</ele>
        <time>2020-05-31T07:04:59Z</time>
      </trkpt>
      <trkpt lat="43.28413" lon="2.64396">
        <ele>80</ele>
        <time>2020-05-31T07:05:02Z</time>
      </trkpt>
      <trkpt lat="43.28377" lon="2.64445">
        <ele>82</ele>
        <time>2020-05-31T07:05:10Z</time>
      </trkpt>
      <trkpt lat="43.28368" lon="2.64457">
        <ele>82</ele>
        <time>2020-05-31T07:05:12Z</time>
      </trkpt>
      <trkpt lat="43.28359" lon="2.64468">
        <ele>82</ele>
        <time>2020-05-31T07:05:14Z</time>
      </trkpt>
      <trkpt lat="43.28328" lon="2.64512">
        <ele>81</ele>
        <time>2020-05-31T07:05:21Z</time>
      </trkpt>
      <trkpt lat="43.28294" lon="2.64568">
        <ele>82</ele>
        <time>2020-05-31T07:05:29Z</time>
      </trkpt>
      <trkpt lat="43.2829" lon="2.64575">
        <ele>82</ele>
        <time>2020-05-31T07:05:30Z</time>
      </trkpt>
      <trkpt lat="43.28281" lon="2.6459">
        <ele>81</ele>
        <time>2020-05-31T07:05:32Z</time>
      </trkpt>
      <trkpt lat="43.28277" lon="2.64598">
        <ele>81</ele>
        <time>2020-05-31T07:05:33Z</time>
      </trkpt>
      <trkpt lat="43.28257" lon="2.64638">
        <ele>81</ele>
        <time>2020-05-31T07:05:38Z</time>
      </trkpt>
      <trkpt lat="43.28235" lon="2.64688">
        <ele>82</ele>
        <time>2020-05-31T07:05:44Z</time>
      </trkpt>
      <trkpt lat="43.28227" lon="2.64707">
        <ele>81</ele>
        <time>2020-05-31T07:05:46Z</time>
      </trkpt>
      <trkpt lat="43.28223" lon="2.64716">
        <ele>81</ele>
        <time>2020-05-31T07:05:47Z</time>
      </trkpt>
      <trkpt lat="43.28211" lon="2.64743">
        <ele>81</ele>
        <time>2020-05-31T07:05:50Z</time>
      </trkpt>
      <trkpt lat="43.28207" lon="2.64751">
        <ele>80</ele>
        <time>2020-05-31T07:05:51Z</time>
      </trkpt>
      <trkpt lat="43.28198" lon="2.64768">
        <ele>80</ele>
        <time>2020-05-31T07:05:53Z</time>
      </trkpt>
      <trkpt lat="43.28188" lon="2.64783">
        <ele>80</ele>
        <time>2020-05-31T07:05:55Z</time>
      </trkpt>
      <trkpt lat="43.28162" lon="2.64822">
        <ele>80</ele>
        <time>2020-05-31T07:06:00Z</time>
      </trkpt>
      <trkpt lat="43.28147" lon="2.64845">
        <ele>80</ele>
        <time>2020-05-31T07:06:03Z</time>
      </trkpt>
      <trkpt lat="43.28136" lon="2.64861">
        <ele>80</ele>
        <time>2020-05-31T07:06:05Z</time>
      </trkpt>
      <trkpt lat="43.28126" lon="2.64877">
        <ele>80</ele>
        <time>2020-05-31T07:06:07Z</time>
      </trkpt>
      <trkpt lat="43.28106" lon="2.64914">
        <ele>79</ele>
        <time>2020-05-31T07:06:11Z</time>
      </trkpt>
      <trkpt lat="43.28102" lon="2.64924">
        <ele>79</ele>
        <time>2020-05-31T07:06:12Z</time>
      </trkpt>
      <trkpt lat="43.28081" lon="2.64972">
        <ele>80</ele>
        <time>2020-05-31T07:06:17Z</time>
      </trkpt>
      <trkpt lat="43.28074" lon="2.6499">
        <ele>79</ele>
        <time>2020-05-31T07:06:19Z</time>
      </trkpt>
      <trkpt lat="43.28063" lon="2.65015">
        <ele>79</ele>
        <time>2020-05-31T07:06:22Z</time>
      </trkpt>
      <trkpt lat="43.28058" lon="2.65023">
        <ele>78</ele>
        <time>2020-05-31T07:06:23Z</time>
      </trkpt>
      <trkpt lat="43.28053" lon="2.65031">
        <ele>79</ele>
        <time>2020-05-31T07:06:24Z</time>
      </trkpt>
      <trkpt lat="43.28039" lon="2.65054">
        <ele>81</ele>
        <time>2020-05-31T07:06:27Z</time>
      </trkpt>
      <trkpt lat="43.28028" lon="2.65069">
        <ele>81</ele>
        <time>2020-05-31T07:06:29Z</time>
      </trkpt>
      <trkpt lat="43.28018" lon="2.65084">
        <ele>82</ele>
        <time>2020-05-31T07:06:31Z</time>
      </trkpt>
      <trkpt lat="43.28013" lon="2.65091">
        <ele>82</ele>
        <time>2020-05-31T07:06:32Z</time>
      </trkpt>
      <trkpt lat="43.28007" lon="2.65098">
        <ele>82</ele>
        <time>2020-05-31T07:06:33Z</time>
      </trkpt>
      <trkpt lat="43.27995" lon="2.65113">
        <ele>81</ele>
        <time>2020-05-31T07:06:35Z</time>
      </trkpt>
      <trkpt lat="43.2799" lon="2.65121">
        <ele>81</ele>
        <time>2020-05-31T07:06:36Z</time>
      </trkpt>
      <trkpt lat="43.27979" lon="2.65136">
        <ele>81</ele>
        <time>2020-05-31T07:06:38Z</time>
      </trkpt>
      <trkpt lat="43.2796" lon="2.65167">
        <ele>82</ele>
        <time>2020-05-31T07:06:42Z</time>
      </trkpt>
      <trkpt lat="43.27956" lon="2.65175">
        <ele>83</ele>
        <time>2020-05-31T07:06:43Z</time>
      </trkpt>
      <trkpt lat="43.27943" lon="2.65202">
        <ele>85</ele>
        <time>2020-05-31T07:06:46Z</time>
      </trkpt>
      <trkpt lat="43.27939" lon="2.65212">
        <ele>86</ele>
        <time>2020-05-31T07:06:47Z</time>
      </trkpt>
      <trkpt lat="43.27935" lon="2.65222">
        <ele>86</ele>
        <time>2020-05-31T07:06:48Z</time>
      </trkpt>
      <trkpt lat="43.27932" lon="2.65232">
        <ele>86</ele>
        <time>2020-05-31T07:06:49Z</time>
      </trkpt>
      <trkpt lat="43.27923" lon="2.65263">
        <ele>86</ele>
        <time>2020-05-31T07:06:52Z</time>
      </trkpt>
      <trkpt lat="43.27922" lon="2.65274">
        <ele>85</ele>
        <time>2020-05-31T07:06:53Z</time>
      </trkpt>
      <trkpt lat="43.27921" lon="2.65285">
        <ele>84</ele>
        <time>2020-05-31T07:06:54Z</time>
      </trkpt>
      <trkpt lat="43.2792" lon="2.65295">
        <ele>84</ele>
        <time>2020-05-31T07:06:55Z</time>
      </trkpt>
      <trkpt lat="43.27919" lon="2.65315">
        <ele>83</ele>
        <time>2020-05-31T07:06:57Z</time>
      </trkpt>
      <trkpt lat="43.27918" lon="2.65325">
        <ele>83</ele>
        <time>2020-05-31T07:06:58Z</time>
      </trkpt>
      <trkpt lat="43.27912" lon="2.65352">
        <ele>83</ele>
        <time>2020-05-31T07:07:01Z</time>
      </trkpt>
      <trkpt lat="43.27906" lon="2.65369">
        <ele>84</ele>
        <time>2020-05-31T07:07:03Z</time>
      </trkpt>
      <trkpt lat="43.27895" lon="2.65391">
        <ele>84</ele>
        <time>2020-05-31T07:07:06Z</time>
      </trkpt>
      <trkpt lat="43.27877" lon="2.65431">
        <ele>87</ele>
        <time>2020-05-31T07:07:12Z</time>
      </trkpt>
      <trkpt lat="43.27874" lon="2.65437">
        <ele>87</ele>
        <time>2020-05-31T07:07:13Z</time>
      </trkpt>
      <trkpt lat="43.27869" lon="2.6545">
        <ele>88</ele>
        <time>2020-05-31T07:07:15Z</time>
      </trkpt>
      <trkpt lat="43.27862" lon="2.65467">
        <ele>89</ele>
        <time>2020-05-31T07:07:18Z</time>
      </trkpt>
      <trkpt lat="43.27859" lon="2.65478">
        <ele>90</ele>
        <time>2020-05-31T07:07:20Z</time>
      </trkpt>
      <trkpt lat="43.27854" lon="2.65495">
        <ele>90</ele>
        <time>2020-05-31T07:07:23Z</time>
      </trkpt>
      <trkpt lat="43.2785" lon="2.65511">
        <ele>91</ele>
        <time>2020-05-31T07:07:26Z</time>
      </trkpt>
      <trkpt lat="43.27846" lon="2.65522">
        <ele>91</ele>
        <time>2020-05-31T07:07:28Z</time>
      </trkpt>
      <trkpt lat="43.2784" lon="2.65549">
        <ele>91</ele>
        <time>2020-05-31T07:07:32Z</time>
      </trkpt>
      <trkpt lat="43.27833" lon="2.65573">
        <ele>91</ele>
        <time>2020-05-31T07:07:36Z</time>
      </trkpt>
      <trkpt lat="43.27831" lon="2.65579">
        <ele>91</ele>
        <time>2020-05-31T07:07:37Z</time>
      </trkpt>
      <trkpt lat="43.2783" lon="2.65586">
        <ele>91</ele>
        <time>2020-05-31T07:07:38Z</time>
      </trkpt>
      <trkpt lat="43.27826" lon="2.65599">
        <ele>91</ele>
        <time>2020-05-31T07:07:40Z</time>
      </trkpt>
      <trkpt lat="43.27818" lon="2.65628">
        <ele>92</ele>
        <time>2020-05-31T07:07:44Z</time>
      </trkpt>
      <trkpt lat="43.27801" lon="2.65689">
        <ele>94</ele>
        <time>2020-05-31T07:07:52Z</time>
      </trkpt>
      <trkpt lat="43.27795" lon="2.65733">
        <ele>94</ele>
        <time>2020-05-31T07:07:58Z</time>
      </trkpt>
      <trkpt lat="43.27794" lon="2.6577">
        <ele>94</ele>
        <time>2020-05-31T07:08:03Z</time>
      </trkpt>
      <trkpt lat="43.27795" lon="2.65778">
        <ele>94</ele>
        <time>2020-05-31T07:08:04Z</time>
      </trkpt>
      <trkpt lat="43.27795" lon="2.65799">
        <ele>93</ele>
        <time>2020-05-31T07:08:07Z</time>
      </trkpt>
      <trkpt lat="43.27795" lon="2.65818">
        <ele>92</ele>
        <time>2020-05-31T07:08:10Z</time>
      </trkpt>
      <trkpt lat="43.27795" lon="2.6583">
        <ele>92</ele>
        <time>2020-05-31T07:08:12Z</time>
      </trkpt>
      <trkpt lat="43.27794" lon="2.65842">
        <ele>92</ele>
        <time>2020-05-31T07:08:14Z</time>
      </trkpt>
      <trkpt lat="43.27792" lon="2.65856">
        <ele>92</ele>
        <time>2020-05-31T07:08:17Z</time>
      </trkpt>
      <trkpt lat="43.27791" lon="2.65859">
        <ele>92</ele>
        <time>2020-05-31T07:08:18Z</time>
      </trkpt>
      <trkpt lat="43.27791" lon="2.6586">
        <ele>92</ele>
        <time>2020-05-31T07:08:20Z</time>
      </trkpt>
      <trkpt lat="43.27794" lon="2.65864">
        <ele>92</ele>
        <time>2020-05-31T07:08:52Z</time>
      </trkpt>
      <trkpt lat="43.27795" lon="2.6587">
        <ele>92</ele>
        <time>2020-05-31T07:08:54Z</time>
      </trkpt>
      <trkpt lat="43.27795" lon="2.65891">
        <ele>92</ele>
        <time>2020-05-31T07:08:59Z</time>
      </trkpt>
      <trkpt lat="43.27795" lon="2.65924">
        <ele>93</ele>
        <time>2020-05-31T07:09:06Z</time>
      </trkpt>
      <trkpt lat="43.27795" lon="2.65928">
        <ele>93</ele>
        <time>2020-05-31T07:09:07Z</time>
      </trkpt>
      <trkpt lat="43.27796" lon="2.6595">
        <ele>93</ele>
        <time>2020-05-31T07:09:12Z</time>
      </trkpt>
      <trkpt lat="43.27796" lon="2.65978">
        <ele>93</ele>
        <time>2020-05-31T07:09:17Z</time>
      </trkpt>
      <trkpt lat="43.27796" lon="2.65985">
        <ele>93</ele>
        <time>2020-05-31T07:09:18Z</time>
      </trkpt>
      <trkpt lat="43.2779" lon="2.66033">
        <ele>93</ele>
        <time>2020-05-31T07:09:25Z</time>
      </trkpt>
      <trkpt lat="43.27788" lon="2.66041">
        <ele>93</ele>
        <time>2020-05-31T07:09:26Z</time>
      </trkpt>
      <trkpt lat="43.27786" lon="2.66057">
        <ele>93</ele>
        <time>2020-05-31T07:09:28Z</time>
      </trkpt>
      <trkpt lat="43.2778" lon="2.66081">
        <ele>93</ele>
        <time>2020-05-31T07:09:31Z</time>
      </trkpt>
      <trkpt lat="43.27775" lon="2.66102">
        <ele>93</ele>
        <time>2020-05-31T07:09:34Z</time>
      </trkpt>
      <trkpt lat="43.27774" lon="2.66108">
        <ele>93</ele>
        <time>2020-05-31T07:09:35Z</time>
      </trkpt>
      <trkpt lat="43.27772" lon="2.66114">
        <ele>93</ele>
        <time>2020-05-31T07:09:36Z</time>
      </trkpt>
      <trkpt lat="43.2777" lon="2.6612">
        <ele>93</ele>
        <time>2020-05-31T07:09:37Z</time>
      </trkpt>
      <trkpt lat="43.27769" lon="2.66127">
        <ele>93</ele>
        <time>2020-05-31T07:09:38Z</time>
      </trkpt>
      <trkpt lat="43.27766" lon="2.66141">
        <ele>93</ele>
        <time>2020-05-31T07:09:40Z</time>
      </trkpt>
      <trkpt lat="43.27764" lon="2.66147">
        <ele>93</ele>
        <time>2020-05-31T07:09:41Z</time>
      </trkpt>
      <trkpt lat="43.27762" lon="2.66153">
        <ele>93</ele>
        <time>2020-05-31T07:09:42Z</time>
      </trkpt>
      <trkpt lat="43.2776" lon="2.66159">
        <ele>93</ele>
        <time>2020-05-31T07:09:43Z</time>
      </trkpt>
      <trkpt lat="43.27757" lon="2.66174">
        <ele>93</ele>
        <time>2020-05-31T07:09:46Z</time>
      </trkpt>
      <trkpt lat="43.27759" lon="2.66181">
        <ele>93</ele>
        <time>2020-05-31T07:09:48Z</time>
      </trkpt>
      <trkpt lat="43.27761" lon="2.66182">
        <ele>93</ele>
        <time>2020-05-31T07:09:49Z</time>
      </trkpt>
      <trkpt lat="43.27776" lon="2.66187">
        <ele>93</ele>
        <time>2020-05-31T07:09:53Z</time>
      </trkpt>
      <trkpt lat="43.27783" lon="2.66189">
        <ele>92</ele>
        <time>2020-05-31T07:09:55Z</time>
      </trkpt>
      <trkpt lat="43.27798" lon="2.66192">
        <ele>92</ele>
        <time>2020-05-31T07:09:59Z</time>
      </trkpt>
      <trkpt lat="43.2782" lon="2.66197">
        <ele>91</ele>
        <time>2020-05-31T07:10:04Z</time>
      </trkpt>
      <trkpt lat="43.27836" lon="2.66204">
        <ele>91</ele>
        <time>2020-05-31T07:10:07Z</time>
      </trkpt>
      <trkpt lat="43.27849" lon="2.6621">
        <ele>91</ele>
        <time>2020-05-31T07:10:09Z</time>
      </trkpt>
      <trkpt lat="43.27871" lon="2.66219">
        <ele>90</ele>
        <time>2020-05-31T07:10:12Z</time>
      </trkpt>
      <trkpt lat="43.27877" lon="2.66223">
        <ele>90</ele>
        <time>2020-05-31T07:10:13Z</time>
      </trkpt>
      <trkpt lat="43.279" lon="2.66239">
        <ele>89</ele>
        <time>2020-05-31T07:10:17Z</time>
      </trkpt>
      <trkpt lat="43.2793" lon="2.66261">
        <ele>88</ele>
        <time>2020-05-31T07:10:22Z</time>
      </trkpt>
      <trkpt lat="43.27953" lon="2.66279">
        <ele>86</ele>
        <time>2020-05-31T07:10:26Z</time>
      </trkpt>
      <trkpt lat="43.2797" lon="2.66294">
        <ele>86</ele>
        <time>2020-05-31T07:10:29Z</time>
      </trkpt>
      <trkpt lat="43.27976" lon="2.66298">
        <ele>85</ele>
        <time>2020-05-31T07:10:30Z</time>
      </trkpt>
      <trkpt lat="43.28018" lon="2.66333">
        <ele>85</ele>
        <time>2020-05-31T07:10:37Z</time>
      </trkpt>
      <trkpt lat="43.28039" lon="2.66352">
        <ele>84</ele>
        <time>2020-05-31T07:10:41Z</time>
      </trkpt>
      <trkpt lat="43.28054" lon="2.66364">
        <ele>83</ele>
        <time>2020-05-31T07:10:44Z</time>
      </trkpt>
      <trkpt lat="43.28065" lon="2.66371">
        <ele>84</ele>
        <time>2020-05-31T07:10:46Z</time>
      </trkpt>
      <trkpt lat="43.28094" lon="2.6639">
        <ele>85</ele>
        <time>2020-05-31T07:10:52Z</time>
      </trkpt>
      <trkpt lat="43.2813" lon="2.66416">
        <ele>85</ele>
        <time>2020-05-31T07:11:00Z</time>
      </trkpt>
      <trkpt lat="43.28134" lon="2.6642">
        <ele>85</ele>
        <time>2020-05-31T07:11:01Z</time>
      </trkpt>
      <trkpt lat="43.28165" lon="2.66445">
        <ele>85</ele>
        <time>2020-05-31T07:11:08Z</time>
      </trkpt>
      <trkpt lat="43.28194" lon="2.66468">
        <ele>86</ele>
        <time>2020-05-31T07:11:15Z</time>
      </trkpt>
      <trkpt lat="43.28202" lon="2.66474">
        <ele>86</ele>
        <time>2020-05-31T07:11:17Z</time>
      </trkpt>
      <trkpt lat="43.28233" lon="2.665">
        <ele>86</ele>
        <time>2020-05-31T07:11:24Z</time>
      </trkpt>
      <trkpt lat="43.28262" lon="2.66524">
        <ele>87</ele>
        <time>2020-05-31T07:11:30Z</time>
      </trkpt>
      <trkpt lat="43.28267" lon="2.66528">
        <ele>87</ele>
        <time>2020-05-31T07:11:31Z</time>
      </trkpt>
      <trkpt lat="43.28282" lon="2.6654">
        <ele>86</ele>
        <time>2020-05-31T07:11:34Z</time>
      </trkpt>
      <trkpt lat="43.28301" lon="2.66556">
        <ele>85</ele>
        <time>2020-05-31T07:11:38Z</time>
      </trkpt>
      <trkpt lat="43.2832" lon="2.66571">
        <ele>85</ele>
        <time>2020-05-31T07:11:42Z</time>
      </trkpt>
      <trkpt lat="43.28347" lon="2.66594">
        <ele>86</ele>
        <time>2020-05-31T07:11:48Z</time>
      </trkpt>
      <trkpt lat="43.28364" lon="2.66608">
        <ele>87</ele>
        <time>2020-05-31T07:11:52Z</time>
      </trkpt>
      <trkpt lat="43.28385" lon="2.66625">
        <ele>87</ele>
        <time>2020-05-31T07:11:57Z</time>
      </trkpt>
      <trkpt lat="43.28407" lon="2.6664">
        <ele>88</ele>
        <time>2020-05-31T07:12:02Z</time>
      </trkpt>
      <trkpt lat="43.28412" lon="2.66644">
        <ele>88</ele>
        <time>2020-05-31T07:12:03Z</time>
      </trkpt>
      <trkpt lat="43.28457" lon="2.66674">
        <ele>88</ele>
        <time>2020-05-31T07:12:12Z</time>
      </trkpt>
      <trkpt lat="43.2849" lon="2.66693">
        <ele>87</ele>
        <time>2020-05-31T07:12:18Z</time>
      </trkpt>
      <trkpt lat="43.28496" lon="2.66696">
        <ele>87</ele>
        <time>2020-05-31T07:12:19Z</time>
      </trkpt>
      <trkpt lat="43.28507" lon="2.66703">
        <ele>87</ele>
        <time>2020-05-31T07:12:21Z</time>
      </trkpt>
      <trkpt lat="43.28513" lon="2.66706">
        <ele>87</ele>
        <time>2020-05-31T07:12:22Z</time>
      </trkpt>
      <trkpt lat="43.28541" lon="2.6672">
        <ele>87</ele>
        <time>2020-05-31T07:12:27Z</time>
      </trkpt>
      <trkpt lat="43.28556" lon="2.66731">
        <ele>88</ele>
        <time>2020-05-31T07:12:30Z</time>
      </trkpt>
      <trkpt lat="43.28601" lon="2.6677">
        <ele>88</ele>
        <time>2020-05-31T07:12:39Z</time>
      </trkpt>
      <trkpt lat="43.28615" lon="2.66783">
        <ele>88</ele>
        <time>2020-05-31T07:12:42Z</time>
      </trkpt>
      <trkpt lat="43.28645" lon="2.6681">
        <ele>87</ele>
        <time>2020-05-31T07:12:48Z</time>
      </trkpt>
      <trkpt lat="43.2865" lon="2.66815">
        <ele>87</ele>
        <time>2020-05-31T07:12:49Z</time>
      </trkpt>
      <trkpt lat="43.28673" lon="2.66835">
        <ele>85</ele>
        <time>2020-05-31T07:12:53Z</time>
      </trkpt>
      <trkpt lat="43.28691" lon="2.66849">
        <ele>85</ele>
        <time>2020-05-31T07:12:56Z</time>
      </trkpt>
      <trkpt lat="43.2873" lon="2.66878">
        <ele>86</ele>
        <time>2020-05-31T07:13:03Z</time>
      </trkpt>
      <trkpt lat="43.28757" lon="2.66898">
        <ele>86</ele>
        <time>2020-05-31T07:13:08Z</time>
      </trkpt>
      <trkpt lat="43.28789" lon="2.66924">
        <ele>87</ele>
        <time>2020-05-31T07:13:14Z</time>
      </trkpt>
      <trkpt lat="43.28799" lon="2.66932">
        <ele>87</ele>
        <time>2020-05-31T07:13:16Z</time>
      </trkpt>
      <trkpt lat="43.28814" lon="2.66946">
        <ele>87</ele>
        <time>2020-05-31T07:13:19Z</time>
      </trkpt>
      <trkpt lat="43.28836" lon="2.66966">
        <ele>88</ele>
        <time>2020-05-31T07:13:23Z</time>
      </trkpt>
      <trkpt lat="43.2887" lon="2.67003">
        <ele>88</ele>
        <time>2020-05-31T07:13:30Z</time>
      </trkpt>
      <trkpt lat="43.2888" lon="2.67014">
        <ele>88</ele>
        <time>2020-05-31T07:13:32Z</time>
      </trkpt>
      <trkpt lat="43.28921" lon="2.67064">
        <ele>88</ele>
        <time>2020-05-31T07:13:41Z</time>
      </trkpt>
      <trkpt lat="43.28959" lon="2.67117">
        <ele>89</ele>
        <time>2020-05-31T07:13:50Z</time>
      </trkpt>
      <trkpt lat="43.28967" lon="2.67129">
        <ele>89</ele>
        <time>2020-05-31T07:13:52Z</time>
      </trkpt>
      <trkpt lat="43.29004" lon="2.6719">
        <ele>90</ele>
        <time>2020-05-31T07:14:02Z</time>
      </trkpt>
      <trkpt lat="43.29031" lon="2.67235">
        <ele>89</ele>
        <time>2020-05-31T07:14:09Z</time>
      </trkpt>
      <trkpt lat="43.29035" lon="2.67242">
        <ele>89</ele>
        <time>2020-05-31T07:14:10Z</time>
      </trkpt>
      <trkpt lat="43.29045" lon="2.67265">
        <ele>88</ele>
        <time>2020-05-31T07:14:13Z</time>
      </trkpt>
      <trkpt lat="43.2906" lon="2.67295">
        <ele>87</ele>
        <time>2020-05-31T07:14:17Z</time>
      </trkpt>
      <trkpt lat="43.29092" lon="2.67354">
        <ele>87</ele>
        <time>2020-05-31T07:14:25Z</time>
      </trkpt>
      <trkpt lat="43.29121" lon="2.674">
        <ele>86</ele>
        <time>2020-05-31T07:14:32Z</time>
      </trkpt>
      <trkpt lat="43.29126" lon="2.67407">
        <ele>86</ele>
        <time>2020-05-31T07:14:33Z</time>
      </trkpt>
      <trkpt lat="43.2914" lon="2.67425">
        <ele>85</ele>
        <time>2020-05-31T07:14:36Z</time>
      </trkpt>
      <trkpt lat="43.2916" lon="2.67449">
        <ele>84</ele>
        <time>2020-05-31T07:14:40Z</time>
      </trkpt>
      <trkpt lat="43.29181" lon="2.67477">
        <ele>84</ele>
        <time>2020-05-31T07:14:44Z</time>
      </trkpt>
      <trkpt lat="43.29199" lon="2.67507">
        <ele>83</ele>
        <time>2020-05-31T07:14:48Z</time>
      </trkpt>
      <trkpt lat="43.29204" lon="2.67514">
        <ele>83</ele>
        <time>2020-05-31T07:14:49Z</time>
      </trkpt>
      <trkpt lat="43.29218" lon="2.67538">
        <ele>83</ele>
        <time>2020-05-31T07:14:52Z</time>
      </trkpt>
      <trkpt lat="43.29242" lon="2.67576">
        <ele>84</ele>
        <time>2020-05-31T07:14:57Z</time>
      </trkpt>
      <trkpt lat="43.29279" lon="2.67623">
        <ele>82</ele>
        <time>2020-05-31T07:15:04Z</time>
      </trkpt>
      <trkpt lat="43.29284" lon="2.67629">
        <ele>82</ele>
        <time>2020-05-31T07:15:05Z</time>
      </trkpt>
      <trkpt lat="43.29295" lon="2.67639">
        <ele>82</ele>
        <time>2020-05-31T07:15:07Z</time>
      </trkpt>
      <trkpt lat="43.29328" lon="2.67669">
        <ele>82</ele>
        <time>2020-05-31T07:15:13Z</time>
      </trkpt>
      <trkpt lat="43.29339" lon="2.67678">
        <ele>82</ele>
        <time>2020-05-31T07:15:15Z</time>
      </trkpt>
      <trkpt lat="43.29367" lon="2.67703">
        <ele>82</ele>
        <time>2020-05-31T07:15:20Z</time>
      </trkpt>
      <trkpt lat="43.29372" lon="2.67708">
        <ele>82</ele>
        <time>2020-05-31T07:15:21Z</time>
      </trkpt>
      <trkpt lat="43.29383" lon="2.67719">
        <ele>82</ele>
        <time>2020-05-31T07:15:23Z</time>
      </trkpt>
      <trkpt lat="43.29417" lon="2.67757">
        <ele>83</ele>
        <time>2020-05-31T07:15:30Z</time>
      </trkpt>
      <trkpt lat="43.29437" lon="2.67776">
        <ele>83</ele>
        <time>2020-05-31T07:15:34Z</time>
      </trkpt>
      <trkpt lat="43.29448" lon="2.67783">
        <ele>84</ele>
        <time>2020-05-31T07:15:36Z</time>
      </trkpt>
      <trkpt lat="43.29457" lon="2.67791">
        <ele>84</ele>
        <time>2020-05-31T07:15:38Z</time>
      </trkpt>
      <trkpt lat="43.2947" lon="2.67803">
        <ele>85</ele>
        <time>2020-05-31T07:15:41Z</time>
      </trkpt>
      <trkpt lat="43.29501" lon="2.67836">
        <ele>86</ele>
        <time>2020-05-31T07:15:49Z</time>
      </trkpt>
      <trkpt lat="43.29527" lon="2.67864">
        <ele>87</ele>
        <time>2020-05-31T07:15:56Z</time>
      </trkpt>
      <trkpt lat="43.29552" lon="2.67884">
        <ele>88</ele>
        <time>2020-05-31T07:16:02Z</time>
      </trkpt>
      <trkpt lat="43.29556" lon="2.67887">
        <ele>89</ele>
        <time>2020-05-31T07:16:03Z</time>
      </trkpt>
      <trkpt lat="43.29578" lon="2.67904">
        <ele>89</ele>
        <time>2020-05-31T07:16:08Z</time>
      </trkpt>
      <trkpt lat="43.29618" lon="2.67936">
        <ele>89</ele>
        <time>2020-05-31T07:16:16Z</time>
      </trkpt>
      <trkpt lat="43.29652" lon="2.67966">
        <ele>89</ele>
        <time>2020-05-31T07:16:23Z</time>
      </trkpt>
      <trkpt lat="43.29656" lon="2.67971">
        <ele>89</ele>
        <time>2020-05-31T07:16:24Z</time>
      </trkpt>
      <trkpt lat="43.29669" lon="2.67983">
        <ele>90</ele>
        <time>2020-05-31T07:16:27Z</time>
      </trkpt>
      <trkpt lat="43.29681" lon="2.67989">
        <ele>90</ele>
        <time>2020-05-31T07:16:30Z</time>
      </trkpt>
      <trkpt lat="43.29713" lon="2.68007">
        <ele>91</ele>
        <time>2020-05-31T07:16:38Z</time>
      </trkpt>
      <trkpt lat="43.2973" lon="2.68017">
        <ele>90</ele>
        <time>2020-05-31T07:16:43Z</time>
      </trkpt>
      <trkpt lat="43.29734" lon="2.68026">
        <ele>89</ele>
        <time>2020-05-31T07:16:45Z</time>
      </trkpt>
      <trkpt lat="43.29736" lon="2.68038">
        <ele>88</ele>
        <time>2020-05-31T07:16:47Z</time>
      </trkpt>
      <trkpt lat="43.29736" lon="2.68052">
        <ele>88</ele>
        <time>2020-05-31T07:16:49Z</time>
      </trkpt>
      <trkpt lat="43.29736" lon="2.68059">
        <ele>87</ele>
        <time>2020-05-31T07:16:50Z</time>
      </trkpt>
      <trkpt lat="43.29735" lon="2.68067">
        <ele>87</ele>
        <time>2020-05-31T07:16:51Z</time>
      </trkpt>
      <trkpt lat="43.29734" lon="2.68074">
        <ele>86</ele>
        <time>2020-05-31T07:16:52Z</time>
      </trkpt>
      <trkpt lat="43.29733" lon="2.68082">
        <ele>86</ele>
        <time>2020-05-31T07:16:53Z</time>
      </trkpt>
      <trkpt lat="43.29733" lon="2.68089">
        <ele>85</ele>
        <time>2020-05-31T07:16:54Z</time>
      </trkpt>
      <trkpt lat="43.29735" lon="2.68096">
        <ele>85</ele>
        <time>2020-05-31T07:16:55Z</time>
      </trkpt>
      <trkpt lat="43.29737" lon="2.68102">
        <ele>85</ele>
        <time>2020-05-31T07:16:56Z</time>
      </trkpt>
      <trkpt lat="43.29741" lon="2.68107">
        <ele>85</ele>
        <time>2020-05-31T07:16:57Z</time>
      </trkpt>
      <trkpt lat="43.29755" lon="2.6812">
        <ele>86</ele>
        <time>2020-05-31T07:17:00Z</time>
      </trkpt>
      <trkpt lat="43.2976" lon="2.68126">
        <ele>86</ele>
        <time>2020-05-31T07:17:01Z</time>
      </trkpt>
      <trkpt lat="43.29779" lon="2.68146">
        <ele>86</ele>
        <time>2020-05-31T07:17:05Z</time>
      </trkpt>
      <trkpt lat="43.29791" lon="2.68153">
        <ele>85</ele>
        <time>2020-05-31T07:17:07Z</time>
      </trkpt>
      <trkpt lat="43.29797" lon="2.68155">
        <ele>85</ele>
        <time>2020-05-31T07:17:08Z</time>
      </trkpt>
      <trkpt lat="43.29803" lon="2.68156">
        <ele>84</ele>
        <time>2020-05-31T07:17:09Z</time>
      </trkpt>
      <trkpt lat="43.29817" lon="2.68156">
        <ele>84</ele>
        <time>2020-05-31T07:17:11Z</time>
      </trkpt>
      <trkpt lat="43.29846" lon="2.68159">
        <ele>82</ele>
        <time>2020-05-31T07:17:15Z</time>
      </trkpt>
      <trkpt lat="43.29854" lon="2.68158">
        <ele>82</ele>
        <time>2020-05-31T07:17:16Z</time>
      </trkpt>
      <trkpt lat="43.29866" lon="2.68151">
        <ele>82</ele>
        <time>2020-05-31T07:17:18Z</time>
      </trkpt>
      <trkpt lat="43.29872" lon="2.68146">
        <ele>82</ele>
        <time>2020-05-31T07:17:19Z</time>
      </trkpt>
      <trkpt lat="43.29878" lon="2.68141">
        <ele>82</ele>
        <time>2020-05-31T07:17:20Z</time>
      </trkpt>
      <trkpt lat="43.2989" lon="2.68134">
        <ele>83</ele>
        <time>2020-05-31T07:17:22Z</time>
      </trkpt>
      <trkpt lat="43.29897" lon="2.68135">
        <ele>83</ele>
        <time>2020-05-31T07:17:23Z</time>
      </trkpt>
      <trkpt lat="43.29903" lon="2.68138">
        <ele>83</ele>
        <time>2020-05-31T07:17:24Z</time>
      </trkpt>
      <trkpt lat="43.2992" lon="2.68147">
        <ele>82</ele>
        <time>2020-05-31T07:17:27Z</time>
      </trkpt>
      <trkpt lat="43.29938" lon="2.68159">
        <ele>81</ele>
        <time>2020-05-31T07:17:30Z</time>
      </trkpt>
      <trkpt lat="43.29944" lon="2.68163">
        <ele>81</ele>
        <time>2020-05-31T07:17:31Z</time>
      </trkpt>
      <trkpt lat="43.29949" lon="2.68167">
        <ele>80</ele>
        <time>2020-05-31T07:17:32Z</time>
      </trkpt>
      <trkpt lat="43.29955" lon="2.68171">
        <ele>80</ele>
        <time>2020-05-31T07:17:33Z</time>
      </trkpt>
      <trkpt lat="43.2996" lon="2.68175">
        <ele>80</ele>
        <time>2020-05-31T07:17:34Z</time>
      </trkpt>
      <trkpt lat="43.29988" lon="2.682">
        <ele>80</ele>
        <time>2020-05-31T07:17:40Z</time>
      </trkpt>
      <trkpt lat="43.30024" lon="2.68231">
        <ele>81</ele>
        <time>2020-05-31T07:17:48Z</time>
      </trkpt>
      <trkpt lat="43.30029" lon="2.68235">
        <ele>80</ele>
        <time>2020-05-31T07:17:49Z</time>
      </trkpt>
      <trkpt lat="43.30064" lon="2.68267">
        <ele>80</ele>
        <time>2020-05-31T07:17:56Z</time>
      </trkpt>
      <trkpt lat="43.30089" lon="2.6829">
        <ele>79</ele>
        <time>2020-05-31T07:18:01Z</time>
      </trkpt>
      <trkpt lat="43.30104" lon="2.68303">
        <ele>79</ele>
        <time>2020-05-31T07:18:04Z</time>
      </trkpt>
      <trkpt lat="43.30109" lon="2.68308">
        <ele>79</ele>
        <time>2020-05-31T07:18:05Z</time>
      </trkpt>
      <trkpt lat="43.30119" lon="2.68317">
        <ele>79</ele>
        <time>2020-05-31T07:18:07Z</time>
      </trkpt>
      <trkpt lat="43.30166" lon="2.68357">
        <ele>80</ele>
        <time>2020-05-31T07:18:16Z</time>
      </trkpt>
      <trkpt lat="43.3017" lon="2.68363">
        <ele>80</ele>
        <time>2020-05-31T07:18:17Z</time>
      </trkpt>
      <trkpt lat="43.30187" lon="2.68397">
        <ele>80</ele>
        <time>2020-05-31T07:18:22Z</time>
      </trkpt>
      <trkpt lat="43.30202" lon="2.68432">
        <ele>79</ele>
        <time>2020-05-31T07:18:27Z</time>
      </trkpt>
      <trkpt lat="43.30209" lon="2.68443">
        <ele>79</ele>
        <time>2020-05-31T07:18:29Z</time>
      </trkpt>
      <trkpt lat="43.30217" lon="2.68453">
        <ele>78</ele>
        <time>2020-05-31T07:18:31Z</time>
      </trkpt>
      <trkpt lat="43.30225" lon="2.68462">
        <ele>78</ele>
        <time>2020-05-31T07:18:33Z</time>
      </trkpt>
      <trkpt lat="43.30229" lon="2.68467">
        <ele>78</ele>
        <time>2020-05-31T07:18:34Z</time>
      </trkpt>
      <trkpt lat="43.30237" lon="2.68477">
        <ele>78</ele>
        <time>2020-05-31T07:18:36Z</time>
      </trkpt>
      <trkpt lat="43.30241" lon="2.68482">
        <ele>78</ele>
        <time>2020-05-31T07:18:37Z</time>
      </trkpt>
      <trkpt lat="43.30274" lon="2.68511">
        <ele>79</ele>
        <time>2020-05-31T07:18:44Z</time>
      </trkpt>
      <trkpt lat="43.30318" lon="2.68543">
        <ele>80</ele>
        <time>2020-05-31T07:18:53Z</time>
      </trkpt>
      <trkpt lat="43.30346" lon="2.68563">
        <ele>81</ele>
        <time>2020-05-31T07:18:59Z</time>
      </trkpt>
      <trkpt lat="43.30359" lon="2.68572">
        <ele>81</ele>
        <time>2020-05-31T07:19:02Z</time>
      </trkpt>
      <trkpt lat="43.30399" lon="2.68602">
        <ele>81</ele>
        <time>2020-05-31T07:19:11Z</time>
      </trkpt>
      <trkpt lat="43.30419" lon="2.68616">
        <ele>80</ele>
        <time>2020-05-31T07:19:15Z</time>
      </trkpt>
      <trkpt lat="43.30436" lon="2.68627">
        <ele>80</ele>
        <time>2020-05-31T07:19:18Z</time>
      </trkpt>
      <trkpt lat="43.30443" lon="2.6863">
        <ele>80</ele>
        <time>2020-05-31T07:19:19Z</time>
      </trkpt>
      <trkpt lat="43.3045" lon="2.68634">
        <ele>79</ele>
        <time>2020-05-31T07:19:20Z</time>
      </trkpt>
      <trkpt lat="43.30465" lon="2.68642">
        <ele>78</ele>
        <time>2020-05-31T07:19:22Z</time>
      </trkpt>
      <trkpt lat="43.30473" lon="2.68646">
        <ele>77</ele>
        <time>2020-05-31T07:19:23Z</time>
      </trkpt>
      <trkpt lat="43.3049" lon="2.68654">
        <ele>75</ele>
        <time>2020-05-31T07:19:25Z</time>
      </trkpt>
      <trkpt lat="43.30518" lon="2.68664">
        <ele>73</ele>
        <time>2020-05-31T07:19:28Z</time>
      </trkpt>
      <trkpt lat="43.30527" lon="2.68667">
        <ele>73</ele>
        <time>2020-05-31T07:19:29Z</time>
      </trkpt>
      <trkpt lat="43.30537" lon="2.68669">
        <ele>72</ele>
        <time>2020-05-31T07:19:30Z</time>
      </trkpt>
      <trkpt lat="43.30566" lon="2.68675">
        <ele>71</ele>
        <time>2020-05-31T07:19:33Z</time>
      </trkpt>
      <trkpt lat="43.30596" lon="2.68681">
        <ele>70</ele>
        <time>2020-05-31T07:19:36Z</time>
      </trkpt>
      <trkpt lat="43.30606" lon="2.68682">
        <ele>70</ele>
        <time>2020-05-31T07:19:37Z</time>
      </trkpt>
      <trkpt lat="43.30624" lon="2.68686">
        <ele>70</ele>
        <time>2020-05-31T07:19:39Z</time>
      </trkpt>
      <trkpt lat="43.30659" lon="2.68692">
        <ele>70</ele>
        <time>2020-05-31T07:19:43Z</time>
      </trkpt>
      <trkpt lat="43.30706" lon="2.68701">
        <ele>70</ele>
        <time>2020-05-31T07:19:49Z</time>
      </trkpt>
      <trkpt lat="43.30747" lon="2.68712">
        <ele>70</ele>
        <time>2020-05-31T07:19:55Z</time>
      </trkpt>
      <trkpt lat="43.30754" lon="2.68714">
        <ele>70</ele>
        <time>2020-05-31T07:19:56Z</time>
      </trkpt>
      <trkpt lat="43.3076" lon="2.68717">
        <ele>70</ele>
        <time>2020-05-31T07:19:57Z</time>
      </trkpt>
      <trkpt lat="43.30792" lon="2.68733">
        <ele>70</ele>
        <time>2020-05-31T07:20:02Z</time>
      </trkpt>
      <trkpt lat="43.30815" lon="2.68747">
        <ele>71</ele>
        <time>2020-05-31T07:20:06Z</time>
      </trkpt>
      <trkpt lat="43.30827" lon="2.68755">
        <ele>71</ele>
        <time>2020-05-31T07:20:08Z</time>
      </trkpt>
      <trkpt lat="43.30832" lon="2.68759">
        <ele>71</ele>
        <time>2020-05-31T07:20:09Z</time>
      </trkpt>
      <trkpt lat="43.30855" lon="2.68774">
        <ele>70</ele>
        <time>2020-05-31T07:20:13Z</time>
      </trkpt>
      <trkpt lat="43.30873" lon="2.68786">
        <ele>71</ele>
        <time>2020-05-31T07:20:16Z</time>
      </trkpt>
      <trkpt lat="43.30878" lon="2.6879">
        <ele>71</ele>
        <time>2020-05-31T07:20:17Z</time>
      </trkpt>
      <trkpt lat="43.30901" lon="2.68805">
        <ele>71</ele>
        <time>2020-05-31T07:20:21Z</time>
      </trkpt>
      <trkpt lat="43.30917" lon="2.68816">
        <ele>70</ele>
        <time>2020-05-31T07:20:24Z</time>
      </trkpt>
      <trkpt lat="43.30923" lon="2.6882">
        <ele>70</ele>
        <time>2020-05-31T07:20:25Z</time>
      </trkpt>
      <trkpt lat="43.30939" lon="2.68832">
        <ele>70</ele>
        <time>2020-05-31T07:20:28Z</time>
      </trkpt>
      <trkpt lat="43.3097" lon="2.68858">
        <ele>70</ele>
        <time>2020-05-31T07:20:34Z</time>
      </trkpt>
      <trkpt lat="43.3098" lon="2.68866">
        <ele>70</ele>
        <time>2020-05-31T07:20:36Z</time>
      </trkpt>
      <trkpt lat="43.30991" lon="2.68875">
        <ele>70</ele>
        <time>2020-05-31T07:20:38Z</time>
      </trkpt>
      <trkpt lat="43.31019" lon="2.68891">
        <ele>71</ele>
        <time>2020-05-31T07:20:43Z</time>
      </trkpt>
      <trkpt lat="43.31024" lon="2.68893">
        <ele>71</ele>
        <time>2020-05-31T07:20:44Z</time>
      </trkpt>
      <trkpt lat="43.3103" lon="2.68895">
        <ele>71</ele>
        <time>2020-05-31T07:20:45Z</time>
      </trkpt>
      <trkpt lat="43.31054" lon="2.68904">
        <ele>71</ele>
        <time>2020-05-31T07:20:49Z</time>
      </trkpt>
      <trkpt lat="43.31072" lon="2.68912">
        <ele>71</ele>
        <time>2020-05-31T07:20:52Z</time>
      </trkpt>
      <trkpt lat="43.31095" lon="2.68925">
        <ele>70</ele>
        <time>2020-05-31T07:20:56Z</time>
      </trkpt>
      <trkpt lat="43.31101" lon="2.68929">
        <ele>70</ele>
        <time>2020-05-31T07:20:57Z</time>
      </trkpt>
      <trkpt lat="43.31118" lon="2.6894">
        <ele>70</ele>
        <time>2020-05-31T07:21:00Z</time>
      </trkpt>
      <trkpt lat="43.31129" lon="2.68948">
        <ele>69</ele>
        <time>2020-05-31T07:21:02Z</time>
      </trkpt>
      <trkpt lat="43.31134" lon="2.68952">
        <ele>69</ele>
        <time>2020-05-31T07:21:03Z</time>
      </trkpt>
      <trkpt lat="43.31183" lon="2.68991">
        <ele>70</ele>
        <time>2020-05-31T07:21:12Z</time>
      </trkpt>
      <trkpt lat="43.31194" lon="2.69">
        <ele>70</ele>
        <time>2020-05-31T07:21:14Z</time>
      </trkpt>
      <trkpt lat="43.31215" lon="2.69019">
        <ele>70</ele>
        <time>2020-05-31T07:21:18Z</time>
      </trkpt>
      <trkpt lat="43.3122" lon="2.69023">
        <ele>70</ele>
        <time>2020-05-31T07:21:19Z</time>
      </trkpt>
      <trkpt lat="43.31226" lon="2.69028">
        <ele>70</ele>
        <time>2020-05-31T07:21:20Z</time>
      </trkpt>
      <trkpt lat="43.31237" lon="2.69038">
        <ele>70</ele>
        <time>2020-05-31T07:21:22Z</time>
      </trkpt>
      <trkpt lat="43.31286" lon="2.6908">
        <ele>71</ele>
        <time>2020-05-31T07:21:31Z</time>
      </trkpt>
      <trkpt lat="43.31292" lon="2.69085">
        <ele>70</ele>
        <time>2020-05-31T07:21:32Z</time>
      </trkpt>
      <trkpt lat="43.31297" lon="2.69089">
        <ele>70</ele>
        <time>2020-05-31T07:21:33Z</time>
      </trkpt>
      <trkpt lat="43.31303" lon="2.69094">
        <ele>70</ele>
        <time>2020-05-31T07:21:34Z</time>
      </trkpt>
      <trkpt lat="43.31348" lon="2.69133">
        <ele>70</ele>
        <time>2020-05-31T07:21:42Z</time>
      </trkpt>
      <trkpt lat="43.31385" lon="2.69172">
        <ele>71</ele>
        <time>2020-05-31T07:21:49Z</time>
      </trkpt>
      <trkpt lat="43.31427" lon="2.69219">
        <ele>70</ele>
        <time>2020-05-31T07:21:57Z</time>
      </trkpt>
      <trkpt lat="43.31449" lon="2.69244">
        <ele>70</ele>
        <time>2020-05-31T07:22:01Z</time>
      </trkpt>
      <trkpt lat="43.31474" lon="2.69274">
        <ele>70</ele>
        <time>2020-05-31T07:22:06Z</time>
      </trkpt>
      <trkpt lat="43.31495" lon="2.69297">
        <ele>72</ele>
        <time>2020-05-31T07:22:10Z</time>
      </trkpt>
      <trkpt lat="43.3151" lon="2.69315">
        <ele>72</ele>
        <time>2020-05-31T07:22:13Z</time>
      </trkpt>
      <trkpt lat="43.3155" lon="2.69358">
        <ele>75</ele>
        <time>2020-05-31T07:22:21Z</time>
      </trkpt>
      <trkpt lat="43.31559" lon="2.6937">
        <ele>74</ele>
        <time>2020-05-31T07:22:23Z</time>
      </trkpt>
      <trkpt lat="43.31568" lon="2.6938">
        <ele>74</ele>
        <time>2020-05-31T07:22:25Z</time>
      </trkpt>
      <trkpt lat="43.31572" lon="2.69386">
        <ele>74</ele>
        <time>2020-05-31T07:22:26Z</time>
      </trkpt>
      <trkpt lat="43.31586" lon="2.69401">
        <ele>75</ele>
        <time>2020-05-31T07:22:29Z</time>
      </trkpt>
      <trkpt lat="43.3159" lon="2.69407">
        <ele>75</ele>
        <time>2020-05-31T07:22:30Z</time>
      </trkpt>
      <trkpt lat="43.31594" lon="2.69412">
        <ele>76</ele>
        <time>2020-05-31T07:22:31Z</time>
      </trkpt>
      <trkpt lat="43.31606" lon="2.69426">
        <ele>76</ele>
        <time>2020-05-31T07:22:34Z</time>
      </trkpt>
      <trkpt lat="43.31613" lon="2.69436">
        <ele>77</ele>
        <time>2020-05-31T07:22:36Z</time>
      </trkpt>
      <trkpt lat="43.31626" lon="2.69455">
        <ele>77</ele>
        <time>2020-05-31T07:22:40Z</time>
      </trkpt>
      <trkpt lat="43.31642" lon="2.69478">
        <ele>78</ele>
        <time>2020-05-31T07:22:46Z</time>
      </trkpt>
      <trkpt lat="43.3165" lon="2.69499">
        <ele>78</ele>
        <time>2020-05-31T07:22:51Z</time>
      </trkpt>
      <trkpt lat="43.31651" lon="2.69505">
        <ele>78</ele>
        <time>2020-05-31T07:22:52Z</time>
      </trkpt>
      <trkpt lat="43.31652" lon="2.69517">
        <ele>78</ele>
        <time>2020-05-31T07:22:54Z</time>
      </trkpt>
      <trkpt lat="43.31653" lon="2.69531">
        <ele>78</ele>
        <time>2020-05-31T07:22:56Z</time>
      </trkpt>
      <trkpt lat="43.31659" lon="2.6958">
        <ele>77</ele>
        <time>2020-05-31T07:23:03Z</time>
      </trkpt>
      <trkpt lat="43.31661" lon="2.69587">
        <ele>77</ele>
        <time>2020-05-31T07:23:04Z</time>
      </trkpt>
      <trkpt lat="43.31672" lon="2.69628">
        <ele>76</ele>
        <time>2020-05-31T07:23:10Z</time>
      </trkpt>
      <trkpt lat="43.3168" lon="2.69649">
        <ele>76</ele>
        <time>2020-05-31T07:23:13Z</time>
      </trkpt>
      <trkpt lat="43.31689" lon="2.6967">
        <ele>75</ele>
        <time>2020-05-31T07:23:16Z</time>
      </trkpt>
      <trkpt lat="43.317" lon="2.69697">
        <ele>74</ele>
        <time>2020-05-31T07:23:20Z</time>
      </trkpt>
      <trkpt lat="43.31714" lon="2.69723">
        <ele>71</ele>
        <time>2020-05-31T07:23:24Z</time>
      </trkpt>
      <trkpt lat="43.31738" lon="2.6977">
        <ele>71</ele>
        <time>2020-05-31T07:23:31Z</time>
      </trkpt>
      <trkpt lat="43.31769" lon="2.69831">
        <ele>73</ele>
        <time>2020-05-31T07:23:40Z</time>
      </trkpt>
      <trkpt lat="43.31785" lon="2.69865">
        <ele>73</ele>
        <time>2020-05-31T07:23:45Z</time>
      </trkpt>
      <trkpt lat="43.31792" lon="2.69878">
        <ele>73</ele>
        <time>2020-05-31T07:23:47Z</time>
      </trkpt>
      <trkpt lat="43.31795" lon="2.69885">
        <ele>73</ele>
        <time>2020-05-31T07:23:48Z</time>
      </trkpt>
      <trkpt lat="43.31798" lon="2.69891">
        <ele>73</ele>
        <time>2020-05-31T07:23:49Z</time>
      </trkpt>
      <trkpt lat="43.31816" lon="2.69931">
        <ele>75</ele>
        <time>2020-05-31T07:23:55Z</time>
      </trkpt>
      <trkpt lat="43.31817" lon="2.69938">
        <ele>75</ele>
        <time>2020-05-31T07:23:56Z</time>
      </trkpt>
      <trkpt lat="43.31819" lon="2.69946">
        <ele>75</ele>
        <time>2020-05-31T07:23:57Z</time>
      </trkpt>
      <trkpt lat="43.3182" lon="2.69953">
        <ele>75</ele>
        <time>2020-05-31T07:23:58Z</time>
      </trkpt>
      <trkpt lat="43.31822" lon="2.69974">
        <ele>77</ele>
        <time>2020-05-31T07:24:01Z</time>
      </trkpt>
      <trkpt lat="43.31821" lon="2.69981">
        <ele>77</ele>
        <time>2020-05-31T07:24:02Z</time>
      </trkpt>
      <trkpt lat="43.31821" lon="2.70011">
        <ele>79</ele>
        <time>2020-05-31T07:24:06Z</time>
      </trkpt>
      <trkpt lat="43.3182" lon="2.70018">
        <ele>79</ele>
        <time>2020-05-31T07:24:07Z</time>
      </trkpt>
      <trkpt lat="43.31819" lon="2.70053">
        <ele>81</ele>
        <time>2020-05-31T07:24:12Z</time>
      </trkpt>
      <trkpt lat="43.31819" lon="2.70059">
        <ele>81</ele>
        <time>2020-05-31T07:24:13Z</time>
      </trkpt>
      <trkpt lat="43.31819" lon="2.70065">
        <ele>82</ele>
        <time>2020-05-31T07:24:14Z</time>
      </trkpt>
      <trkpt lat="43.31818" lon="2.70083">
        <ele>83</ele>
        <time>2020-05-31T07:24:17Z</time>
      </trkpt>
      <trkpt lat="43.31818" lon="2.70102">
        <ele>84</ele>
        <time>2020-05-31T07:24:20Z</time>
      </trkpt>
      <trkpt lat="43.31818" lon="2.7011">
        <ele>84</ele>
        <time>2020-05-31T07:24:21Z</time>
      </trkpt>
      <trkpt lat="43.31818" lon="2.70117">
        <ele>85</ele>
        <time>2020-05-31T07:24:22Z</time>
      </trkpt>
      <trkpt lat="43.31818" lon="2.70139">
        <ele>85</ele>
        <time>2020-05-31T07:24:25Z</time>
      </trkpt>
      <trkpt lat="43.31819" lon="2.70147">
        <ele>86</ele>
        <time>2020-05-31T07:24:26Z</time>
      </trkpt>
      <trkpt lat="43.31822" lon="2.70161">
        <ele>86</ele>
        <time>2020-05-31T07:24:28Z</time>
      </trkpt>
      <trkpt lat="43.31824" lon="2.70168">
        <ele>87</ele>
        <time>2020-05-31T07:24:29Z</time>
      </trkpt>
      <trkpt lat="43.31829" lon="2.70182">
        <ele>87</ele>
        <time>2020-05-31T07:24:31Z</time>
      </trkpt>
      <trkpt lat="43.31835" lon="2.70193">
        <ele>88</ele>
        <time>2020-05-31T07:24:33Z</time>
      </trkpt>
      <trkpt lat="43.31839" lon="2.70198">
        <ele>88</ele>
        <time>2020-05-31T07:24:34Z</time>
      </trkpt>
      <trkpt lat="43.31842" lon="2.70203">
        <ele>88</ele>
        <time>2020-05-31T07:24:35Z</time>
      </trkpt>
      <trkpt lat="43.31849" lon="2.70213">
        <ele>87</ele>
        <time>2020-05-31T07:24:37Z</time>
      </trkpt>
      <trkpt lat="43.31853" lon="2.70218">
        <ele>87</ele>
        <time>2020-05-31T07:24:38Z</time>
      </trkpt>
      <trkpt lat="43.31865" lon="2.70233">
        <ele>87</ele>
        <time>2020-05-31T07:24:41Z</time>
      </trkpt>
      <trkpt lat="43.31892" lon="2.70265">
        <ele>88</ele>
        <time>2020-05-31T07:24:47Z</time>
      </trkpt>
      <trkpt lat="43.319" lon="2.70278">
        <ele>87</ele>
        <time>2020-05-31T07:24:49Z</time>
      </trkpt>
      <trkpt lat="43.31906" lon="2.70292">
        <ele>87</ele>
        <time>2020-05-31T07:24:51Z</time>
      </trkpt>
      <trkpt lat="43.31911" lon="2.70307">
        <ele>87</ele>
        <time>2020-05-31T07:24:53Z</time>
      </trkpt>
      <trkpt lat="43.31913" lon="2.70315">
        <ele>87</ele>
        <time>2020-05-31T07:24:54Z</time>
      </trkpt>
      <trkpt lat="43.31914" lon="2.70323">
        <ele>87</ele>
        <time>2020-05-31T07:24:55Z</time>
      </trkpt>
      <trkpt lat="43.31917" lon="2.70354">
        <ele>88</ele>
        <time>2020-05-31T07:24:59Z</time>
      </trkpt>
      <trkpt lat="43.31918" lon="2.70387">
        <ele>88</ele>
        <time>2020-05-31T07:25:03Z</time>
      </trkpt>
      <trkpt lat="43.31919" lon="2.70412">
        <ele>88</ele>
        <time>2020-05-31T07:25:06Z</time>
      </trkpt>
      <trkpt lat="43.31919" lon="2.70421">
        <ele>88</ele>
        <time>2020-05-31T07:25:07Z</time>
      </trkpt>
      <trkpt lat="43.3192" lon="2.70429">
        <ele>88</ele>
        <time>2020-05-31T07:25:08Z</time>
      </trkpt>
      <trkpt lat="43.31921" lon="2.70437">
        <ele>88</ele>
        <time>2020-05-31T07:25:09Z</time>
      </trkpt>
      <trkpt lat="43.31922" lon="2.70444">
        <ele>89</ele>
        <time>2020-05-31T07:25:10Z</time>
      </trkpt>
      <trkpt lat="43.31926" lon="2.7046">
        <ele>89</ele>
        <time>2020-05-31T07:25:12Z</time>
      </trkpt>
      <trkpt lat="43.31936" lon="2.70494">
        <ele>89</ele>
        <time>2020-05-31T07:25:16Z</time>
      </trkpt>
      <trkpt lat="43.31939" lon="2.70502">
        <ele>89</ele>
        <time>2020-05-31T07:25:17Z</time>
      </trkpt>
      <trkpt lat="43.31942" lon="2.70511">
        <ele>89</ele>
        <time>2020-05-31T07:25:18Z</time>
      </trkpt>
      <trkpt lat="43.31953" lon="2.70538">
        <ele>89</ele>
        <time>2020-05-31T07:25:21Z</time>
      </trkpt>
      <trkpt lat="43.31964" lon="2.70567">
        <ele>87</ele>
        <time>2020-05-31T07:25:24Z</time>
      </trkpt>
      <trkpt lat="43.31967" lon="2.70577">
        <ele>86</ele>
        <time>2020-05-31T07:25:25Z</time>
      </trkpt>
      <trkpt lat="43.31975" lon="2.70597">
        <ele>84</ele>
        <time>2020-05-31T07:25:27Z</time>
      </trkpt>
      <trkpt lat="43.31991" lon="2.70639">
        <ele>80</ele>
        <time>2020-05-31T07:25:31Z</time>
      </trkpt>
      <trkpt lat="43.32007" lon="2.70684">
        <ele>78</ele>
        <time>2020-05-31T07:25:35Z</time>
      </trkpt>
      <trkpt lat="43.3202" lon="2.70718">
        <ele>77</ele>
        <time>2020-05-31T07:25:38Z</time>
      </trkpt>
      <trkpt lat="43.32028" lon="2.70741">
        <ele>77</ele>
        <time>2020-05-31T07:25:40Z</time>
      </trkpt>
      <trkpt lat="43.32032" lon="2.70752">
        <ele>77</ele>
        <time>2020-05-31T07:25:41Z</time>
      </trkpt>
      <trkpt lat="43.32044" lon="2.70783">
        <ele>78</ele>
        <time>2020-05-31T07:25:44Z</time>
      </trkpt>
      <trkpt lat="43.32051" lon="2.70803">
        <ele>79</ele>
        <time>2020-05-31T07:25:46Z</time>
      </trkpt>
      <trkpt lat="43.32054" lon="2.70812">
        <ele>79</ele>
        <time>2020-05-31T07:25:47Z</time>
      </trkpt>
      <trkpt lat="43.32069" lon="2.70869">
        <ele>81</ele>
        <time>2020-05-31T07:25:53Z</time>
      </trkpt>
      <trkpt lat="43.32071" lon="2.70878">
        <ele>82</ele>
        <time>2020-05-31T07:25:54Z</time>
      </trkpt>
      <trkpt lat="43.32077" lon="2.70914">
        <ele>83</ele>
        <time>2020-05-31T07:25:58Z</time>
      </trkpt>
      <trkpt lat="43.32079" lon="2.70924">
        <ele>83</ele>
        <time>2020-05-31T07:25:59Z</time>
      </trkpt>
      <trkpt lat="43.3208" lon="2.70934">
        <ele>83</ele>
        <time>2020-05-31T07:26:00Z</time>
      </trkpt>
      <trkpt lat="43.32083" lon="2.70963">
        <ele>84</ele>
        <time>2020-05-31T07:26:03Z</time>
      </trkpt>
      <trkpt lat="43.32087" lon="2.71">
        <ele>83</ele>
        <time>2020-05-31T07:26:07Z</time>
      </trkpt>
      <trkpt lat="43.32088" lon="2.71009">
        <ele>83</ele>
        <time>2020-05-31T07:26:08Z</time>
      </trkpt>
      <trkpt lat="43.32089" lon="2.71027">
        <ele>83</ele>
        <time>2020-05-31T07:26:10Z</time>
      </trkpt>
      <trkpt lat="43.32089" lon="2.7107">
        <ele>85</ele>
        <time>2020-05-31T07:26:15Z</time>
      </trkpt>
      <trkpt lat="43.3209" lon="2.71079">
        <ele>85</ele>
        <time>2020-05-31T07:26:16Z</time>
      </trkpt>
      <trkpt lat="43.32092" lon="2.71093">
        <ele>86</ele>
        <time>2020-05-31T07:26:18Z</time>
      </trkpt>
      <trkpt lat="43.32095" lon="2.71106">
        <ele>87</ele>
        <time>2020-05-31T07:26:20Z</time>
      </trkpt>
      <trkpt lat="43.32106" lon="2.71137">
        <ele>87</ele>
        <time>2020-05-31T07:26:25Z</time>
      </trkpt>
      <trkpt lat="43.32112" lon="2.71147">
        <ele>87</ele>
        <time>2020-05-31T07:26:27Z</time>
      </trkpt>
      <trkpt lat="43.32133" lon="2.71172">
        <ele>87</ele>
        <time>2020-05-31T07:26:34Z</time>
      </trkpt>
      <trkpt lat="43.32156" lon="2.71193">
        <ele>86</ele>
        <time>2020-05-31T07:26:40Z</time>
      </trkpt>
      <trkpt lat="43.32173" lon="2.71208">
        <ele>85</ele>
        <time>2020-05-31T07:26:44Z</time>
      </trkpt>
      <trkpt lat="43.32182" lon="2.71216">
        <ele>85</ele>
        <time>2020-05-31T07:26:46Z</time>
      </trkpt>
      <trkpt lat="43.32187" lon="2.7122">
        <ele>85</ele>
        <time>2020-05-31T07:26:47Z</time>
      </trkpt>
      <trkpt lat="43.32203" lon="2.71231">
        <ele>85</ele>
        <time>2020-05-31T07:26:50Z</time>
      </trkpt>
      <trkpt lat="43.32208" lon="2.71235">
        <ele>85</ele>
        <time>2020-05-31T07:26:51Z</time>
      </trkpt>
      <trkpt lat="43.32213" lon="2.71239">
        <ele>85</ele>
        <time>2020-05-31T07:26:52Z</time>
      </trkpt>
      <trkpt lat="43.32223" lon="2.71249">
        <ele>84</ele>
        <time>2020-05-31T07:26:54Z</time>
      </trkpt>
      <trkpt lat="43.32228" lon="2.71253">
        <ele>84</ele>
        <time>2020-05-31T07:26:55Z</time>
      </trkpt>
      <trkpt lat="43.32233" lon="2.71258">
        <ele>84</ele>
        <time>2020-05-31T07:26:56Z</time>
      </trkpt>
      <trkpt lat="43.32248" lon="2.71271">
        <ele>84</ele>
        <time>2020-05-31T07:26:59Z</time>
      </trkpt>
      <trkpt lat="43.32262" lon="2.71283">
        <ele>84</ele>
        <time>2020-05-31T07:27:02Z</time>
      </trkpt>
      <trkpt lat="43.32271" lon="2.71291">
        <ele>84</ele>
        <time>2020-05-31T07:27:04Z</time>
      </trkpt>
      <trkpt lat="43.32294" lon="2.71311">
        <ele>84</ele>
        <time>2020-05-31T07:27:09Z</time>
      </trkpt>
      <trkpt lat="43.32323" lon="2.71337">
        <ele>85</ele>
        <time>2020-05-31T07:27:16Z</time>
      </trkpt>
      <trkpt lat="43.32351" lon="2.71365">
        <ele>86</ele>
        <time>2020-05-31T07:27:24Z</time>
      </trkpt>
      <trkpt lat="43.32358" lon="2.71372">
        <ele>87</ele>
        <time>2020-05-31T07:27:26Z</time>
      </trkpt>
      <trkpt lat="43.32369" lon="2.71389">
        <ele>88</ele>
        <time>2020-05-31T07:27:30Z</time>
      </trkpt>
      <trkpt lat="43.32374" lon="2.71398">
        <ele>88</ele>
        <time>2020-05-31T07:27:32Z</time>
      </trkpt>
      <trkpt lat="43.32378" lon="2.71412">
        <ele>88</ele>
        <time>2020-05-31T07:27:35Z</time>
      </trkpt>
      <trkpt lat="43.32379" lon="2.71416">
        <ele>88</ele>
        <time>2020-05-31T07:27:36Z</time>
      </trkpt>
      <trkpt lat="43.32381" lon="2.71425">
        <ele>88</ele>
        <time>2020-05-31T07:27:39Z</time>
      </trkpt>
      <trkpt lat="43.32382" lon="2.71425">
        <ele>88</ele>
        <time>2020-05-31T07:27:40Z</time>
      </trkpt>
      <trkpt lat="43.32383" lon="2.71416">
        <ele>88</ele>
        <time>2020-05-31T07:27:44Z</time>
      </trkpt>
      <trkpt lat="43.3238" lon="2.71397">
        <ele>89</ele>
        <time>2020-05-31T07:27:51Z</time>
      </trkpt>
      <trkpt lat="43.32377" lon="2.71402">
        <ele>88</ele>
        <time>2020-05-31T07:29:25Z</time>
      </trkpt>
      <trkpt lat="43.32377" lon="2.71405">
        <ele>88</ele>
        <time>2020-05-31T07:29:26Z</time>
      </trkpt>
      <trkpt lat="43.32378" lon="2.71408">
        <ele>88</ele>
        <time>2020-05-31T07:29:27Z</time>
      </trkpt>
      <trkpt lat="43.32379" lon="2.71412">
        <ele>88</ele>
        <time>2020-05-31T07:29:28Z</time>
      </trkpt>
      <trkpt lat="43.32381" lon="2.71427">
        <ele>88</ele>
        <time>2020-05-31T07:29:31Z</time>
      </trkpt>
      <trkpt lat="43.32385" lon="2.71451">
        <ele>87</ele>
        <time>2020-05-31T07:29:35Z</time>
      </trkpt>
      <trkpt lat="43.32386" lon="2.71463">
        <ele>87</ele>
        <time>2020-05-31T07:29:37Z</time>
      </trkpt>
      <trkpt lat="43.32388" lon="2.71478">
        <ele>86</ele>
        <time>2020-05-31T07:29:39Z</time>
      </trkpt>
      <trkpt lat="43.3239" lon="2.71503">
        <ele>87</ele>
        <time>2020-05-31T07:29:42Z</time>
      </trkpt>
      <trkpt lat="43.32393" lon="2.71521">
        <ele>88</ele>
        <time>2020-05-31T07:29:44Z</time>
      </trkpt>
      <trkpt lat="43.32396" lon="2.71547">
        <ele>88</ele>
        <time>2020-05-31T07:29:47Z</time>
      </trkpt>
      <trkpt lat="43.32397" lon="2.71556">
        <ele>88</ele>
        <time>2020-05-31T07:29:48Z</time>
      </trkpt>
      <trkpt lat="43.32399" lon="2.71588">
        <ele>89</ele>
        <time>2020-05-31T07:29:52Z</time>
      </trkpt>
      <trkpt lat="43.32403" lon="2.71621">
        <ele>89</ele>
        <time>2020-05-31T07:29:57Z</time>
      </trkpt>
      <trkpt lat="43.32403" lon="2.71627">
        <ele>89</ele>
        <time>2020-05-31T07:29:58Z</time>
      </trkpt>
      <trkpt lat="43.32409" lon="2.71671">
        <ele>90</ele>
        <time>2020-05-31T07:30:05Z</time>
      </trkpt>
      <trkpt lat="43.3241" lon="2.71677">
        <ele>90</ele>
        <time>2020-05-31T07:30:06Z</time>
      </trkpt>
      <trkpt lat="43.32412" lon="2.71703">
        <ele>90</ele>
        <time>2020-05-31T07:30:10Z</time>
      </trkpt>
      <trkpt lat="43.32413" lon="2.71709">
        <ele>90</ele>
        <time>2020-05-31T07:30:11Z</time>
      </trkpt>
      <trkpt lat="43.32413" lon="2.71716">
        <ele>90</ele>
        <time>2020-05-31T07:30:12Z</time>
      </trkpt>
      <trkpt lat="43.32414" lon="2.71722">
        <ele>90</ele>
        <time>2020-05-31T07:30:13Z</time>
      </trkpt>
      <trkpt lat="43.32417" lon="2.71755">
        <ele>91</ele>
        <time>2020-05-31T07:30:18Z</time>
      </trkpt>
      <trkpt lat="43.32417" lon="2.71761">
        <ele>91</ele>
        <time>2020-05-31T07:30:19Z</time>
      </trkpt>
      <trkpt lat="43.32418" lon="2.71781">
        <ele>92</ele>
        <time>2020-05-31T07:30:22Z</time>
      </trkpt>
      <trkpt lat="43.32417" lon="2.71795">
        <ele>92</ele>
        <time>2020-05-31T07:30:24Z</time>
      </trkpt>
      <trkpt lat="43.32414" lon="2.71844">
        <ele>92</ele>
        <time>2020-05-31T07:30:31Z</time>
      </trkpt>
      <trkpt lat="43.32412" lon="2.71857">
        <ele>92</ele>
        <time>2020-05-31T07:30:33Z</time>
      </trkpt>
      <trkpt lat="43.324" lon="2.7192">
        <ele>92</ele>
        <time>2020-05-31T07:30:42Z</time>
      </trkpt>
      <trkpt lat="43.32399" lon="2.71927">
        <ele>92</ele>
        <time>2020-05-31T07:30:43Z</time>
      </trkpt>
      <trkpt lat="43.32394" lon="2.71948">
        <ele>93</ele>
        <time>2020-05-31T07:30:46Z</time>
      </trkpt>
      <trkpt lat="43.32383" lon="2.71998">
        <ele>92</ele>
        <time>2020-05-31T07:30:53Z</time>
      </trkpt>
      <trkpt lat="43.32382" lon="2.72005">
        <ele>92</ele>
        <time>2020-05-31T07:30:54Z</time>
      </trkpt>
      <trkpt lat="43.3238" lon="2.72012">
        <ele>92</ele>
        <time>2020-05-31T07:30:55Z</time>
      </trkpt>
      <trkpt lat="43.32379" lon="2.72019">
        <ele>92</ele>
        <time>2020-05-31T07:30:56Z</time>
      </trkpt>
      <trkpt lat="43.32375" lon="2.72041">
        <ele>91</ele>
        <time>2020-05-31T07:30:59Z</time>
      </trkpt>
      <trkpt lat="43.32371" lon="2.72061">
        <ele>91</ele>
        <time>2020-05-31T07:31:02Z</time>
      </trkpt>
      <trkpt lat="43.32369" lon="2.72068">
        <ele>91</ele>
        <time>2020-05-31T07:31:03Z</time>
      </trkpt>
      <trkpt lat="43.32365" lon="2.72089">
        <ele>91</ele>
        <time>2020-05-31T07:31:06Z</time>
      </trkpt>
      <trkpt lat="43.32363" lon="2.72097">
        <ele>91</ele>
        <time>2020-05-31T07:31:07Z</time>
      </trkpt>
      <trkpt lat="43.32358" lon="2.7212">
        <ele>91</ele>
        <time>2020-05-31T07:31:10Z</time>
      </trkpt>
      <trkpt lat="43.32353" lon="2.72163">
        <ele>91</ele>
        <time>2020-05-31T07:31:15Z</time>
      </trkpt>
      <trkpt lat="43.32353" lon="2.72172">
        <ele>91</ele>
        <time>2020-05-31T07:31:16Z</time>
      </trkpt>
      <trkpt lat="43.32351" lon="2.7219">
        <ele>91</ele>
        <time>2020-05-31T07:31:18Z</time>
      </trkpt>
      <trkpt lat="43.32348" lon="2.72218">
        <ele>91</ele>
        <time>2020-05-31T07:31:21Z</time>
      </trkpt>
      <trkpt lat="43.32344" lon="2.72265">
        <ele>90</ele>
        <time>2020-05-31T07:31:26Z</time>
      </trkpt>
      <trkpt lat="43.32343" lon="2.72274">
        <ele>90</ele>
        <time>2020-05-31T07:31:27Z</time>
      </trkpt>
      <trkpt lat="43.32342" lon="2.72284">
        <ele>90</ele>
        <time>2020-05-31T07:31:28Z</time>
      </trkpt>
      <trkpt lat="43.3234" lon="2.72302">
        <ele>89</ele>
        <time>2020-05-31T07:31:30Z</time>
      </trkpt>
      <trkpt lat="43.3234" lon="2.72311">
        <ele>89</ele>
        <time>2020-05-31T07:31:31Z</time>
      </trkpt>
      <trkpt lat="43.32336" lon="2.72348">
        <ele>89</ele>
        <time>2020-05-31T07:31:35Z</time>
      </trkpt>
      <trkpt lat="43.32334" lon="2.72365">
        <ele>89</ele>
        <time>2020-05-31T07:31:37Z</time>
      </trkpt>
      <trkpt lat="43.32323" lon="2.72434">
        <ele>89</ele>
        <time>2020-05-31T07:31:45Z</time>
      </trkpt>
      <trkpt lat="43.32316" lon="2.72467">
        <ele>87</ele>
        <time>2020-05-31T07:31:49Z</time>
      </trkpt>
      <trkpt lat="43.32314" lon="2.72476">
        <ele>87</ele>
        <time>2020-05-31T07:31:50Z</time>
      </trkpt>
      <trkpt lat="43.32303" lon="2.72527">
        <ele>84</ele>
        <time>2020-05-31T07:31:56Z</time>
      </trkpt>
      <trkpt lat="43.32301" lon="2.72536">
        <ele>84</ele>
        <time>2020-05-31T07:31:57Z</time>
      </trkpt>
      <trkpt lat="43.32294" lon="2.7257">
        <ele>85</ele>
        <time>2020-05-31T07:32:01Z</time>
      </trkpt>
      <trkpt lat="43.3229" lon="2.72587">
        <ele>85</ele>
        <time>2020-05-31T07:32:03Z</time>
      </trkpt>
      <trkpt lat="43.32282" lon="2.7262">
        <ele>84</ele>
        <time>2020-05-31T07:32:07Z</time>
      </trkpt>
      <trkpt lat="43.32267" lon="2.72692">
        <ele>83</ele>
        <time>2020-05-31T07:32:16Z</time>
      </trkpt>
      <trkpt lat="43.32263" lon="2.72707">
        <ele>83</ele>
        <time>2020-05-31T07:32:18Z</time>
      </trkpt>
      <trkpt lat="43.32261" lon="2.72715">
        <ele>84</ele>
        <time>2020-05-31T07:32:19Z</time>
      </trkpt>
      <trkpt lat="43.3225" lon="2.72768">
        <ele>85</ele>
        <time>2020-05-31T07:32:26Z</time>
      </trkpt>
      <trkpt lat="43.32243" lon="2.72812">
        <ele>86</ele>
        <time>2020-05-31T07:32:32Z</time>
      </trkpt>
      <trkpt lat="43.3224" lon="2.72834">
        <ele>87</ele>
        <time>2020-05-31T07:32:35Z</time>
      </trkpt>
      <trkpt lat="43.32239" lon="2.72892">
        <ele>87</ele>
        <time>2020-05-31T07:32:43Z</time>
      </trkpt>
      <trkpt lat="43.32239" lon="2.72899">
        <ele>87</ele>
        <time>2020-05-31T07:32:44Z</time>
      </trkpt>
      <trkpt lat="43.32245" lon="2.72963">
        <ele>88</ele>
        <time>2020-05-31T07:32:53Z</time>
      </trkpt>
      <trkpt lat="43.32246" lon="2.72984">
        <ele>89</ele>
        <time>2020-05-31T07:32:56Z</time>
      </trkpt>
      <trkpt lat="43.32249" lon="2.73025">
        <ele>89</ele>
        <time>2020-05-31T07:33:02Z</time>
      </trkpt>
      <trkpt lat="43.32249" lon="2.73039">
        <ele>89</ele>
        <time>2020-05-31T07:33:04Z</time>
      </trkpt>
      <trkpt lat="43.32249" lon="2.7311">
        <ele>89</ele>
        <time>2020-05-31T07:33:14Z</time>
      </trkpt>
      <trkpt lat="43.32249" lon="2.7315">
        <ele>88</ele>
        <time>2020-05-31T07:33:19Z</time>
      </trkpt>
      <trkpt lat="43.3225" lon="2.73167">
        <ele>89</ele>
        <time>2020-05-31T07:33:21Z</time>
      </trkpt>
      <trkpt lat="43.32251" lon="2.73176">
        <ele>89</ele>
        <time>2020-05-31T07:33:22Z</time>
      </trkpt>
      <trkpt lat="43.32252" lon="2.73184">
        <ele>89</ele>
        <time>2020-05-31T07:33:23Z</time>
      </trkpt>
      <trkpt lat="43.3226" lon="2.73216">
        <ele>90</ele>
        <time>2020-05-31T07:33:27Z</time>
      </trkpt>
      <trkpt lat="43.32275" lon="2.73269">
        <ele>90</ele>
        <time>2020-05-31T07:33:34Z</time>
      </trkpt>
      <trkpt lat="43.32284" lon="2.73299">
        <ele>90</ele>
        <time>2020-05-31T07:33:38Z</time>
      </trkpt>
      <trkpt lat="43.3229" lon="2.73322">
        <ele>91</ele>
        <time>2020-05-31T07:33:41Z</time>
      </trkpt>
      <trkpt lat="43.32292" lon="2.73329">
        <ele>91</ele>
        <time>2020-05-31T07:33:42Z</time>
      </trkpt>
      <trkpt lat="43.32297" lon="2.73368">
        <ele>93</ele>
        <time>2020-05-31T07:33:47Z</time>
      </trkpt>
      <trkpt lat="43.32291" lon="2.73413">
        <ele>92</ele>
        <time>2020-05-31T07:33:53Z</time>
      </trkpt>
      <trkpt lat="43.32284" lon="2.73443">
        <ele>92</ele>
        <time>2020-05-31T07:33:57Z</time>
      </trkpt>
      <trkpt lat="43.32283" lon="2.7345">
        <ele>92</ele>
        <time>2020-05-31T07:33:58Z</time>
      </trkpt>
      <trkpt lat="43.32281" lon="2.73458">
        <ele>92</ele>
        <time>2020-05-31T07:33:59Z</time>
      </trkpt>
      <trkpt lat="43.3228" lon="2.73465">
        <ele>92</ele>
        <time>2020-05-31T07:34:00Z</time>
      </trkpt>
      <trkpt lat="43.32272" lon="2.73509">
        <ele>91</ele>
        <time>2020-05-31T07:34:06Z</time>
      </trkpt>
      <trkpt lat="43.3227" lon="2.73516">
        <ele>91</ele>
        <time>2020-05-31T07:34:07Z</time>
      </trkpt>
      <trkpt lat="43.32253" lon="2.73558">
        <ele>91</ele>
        <time>2020-05-31T07:34:13Z</time>
      </trkpt>
      <trkpt lat="43.3225" lon="2.73563">
        <ele>91</ele>
        <time>2020-05-31T07:34:14Z</time>
      </trkpt>
      <trkpt lat="43.32232" lon="2.73586">
        <ele>91</ele>
        <time>2020-05-31T07:34:18Z</time>
      </trkpt>
      <trkpt lat="43.32201" lon="2.73625">
        <ele>89</ele>
        <time>2020-05-31T07:34:25Z</time>
      </trkpt>
      <trkpt lat="43.32172" lon="2.73649">
        <ele>89</ele>
        <time>2020-05-31T07:34:31Z</time>
      </trkpt>
      <trkpt lat="43.32167" lon="2.73654">
        <ele>89</ele>
        <time>2020-05-31T07:34:32Z</time>
      </trkpt>
      <trkpt lat="43.32159" lon="2.73664">
        <ele>88</ele>
        <time>2020-05-31T07:34:34Z</time>
      </trkpt>
      <trkpt lat="43.32153" lon="2.73676">
        <ele>88</ele>
        <time>2020-05-31T07:34:36Z</time>
      </trkpt>
      <trkpt lat="43.32145" lon="2.73702">
        <ele>88</ele>
        <time>2020-05-31T07:34:40Z</time>
      </trkpt>
      <trkpt lat="43.32143" lon="2.73709">
        <ele>88</ele>
        <time>2020-05-31T07:34:41Z</time>
      </trkpt>
      <trkpt lat="43.32145" lon="2.73715">
        <ele>89</ele>
        <time>2020-05-31T07:34:42Z</time>
      </trkpt>
      <trkpt lat="43.32151" lon="2.73721">
        <ele>89</ele>
        <time>2020-05-31T07:34:44Z</time>
      </trkpt>
      <trkpt lat="43.32167" lon="2.73724">
        <ele>91</ele>
        <time>2020-05-31T07:34:48Z</time>
      </trkpt>
      <trkpt lat="43.32172" lon="2.73725">
        <ele>91</ele>
        <time>2020-05-31T07:34:49Z</time>
      </trkpt>
      <trkpt lat="43.32194" lon="2.73734">
        <ele>92</ele>
        <time>2020-05-31T07:34:54Z</time>
      </trkpt>
      <trkpt lat="43.32221" lon="2.73749">
        <ele>94</ele>
        <time>2020-05-31T07:35:00Z</time>
      </trkpt>
      <trkpt lat="43.32225" lon="2.73752">
        <ele>95</ele>
        <time>2020-05-31T07:35:01Z</time>
      </trkpt>
      <trkpt lat="43.3224" lon="2.73766">
        <ele>96</ele>
        <time>2020-05-31T07:35:05Z</time>
      </trkpt>
      <trkpt lat="43.32243" lon="2.73769">
        <ele>97</ele>
        <time>2020-05-31T07:35:06Z</time>
      </trkpt>
      <trkpt lat="43.32257" lon="2.73782">
        <ele>97</ele>
        <time>2020-05-31T07:35:10Z</time>
      </trkpt>
      <trkpt lat="43.32267" lon="2.73792">
        <ele>98</ele>
        <time>2020-05-31T07:35:13Z</time>
      </trkpt>
      <trkpt lat="43.32277" lon="2.73801">
        <ele>98</ele>
        <time>2020-05-31T07:35:16Z</time>
      </trkpt>
      <trkpt lat="43.32287" lon="2.73808">
        <ele>99</ele>
        <time>2020-05-31T07:35:19Z</time>
      </trkpt>
      <trkpt lat="43.32299" lon="2.73818">
        <ele>100</ele>
        <time>2020-05-31T07:35:23Z</time>
      </trkpt>
      <trkpt lat="43.32309" lon="2.73825">
        <ele>101</ele>
        <time>2020-05-31T07:35:26Z</time>
      </trkpt>
      <trkpt lat="43.32313" lon="2.73825">
        <ele>101</ele>
        <time>2020-05-31T07:35:27Z</time>
      </trkpt>
      <trkpt lat="43.32318" lon="2.73823">
        <ele>101</ele>
        <time>2020-05-31T07:35:28Z</time>
      </trkpt>
      <trkpt lat="43.32322" lon="2.73821">
        <ele>102</ele>
        <time>2020-05-31T07:35:29Z</time>
      </trkpt>
      <trkpt lat="43.32326" lon="2.73819">
        <ele>102</ele>
        <time>2020-05-31T07:35:30Z</time>
      </trkpt>
      <trkpt lat="43.32341" lon="2.73809">
        <ele>102</ele>
        <time>2020-05-31T07:35:34Z</time>
      </trkpt>
      <trkpt lat="43.32348" lon="2.73804">
        <ele>103</ele>
        <time>2020-05-31T07:35:36Z</time>
      </trkpt>
      <trkpt lat="43.32361" lon="2.73794">
        <ele>103</ele>
        <time>2020-05-31T07:35:40Z</time>
      </trkpt>
      <trkpt lat="43.3237" lon="2.73787">
        <ele>104</ele>
        <time>2020-05-31T07:35:43Z</time>
      </trkpt>
      <trkpt lat="43.32376" lon="2.73783">
        <ele>105</ele>
        <time>2020-05-31T07:35:45Z</time>
      </trkpt>
      <trkpt lat="43.3238" lon="2.73782">
        <ele>105</ele>
        <time>2020-05-31T07:35:46Z</time>
      </trkpt>
      <trkpt lat="43.32386" lon="2.73785">
        <ele>105</ele>
        <time>2020-05-31T07:35:48Z</time>
      </trkpt>
      <trkpt lat="43.32393" lon="2.73793">
        <ele>106</ele>
        <time>2020-05-31T07:35:51Z</time>
      </trkpt>
      <trkpt lat="43.32395" lon="2.73796">
        <ele>106</ele>
        <time>2020-05-31T07:35:52Z</time>
      </trkpt>
      <trkpt lat="43.32396" lon="2.73799">
        <ele>106</ele>
        <time>2020-05-31T07:35:53Z</time>
      </trkpt>
      <trkpt lat="43.32411" lon="2.73812">
        <ele>108</ele>
        <time>2020-05-31T07:35:58Z</time>
      </trkpt>
      <trkpt lat="43.32421" lon="2.73819">
        <ele>109</ele>
        <time>2020-05-31T07:36:01Z</time>
      </trkpt>
      <trkpt lat="43.32435" lon="2.73825">
        <ele>111</ele>
        <time>2020-05-31T07:36:05Z</time>
      </trkpt>
      <trkpt lat="43.32452" lon="2.73825">
        <ele>113</ele>
        <time>2020-05-31T07:36:10Z</time>
      </trkpt>
      <trkpt lat="43.32466" lon="2.73823">
        <ele>114</ele>
        <time>2020-05-31T07:36:14Z</time>
      </trkpt>
      <trkpt lat="43.32474" lon="2.73819">
        <ele>114</ele>
        <time>2020-05-31T07:36:17Z</time>
      </trkpt>
      <trkpt lat="43.32487" lon="2.73808">
        <ele>113</ele>
        <time>2020-05-31T07:36:22Z</time>
      </trkpt>
      <trkpt lat="43.32499" lon="2.73805">
        <ele>113</ele>
        <time>2020-05-31T07:36:27Z</time>
      </trkpt>
      <trkpt lat="43.32504" lon="2.73802">
        <ele>112</ele>
        <time>2020-05-31T07:36:29Z</time>
      </trkpt>
      <trkpt lat="43.3251" lon="2.73802">
        <ele>112</ele>
        <time>2020-05-31T07:36:31Z</time>
      </trkpt>
      <trkpt lat="43.32522" lon="2.7381">
        <ele>113</ele>
        <time>2020-05-31T07:36:36Z</time>
      </trkpt>
      <trkpt lat="43.32524" lon="2.73811">
        <ele>113</ele>
        <time>2020-05-31T07:36:37Z</time>
      </trkpt>
      <trkpt lat="43.32539" lon="2.7382">
        <ele>113</ele>
        <time>2020-05-31T07:36:43Z</time>
      </trkpt>
      <trkpt lat="43.32558" lon="2.73831">
        <ele>113</ele>
        <time>2020-05-31T07:36:49Z</time>
      </trkpt>
      <trkpt lat="43.32566" lon="2.73838">
        <ele>113</ele>
        <time>2020-05-31T07:36:51Z</time>
      </trkpt>
      <trkpt lat="43.32577" lon="2.73852">
        <ele>114</ele>
        <time>2020-05-31T07:36:54Z</time>
      </trkpt>
      <trkpt lat="43.32584" lon="2.73862">
        <ele>114</ele>
        <time>2020-05-31T07:36:56Z</time>
      </trkpt>
      <trkpt lat="43.32593" lon="2.73878">
        <ele>115</ele>
        <time>2020-05-31T07:36:59Z</time>
      </trkpt>
      <trkpt lat="43.32596" lon="2.73884">
        <ele>115</ele>
        <time>2020-05-31T07:37:00Z</time>
      </trkpt>
      <trkpt lat="43.32612" lon="2.73917">
        <ele>115</ele>
        <time>2020-05-31T07:37:06Z</time>
      </trkpt>
      <trkpt lat="43.32619" lon="2.73932">
        <ele>116</ele>
        <time>2020-05-31T07:37:09Z</time>
      </trkpt>
      <trkpt lat="43.32624" lon="2.73942">
        <ele>116</ele>
        <time>2020-05-31T07:37:11Z</time>
      </trkpt>
      <trkpt lat="43.32626" lon="2.73947">
        <ele>117</ele>
        <time>2020-05-31T07:37:12Z</time>
      </trkpt>
      <trkpt lat="43.32634" lon="2.73966">
        <ele>117</ele>
        <time>2020-05-31T07:37:16Z</time>
      </trkpt>
      <trkpt lat="43.3264" lon="2.73977">
        <ele>118</ele>
        <time>2020-05-31T07:37:19Z</time>
      </trkpt>
      <trkpt lat="43.32643" lon="2.73985">
        <ele>118</ele>
        <time>2020-05-31T07:37:21Z</time>
      </trkpt>
      <trkpt lat="43.32649" lon="2.74001">
        <ele>119</ele>
        <time>2020-05-31T07:37:25Z</time>
      </trkpt>
      <trkpt lat="43.32652" lon="2.74008">
        <ele>119</ele>
        <time>2020-05-31T07:37:27Z</time>
      </trkpt>
      <trkpt lat="43.32656" lon="2.74018">
        <ele>120</ele>
        <time>2020-05-31T07:37:30Z</time>
      </trkpt>
      <trkpt lat="43.32662" lon="2.74035">
        <ele>120</ele>
        <time>2020-05-31T07:37:35Z</time>
      </trkpt>
      <trkpt lat="43.32664" lon="2.74039">
        <ele>121</ele>
        <time>2020-05-31T07:37:36Z</time>
      </trkpt>
      <trkpt lat="43.32671" lon="2.74057">
        <ele>122</ele>
        <time>2020-05-31T07:37:41Z</time>
      </trkpt>
      <trkpt lat="43.32674" lon="2.74064">
        <ele>122</ele>
        <time>2020-05-31T07:37:43Z</time>
      </trkpt>
      <trkpt lat="43.32677" lon="2.74074">
        <ele>123</ele>
        <time>2020-05-31T07:37:46Z</time>
      </trkpt>
      <trkpt lat="43.32683" lon="2.74087">
        <ele>123</ele>
        <time>2020-05-31T07:37:50Z</time>
      </trkpt>
      <trkpt lat="43.32687" lon="2.74097">
        <ele>124</ele>
        <time>2020-05-31T07:37:53Z</time>
      </trkpt>
      <trkpt lat="43.32695" lon="2.74117">
        <ele>125</ele>
        <time>2020-05-31T07:37:59Z</time>
      </trkpt>
      <trkpt lat="43.32699" lon="2.74127">
        <ele>126</ele>
        <time>2020-05-31T07:38:02Z</time>
      </trkpt>
      <trkpt lat="43.32706" lon="2.74143">
        <ele>127</ele>
        <time>2020-05-31T07:38:07Z</time>
      </trkpt>
      <trkpt lat="43.3271" lon="2.74153">
        <ele>127</ele>
        <time>2020-05-31T07:38:10Z</time>
      </trkpt>
      <trkpt lat="43.32721" lon="2.74175">
        <ele>128</ele>
        <time>2020-05-31T07:38:17Z</time>
      </trkpt>
      <trkpt lat="43.32722" lon="2.74178">
        <ele>129</ele>
        <time>2020-05-31T07:38:18Z</time>
      </trkpt>
      <trkpt lat="43.32728" lon="2.74191">
        <ele>130</ele>
        <time>2020-05-31T07:38:22Z</time>
      </trkpt>
      <trkpt lat="43.32733" lon="2.74207">
        <ele>131</ele>
        <time>2020-05-31T07:38:27Z</time>
      </trkpt>
      <trkpt lat="43.32735" lon="2.74213">
        <ele>132</ele>
        <time>2020-05-31T07:38:29Z</time>
      </trkpt>
      <trkpt lat="43.32748" lon="2.74241">
        <ele>134</ele>
        <time>2020-05-31T07:38:38Z</time>
      </trkpt>
      <trkpt lat="43.3275" lon="2.74244">
        <ele>134</ele>
        <time>2020-05-31T07:38:39Z</time>
      </trkpt>
      <trkpt lat="43.32753" lon="2.7425">
        <ele>134</ele>
        <time>2020-05-31T07:38:41Z</time>
      </trkpt>
      <trkpt lat="43.32766" lon="2.74264">
        <ele>135</ele>
        <time>2020-05-31T07:38:47Z</time>
      </trkpt>
      <trkpt lat="43.32776" lon="2.74269">
        <ele>136</ele>
        <time>2020-05-31T07:38:51Z</time>
      </trkpt>
      <trkpt lat="43.32781" lon="2.7427">
        <ele>136</ele>
        <time>2020-05-31T07:38:53Z</time>
      </trkpt>
      <trkpt lat="43.32792" lon="2.7427">
        <ele>138</ele>
        <time>2020-05-31T07:38:57Z</time>
      </trkpt>
      <trkpt lat="43.32797" lon="2.74268">
        <ele>139</ele>
        <time>2020-05-31T07:38:59Z</time>
      </trkpt>
      <trkpt lat="43.32811" lon="2.74257">
        <ele>140</ele>
        <time>2020-05-31T07:39:05Z</time>
      </trkpt>
      <trkpt lat="43.32813" lon="2.74255">
        <ele>140</ele>
        <time>2020-05-31T07:39:06Z</time>
      </trkpt>
      <trkpt lat="43.32816" lon="2.74249">
        <ele>140</ele>
        <time>2020-05-31T07:39:08Z</time>
      </trkpt>
      <trkpt lat="43.32822" lon="2.74232">
        <ele>140</ele>
        <time>2020-05-31T07:39:13Z</time>
      </trkpt>
      <trkpt lat="43.32826" lon="2.74222">
        <ele>141</ele>
        <time>2020-05-31T07:39:16Z</time>
      </trkpt>
      <trkpt lat="43.32833" lon="2.74197">
        <ele>141</ele>
        <time>2020-05-31T07:39:23Z</time>
      </trkpt>
      <trkpt lat="43.32834" lon="2.74193">
        <ele>142</ele>
        <time>2020-05-31T07:39:24Z</time>
      </trkpt>
      <trkpt lat="43.3284" lon="2.74172">
        <ele>142</ele>
        <time>2020-05-31T07:39:30Z</time>
      </trkpt>
      <trkpt lat="43.32843" lon="2.74157">
        <ele>143</ele>
        <time>2020-05-31T07:39:34Z</time>
      </trkpt>
      <trkpt lat="43.32848" lon="2.74139">
        <ele>143</ele>
        <time>2020-05-31T07:39:39Z</time>
      </trkpt>
      <trkpt lat="43.32854" lon="2.74114">
        <ele>143</ele>
        <time>2020-05-31T07:39:46Z</time>
      </trkpt>
      <trkpt lat="43.32862" lon="2.74094">
        <ele>144</ele>
        <time>2020-05-31T07:39:52Z</time>
      </trkpt>
      <trkpt lat="43.32867" lon="2.74085">
        <ele>145</ele>
        <time>2020-05-31T07:39:55Z</time>
      </trkpt>
      <trkpt lat="43.32877" lon="2.74073">
        <ele>146</ele>
        <time>2020-05-31T07:40:00Z</time>
      </trkpt>
      <trkpt lat="43.32883" lon="2.74067">
        <ele>146</ele>
        <time>2020-05-31T07:40:03Z</time>
      </trkpt>
      <trkpt lat="43.32888" lon="2.74064">
        <ele>147</ele>
        <time>2020-05-31T07:40:05Z</time>
      </trkpt>
      <trkpt lat="43.32897" lon="2.74059">
        <ele>148</ele>
        <time>2020-05-31T07:40:09Z</time>
      </trkpt>
      <trkpt lat="43.32901" lon="2.74057">
        <ele>148</ele>
        <time>2020-05-31T07:40:11Z</time>
      </trkpt>
      <trkpt lat="43.32911" lon="2.74054">
        <ele>150</ele>
        <time>2020-05-31T07:40:15Z</time>
      </trkpt>
      <trkpt lat="43.32913" lon="2.74054">
        <ele>150</ele>
        <time>2020-05-31T07:40:16Z</time>
      </trkpt>
      <trkpt lat="43.32921" lon="2.74055">
        <ele>151</ele>
        <time>2020-05-31T07:40:19Z</time>
      </trkpt>
      <trkpt lat="43.32934" lon="2.74056">
        <ele>152</ele>
        <time>2020-05-31T07:40:24Z</time>
      </trkpt>
      <trkpt lat="43.32943" lon="2.74058">
        <ele>153</ele>
        <time>2020-05-31T07:40:27Z</time>
      </trkpt>
      <trkpt lat="43.32955" lon="2.74061">
        <ele>154</ele>
        <time>2020-05-31T07:40:32Z</time>
      </trkpt>
      <trkpt lat="43.32963" lon="2.74062">
        <ele>155</ele>
        <time>2020-05-31T07:40:35Z</time>
      </trkpt>
      <trkpt lat="43.32976" lon="2.74062">
        <ele>157</ele>
        <time>2020-05-31T07:40:40Z</time>
      </trkpt>
      <trkpt lat="43.32984" lon="2.7406">
        <ele>158</ele>
        <time>2020-05-31T07:40:43Z</time>
      </trkpt>
      <trkpt lat="43.32991" lon="2.74057">
        <ele>159</ele>
        <time>2020-05-31T07:40:46Z</time>
      </trkpt>
      <trkpt lat="43.32999" lon="2.74055">
        <ele>159</ele>
        <time>2020-05-31T07:40:49Z</time>
      </trkpt>
      <trkpt lat="43.33011" lon="2.74047">
        <ele>160</ele>
        <time>2020-05-31T07:40:54Z</time>
      </trkpt>
      <trkpt lat="43.33022" lon="2.74041">
        <ele>160</ele>
        <time>2020-05-31T07:40:58Z</time>
      </trkpt>
      <trkpt lat="43.33035" lon="2.74033">
        <ele>161</ele>
        <time>2020-05-31T07:41:03Z</time>
      </trkpt>
      <trkpt lat="43.33045" lon="2.74027">
        <ele>163</ele>
        <time>2020-05-31T07:41:07Z</time>
      </trkpt>
      <trkpt lat="43.33052" lon="2.74021">
        <ele>164</ele>
        <time>2020-05-31T07:41:10Z</time>
      </trkpt>
      <trkpt lat="43.3306" lon="2.74011">
        <ele>165</ele>
        <time>2020-05-31T07:41:14Z</time>
      </trkpt>
      <trkpt lat="43.33071" lon="2.73983">
        <ele>166</ele>
        <time>2020-05-31T07:41:22Z</time>
      </trkpt>
      <trkpt lat="43.33076" lon="2.7396">
        <ele>165</ele>
        <time>2020-05-31T07:41:28Z</time>
      </trkpt>
      <trkpt lat="43.33078" lon="2.73949">
        <ele>165</ele>
        <time>2020-05-31T07:41:31Z</time>
      </trkpt>
      <trkpt lat="43.33083" lon="2.73929">
        <ele>165</ele>
        <time>2020-05-31T07:41:36Z</time>
      </trkpt>
      <trkpt lat="43.33085" lon="2.73922">
        <ele>165</ele>
        <time>2020-05-31T07:41:38Z</time>
      </trkpt>
      <trkpt lat="43.33089" lon="2.73902">
        <ele>165</ele>
        <time>2020-05-31T07:41:43Z</time>
      </trkpt>
      <trkpt lat="43.33092" lon="2.73887">
        <ele>164</ele>
        <time>2020-05-31T07:41:47Z</time>
      </trkpt>
      <trkpt lat="43.33093" lon="2.73879">
        <ele>164</ele>
        <time>2020-05-31T07:41:49Z</time>
      </trkpt>
      <trkpt lat="43.33097" lon="2.73859">
        <ele>164</ele>
        <time>2020-05-31T07:41:54Z</time>
      </trkpt>
      <trkpt lat="43.33098" lon="2.73852">
        <ele>165</ele>
        <time>2020-05-31T07:41:56Z</time>
      </trkpt>
      <trkpt lat="43.33101" lon="2.7384">
        <ele>165</ele>
        <time>2020-05-31T07:41:59Z</time>
      </trkpt>
      <trkpt lat="43.33106" lon="2.73826">
        <ele>166</ele>
        <time>2020-05-31T07:42:03Z</time>
      </trkpt>
      <trkpt lat="43.33109" lon="2.73819">
        <ele>167</ele>
        <time>2020-05-31T07:42:05Z</time>
      </trkpt>
      <trkpt lat="43.33118" lon="2.73805">
        <ele>168</ele>
        <time>2020-05-31T07:42:10Z</time>
      </trkpt>
      <trkpt lat="43.3312" lon="2.73802">
        <ele>169</ele>
        <time>2020-05-31T07:42:11Z</time>
      </trkpt>
      <trkpt lat="43.33132" lon="2.73786">
        <ele>171</ele>
        <time>2020-05-31T07:42:17Z</time>
      </trkpt>
      <trkpt lat="43.33137" lon="2.73781">
        <ele>172</ele>
        <time>2020-05-31T07:42:19Z</time>
      </trkpt>
      <trkpt lat="43.33144" lon="2.73774">
        <ele>174</ele>
        <time>2020-05-31T07:42:22Z</time>
      </trkpt>
      <trkpt lat="43.3316" lon="2.73757">
        <ele>178</ele>
        <time>2020-05-31T07:42:29Z</time>
      </trkpt>
      <trkpt lat="43.33162" lon="2.73754">
        <ele>178</ele>
        <time>2020-05-31T07:42:30Z</time>
      </trkpt>
      <trkpt lat="43.33176" lon="2.73733">
        <ele>181</ele>
        <time>2020-05-31T07:42:37Z</time>
      </trkpt>
      <trkpt lat="43.33179" lon="2.73727">
        <ele>181</ele>
        <time>2020-05-31T07:42:39Z</time>
      </trkpt>
      <trkpt lat="43.33189" lon="2.73706">
        <ele>181</ele>
        <time>2020-05-31T07:42:45Z</time>
      </trkpt>
      <trkpt lat="43.3319" lon="2.73703">
        <ele>181</ele>
        <time>2020-05-31T07:42:46Z</time>
      </trkpt>
      <trkpt lat="43.33197" lon="2.73686">
        <ele>180</ele>
        <time>2020-05-31T07:42:51Z</time>
      </trkpt>
      <trkpt lat="43.332" lon="2.73679">
        <ele>180</ele>
        <time>2020-05-31T07:42:53Z</time>
      </trkpt>
      <trkpt lat="43.33208" lon="2.73667">
        <ele>180</ele>
        <time>2020-05-31T07:42:57Z</time>
      </trkpt>
      <trkpt lat="43.33215" lon="2.73661">
        <ele>180</ele>
        <time>2020-05-31T07:43:00Z</time>
      </trkpt>
      <trkpt lat="43.33221" lon="2.73657">
        <ele>181</ele>
        <time>2020-05-31T07:43:02Z</time>
      </trkpt>
      <trkpt lat="43.33234" lon="2.73647">
        <ele>182</ele>
        <time>2020-05-31T07:43:07Z</time>
      </trkpt>
      <trkpt lat="43.33236" lon="2.73645">
        <ele>182</ele>
        <time>2020-05-31T07:43:08Z</time>
      </trkpt>
      <trkpt lat="43.33253" lon="2.73632">
        <ele>183</ele>
        <time>2020-05-31T07:43:15Z</time>
      </trkpt>
      <trkpt lat="43.33256" lon="2.7363">
        <ele>183</ele>
        <time>2020-05-31T07:43:16Z</time>
      </trkpt>
      <trkpt lat="43.33272" lon="2.73615">
        <ele>184</ele>
        <time>2020-05-31T07:43:23Z</time>
      </trkpt>
      <trkpt lat="43.33287" lon="2.73594">
        <ele>186</ele>
        <time>2020-05-31T07:43:30Z</time>
      </trkpt>
      <trkpt lat="43.33303" lon="2.73574">
        <ele>188</ele>
        <time>2020-05-31T07:43:37Z</time>
      </trkpt>
      <trkpt lat="43.33311" lon="2.73562">
        <ele>189</ele>
        <time>2020-05-31T07:43:41Z</time>
      </trkpt>
      <trkpt lat="43.33317" lon="2.73552">
        <ele>190</ele>
        <time>2020-05-31T07:43:44Z</time>
      </trkpt>
      <trkpt lat="43.33325" lon="2.7354">
        <ele>190</ele>
        <time>2020-05-31T07:43:48Z</time>
      </trkpt>
      <trkpt lat="43.33338" lon="2.73521">
        <ele>192</ele>
        <time>2020-05-31T07:43:54Z</time>
      </trkpt>
      <trkpt lat="43.3334" lon="2.73518">
        <ele>192</ele>
        <time>2020-05-31T07:43:55Z</time>
      </trkpt>
      <trkpt lat="43.33348" lon="2.73506">
        <ele>192</ele>
        <time>2020-05-31T07:43:59Z</time>
      </trkpt>
      <trkpt lat="43.33352" lon="2.73501">
        <ele>193</ele>
        <time>2020-05-31T07:44:01Z</time>
      </trkpt>
      <trkpt lat="43.33358" lon="2.73491">
        <ele>193</ele>
        <time>2020-05-31T07:44:04Z</time>
      </trkpt>
      <trkpt lat="43.33366" lon="2.73479">
        <ele>193</ele>
        <time>2020-05-31T07:44:08Z</time>
      </trkpt>
      <trkpt lat="43.33372" lon="2.7347">
        <ele>193</ele>
        <time>2020-05-31T07:44:11Z</time>
      </trkpt>
      <trkpt lat="43.33381" lon="2.73458">
        <ele>194</ele>
        <time>2020-05-31T07:44:15Z</time>
      </trkpt>
      <trkpt lat="43.33387" lon="2.73449">
        <ele>195</ele>
        <time>2020-05-31T07:44:18Z</time>
      </trkpt>
      <trkpt lat="43.33396" lon="2.73438">
        <ele>195</ele>
        <time>2020-05-31T07:44:22Z</time>
      </trkpt>
      <trkpt lat="43.33401" lon="2.73432">
        <ele>195</ele>
        <time>2020-05-31T07:44:24Z</time>
      </trkpt>
      <trkpt lat="43.33414" lon="2.73416">
        <ele>195</ele>
        <time>2020-05-31T07:44:30Z</time>
      </trkpt>
      <trkpt lat="43.33422" lon="2.7341">
        <ele>196</ele>
        <time>2020-05-31T07:44:33Z</time>
      </trkpt>
      <trkpt lat="43.33424" lon="2.73408">
        <ele>196</ele>
        <time>2020-05-31T07:44:34Z</time>
      </trkpt>
      <trkpt lat="43.3344" lon="2.73399">
        <ele>198</ele>
        <time>2020-05-31T07:44:40Z</time>
      </trkpt>
      <trkpt lat="43.33443" lon="2.73398">
        <ele>198</ele>
        <time>2020-05-31T07:44:41Z</time>
      </trkpt>
      <trkpt lat="43.33455" lon="2.73392">
        <ele>199</ele>
        <time>2020-05-31T07:44:46Z</time>
      </trkpt>
      <trkpt lat="43.3346" lon="2.7339">
        <ele>200</ele>
        <time>2020-05-31T07:44:48Z</time>
      </trkpt>
      <trkpt lat="43.33467" lon="2.73387">
        <ele>201</ele>
        <time>2020-05-31T07:44:51Z</time>
      </trkpt>
      <trkpt lat="43.33482" lon="2.73383">
        <ele>201</ele>
        <time>2020-05-31T07:44:56Z</time>
      </trkpt>
      <trkpt lat="43.33498" lon="2.73379">
        <ele>202</ele>
        <time>2020-05-31T07:45:02Z</time>
      </trkpt>
      <trkpt lat="43.33509" lon="2.73378">
        <ele>202</ele>
        <time>2020-05-31T07:45:06Z</time>
      </trkpt>
      <trkpt lat="43.3352" lon="2.73378">
        <ele>203</ele>
        <time>2020-05-31T07:45:10Z</time>
      </trkpt>
      <trkpt lat="43.33526" lon="2.73379">
        <ele>204</ele>
        <time>2020-05-31T07:45:12Z</time>
      </trkpt>
      <trkpt lat="43.33532" lon="2.73378">
        <ele>204</ele>
        <time>2020-05-31T07:45:14Z</time>
      </trkpt>
      <trkpt lat="43.33548" lon="2.73378">
        <ele>205</ele>
        <time>2020-05-31T07:45:20Z</time>
      </trkpt>
      <trkpt lat="43.33551" lon="2.73378">
        <ele>205</ele>
        <time>2020-05-31T07:45:21Z</time>
      </trkpt>
      <trkpt lat="43.33569" lon="2.73379">
        <ele>206</ele>
        <time>2020-05-31T07:45:28Z</time>
      </trkpt>
      <trkpt lat="43.33574" lon="2.73379">
        <ele>207</ele>
        <time>2020-05-31T07:45:30Z</time>
      </trkpt>
      <trkpt lat="43.33591" lon="2.73379">
        <ele>208</ele>
        <time>2020-05-31T07:45:37Z</time>
      </trkpt>
      <trkpt lat="43.33604" lon="2.73376">
        <ele>209</ele>
        <time>2020-05-31T07:45:42Z</time>
      </trkpt>
      <trkpt lat="43.33609" lon="2.73376">
        <ele>209</ele>
        <time>2020-05-31T07:45:44Z</time>
      </trkpt>
      <trkpt lat="43.33623" lon="2.73373">
        <ele>210</ele>
        <time>2020-05-31T07:45:49Z</time>
      </trkpt>
      <trkpt lat="43.33629" lon="2.73371">
        <ele>211</ele>
        <time>2020-05-31T07:45:51Z</time>
      </trkpt>
      <trkpt lat="43.33639" lon="2.73368">
        <ele>212</ele>
        <time>2020-05-31T07:45:55Z</time>
      </trkpt>
      <trkpt lat="43.33647" lon="2.73364">
        <ele>213</ele>
        <time>2020-05-31T07:45:58Z</time>
      </trkpt>
      <trkpt lat="43.33656" lon="2.73358">
        <ele>214</ele>
        <time>2020-05-31T07:46:02Z</time>
      </trkpt>
      <trkpt lat="43.33665" lon="2.73349">
        <ele>215</ele>
        <time>2020-05-31T07:46:06Z</time>
      </trkpt>
      <trkpt lat="43.3367" lon="2.73344">
        <ele>216</ele>
        <time>2020-05-31T07:46:08Z</time>
      </trkpt>
      <trkpt lat="43.33678" lon="2.73335">
        <ele>216</ele>
        <time>2020-05-31T07:46:12Z</time>
      </trkpt>
      <trkpt lat="43.33691" lon="2.73319">
        <ele>216</ele>
        <time>2020-05-31T07:46:19Z</time>
      </trkpt>
      <trkpt lat="43.33693" lon="2.73316">
        <ele>216</ele>
        <time>2020-05-31T07:46:20Z</time>
      </trkpt>
      <trkpt lat="43.33702" lon="2.73308">
        <ele>216</ele>
        <time>2020-05-31T07:46:24Z</time>
      </trkpt>
      <trkpt lat="43.33714" lon="2.73302">
        <ele>217</ele>
        <time>2020-05-31T07:46:29Z</time>
      </trkpt>
      <trkpt lat="43.33732" lon="2.73297">
        <ele>218</ele>
        <time>2020-05-31T07:46:36Z</time>
      </trkpt>
      <trkpt lat="43.33735" lon="2.73297">
        <ele>218</ele>
        <time>2020-05-31T07:46:37Z</time>
      </trkpt>
      <trkpt lat="43.33746" lon="2.73298">
        <ele>219</ele>
        <time>2020-05-31T07:46:41Z</time>
      </trkpt>
      <trkpt lat="43.33759" lon="2.733">
        <ele>220</ele>
        <time>2020-05-31T07:46:46Z</time>
      </trkpt>
      <trkpt lat="43.3377" lon="2.73301">
        <ele>221</ele>
        <time>2020-05-31T07:46:50Z</time>
      </trkpt>
      <trkpt lat="43.33775" lon="2.73302">
        <ele>222</ele>
        <time>2020-05-31T07:46:52Z</time>
      </trkpt>
      <trkpt lat="43.33783" lon="2.73302">
        <ele>222</ele>
        <time>2020-05-31T07:46:55Z</time>
      </trkpt>
      <trkpt lat="43.33805" lon="2.73303">
        <ele>223</ele>
        <time>2020-05-31T07:47:03Z</time>
      </trkpt>
      <trkpt lat="43.33826" lon="2.73301">
        <ele>224</ele>
        <time>2020-05-31T07:47:11Z</time>
      </trkpt>
      <trkpt lat="43.33832" lon="2.733">
        <ele>224</ele>
        <time>2020-05-31T07:47:13Z</time>
      </trkpt>
      <trkpt lat="43.33852" lon="2.73297">
        <ele>225</ele>
        <time>2020-05-31T07:47:20Z</time>
      </trkpt>
      <trkpt lat="43.33872" lon="2.73295">
        <ele>226</ele>
        <time>2020-05-31T07:47:27Z</time>
      </trkpt>
      <trkpt lat="43.33878" lon="2.73296">
        <ele>227</ele>
        <time>2020-05-31T07:47:29Z</time>
      </trkpt>
      <trkpt lat="43.33902" lon="2.73302">
        <ele>228</ele>
        <time>2020-05-31T07:47:37Z</time>
      </trkpt>
      <trkpt lat="43.33909" lon="2.7331">
        <ele>229</ele>
        <time>2020-05-31T07:47:40Z</time>
      </trkpt>
      <trkpt lat="43.33915" lon="2.73318">
        <ele>229</ele>
        <time>2020-05-31T07:47:43Z</time>
      </trkpt>
      <trkpt lat="43.33924" lon="2.73339">
        <ele>230</ele>
        <time>2020-05-31T07:47:49Z</time>
      </trkpt>
      <trkpt lat="43.33925" lon="2.73342">
        <ele>231</ele>
        <time>2020-05-31T07:47:50Z</time>
      </trkpt>
      <trkpt lat="43.33931" lon="2.73364">
        <ele>232</ele>
        <time>2020-05-31T07:47:55Z</time>
      </trkpt>
      <trkpt lat="43.33934" lon="2.73377">
        <ele>232</ele>
        <time>2020-05-31T07:47:58Z</time>
      </trkpt>
      <trkpt lat="43.33939" lon="2.73393">
        <ele>232</ele>
        <time>2020-05-31T07:48:02Z</time>
      </trkpt>
      <trkpt lat="43.33942" lon="2.73406">
        <ele>232</ele>
        <time>2020-05-31T07:48:05Z</time>
      </trkpt>
      <trkpt lat="43.33943" lon="2.7341">
        <ele>232</ele>
        <time>2020-05-31T07:48:06Z</time>
      </trkpt>
      <trkpt lat="43.33951" lon="2.73435">
        <ele>232</ele>
        <time>2020-05-31T07:48:12Z</time>
      </trkpt>
      <trkpt lat="43.33952" lon="2.73439">
        <ele>233</ele>
        <time>2020-05-31T07:48:13Z</time>
      </trkpt>
      <trkpt lat="43.3396" lon="2.73468">
        <ele>234</ele>
        <time>2020-05-31T07:48:20Z</time>
      </trkpt>
      <trkpt lat="43.33961" lon="2.73473">
        <ele>235</ele>
        <time>2020-05-31T07:48:21Z</time>
      </trkpt>
      <trkpt lat="43.33969" lon="2.73494">
        <ele>236</ele>
        <time>2020-05-31T07:48:26Z</time>
      </trkpt>
      <trkpt lat="43.33972" lon="2.73499">
        <ele>236</ele>
        <time>2020-05-31T07:48:27Z</time>
      </trkpt>
      <trkpt lat="43.33986" lon="2.73526">
        <ele>238</ele>
        <time>2020-05-31T07:48:34Z</time>
      </trkpt>
      <trkpt lat="43.3399" lon="2.73534">
        <ele>238</ele>
        <time>2020-05-31T07:48:36Z</time>
      </trkpt>
      <trkpt lat="43.34009" lon="2.73565">
        <ele>240</ele>
        <time>2020-05-31T07:48:44Z</time>
      </trkpt>
      <trkpt lat="43.34022" lon="2.73582">
        <ele>240</ele>
        <time>2020-05-31T07:48:49Z</time>
      </trkpt>
      <trkpt lat="43.34037" lon="2.73603">
        <ele>241</ele>
        <time>2020-05-31T07:48:55Z</time>
      </trkpt>
      <trkpt lat="43.34042" lon="2.73611">
        <ele>241</ele>
        <time>2020-05-31T07:48:57Z</time>
      </trkpt>
      <trkpt lat="43.34056" lon="2.73636">
        <ele>241</ele>
        <time>2020-05-31T07:49:03Z</time>
      </trkpt>
      <trkpt lat="43.34058" lon="2.7364">
        <ele>241</ele>
        <time>2020-05-31T07:49:04Z</time>
      </trkpt>
      <trkpt lat="43.34073" lon="2.73667">
        <ele>242</ele>
        <time>2020-05-31T07:49:10Z</time>
      </trkpt>
      <trkpt lat="43.34093" lon="2.73704">
        <ele>243</ele>
        <time>2020-05-31T07:49:18Z</time>
      </trkpt>
      <trkpt lat="43.34098" lon="2.73714">
        <ele>243</ele>
        <time>2020-05-31T07:49:20Z</time>
      </trkpt>
      <trkpt lat="43.34108" lon="2.73732">
        <ele>244</ele>
        <time>2020-05-31T07:49:24Z</time>
      </trkpt>
      <trkpt lat="43.34113" lon="2.73742">
        <ele>244</ele>
        <time>2020-05-31T07:49:26Z</time>
      </trkpt>
      <trkpt lat="43.34117" lon="2.73752">
        <ele>244</ele>
        <time>2020-05-31T07:49:28Z</time>
      </trkpt>
      <trkpt lat="43.34122" lon="2.73763">
        <ele>244</ele>
        <time>2020-05-31T07:49:30Z</time>
      </trkpt>
      <trkpt lat="43.34126" lon="2.73775">
        <ele>245</ele>
        <time>2020-05-31T07:49:32Z</time>
      </trkpt>
      <trkpt lat="43.34132" lon="2.73802">
        <ele>243</ele>
        <time>2020-05-31T07:49:36Z</time>
      </trkpt>
      <trkpt lat="43.34134" lon="2.7381">
        <ele>243</ele>
        <time>2020-05-31T07:49:37Z</time>
      </trkpt>
      <trkpt lat="43.34139" lon="2.73841">
        <ele>241</ele>
        <time>2020-05-31T07:49:41Z</time>
      </trkpt>
      <trkpt lat="43.3414" lon="2.7385">
        <ele>241</ele>
        <time>2020-05-31T07:49:42Z</time>
      </trkpt>
      <trkpt lat="43.34149" lon="2.73894">
        <ele>240</ele>
        <time>2020-05-31T07:49:47Z</time>
      </trkpt>
      <trkpt lat="43.34152" lon="2.73913">
        <ele>239</ele>
        <time>2020-05-31T07:49:49Z</time>
      </trkpt>
      <trkpt lat="43.34155" lon="2.73923">
        <ele>239</ele>
        <time>2020-05-31T07:49:50Z</time>
      </trkpt>
      <trkpt lat="43.34158" lon="2.73932">
        <ele>239</ele>
        <time>2020-05-31T07:49:51Z</time>
      </trkpt>
      <trkpt lat="43.34166" lon="2.73948">
        <ele>239</ele>
        <time>2020-05-31T07:49:53Z</time>
      </trkpt>
      <trkpt lat="43.3417" lon="2.73955">
        <ele>239</ele>
        <time>2020-05-31T07:49:54Z</time>
      </trkpt>
      <trkpt lat="43.34178" lon="2.73967">
        <ele>239</ele>
        <time>2020-05-31T07:49:56Z</time>
      </trkpt>
      <trkpt lat="43.34185" lon="2.73978">
        <ele>240</ele>
        <time>2020-05-31T07:49:58Z</time>
      </trkpt>
      <trkpt lat="43.34188" lon="2.73983">
        <ele>240</ele>
        <time>2020-05-31T07:49:59Z</time>
      </trkpt>
      <trkpt lat="43.34199" lon="2.73998">
        <ele>240</ele>
        <time>2020-05-31T07:50:02Z</time>
      </trkpt>
      <trkpt lat="43.34202" lon="2.74003">
        <ele>241</ele>
        <time>2020-05-31T07:50:03Z</time>
      </trkpt>
      <trkpt lat="43.34221" lon="2.74027">
        <ele>241</ele>
        <time>2020-05-31T07:50:08Z</time>
      </trkpt>
      <trkpt lat="43.34224" lon="2.74032">
        <ele>241</ele>
        <time>2020-05-31T07:50:09Z</time>
      </trkpt>
      <trkpt lat="43.34235" lon="2.74048">
        <ele>240</ele>
        <time>2020-05-31T07:50:12Z</time>
      </trkpt>
      <trkpt lat="43.3425" lon="2.74068">
        <ele>240</ele>
        <time>2020-05-31T07:50:16Z</time>
      </trkpt>
      <trkpt lat="43.34253" lon="2.74073">
        <ele>239</ele>
        <time>2020-05-31T07:50:17Z</time>
      </trkpt>
      <trkpt lat="43.34266" lon="2.7409">
        <ele>239</ele>
        <time>2020-05-31T07:50:20Z</time>
      </trkpt>
      <trkpt lat="43.34271" lon="2.74095">
        <ele>239</ele>
        <time>2020-05-31T07:50:21Z</time>
      </trkpt>
      <trkpt lat="43.34276" lon="2.741">
        <ele>239</ele>
        <time>2020-05-31T07:50:22Z</time>
      </trkpt>
      <trkpt lat="43.34281" lon="2.74104">
        <ele>239</ele>
        <time>2020-05-31T07:50:23Z</time>
      </trkpt>
      <trkpt lat="43.34288" lon="2.74108">
        <ele>239</ele>
        <time>2020-05-31T07:50:24Z</time>
      </trkpt>
      <trkpt lat="43.34294" lon="2.7411">
        <ele>239</ele>
        <time>2020-05-31T07:50:25Z</time>
      </trkpt>
      <trkpt lat="43.34301" lon="2.74111">
        <ele>239</ele>
        <time>2020-05-31T07:50:26Z</time>
      </trkpt>
      <trkpt lat="43.34308" lon="2.74111">
        <ele>239</ele>
        <time>2020-05-31T07:50:27Z</time>
      </trkpt>
      <trkpt lat="43.34322" lon="2.74108">
        <ele>239</ele>
        <time>2020-05-31T07:50:29Z</time>
      </trkpt>
      <trkpt lat="43.34329" lon="2.74104">
        <ele>240</ele>
        <time>2020-05-31T07:50:30Z</time>
      </trkpt>
      <trkpt lat="43.34362" lon="2.74084">
        <ele>240</ele>
        <time>2020-05-31T07:50:35Z</time>
      </trkpt>
      <trkpt lat="43.34368" lon="2.74081">
        <ele>240</ele>
        <time>2020-05-31T07:50:36Z</time>
      </trkpt>
      <trkpt lat="43.34386" lon="2.7407">
        <ele>239</ele>
        <time>2020-05-31T07:50:39Z</time>
      </trkpt>
      <trkpt lat="43.34397" lon="2.74064">
        <ele>239</ele>
        <time>2020-05-31T07:50:41Z</time>
      </trkpt>
      <trkpt lat="43.34408" lon="2.74059">
        <ele>238</ele>
        <time>2020-05-31T07:50:43Z</time>
      </trkpt>
      <trkpt lat="43.34427" lon="2.74056">
        <ele>239</ele>
        <time>2020-05-31T07:50:46Z</time>
      </trkpt>
      <trkpt lat="43.34464" lon="2.74056">
        <ele>243</ele>
        <time>2020-05-31T07:50:52Z</time>
      </trkpt>
      <trkpt lat="43.34469" lon="2.74056">
        <ele>243</ele>
        <time>2020-05-31T07:50:53Z</time>
      </trkpt>
      <trkpt lat="43.34481" lon="2.74056">
        <ele>244</ele>
        <time>2020-05-31T07:50:55Z</time>
      </trkpt>
      <trkpt lat="43.34498" lon="2.74055">
        <ele>245</ele>
        <time>2020-05-31T07:50:58Z</time>
      </trkpt>
      <trkpt lat="43.34537" lon="2.74057">
        <ele>244</ele>
        <time>2020-05-31T07:51:05Z</time>
      </trkpt>
      <trkpt lat="43.34567" lon="2.74067">
        <ele>243</ele>
        <time>2020-05-31T07:51:11Z</time>
      </trkpt>
      <trkpt lat="43.34572" lon="2.74069">
        <ele>243</ele>
        <time>2020-05-31T07:51:12Z</time>
      </trkpt>
      <trkpt lat="43.34604" lon="2.74082">
        <ele>242</ele>
        <time>2020-05-31T07:51:18Z</time>
      </trkpt>
      <trkpt lat="43.34609" lon="2.74085">
        <ele>242</ele>
        <time>2020-05-31T07:51:19Z</time>
      </trkpt>
      <trkpt lat="43.34615" lon="2.74087">
        <ele>242</ele>
        <time>2020-05-31T07:51:20Z</time>
      </trkpt>
      <trkpt lat="43.34654" lon="2.74107">
        <ele>242</ele>
        <time>2020-05-31T07:51:27Z</time>
      </trkpt>
      <trkpt lat="43.34672" lon="2.74118">
        <ele>242</ele>
        <time>2020-05-31T07:51:30Z</time>
      </trkpt>
      <trkpt lat="43.34684" lon="2.74129">
        <ele>241</ele>
        <time>2020-05-31T07:51:32Z</time>
      </trkpt>
      <trkpt lat="43.34691" lon="2.74134">
        <ele>241</ele>
        <time>2020-05-31T07:51:33Z</time>
      </trkpt>
      <trkpt lat="43.34705" lon="2.74143">
        <ele>240</ele>
        <time>2020-05-31T07:51:35Z</time>
      </trkpt>
      <trkpt lat="43.34712" lon="2.74146">
        <ele>240</ele>
        <time>2020-05-31T07:51:36Z</time>
      </trkpt>
      <trkpt lat="43.3472" lon="2.74149">
        <ele>239</ele>
        <time>2020-05-31T07:51:37Z</time>
      </trkpt>
      <trkpt lat="43.34736" lon="2.74153">
        <ele>238</ele>
        <time>2020-05-31T07:51:39Z</time>
      </trkpt>
      <trkpt lat="43.34753" lon="2.74153">
        <ele>237</ele>
        <time>2020-05-31T07:51:41Z</time>
      </trkpt>
      <trkpt lat="43.34778" lon="2.74154">
        <ele>236</ele>
        <time>2020-05-31T07:51:44Z</time>
      </trkpt>
      <trkpt lat="43.34795" lon="2.74154">
        <ele>237</ele>
        <time>2020-05-31T07:51:46Z</time>
      </trkpt>
      <trkpt lat="43.34813" lon="2.74154">
        <ele>237</ele>
        <time>2020-05-31T07:51:48Z</time>
      </trkpt>
      <trkpt lat="43.34822" lon="2.74153">
        <ele>237</ele>
        <time>2020-05-31T07:51:49Z</time>
      </trkpt>
      <trkpt lat="43.34868" lon="2.74145">
        <ele>231</ele>
        <time>2020-05-31T07:51:54Z</time>
      </trkpt>
      <trkpt lat="43.34878" lon="2.74144">
        <ele>231</ele>
        <time>2020-05-31T07:51:55Z</time>
      </trkpt>
      <trkpt lat="43.34907" lon="2.74144">
        <ele>231</ele>
        <time>2020-05-31T07:51:58Z</time>
      </trkpt>
      <trkpt lat="43.34917" lon="2.74146">
        <ele>232</ele>
        <time>2020-05-31T07:51:59Z</time>
      </trkpt>
      <trkpt lat="43.34955" lon="2.74159">
        <ele>228</ele>
        <time>2020-05-31T07:52:03Z</time>
      </trkpt>
      <trkpt lat="43.34974" lon="2.74166">
        <ele>225</ele>
        <time>2020-05-31T07:52:05Z</time>
      </trkpt>
      <trkpt lat="43.34992" lon="2.74171">
        <ele>224</ele>
        <time>2020-05-31T07:52:07Z</time>
      </trkpt>
      <trkpt lat="43.35002" lon="2.74172">
        <ele>224</ele>
        <time>2020-05-31T07:52:08Z</time>
      </trkpt>
      <trkpt lat="43.35011" lon="2.74173">
        <ele>223</ele>
        <time>2020-05-31T07:52:09Z</time>
      </trkpt>
      <trkpt lat="43.3503" lon="2.74176">
        <ele>223</ele>
        <time>2020-05-31T07:52:11Z</time>
      </trkpt>
      <trkpt lat="43.35047" lon="2.74185">
        <ele>221</ele>
        <time>2020-05-31T07:52:13Z</time>
      </trkpt>
      <trkpt lat="43.35055" lon="2.74191">
        <ele>220</ele>
        <time>2020-05-31T07:52:14Z</time>
      </trkpt>
      <trkpt lat="43.35071" lon="2.74205">
        <ele>220</ele>
        <time>2020-05-31T07:52:16Z</time>
      </trkpt>
      <trkpt lat="43.35078" lon="2.74214">
        <ele>220</ele>
        <time>2020-05-31T07:52:17Z</time>
      </trkpt>
      <trkpt lat="43.35093" lon="2.74234">
        <ele>222</ele>
        <time>2020-05-31T07:52:19Z</time>
      </trkpt>
      <trkpt lat="43.35119" lon="2.74262">
        <ele>223</ele>
        <time>2020-05-31T07:52:22Z</time>
      </trkpt>
      <trkpt lat="43.35128" lon="2.7427">
        <ele>222</ele>
        <time>2020-05-31T07:52:23Z</time>
      </trkpt>
      <trkpt lat="43.35158" lon="2.74289">
        <ele>219</ele>
        <time>2020-05-31T07:52:26Z</time>
      </trkpt>
      <trkpt lat="43.35168" lon="2.74293">
        <ele>217</ele>
        <time>2020-05-31T07:52:27Z</time>
      </trkpt>
      <trkpt lat="43.35179" lon="2.74295">
        <ele>218</ele>
        <time>2020-05-31T07:52:28Z</time>
      </trkpt>
      <trkpt lat="43.3519" lon="2.74295">
        <ele>217</ele>
        <time>2020-05-31T07:52:29Z</time>
      </trkpt>
      <trkpt lat="43.35202" lon="2.74294">
        <ele>217</ele>
        <time>2020-05-31T07:52:30Z</time>
      </trkpt>
      <trkpt lat="43.35225" lon="2.74291">
        <ele>216</ele>
        <time>2020-05-31T07:52:32Z</time>
      </trkpt>
      <trkpt lat="43.35237" lon="2.74289">
        <ele>215</ele>
        <time>2020-05-31T07:52:33Z</time>
      </trkpt>
      <trkpt lat="43.35259" lon="2.74284">
        <ele>214</ele>
        <time>2020-05-31T07:52:35Z</time>
      </trkpt>
      <trkpt lat="43.35281" lon="2.74279">
        <ele>212</ele>
        <time>2020-05-31T07:52:37Z</time>
      </trkpt>
      <trkpt lat="43.35291" lon="2.74275">
        <ele>211</ele>
        <time>2020-05-31T07:52:38Z</time>
      </trkpt>
      <trkpt lat="43.35301" lon="2.74272">
        <ele>209</ele>
        <time>2020-05-31T07:52:39Z</time>
      </trkpt>
      <trkpt lat="43.35319" lon="2.74266">
        <ele>206</ele>
        <time>2020-05-31T07:52:41Z</time>
      </trkpt>
      <trkpt lat="43.35336" lon="2.74268">
        <ele>204</ele>
        <time>2020-05-31T07:52:43Z</time>
      </trkpt>
      <trkpt lat="43.35352" lon="2.74276">
        <ele>201</ele>
        <time>2020-05-31T07:52:45Z</time>
      </trkpt>
      <trkpt lat="43.35358" lon="2.74282">
        <ele>200</ele>
        <time>2020-05-31T07:52:46Z</time>
      </trkpt>
      <trkpt lat="43.35363" lon="2.74289">
        <ele>199</ele>
        <time>2020-05-31T07:52:47Z</time>
      </trkpt>
      <trkpt lat="43.35371" lon="2.74307">
        <ele>198</ele>
        <time>2020-05-31T07:52:49Z</time>
      </trkpt>
      <trkpt lat="43.35374" lon="2.74316">
        <ele>197</ele>
        <time>2020-05-31T07:52:50Z</time>
      </trkpt>
      <trkpt lat="43.35378" lon="2.74326">
        <ele>197</ele>
        <time>2020-05-31T07:52:51Z</time>
      </trkpt>
      <trkpt lat="43.3539" lon="2.74359">
        <ele>195</ele>
        <time>2020-05-31T07:52:54Z</time>
      </trkpt>
      <trkpt lat="43.35394" lon="2.74371">
        <ele>194</ele>
        <time>2020-05-31T07:52:55Z</time>
      </trkpt>
      <trkpt lat="43.354" lon="2.74395">
        <ele>192</ele>
        <time>2020-05-31T07:52:57Z</time>
      </trkpt>
      <trkpt lat="43.35401" lon="2.74404">
        <ele>192</ele>
        <time>2020-05-31T07:52:58Z</time>
      </trkpt>
      <trkpt lat="43.35401" lon="2.74413">
        <ele>191</ele>
        <time>2020-05-31T07:52:59Z</time>
      </trkpt>
      <trkpt lat="43.354" lon="2.7442">
        <ele>191</ele>
        <time>2020-05-31T07:53:00Z</time>
      </trkpt>
      <trkpt lat="43.35396" lon="2.74428">
        <ele>191</ele>
        <time>2020-05-31T07:53:02Z</time>
      </trkpt>
      <trkpt lat="43.35392" lon="2.74433">
        <ele>191</ele>
        <time>2020-05-31T07:53:05Z</time>
      </trkpt>
      <trkpt lat="43.3539" lon="2.74437">
        <ele>191</ele>
        <time>2020-05-31T07:53:44Z</time>
      </trkpt>
      <trkpt lat="43.35385" lon="2.74446">
        <ele>190</ele>
        <time>2020-05-31T07:53:47Z</time>
      </trkpt>
      <trkpt lat="43.35379" lon="2.74454">
        <ele>190</ele>
        <time>2020-05-31T07:53:49Z</time>
      </trkpt>
      <trkpt lat="43.35375" lon="2.74457">
        <ele>190</ele>
        <time>2020-05-31T07:53:50Z</time>
      </trkpt>
      <trkpt lat="43.35371" lon="2.7446">
        <ele>190</ele>
        <time>2020-05-31T07:53:51Z</time>
      </trkpt>
      <trkpt lat="43.35366" lon="2.74463">
        <ele>191</ele>
        <time>2020-05-31T07:53:52Z</time>
      </trkpt>
      <trkpt lat="43.35361" lon="2.74465">
        <ele>192</ele>
        <time>2020-05-31T07:53:53Z</time>
      </trkpt>
      <trkpt lat="43.35345" lon="2.74473">
        <ele>193</ele>
        <time>2020-05-31T07:53:56Z</time>
      </trkpt>
      <trkpt lat="43.35341" lon="2.74475">
        <ele>193</ele>
        <time>2020-05-31T07:53:57Z</time>
      </trkpt>
      <trkpt lat="43.35337" lon="2.74478">
        <ele>192</ele>
        <time>2020-05-31T07:53:58Z</time>
      </trkpt>
      <trkpt lat="43.35335" lon="2.74482">
        <ele>192</ele>
        <time>2020-05-31T07:53:59Z</time>
      </trkpt>
      <trkpt lat="43.35336" lon="2.74489">
        <ele>190</ele>
        <time>2020-05-31T07:54:01Z</time>
      </trkpt>
      <trkpt lat="43.35337" lon="2.74493">
        <ele>189</ele>
        <time>2020-05-31T07:54:03Z</time>
      </trkpt>
      <trkpt lat="43.35336" lon="2.74495">
        <ele>188</ele>
        <time>2020-05-31T07:54:05Z</time>
      </trkpt>
      <trkpt lat="43.35342" lon="2.74491">
        <ele>189</ele>
        <time>2020-05-31T07:59:38Z</time>
      </trkpt>
      <trkpt lat="43.35345" lon="2.74489">
        <ele>189</ele>
        <time>2020-05-31T07:59:40Z</time>
      </trkpt>
      <trkpt lat="43.35359" lon="2.74482">
        <ele>188</ele>
        <time>2020-05-31T07:59:45Z</time>
      </trkpt>
      <trkpt lat="43.35367" lon="2.74478">
        <ele>187</ele>
        <time>2020-05-31T07:59:47Z</time>
      </trkpt>
      <trkpt lat="43.35376" lon="2.74475">
        <ele>186</ele>
        <time>2020-05-31T07:59:49Z</time>
      </trkpt>
      <trkpt lat="43.35381" lon="2.74472">
        <ele>185</ele>
        <time>2020-05-31T07:59:50Z</time>
      </trkpt>
      <trkpt lat="43.35405" lon="2.74459">
        <ele>183</ele>
        <time>2020-05-31T07:59:55Z</time>
      </trkpt>
      <trkpt lat="43.35415" lon="2.74453">
        <ele>183</ele>
        <time>2020-05-31T07:59:57Z</time>
      </trkpt>
      <trkpt lat="43.35419" lon="2.7445">
        <ele>183</ele>
        <time>2020-05-31T07:59:58Z</time>
      </trkpt>
      <trkpt lat="43.35424" lon="2.74446">
        <ele>183</ele>
        <time>2020-05-31T07:59:59Z</time>
      </trkpt>
      <trkpt lat="43.35431" lon="2.74437">
        <ele>182</ele>
        <time>2020-05-31T08:00:01Z</time>
      </trkpt>
      <trkpt lat="43.35433" lon="2.74432">
        <ele>182</ele>
        <time>2020-05-31T08:00:02Z</time>
      </trkpt>
      <trkpt lat="43.35435" lon="2.74425">
        <ele>182</ele>
        <time>2020-05-31T08:00:03Z</time>
      </trkpt>
      <trkpt lat="43.35435" lon="2.74412">
        <ele>182</ele>
        <time>2020-05-31T08:00:05Z</time>
      </trkpt>
      <trkpt lat="43.35429" lon="2.74397">
        <ele>184</ele>
        <time>2020-05-31T08:00:07Z</time>
      </trkpt>
      <trkpt lat="43.35424" lon="2.74391">
        <ele>185</ele>
        <time>2020-05-31T08:00:08Z</time>
      </trkpt>
      <trkpt lat="43.35419" lon="2.74384">
        <ele>187</ele>
        <time>2020-05-31T08:00:09Z</time>
      </trkpt>
      <trkpt lat="43.35409" lon="2.74369">
        <ele>189</ele>
        <time>2020-05-31T08:00:11Z</time>
      </trkpt>
      <trkpt lat="43.35402" lon="2.74351">
        <ele>190</ele>
        <time>2020-05-31T08:00:13Z</time>
      </trkpt>
      <trkpt lat="43.35399" lon="2.74323">
        <ele>189</ele>
        <time>2020-05-31T08:00:16Z</time>
      </trkpt>
      <trkpt lat="43.35398" lon="2.74307">
        <ele>188</ele>
        <time>2020-05-31T08:00:18Z</time>
      </trkpt>
      <trkpt lat="43.354" lon="2.74292">
        <ele>185</ele>
        <time>2020-05-31T08:00:20Z</time>
      </trkpt>
      <trkpt lat="43.35401" lon="2.74285">
        <ele>183</ele>
        <time>2020-05-31T08:00:21Z</time>
      </trkpt>
      <trkpt lat="43.35402" lon="2.74278">
        <ele>181</ele>
        <time>2020-05-31T08:00:22Z</time>
      </trkpt>
      <trkpt lat="43.35404" lon="2.74265">
        <ele>177</ele>
        <time>2020-05-31T08:00:24Z</time>
      </trkpt>
      <trkpt lat="43.35404" lon="2.74251">
        <ele>173</ele>
        <time>2020-05-31T08:00:26Z</time>
      </trkpt>
      <trkpt lat="43.35403" lon="2.74238">
        <ele>172</ele>
        <time>2020-05-31T08:00:28Z</time>
      </trkpt>
      <trkpt lat="43.35398" lon="2.74226">
        <ele>171</ele>
        <time>2020-05-31T08:00:30Z</time>
      </trkpt>
      <trkpt lat="43.3539" lon="2.74218">
        <ele>171</ele>
        <time>2020-05-31T08:00:32Z</time>
      </trkpt>
      <trkpt lat="43.35381" lon="2.74213">
        <ele>175</ele>
        <time>2020-05-31T08:00:34Z</time>
      </trkpt>
      <trkpt lat="43.35366" lon="2.74204">
        <ele>182</ele>
        <time>2020-05-31T08:00:37Z</time>
      </trkpt>
      <trkpt lat="43.35353" lon="2.74191">
        <ele>186</ele>
        <time>2020-05-31T08:00:40Z</time>
      </trkpt>
      <trkpt lat="43.35349" lon="2.74186">
        <ele>186</ele>
        <time>2020-05-31T08:00:41Z</time>
      </trkpt>
      <trkpt lat="43.35334" lon="2.74163">
        <ele>189</ele>
        <time>2020-05-31T08:00:45Z</time>
      </trkpt>
      <trkpt lat="43.35305" lon="2.74126">
        <ele>185</ele>
        <time>2020-05-31T08:00:52Z</time>
      </trkpt>
      <trkpt lat="43.35301" lon="2.74122">
        <ele>183</ele>
        <time>2020-05-31T08:00:53Z</time>
      </trkpt>
      <trkpt lat="43.3529" lon="2.74118">
        <ele>181</ele>
        <time>2020-05-31T08:00:55Z</time>
      </trkpt>
      <trkpt lat="43.35284" lon="2.74117">
        <ele>180</ele>
        <time>2020-05-31T08:00:56Z</time>
      </trkpt>
      <trkpt lat="43.35279" lon="2.74118">
        <ele>180</ele>
        <time>2020-05-31T08:00:57Z</time>
      </trkpt>
      <trkpt lat="43.35269" lon="2.74124">
        <ele>180</ele>
        <time>2020-05-31T08:00:59Z</time>
      </trkpt>
      <trkpt lat="43.35264" lon="2.74128">
        <ele>180</ele>
        <time>2020-05-31T08:01:00Z</time>
      </trkpt>
      <trkpt lat="43.35259" lon="2.74133">
        <ele>180</ele>
        <time>2020-05-31T08:01:01Z</time>
      </trkpt>
      <trkpt lat="43.35251" lon="2.74144">
        <ele>180</ele>
        <time>2020-05-31T08:01:03Z</time>
      </trkpt>
      <trkpt lat="43.35247" lon="2.7415">
        <ele>181</ele>
        <time>2020-05-31T08:01:04Z</time>
      </trkpt>
      <trkpt lat="43.35232" lon="2.74173">
        <ele>183</ele>
        <time>2020-05-31T08:01:07Z</time>
      </trkpt>
      <trkpt lat="43.3522" lon="2.74188">
        <ele>184</ele>
        <time>2020-05-31T08:01:09Z</time>
      </trkpt>
      <trkpt lat="43.35213" lon="2.74194">
        <ele>184</ele>
        <time>2020-05-31T08:01:10Z</time>
      </trkpt>
      <trkpt lat="43.35196" lon="2.74202">
        <ele>185</ele>
        <time>2020-05-31T08:01:12Z</time>
      </trkpt>
      <trkpt lat="43.35186" lon="2.74202">
        <ele>185</ele>
        <time>2020-05-31T08:01:13Z</time>
      </trkpt>
      <trkpt lat="43.35176" lon="2.742">
        <ele>185</ele>
        <time>2020-05-31T08:01:14Z</time>
      </trkpt>
      <trkpt lat="43.35167" lon="2.74196">
        <ele>185</ele>
        <time>2020-05-31T08:01:15Z</time>
      </trkpt>
      <trkpt lat="43.35157" lon="2.7419">
        <ele>185</ele>
        <time>2020-05-31T08:01:16Z</time>
      </trkpt>
      <trkpt lat="43.35142" lon="2.74172">
        <ele>183</ele>
        <time>2020-05-31T08:01:18Z</time>
      </trkpt>
      <trkpt lat="43.35134" lon="2.74149">
        <ele>182</ele>
        <time>2020-05-31T08:01:20Z</time>
      </trkpt>
      <trkpt lat="43.35131" lon="2.74136">
        <ele>181</ele>
        <time>2020-05-31T08:01:21Z</time>
      </trkpt>
      <trkpt lat="43.35127" lon="2.7409">
        <ele>182</ele>
        <time>2020-05-31T08:01:25Z</time>
      </trkpt>
      <trkpt lat="43.3513" lon="2.74053">
        <ele>181</ele>
        <time>2020-05-31T08:01:29Z</time>
      </trkpt>
      <trkpt lat="43.3513" lon="2.74046">
        <ele>182</ele>
        <time>2020-05-31T08:01:30Z</time>
      </trkpt>
      <trkpt lat="43.35131" lon="2.74039">
        <ele>182</ele>
        <time>2020-05-31T08:01:31Z</time>
      </trkpt>
      <trkpt lat="43.35132" lon="2.74015">
        <ele>182</ele>
        <time>2020-05-31T08:01:35Z</time>
      </trkpt>
      <trkpt lat="43.35133" lon="2.7401">
        <ele>183</ele>
        <time>2020-05-31T08:01:36Z</time>
      </trkpt>
      <trkpt lat="43.35134" lon="2.73994">
        <ele>183</ele>
        <time>2020-05-31T08:01:39Z</time>
      </trkpt>
      <trkpt lat="43.35135" lon="2.7398">
        <ele>183</ele>
        <time>2020-05-31T08:01:42Z</time>
      </trkpt>
      <trkpt lat="43.35136" lon="2.7397">
        <ele>184</ele>
        <time>2020-05-31T08:01:44Z</time>
      </trkpt>
      <trkpt lat="43.35136" lon="2.73965">
        <ele>184</ele>
        <time>2020-05-31T08:01:45Z</time>
      </trkpt>
      <trkpt lat="43.35139" lon="2.73934">
        <ele>188</ele>
        <time>2020-05-31T08:01:51Z</time>
      </trkpt>
      <trkpt lat="43.35141" lon="2.73924">
        <ele>190</ele>
        <time>2020-05-31T08:01:53Z</time>
      </trkpt>
      <trkpt lat="43.35145" lon="2.73905">
        <ele>192</ele>
        <time>2020-05-31T08:01:57Z</time>
      </trkpt>
      <trkpt lat="43.35154" lon="2.73878">
        <ele>193</ele>
        <time>2020-05-31T08:02:03Z</time>
      </trkpt>
      <trkpt lat="43.35161" lon="2.73861">
        <ele>194</ele>
        <time>2020-05-31T08:02:07Z</time>
      </trkpt>
      <trkpt lat="43.35169" lon="2.73846">
        <ele>194</ele>
        <time>2020-05-31T08:02:11Z</time>
      </trkpt>
      <trkpt lat="43.35171" lon="2.73842">
        <ele>194</ele>
        <time>2020-05-31T08:02:12Z</time>
      </trkpt>
      <trkpt lat="43.35184" lon="2.7382">
        <ele>195</ele>
        <time>2020-05-31T08:02:18Z</time>
      </trkpt>
      <trkpt lat="43.35186" lon="2.73817">
        <ele>195</ele>
        <time>2020-05-31T08:02:19Z</time>
      </trkpt>
      <trkpt lat="43.35195" lon="2.73805">
        <ele>196</ele>
        <time>2020-05-31T08:02:23Z</time>
      </trkpt>
      <trkpt lat="43.35205" lon="2.73789">
        <ele>196</ele>
        <time>2020-05-31T08:02:28Z</time>
      </trkpt>
      <trkpt lat="43.35207" lon="2.73785">
        <ele>196</ele>
        <time>2020-05-31T08:02:29Z</time>
      </trkpt>
      <trkpt lat="43.35212" lon="2.73775">
        <ele>197</ele>
        <time>2020-05-31T08:02:32Z</time>
      </trkpt>
      <trkpt lat="43.35218" lon="2.73761">
        <ele>198</ele>
        <time>2020-05-31T08:02:36Z</time>
      </trkpt>
      <trkpt lat="43.35221" lon="2.73754">
        <ele>199</ele>
        <time>2020-05-31T08:02:38Z</time>
      </trkpt>
      <trkpt lat="43.35227" lon="2.73732">
        <ele>197</ele>
        <time>2020-05-31T08:02:43Z</time>
      </trkpt>
      <trkpt lat="43.35227" lon="2.73708">
        <ele>192</ele>
        <time>2020-05-31T08:02:48Z</time>
      </trkpt>
      <trkpt lat="43.35226" lon="2.73699">
        <ele>190</ele>
        <time>2020-05-31T08:02:50Z</time>
      </trkpt>
      <trkpt lat="43.35216" lon="2.73674">
        <ele>185</ele>
        <time>2020-05-31T08:02:56Z</time>
      </trkpt>
      <trkpt lat="43.352" lon="2.73654">
        <ele>189</ele>
        <time>2020-05-31T08:03:02Z</time>
      </trkpt>
      <trkpt lat="43.35197" lon="2.73651">
        <ele>189</ele>
        <time>2020-05-31T08:03:03Z</time>
      </trkpt>
      <trkpt lat="43.35169" lon="2.73622">
        <ele>197</ele>
        <time>2020-05-31T08:03:12Z</time>
      </trkpt>
      <trkpt lat="43.35166" lon="2.73619">
        <ele>198</ele>
        <time>2020-05-31T08:03:13Z</time>
      </trkpt>
      <trkpt lat="43.35149" lon="2.73604">
        <ele>201</ele>
        <time>2020-05-31T08:03:17Z</time>
      </trkpt>
      <trkpt lat="43.35142" lon="2.73592">
        <ele>202</ele>
        <time>2020-05-31T08:03:19Z</time>
      </trkpt>
      <trkpt lat="43.35139" lon="2.73585">
        <ele>202</ele>
        <time>2020-05-31T08:03:20Z</time>
      </trkpt>
      <trkpt lat="43.35138" lon="2.73576">
        <ele>201</ele>
        <time>2020-05-31T08:03:21Z</time>
      </trkpt>
      <trkpt lat="43.35137" lon="2.73558">
        <ele>200</ele>
        <time>2020-05-31T08:03:23Z</time>
      </trkpt>
      <trkpt lat="43.35141" lon="2.73513">
        <ele>198</ele>
        <time>2020-05-31T08:03:28Z</time>
      </trkpt>
      <trkpt lat="43.35144" lon="2.73487">
        <ele>196</ele>
        <time>2020-05-31T08:03:31Z</time>
      </trkpt>
      <trkpt lat="43.35141" lon="2.73444">
        <ele>196</ele>
        <time>2020-05-31T08:03:36Z</time>
      </trkpt>
      <trkpt lat="43.35132" lon="2.73377">
        <ele>202</ele>
        <time>2020-05-31T08:03:44Z</time>
      </trkpt>
      <trkpt lat="43.35131" lon="2.73319">
        <ele>198</ele>
        <time>2020-05-31T08:03:51Z</time>
      </trkpt>
      <trkpt lat="43.35126" lon="2.73268">
        <ele>198</ele>
        <time>2020-05-31T08:03:57Z</time>
      </trkpt>
      <trkpt lat="43.35114" lon="2.73217">
        <ele>200</ele>
        <time>2020-05-31T08:04:03Z</time>
      </trkpt>
      <trkpt lat="43.35109" lon="2.73199">
        <ele>198</ele>
        <time>2020-05-31T08:04:05Z</time>
      </trkpt>
      <trkpt lat="43.35101" lon="2.7317">
        <ele>196</ele>
        <time>2020-05-31T08:04:08Z</time>
      </trkpt>
      <trkpt lat="43.35095" lon="2.73151">
        <ele>193</ele>
        <time>2020-05-31T08:04:10Z</time>
      </trkpt>
      <trkpt lat="43.35091" lon="2.73141">
        <ele>192</ele>
        <time>2020-05-31T08:04:11Z</time>
      </trkpt>
      <trkpt lat="43.35086" lon="2.73132">
        <ele>190</ele>
        <time>2020-05-31T08:04:12Z</time>
      </trkpt>
      <trkpt lat="43.35075" lon="2.73115">
        <ele>184</ele>
        <time>2020-05-31T08:04:14Z</time>
      </trkpt>
      <trkpt lat="43.35068" lon="2.73107">
        <ele>181</ele>
        <time>2020-05-31T08:04:15Z</time>
      </trkpt>
      <trkpt lat="43.3506" lon="2.73101">
        <ele>179</ele>
        <time>2020-05-31T08:04:16Z</time>
      </trkpt>
      <trkpt lat="43.35044" lon="2.7309">
        <ele>178</ele>
        <time>2020-05-31T08:04:18Z</time>
      </trkpt>
      <trkpt lat="43.35036" lon="2.73086">
        <ele>179</ele>
        <time>2020-05-31T08:04:19Z</time>
      </trkpt>
      <trkpt lat="43.35017" lon="2.73082">
        <ele>182</ele>
        <time>2020-05-31T08:04:21Z</time>
      </trkpt>
      <trkpt lat="43.35008" lon="2.73081">
        <ele>185</ele>
        <time>2020-05-31T08:04:22Z</time>
      </trkpt>
      <trkpt lat="43.34998" lon="2.73081">
        <ele>187</ele>
        <time>2020-05-31T08:04:23Z</time>
      </trkpt>
      <trkpt lat="43.34988" lon="2.7308">
        <ele>189</ele>
        <time>2020-05-31T08:04:24Z</time>
      </trkpt>
      <trkpt lat="43.34978" lon="2.73076">
        <ele>190</ele>
        <time>2020-05-31T08:04:25Z</time>
      </trkpt>
      <trkpt lat="43.3497" lon="2.73069">
        <ele>191</ele>
        <time>2020-05-31T08:04:26Z</time>
      </trkpt>
      <trkpt lat="43.34957" lon="2.73047">
        <ele>189</ele>
        <time>2020-05-31T08:04:28Z</time>
      </trkpt>
      <trkpt lat="43.34933" lon="2.72969">
        <ele>182</ele>
        <time>2020-05-31T08:04:34Z</time>
      </trkpt>
      <trkpt lat="43.34928" lon="2.72956">
        <ele>181</ele>
        <time>2020-05-31T08:04:35Z</time>
      </trkpt>
      <trkpt lat="43.34922" lon="2.72944">
        <ele>181</ele>
        <time>2020-05-31T08:04:36Z</time>
      </trkpt>
      <trkpt lat="43.34908" lon="2.72924">
        <ele>178</ele>
        <time>2020-05-31T08:04:38Z</time>
      </trkpt>
      <trkpt lat="43.34879" lon="2.72904">
        <ele>180</ele>
        <time>2020-05-31T08:04:41Z</time>
      </trkpt>
      <trkpt lat="43.34869" lon="2.72897">
        <ele>181</ele>
        <time>2020-05-31T08:04:42Z</time>
      </trkpt>
      <trkpt lat="43.34849" lon="2.72881">
        <ele>183</ele>
        <time>2020-05-31T08:04:44Z</time>
      </trkpt>
      <trkpt lat="43.3484" lon="2.72872">
        <ele>183</ele>
        <time>2020-05-31T08:04:45Z</time>
      </trkpt>
      <trkpt lat="43.34832" lon="2.72862">
        <ele>182</ele>
        <time>2020-05-31T08:04:46Z</time>
      </trkpt>
      <trkpt lat="43.34825" lon="2.7285">
        <ele>183</ele>
        <time>2020-05-31T08:04:47Z</time>
      </trkpt>
      <trkpt lat="43.34819" lon="2.72837">
        <ele>182</ele>
        <time>2020-05-31T08:04:48Z</time>
      </trkpt>
      <trkpt lat="43.34814" lon="2.72824">
        <ele>182</ele>
        <time>2020-05-31T08:04:49Z</time>
      </trkpt>
      <trkpt lat="43.34808" lon="2.72811">
        <ele>183</ele>
        <time>2020-05-31T08:04:50Z</time>
      </trkpt>
      <trkpt lat="43.34804" lon="2.72798">
        <ele>184</ele>
        <time>2020-05-31T08:04:51Z</time>
      </trkpt>
      <trkpt lat="43.348" lon="2.72785">
        <ele>185</ele>
        <time>2020-05-31T08:04:52Z</time>
      </trkpt>
      <trkpt lat="43.34798" lon="2.72772">
        <ele>186</ele>
        <time>2020-05-31T08:04:53Z</time>
      </trkpt>
      <trkpt lat="43.34797" lon="2.7276">
        <ele>187</ele>
        <time>2020-05-31T08:04:54Z</time>
      </trkpt>
      <trkpt lat="43.34795" lon="2.72727">
        <ele>188</ele>
        <time>2020-05-31T08:04:57Z</time>
      </trkpt>
      <trkpt lat="43.34795" lon="2.72717">
        <ele>187</ele>
        <time>2020-05-31T08:04:58Z</time>
      </trkpt>
      <trkpt lat="43.3479" lon="2.72671">
        <ele>184</ele>
        <time>2020-05-31T08:05:03Z</time>
      </trkpt>
      <trkpt lat="43.34789" lon="2.72653">
        <ele>183</ele>
        <time>2020-05-31T08:05:05Z</time>
      </trkpt>
      <trkpt lat="43.3479" lon="2.72635">
        <ele>182</ele>
        <time>2020-05-31T08:05:07Z</time>
      </trkpt>
      <trkpt lat="43.34791" lon="2.72626">
        <ele>182</ele>
        <time>2020-05-31T08:05:08Z</time>
      </trkpt>
      <trkpt lat="43.34798" lon="2.72602">
        <ele>183</ele>
        <time>2020-05-31T08:05:11Z</time>
      </trkpt>
      <trkpt lat="43.34801" lon="2.72595">
        <ele>184</ele>
        <time>2020-05-31T08:05:12Z</time>
      </trkpt>
      <trkpt lat="43.34805" lon="2.72588">
        <ele>185</ele>
        <time>2020-05-31T08:05:13Z</time>
      </trkpt>
      <trkpt lat="43.3481" lon="2.72583">
        <ele>186</ele>
        <time>2020-05-31T08:05:14Z</time>
      </trkpt>
      <trkpt lat="43.34815" lon="2.7258">
        <ele>187</ele>
        <time>2020-05-31T08:05:15Z</time>
      </trkpt>
      <trkpt lat="43.34821" lon="2.72577">
        <ele>187</ele>
        <time>2020-05-31T08:05:16Z</time>
      </trkpt>
      <trkpt lat="43.34831" lon="2.72573">
        <ele>189</ele>
        <time>2020-05-31T08:05:18Z</time>
      </trkpt>
      <trkpt lat="43.3485" lon="2.72565">
        <ele>189</ele>
        <time>2020-05-31T08:05:22Z</time>
      </trkpt>
      <trkpt lat="43.34854" lon="2.72563">
        <ele>190</ele>
        <time>2020-05-31T08:05:23Z</time>
      </trkpt>
      <trkpt lat="43.34861" lon="2.72556">
        <ele>190</ele>
        <time>2020-05-31T08:05:25Z</time>
      </trkpt>
      <trkpt lat="43.34865" lon="2.72552">
        <ele>190</ele>
        <time>2020-05-31T08:05:26Z</time>
      </trkpt>
      <trkpt lat="43.34868" lon="2.72548">
        <ele>190</ele>
        <time>2020-05-31T08:05:27Z</time>
      </trkpt>
      <trkpt lat="43.34872" lon="2.72538">
        <ele>190</ele>
        <time>2020-05-31T08:05:29Z</time>
      </trkpt>
      <trkpt lat="43.34874" lon="2.72533">
        <ele>190</ele>
        <time>2020-05-31T08:05:30Z</time>
      </trkpt>
      <trkpt lat="43.34879" lon="2.72518">
        <ele>191</ele>
        <time>2020-05-31T08:05:33Z</time>
      </trkpt>
      <trkpt lat="43.34892" lon="2.7249">
        <ele>194</ele>
        <time>2020-05-31T08:05:39Z</time>
      </trkpt>
      <trkpt lat="43.34895" lon="2.72485">
        <ele>194</ele>
        <time>2020-05-31T08:05:40Z</time>
      </trkpt>
      <trkpt lat="43.34903" lon="2.72472">
        <ele>194</ele>
        <time>2020-05-31T08:05:43Z</time>
      </trkpt>
      <trkpt lat="43.34906" lon="2.72468">
        <ele>194</ele>
        <time>2020-05-31T08:05:44Z</time>
      </trkpt>
      <trkpt lat="43.3491" lon="2.72458">
        <ele>196</ele>
        <time>2020-05-31T08:05:46Z</time>
      </trkpt>
      <trkpt lat="43.34914" lon="2.72449">
        <ele>197</ele>
        <time>2020-05-31T08:05:48Z</time>
      </trkpt>
      <trkpt lat="43.34922" lon="2.72429">
        <ele>197</ele>
        <time>2020-05-31T08:05:53Z</time>
      </trkpt>
      <trkpt lat="43.34924" lon="2.72423">
        <ele>197</ele>
        <time>2020-05-31T08:05:55Z</time>
      </trkpt>
      <trkpt lat="43.34927" lon="2.72409">
        <ele>198</ele>
        <time>2020-05-31T08:05:59Z</time>
      </trkpt>
      <trkpt lat="43.34929" lon="2.72402">
        <ele>198</ele>
        <time>2020-05-31T08:06:01Z</time>
      </trkpt>
      <trkpt lat="43.34933" lon="2.7239">
        <ele>198</ele>
        <time>2020-05-31T08:06:04Z</time>
      </trkpt>
      <trkpt lat="43.34936" lon="2.72376">
        <ele>199</ele>
        <time>2020-05-31T08:06:07Z</time>
      </trkpt>
      <trkpt lat="43.3494" lon="2.72359">
        <ele>201</ele>
        <time>2020-05-31T08:06:11Z</time>
      </trkpt>
      <trkpt lat="43.34943" lon="2.72341">
        <ele>199</ele>
        <time>2020-05-31T08:06:15Z</time>
      </trkpt>
      <trkpt lat="43.34945" lon="2.72327">
        <ele>198</ele>
        <time>2020-05-31T08:06:18Z</time>
      </trkpt>
      <trkpt lat="43.34945" lon="2.72323">
        <ele>199</ele>
        <time>2020-05-31T08:06:19Z</time>
      </trkpt>
      <trkpt lat="43.34944" lon="2.72304">
        <ele>200</ele>
        <time>2020-05-31T08:06:23Z</time>
      </trkpt>
      <trkpt lat="43.34942" lon="2.72287">
        <ele>200</ele>
        <time>2020-05-31T08:06:27Z</time>
      </trkpt>
      <trkpt lat="43.34942" lon="2.72283">
        <ele>200</ele>
        <time>2020-05-31T08:06:28Z</time>
      </trkpt>
      <trkpt lat="43.34936" lon="2.72262">
        <ele>201</ele>
        <time>2020-05-31T08:06:33Z</time>
      </trkpt>
      <trkpt lat="43.34933" lon="2.72255">
        <ele>202</ele>
        <time>2020-05-31T08:06:35Z</time>
      </trkpt>
      <trkpt lat="43.34927" lon="2.7224">
        <ele>205</ele>
        <time>2020-05-31T08:06:39Z</time>
      </trkpt>
      <trkpt lat="43.34922" lon="2.72228">
        <ele>207</ele>
        <time>2020-05-31T08:06:42Z</time>
      </trkpt>
      <trkpt lat="43.34912" lon="2.72196">
        <ele>210</ele>
        <time>2020-05-31T08:06:49Z</time>
      </trkpt>
      <trkpt lat="43.34911" lon="2.7219">
        <ele>210</ele>
        <time>2020-05-31T08:06:50Z</time>
      </trkpt>
      <trkpt lat="43.34912" lon="2.7216">
        <ele>208</ele>
        <time>2020-05-31T08:06:56Z</time>
      </trkpt>
      <trkpt lat="43.34912" lon="2.72149">
        <ele>208</ele>
        <time>2020-05-31T08:06:58Z</time>
      </trkpt>
      <trkpt lat="43.34918" lon="2.72113">
        <ele>207</ele>
        <time>2020-05-31T08:07:05Z</time>
      </trkpt>
      <trkpt lat="43.34919" lon="2.72103">
        <ele>207</ele>
        <time>2020-05-31T08:07:07Z</time>
      </trkpt>
      <trkpt lat="43.34916" lon="2.72073">
        <ele>208</ele>
        <time>2020-05-31T08:07:13Z</time>
      </trkpt>
      <trkpt lat="43.34915" lon="2.72062">
        <ele>208</ele>
        <time>2020-05-31T08:07:15Z</time>
      </trkpt>
      <trkpt lat="43.34907" lon="2.72032">
        <ele>202</ele>
        <time>2020-05-31T08:07:20Z</time>
      </trkpt>
      <trkpt lat="43.34904" lon="2.72026">
        <ele>201</ele>
        <time>2020-05-31T08:07:21Z</time>
      </trkpt>
      <trkpt lat="43.34901" lon="2.7202">
        <ele>201</ele>
        <time>2020-05-31T08:07:22Z</time>
      </trkpt>
      <trkpt lat="43.34897" lon="2.72015">
        <ele>201</ele>
        <time>2020-05-31T08:07:23Z</time>
      </trkpt>
      <trkpt lat="43.34893" lon="2.7201">
        <ele>201</ele>
        <time>2020-05-31T08:07:24Z</time>
      </trkpt>
      <trkpt lat="43.34883" lon="2.72">
        <ele>202</ele>
        <time>2020-05-31T08:07:26Z</time>
      </trkpt>
      <trkpt lat="43.34871" lon="2.71991">
        <ele>205</ele>
        <time>2020-05-31T08:07:28Z</time>
      </trkpt>
      <trkpt lat="43.34842" lon="2.71965">
        <ele>212</ele>
        <time>2020-05-31T08:07:33Z</time>
      </trkpt>
      <trkpt lat="43.34832" lon="2.71952">
        <ele>213</ele>
        <time>2020-05-31T08:07:35Z</time>
      </trkpt>
      <trkpt lat="43.34828" lon="2.71944">
        <ele>213</ele>
        <time>2020-05-31T08:07:36Z</time>
      </trkpt>
      <trkpt lat="43.34825" lon="2.71936">
        <ele>213</ele>
        <time>2020-05-31T08:07:37Z</time>
      </trkpt>
      <trkpt lat="43.34817" lon="2.71903">
        <ele>212</ele>
        <time>2020-05-31T08:07:41Z</time>
      </trkpt>
      <trkpt lat="43.34814" lon="2.71895">
        <ele>211</ele>
        <time>2020-05-31T08:07:42Z</time>
      </trkpt>
      <trkpt lat="43.34809" lon="2.7188">
        <ele>212</ele>
        <time>2020-05-31T08:07:44Z</time>
      </trkpt>
      <trkpt lat="43.34799" lon="2.71857">
        <ele>212</ele>
        <time>2020-05-31T08:07:47Z</time>
      </trkpt>
      <trkpt lat="43.34793" lon="2.7184">
        <ele>211</ele>
        <time>2020-05-31T08:07:49Z</time>
      </trkpt>
      <trkpt lat="43.34792" lon="2.7182">
        <ele>210</ele>
        <time>2020-05-31T08:07:51Z</time>
      </trkpt>
      <trkpt lat="43.34793" lon="2.71801">
        <ele>209</ele>
        <time>2020-05-31T08:07:53Z</time>
      </trkpt>
      <trkpt lat="43.34799" lon="2.71774">
        <ele>210</ele>
        <time>2020-05-31T08:07:56Z</time>
      </trkpt>
      <trkpt lat="43.34804" lon="2.71759">
        <ele>211</ele>
        <time>2020-05-31T08:07:58Z</time>
      </trkpt>
      <trkpt lat="43.34815" lon="2.71732">
        <ele>212</ele>
        <time>2020-05-31T08:08:02Z</time>
      </trkpt>
      <trkpt lat="43.34818" lon="2.71725">
        <ele>212</ele>
        <time>2020-05-31T08:08:03Z</time>
      </trkpt>
      <trkpt lat="43.34831" lon="2.7169">
        <ele>212</ele>
        <time>2020-05-31T08:08:08Z</time>
      </trkpt>
      <trkpt lat="43.34836" lon="2.71668">
        <ele>211</ele>
        <time>2020-05-31T08:08:11Z</time>
      </trkpt>
      <trkpt lat="43.34837" lon="2.71661">
        <ele>210</ele>
        <time>2020-05-31T08:08:12Z</time>
      </trkpt>
      <trkpt lat="43.34836" lon="2.71653">
        <ele>209</ele>
        <time>2020-05-31T08:08:13Z</time>
      </trkpt>
      <trkpt lat="43.34833" lon="2.71639">
        <ele>208</ele>
        <time>2020-05-31T08:08:15Z</time>
      </trkpt>
      <trkpt lat="43.34825" lon="2.71627">
        <ele>205</ele>
        <time>2020-05-31T08:08:17Z</time>
      </trkpt>
      <trkpt lat="43.34821" lon="2.71622">
        <ele>203</ele>
        <time>2020-05-31T08:08:18Z</time>
      </trkpt>
      <trkpt lat="43.34815" lon="2.71618">
        <ele>202</ele>
        <time>2020-05-31T08:08:19Z</time>
      </trkpt>
      <trkpt lat="43.34779" lon="2.71598">
        <ele>205</ele>
        <time>2020-05-31T08:08:25Z</time>
      </trkpt>
      <trkpt lat="43.34766" lon="2.71591">
        <ele>206</ele>
        <time>2020-05-31T08:08:27Z</time>
      </trkpt>
      <trkpt lat="43.34759" lon="2.71587">
        <ele>206</ele>
        <time>2020-05-31T08:08:28Z</time>
      </trkpt>
      <trkpt lat="43.34745" lon="2.71576">
        <ele>208</ele>
        <time>2020-05-31T08:08:30Z</time>
      </trkpt>
      <trkpt lat="43.34739" lon="2.7157">
        <ele>208</ele>
        <time>2020-05-31T08:08:31Z</time>
      </trkpt>
      <trkpt lat="43.34733" lon="2.71562">
        <ele>208</ele>
        <time>2020-05-31T08:08:32Z</time>
      </trkpt>
      <trkpt lat="43.34719" lon="2.71535">
        <ele>209</ele>
        <time>2020-05-31T08:08:35Z</time>
      </trkpt>
      <trkpt lat="43.34714" lon="2.71525">
        <ele>210</ele>
        <time>2020-05-31T08:08:36Z</time>
      </trkpt>
      <trkpt lat="43.347" lon="2.71496">
        <ele>208</ele>
        <time>2020-05-31T08:08:39Z</time>
      </trkpt>
      <trkpt lat="43.34683" lon="2.7147">
        <ele>205</ele>
        <time>2020-05-31T08:08:42Z</time>
      </trkpt>
      <trkpt lat="43.34668" lon="2.71457">
        <ele>205</ele>
        <time>2020-05-31T08:08:44Z</time>
      </trkpt>
      <trkpt lat="43.3466" lon="2.71453">
        <ele>206</ele>
        <time>2020-05-31T08:08:45Z</time>
      </trkpt>
      <trkpt lat="43.34617" lon="2.7143">
        <ele>207</ele>
        <time>2020-05-31T08:08:50Z</time>
      </trkpt>
      <trkpt lat="43.34608" lon="2.71428">
        <ele>208</ele>
        <time>2020-05-31T08:08:51Z</time>
      </trkpt>
      <trkpt lat="43.34588" lon="2.71425">
        <ele>208</ele>
        <time>2020-05-31T08:08:53Z</time>
      </trkpt>
      <trkpt lat="43.3456" lon="2.71423">
        <ele>209</ele>
        <time>2020-05-31T08:08:56Z</time>
      </trkpt>
      <trkpt lat="43.34544" lon="2.71415">
        <ele>209</ele>
        <time>2020-05-31T08:08:58Z</time>
      </trkpt>
      <trkpt lat="43.34539" lon="2.71396">
        <ele>210</ele>
        <time>2020-05-31T08:09:00Z</time>
      </trkpt>
      <trkpt lat="43.34544" lon="2.71376">
        <ele>210</ele>
        <time>2020-05-31T08:09:02Z</time>
      </trkpt>
      <trkpt lat="43.34548" lon="2.71366">
        <ele>209</ele>
        <time>2020-05-31T08:09:03Z</time>
      </trkpt>
      <trkpt lat="43.34558" lon="2.71339">
        <ele>208</ele>
        <time>2020-05-31T08:09:06Z</time>
      </trkpt>
      <trkpt lat="43.34563" lon="2.71323">
        <ele>207</ele>
        <time>2020-05-31T08:09:08Z</time>
      </trkpt>
      <trkpt lat="43.34567" lon="2.71306">
        <ele>206</ele>
        <time>2020-05-31T08:09:10Z</time>
      </trkpt>
      <trkpt lat="43.34568" lon="2.71298">
        <ele>206</ele>
        <time>2020-05-31T08:09:11Z</time>
      </trkpt>
      <trkpt lat="43.34569" lon="2.71281">
        <ele>206</ele>
        <time>2020-05-31T08:09:13Z</time>
      </trkpt>
      <trkpt lat="43.34565" lon="2.7123">
        <ele>210</ele>
        <time>2020-05-31T08:09:19Z</time>
      </trkpt>
      <trkpt lat="43.34564" lon="2.71222">
        <ele>211</ele>
        <time>2020-05-31T08:09:20Z</time>
      </trkpt>
      <trkpt lat="43.34563" lon="2.71214">
        <ele>211</ele>
        <time>2020-05-31T08:09:21Z</time>
      </trkpt>
      <trkpt lat="43.34559" lon="2.71191">
        <ele>213</ele>
        <time>2020-05-31T08:09:24Z</time>
      </trkpt>
      <trkpt lat="43.34558" lon="2.71161">
        <ele>212</ele>
        <time>2020-05-31T08:09:28Z</time>
      </trkpt>
      <trkpt lat="43.3456" lon="2.71139">
        <ele>213</ele>
        <time>2020-05-31T08:09:31Z</time>
      </trkpt>
      <trkpt lat="43.34562" lon="2.71111">
        <ele>213</ele>
        <time>2020-05-31T08:09:35Z</time>
      </trkpt>
      <trkpt lat="43.34563" lon="2.71105">
        <ele>213</ele>
        <time>2020-05-31T08:09:36Z</time>
      </trkpt>
      <trkpt lat="43.34564" lon="2.71098">
        <ele>213</ele>
        <time>2020-05-31T08:09:37Z</time>
      </trkpt>
      <trkpt lat="43.34568" lon="2.71068">
        <ele>217</ele>
        <time>2020-05-31T08:09:42Z</time>
      </trkpt>
      <trkpt lat="43.34573" lon="2.71039">
        <ele>223</ele>
        <time>2020-05-31T08:09:48Z</time>
      </trkpt>
      <trkpt lat="43.34575" lon="2.7103">
        <ele>223</ele>
        <time>2020-05-31T08:09:50Z</time>
      </trkpt>
      <trkpt lat="43.34588" lon="2.70993">
        <ele>223</ele>
        <time>2020-05-31T08:09:59Z</time>
      </trkpt>
      <trkpt lat="43.34589" lon="2.70989">
        <ele>223</ele>
        <time>2020-05-31T08:10:00Z</time>
      </trkpt>
      <trkpt lat="43.34591" lon="2.70985">
        <ele>223</ele>
        <time>2020-05-31T08:10:01Z</time>
      </trkpt>
      <trkpt lat="43.34602" lon="2.70952">
        <ele>223</ele>
        <time>2020-05-31T08:10:09Z</time>
      </trkpt>
      <trkpt lat="43.34607" lon="2.70941">
        <ele>224</ele>
        <time>2020-05-31T08:10:12Z</time>
      </trkpt>
      <trkpt lat="43.34618" lon="2.70924">
        <ele>224</ele>
        <time>2020-05-31T08:10:17Z</time>
      </trkpt>
      <trkpt lat="43.34633" lon="2.70909">
        <ele>223</ele>
        <time>2020-05-31T08:10:23Z</time>
      </trkpt>
      <trkpt lat="43.34643" lon="2.70898">
        <ele>223</ele>
        <time>2020-05-31T08:10:27Z</time>
      </trkpt>
      <trkpt lat="43.34651" lon="2.7089">
        <ele>223</ele>
        <time>2020-05-31T08:10:30Z</time>
      </trkpt>
      <trkpt lat="43.34659" lon="2.70878">
        <ele>223</ele>
        <time>2020-05-31T08:10:34Z</time>
      </trkpt>
      <trkpt lat="43.34662" lon="2.70872">
        <ele>223</ele>
        <time>2020-05-31T08:10:36Z</time>
      </trkpt>
      <trkpt lat="43.34663" lon="2.70868">
        <ele>223</ele>
        <time>2020-05-31T08:10:37Z</time>
      </trkpt>
      <trkpt lat="43.34669" lon="2.70852">
        <ele>224</ele>
        <time>2020-05-31T08:10:42Z</time>
      </trkpt>
      <trkpt lat="43.34671" lon="2.70841">
        <ele>225</ele>
        <time>2020-05-31T08:10:45Z</time>
      </trkpt>
      <trkpt lat="43.34672" lon="2.70838">
        <ele>225</ele>
        <time>2020-05-31T08:10:46Z</time>
      </trkpt>
      <trkpt lat="43.34676" lon="2.70812">
        <ele>227</ele>
        <time>2020-05-31T08:10:53Z</time>
      </trkpt>
      <trkpt lat="43.34676" lon="2.70808">
        <ele>228</ele>
        <time>2020-05-31T08:10:54Z</time>
      </trkpt>
      <trkpt lat="43.34675" lon="2.70785">
        <ele>229</ele>
        <time>2020-05-31T08:11:00Z</time>
      </trkpt>
      <trkpt lat="43.34673" lon="2.70773">
        <ele>230</ele>
        <time>2020-05-31T08:11:03Z</time>
      </trkpt>
      <trkpt lat="43.34672" lon="2.70766">
        <ele>230</ele>
        <time>2020-05-31T08:11:05Z</time>
      </trkpt>
      <trkpt lat="43.34664" lon="2.70749">
        <ele>231</ele>
        <time>2020-05-31T08:11:10Z</time>
      </trkpt>
      <trkpt lat="43.3466" lon="2.70739">
        <ele>232</ele>
        <time>2020-05-31T08:11:13Z</time>
      </trkpt>
      <trkpt lat="43.3465" lon="2.70725">
        <ele>233</ele>
        <time>2020-05-31T08:11:18Z</time>
      </trkpt>
      <trkpt lat="43.34647" lon="2.70718">
        <ele>233</ele>
        <time>2020-05-31T08:11:20Z</time>
      </trkpt>
      <trkpt lat="43.34635" lon="2.70695">
        <ele>234</ele>
        <time>2020-05-31T08:11:27Z</time>
      </trkpt>
      <trkpt lat="43.34618" lon="2.70662">
        <ele>234</ele>
        <time>2020-05-31T08:11:36Z</time>
      </trkpt>
      <trkpt lat="43.34614" lon="2.70656">
        <ele>234</ele>
        <time>2020-05-31T08:11:38Z</time>
      </trkpt>
      <trkpt lat="43.346" lon="2.70641">
        <ele>235</ele>
        <time>2020-05-31T08:11:44Z</time>
      </trkpt>
      <trkpt lat="43.34598" lon="2.70639">
        <ele>235</ele>
        <time>2020-05-31T08:11:45Z</time>
      </trkpt>
      <trkpt lat="43.34595" lon="2.70637">
        <ele>236</ele>
        <time>2020-05-31T08:11:46Z</time>
      </trkpt>
      <trkpt lat="43.34576" lon="2.70632">
        <ele>237</ele>
        <time>2020-05-31T08:11:53Z</time>
      </trkpt>
      <trkpt lat="43.34574" lon="2.70632">
        <ele>238</ele>
        <time>2020-05-31T08:11:54Z</time>
      </trkpt>
      <trkpt lat="43.34557" lon="2.70632">
        <ele>240</ele>
        <time>2020-05-31T08:12:00Z</time>
      </trkpt>
      <trkpt lat="43.34552" lon="2.70633">
        <ele>241</ele>
        <time>2020-05-31T08:12:02Z</time>
      </trkpt>
      <trkpt lat="43.34542" lon="2.70637">
        <ele>241</ele>
        <time>2020-05-31T08:12:06Z</time>
      </trkpt>
      <trkpt lat="43.3454" lon="2.70639">
        <ele>242</ele>
        <time>2020-05-31T08:12:07Z</time>
      </trkpt>
      <trkpt lat="43.34531" lon="2.70645">
        <ele>243</ele>
        <time>2020-05-31T08:12:11Z</time>
      </trkpt>
      <trkpt lat="43.34519" lon="2.70651">
        <ele>245</ele>
        <time>2020-05-31T08:12:16Z</time>
      </trkpt>
      <trkpt lat="43.34507" lon="2.70656">
        <ele>246</ele>
        <time>2020-05-31T08:12:21Z</time>
      </trkpt>
      <trkpt lat="43.34503" lon="2.70658">
        <ele>246</ele>
        <time>2020-05-31T08:12:23Z</time>
      </trkpt>
      <trkpt lat="43.34498" lon="2.7066">
        <ele>247</ele>
        <time>2020-05-31T08:12:25Z</time>
      </trkpt>
      <trkpt lat="43.34486" lon="2.70667">
        <ele>249</ele>
        <time>2020-05-31T08:12:31Z</time>
      </trkpt>
      <trkpt lat="43.34484" lon="2.70668">
        <ele>249</ele>
        <time>2020-05-31T08:12:32Z</time>
      </trkpt>
      <trkpt lat="43.34476" lon="2.70677">
        <ele>250</ele>
        <time>2020-05-31T08:12:37Z</time>
      </trkpt>
      <trkpt lat="43.34471" lon="2.70682">
        <ele>251</ele>
        <time>2020-05-31T08:12:40Z</time>
      </trkpt>
      <trkpt lat="43.3447" lon="2.70683">
        <ele>251</ele>
        <time>2020-05-31T08:12:41Z</time>
      </trkpt>
      <trkpt lat="43.34463" lon="2.70689">
        <ele>252</ele>
        <time>2020-05-31T08:12:45Z</time>
      </trkpt>
      <trkpt lat="43.34456" lon="2.70696">
        <ele>252</ele>
        <time>2020-05-31T08:12:49Z</time>
      </trkpt>
      <trkpt lat="43.34454" lon="2.70698">
        <ele>252</ele>
        <time>2020-05-31T08:12:50Z</time>
      </trkpt>
      <trkpt lat="43.34443" lon="2.70706">
        <ele>253</ele>
        <time>2020-05-31T08:12:56Z</time>
      </trkpt>
      <trkpt lat="43.34438" lon="2.70711">
        <ele>253</ele>
        <time>2020-05-31T08:12:59Z</time>
      </trkpt>
      <trkpt lat="43.34434" lon="2.70713">
        <ele>253</ele>
        <time>2020-05-31T08:13:01Z</time>
      </trkpt>
      <trkpt lat="43.34426" lon="2.70718">
        <ele>254</ele>
        <time>2020-05-31T08:13:05Z</time>
      </trkpt>
      <trkpt lat="43.34419" lon="2.7072">
        <ele>254</ele>
        <time>2020-05-31T08:13:08Z</time>
      </trkpt>
      <trkpt lat="43.34417" lon="2.70721">
        <ele>255</ele>
        <time>2020-05-31T08:13:09Z</time>
      </trkpt>
      <trkpt lat="43.344" lon="2.70729">
        <ele>256</ele>
        <time>2020-05-31T08:13:16Z</time>
      </trkpt>
      <trkpt lat="43.34393" lon="2.70731">
        <ele>256</ele>
        <time>2020-05-31T08:13:19Z</time>
      </trkpt>
      <trkpt lat="43.34383" lon="2.70735">
        <ele>256</ele>
        <time>2020-05-31T08:13:23Z</time>
      </trkpt>
      <trkpt lat="43.34371" lon="2.7073">
        <ele>256</ele>
        <time>2020-05-31T08:13:28Z</time>
      </trkpt>
      <trkpt lat="43.34368" lon="2.70724">
        <ele>256</ele>
        <time>2020-05-31T08:13:30Z</time>
      </trkpt>
      <trkpt lat="43.34366" lon="2.70714">
        <ele>257</ele>
        <time>2020-05-31T08:13:33Z</time>
      </trkpt>
      <trkpt lat="43.34365" lon="2.70699">
        <ele>257</ele>
        <time>2020-05-31T08:13:37Z</time>
      </trkpt>
      <trkpt lat="43.34362" lon="2.70683">
        <ele>258</ele>
        <time>2020-05-31T08:13:41Z</time>
      </trkpt>
      <trkpt lat="43.34361" lon="2.70675">
        <ele>259</ele>
        <time>2020-05-31T08:13:43Z</time>
      </trkpt>
      <trkpt lat="43.34356" lon="2.70648">
        <ele>260</ele>
        <time>2020-05-31T08:13:49Z</time>
      </trkpt>
      <trkpt lat="43.3435" lon="2.7062">
        <ele>261</ele>
        <time>2020-05-31T08:13:55Z</time>
      </trkpt>
      <trkpt lat="43.34348" lon="2.7061">
        <ele>261</ele>
        <time>2020-05-31T08:13:57Z</time>
      </trkpt>
      <trkpt lat="43.34347" lon="2.70596">
        <ele>262</ele>
        <time>2020-05-31T08:14:00Z</time>
      </trkpt>
      <trkpt lat="43.34349" lon="2.70579">
        <ele>262</ele>
        <time>2020-05-31T08:14:04Z</time>
      </trkpt>
      <trkpt lat="43.3435" lon="2.70562">
        <ele>262</ele>
        <time>2020-05-31T08:14:08Z</time>
      </trkpt>
      <trkpt lat="43.34352" lon="2.70539">
        <ele>262</ele>
        <time>2020-05-31T08:14:13Z</time>
      </trkpt>
      <trkpt lat="43.34362" lon="2.70489">
        <ele>263</ele>
        <time>2020-05-31T08:14:23Z</time>
      </trkpt>
      <trkpt lat="43.34362" lon="2.70484">
        <ele>263</ele>
        <time>2020-05-31T08:14:24Z</time>
      </trkpt>
      <trkpt lat="43.34366" lon="2.70466">
        <ele>264</ele>
        <time>2020-05-31T08:14:28Z</time>
      </trkpt>
      <trkpt lat="43.34368" lon="2.70447">
        <ele>265</ele>
        <time>2020-05-31T08:14:32Z</time>
      </trkpt>
      <trkpt lat="43.3437" lon="2.70428">
        <ele>265</ele>
        <time>2020-05-31T08:14:36Z</time>
      </trkpt>
      <trkpt lat="43.34371" lon="2.70416">
        <ele>266</ele>
        <time>2020-05-31T08:14:39Z</time>
      </trkpt>
      <trkpt lat="43.34376" lon="2.70388">
        <ele>266</ele>
        <time>2020-05-31T08:14:46Z</time>
      </trkpt>
      <trkpt lat="43.34376" lon="2.70381">
        <ele>266</ele>
        <time>2020-05-31T08:14:48Z</time>
      </trkpt>
      <trkpt lat="43.34377" lon="2.70354">
        <ele>266</ele>
        <time>2020-05-31T08:14:55Z</time>
      </trkpt>
      <trkpt lat="43.3438" lon="2.70335">
        <ele>266</ele>
        <time>2020-05-31T08:14:59Z</time>
      </trkpt>
      <trkpt lat="43.34381" lon="2.70323">
        <ele>265</ele>
        <time>2020-05-31T08:15:01Z</time>
      </trkpt>
      <trkpt lat="43.34382" lon="2.70317">
        <ele>265</ele>
        <time>2020-05-31T08:15:02Z</time>
      </trkpt>
      <trkpt lat="43.34386" lon="2.70294">
        <ele>264</ele>
        <time>2020-05-31T08:15:05Z</time>
      </trkpt>
      <trkpt lat="43.34387" lon="2.70286">
        <ele>264</ele>
        <time>2020-05-31T08:15:06Z</time>
      </trkpt>
      <trkpt lat="43.34393" lon="2.70259">
        <ele>264</ele>
        <time>2020-05-31T08:15:09Z</time>
      </trkpt>
      <trkpt lat="43.34401" lon="2.70233">
        <ele>263</ele>
        <time>2020-05-31T08:15:12Z</time>
      </trkpt>
      <trkpt lat="43.34404" lon="2.70226">
        <ele>263</ele>
        <time>2020-05-31T08:15:13Z</time>
      </trkpt>
      <trkpt lat="43.34408" lon="2.7022">
        <ele>263</ele>
        <time>2020-05-31T08:15:14Z</time>
      </trkpt>
      <trkpt lat="43.34415" lon="2.7021">
        <ele>263</ele>
        <time>2020-05-31T08:15:16Z</time>
      </trkpt>
      <trkpt lat="43.34428" lon="2.70197">
        <ele>264</ele>
        <time>2020-05-31T08:15:20Z</time>
      </trkpt>
      <trkpt lat="43.34434" lon="2.70192">
        <ele>264</ele>
        <time>2020-05-31T08:15:22Z</time>
      </trkpt>
      <trkpt lat="43.34437" lon="2.7019">
        <ele>264</ele>
        <time>2020-05-31T08:15:23Z</time>
      </trkpt>
      <trkpt lat="43.34454" lon="2.70177">
        <ele>266</ele>
        <time>2020-05-31T08:15:29Z</time>
      </trkpt>
      <trkpt lat="43.34462" lon="2.70171">
        <ele>266</ele>
        <time>2020-05-31T08:15:32Z</time>
      </trkpt>
      <trkpt lat="43.34478" lon="2.70157">
        <ele>268</ele>
        <time>2020-05-31T08:15:38Z</time>
      </trkpt>
      <trkpt lat="43.34486" lon="2.7015">
        <ele>270</ele>
        <time>2020-05-31T08:15:41Z</time>
      </trkpt>
      <trkpt lat="43.34493" lon="2.70144">
        <ele>271</ele>
        <time>2020-05-31T08:15:44Z</time>
      </trkpt>
      <trkpt lat="43.34498" lon="2.70139">
        <ele>271</ele>
        <time>2020-05-31T08:15:46Z</time>
      </trkpt>
      <trkpt lat="43.3451" lon="2.70128">
        <ele>272</ele>
        <time>2020-05-31T08:15:51Z</time>
      </trkpt>
      <trkpt lat="43.34517" lon="2.70122">
        <ele>272</ele>
        <time>2020-05-31T08:15:54Z</time>
      </trkpt>
      <trkpt lat="43.34526" lon="2.70114">
        <ele>272</ele>
        <time>2020-05-31T08:15:58Z</time>
      </trkpt>
      <trkpt lat="43.34535" lon="2.70106">
        <ele>273</ele>
        <time>2020-05-31T08:16:02Z</time>
      </trkpt>
      <trkpt lat="43.34538" lon="2.70104">
        <ele>273</ele>
        <time>2020-05-31T08:16:03Z</time>
      </trkpt>
      <trkpt lat="43.34555" lon="2.70088">
        <ele>274</ele>
        <time>2020-05-31T08:16:11Z</time>
      </trkpt>
      <trkpt lat="43.34558" lon="2.70086">
        <ele>275</ele>
        <time>2020-05-31T08:16:12Z</time>
      </trkpt>
      <trkpt lat="43.34571" lon="2.70075">
        <ele>276</ele>
        <time>2020-05-31T08:16:18Z</time>
      </trkpt>
      <trkpt lat="43.34578" lon="2.70068">
        <ele>277</ele>
        <time>2020-05-31T08:16:21Z</time>
      </trkpt>
      <trkpt lat="43.34598" lon="2.7005">
        <ele>279</ele>
        <time>2020-05-31T08:16:30Z</time>
      </trkpt>
      <trkpt lat="43.34602" lon="2.70047">
        <ele>279</ele>
        <time>2020-05-31T08:16:32Z</time>
      </trkpt>
      <trkpt lat="43.34611" lon="2.70039">
        <ele>280</ele>
        <time>2020-05-31T08:16:36Z</time>
      </trkpt>
      <trkpt lat="43.34624" lon="2.70027">
        <ele>281</ele>
        <time>2020-05-31T08:16:42Z</time>
      </trkpt>
      <trkpt lat="43.34626" lon="2.70025">
        <ele>282</ele>
        <time>2020-05-31T08:16:43Z</time>
      </trkpt>
      <trkpt lat="43.34642" lon="2.70006">
        <ele>284</ele>
        <time>2020-05-31T08:16:51Z</time>
      </trkpt>
      <trkpt lat="43.34646" lon="2.70001">
        <ele>284</ele>
        <time>2020-05-31T08:16:53Z</time>
      </trkpt>
      <trkpt lat="43.34658" lon="2.69985">
        <ele>286</ele>
        <time>2020-05-31T08:16:59Z</time>
      </trkpt>
      <trkpt lat="43.34666" lon="2.69974">
        <ele>286</ele>
        <time>2020-05-31T08:17:03Z</time>
      </trkpt>
      <trkpt lat="43.34671" lon="2.69966">
        <ele>287</ele>
        <time>2020-05-31T08:17:06Z</time>
      </trkpt>
      <trkpt lat="43.34682" lon="2.6995">
        <ele>288</ele>
        <time>2020-05-31T08:17:12Z</time>
      </trkpt>
      <trkpt lat="43.34694" lon="2.6993">
        <ele>288</ele>
        <time>2020-05-31T08:17:19Z</time>
      </trkpt>
      <trkpt lat="43.347" lon="2.69922">
        <ele>288</ele>
        <time>2020-05-31T08:17:22Z</time>
      </trkpt>
      <trkpt lat="43.34707" lon="2.69911">
        <ele>289</ele>
        <time>2020-05-31T08:17:26Z</time>
      </trkpt>
      <trkpt lat="43.34717" lon="2.69895">
        <ele>289</ele>
        <time>2020-05-31T08:17:32Z</time>
      </trkpt>
      <trkpt lat="43.34718" lon="2.69892">
        <ele>289</ele>
        <time>2020-05-31T08:17:33Z</time>
      </trkpt>
      <trkpt lat="43.34722" lon="2.69878">
        <ele>289</ele>
        <time>2020-05-31T08:17:37Z</time>
      </trkpt>
      <trkpt lat="43.34723" lon="2.69868">
        <ele>289</ele>
        <time>2020-05-31T08:17:40Z</time>
      </trkpt>
      <trkpt lat="43.34725" lon="2.69854">
        <ele>289</ele>
        <time>2020-05-31T08:17:44Z</time>
      </trkpt>
      <trkpt lat="43.34726" lon="2.69843">
        <ele>290</ele>
        <time>2020-05-31T08:17:47Z</time>
      </trkpt>
      <trkpt lat="43.34727" lon="2.69822">
        <ele>292</ele>
        <time>2020-05-31T08:17:53Z</time>
      </trkpt>
      <trkpt lat="43.34728" lon="2.69797">
        <ele>293</ele>
        <time>2020-05-31T08:18:00Z</time>
      </trkpt>
      <trkpt lat="43.34729" lon="2.6979">
        <ele>294</ele>
        <time>2020-05-31T08:18:02Z</time>
      </trkpt>
      <trkpt lat="43.34731" lon="2.69776">
        <ele>294</ele>
        <time>2020-05-31T08:18:06Z</time>
      </trkpt>
      <trkpt lat="43.34735" lon="2.6976">
        <ele>294</ele>
        <time>2020-05-31T08:18:11Z</time>
      </trkpt>
      <trkpt lat="43.3474" lon="2.69748">
        <ele>295</ele>
        <time>2020-05-31T08:18:15Z</time>
      </trkpt>
      <trkpt lat="43.34749" lon="2.69734">
        <ele>295</ele>
        <time>2020-05-31T08:18:20Z</time>
      </trkpt>
      <trkpt lat="43.34751" lon="2.69731">
        <ele>295</ele>
        <time>2020-05-31T08:18:21Z</time>
      </trkpt>
      <trkpt lat="43.3476" lon="2.69717">
        <ele>296</ele>
        <time>2020-05-31T08:18:26Z</time>
      </trkpt>
      <trkpt lat="43.34761" lon="2.69715">
        <ele>296</ele>
        <time>2020-05-31T08:18:27Z</time>
      </trkpt>
      <trkpt lat="43.34763" lon="2.69712">
        <ele>296</ele>
        <time>2020-05-31T08:18:28Z</time>
      </trkpt>
      <trkpt lat="43.34773" lon="2.69695">
        <ele>298</ele>
        <time>2020-05-31T08:18:34Z</time>
      </trkpt>
      <trkpt lat="43.34776" lon="2.69685">
        <ele>299</ele>
        <time>2020-05-31T08:18:37Z</time>
      </trkpt>
      <trkpt lat="43.3478" lon="2.69664">
        <ele>300</ele>
        <time>2020-05-31T08:18:43Z</time>
      </trkpt>
      <trkpt lat="43.3478" lon="2.69657">
        <ele>301</ele>
        <time>2020-05-31T08:18:45Z</time>
      </trkpt>
      <trkpt lat="43.3478" lon="2.69646">
        <ele>302</ele>
        <time>2020-05-31T08:18:48Z</time>
      </trkpt>
      <trkpt lat="43.34779" lon="2.69624">
        <ele>303</ele>
        <time>2020-05-31T08:18:54Z</time>
      </trkpt>
      <trkpt lat="43.34779" lon="2.69617">
        <ele>303</ele>
        <time>2020-05-31T08:18:56Z</time>
      </trkpt>
      <trkpt lat="43.34783" lon="2.69596">
        <ele>303</ele>
        <time>2020-05-31T08:19:02Z</time>
      </trkpt>
      <trkpt lat="43.34785" lon="2.6959">
        <ele>304</ele>
        <time>2020-05-31T08:19:04Z</time>
      </trkpt>
      <trkpt lat="43.34794" lon="2.69572">
        <ele>303</ele>
        <time>2020-05-31T08:19:10Z</time>
      </trkpt>
      <trkpt lat="43.34797" lon="2.69563">
        <ele>303</ele>
        <time>2020-05-31T08:19:13Z</time>
      </trkpt>
      <trkpt lat="43.34802" lon="2.6955">
        <ele>304</ele>
        <time>2020-05-31T08:19:17Z</time>
      </trkpt>
      <trkpt lat="43.34808" lon="2.6953">
        <ele>304</ele>
        <time>2020-05-31T08:19:23Z</time>
      </trkpt>
      <trkpt lat="43.3481" lon="2.69523">
        <ele>305</ele>
        <time>2020-05-31T08:19:25Z</time>
      </trkpt>
      <trkpt lat="43.34812" lon="2.695">
        <ele>308</ele>
        <time>2020-05-31T08:19:32Z</time>
      </trkpt>
      <trkpt lat="43.34812" lon="2.69498">
        <ele>308</ele>
        <time>2020-05-31T08:19:33Z</time>
      </trkpt>
      <trkpt lat="43.34815" lon="2.69481">
        <ele>310</ele>
        <time>2020-05-31T08:19:38Z</time>
      </trkpt>
      <trkpt lat="43.34817" lon="2.69467">
        <ele>311</ele>
        <time>2020-05-31T08:19:42Z</time>
      </trkpt>
      <trkpt lat="43.34817" lon="2.69456">
        <ele>312</ele>
        <time>2020-05-31T08:19:45Z</time>
      </trkpt>
      <trkpt lat="43.34815" lon="2.69442">
        <ele>312</ele>
        <time>2020-05-31T08:19:49Z</time>
      </trkpt>
      <trkpt lat="43.34813" lon="2.69434">
        <ele>313</ele>
        <time>2020-05-31T08:19:51Z</time>
      </trkpt>
      <trkpt lat="43.34802" lon="2.69422">
        <ele>313</ele>
        <time>2020-05-31T08:19:56Z</time>
      </trkpt>
      <trkpt lat="43.34786" lon="2.69411">
        <ele>313</ele>
        <time>2020-05-31T08:20:02Z</time>
      </trkpt>
      <trkpt lat="43.34768" lon="2.69394">
        <ele>314</ele>
        <time>2020-05-31T08:20:10Z</time>
      </trkpt>
      <trkpt lat="43.34754" lon="2.69377">
        <ele>315</ele>
        <time>2020-05-31T08:20:16Z</time>
      </trkpt>
      <trkpt lat="43.34752" lon="2.69374">
        <ele>316</ele>
        <time>2020-05-31T08:20:17Z</time>
      </trkpt>
      <trkpt lat="43.34744" lon="2.69354">
        <ele>317</ele>
        <time>2020-05-31T08:20:22Z</time>
      </trkpt>
      <trkpt lat="43.34742" lon="2.69351">
        <ele>317</ele>
        <time>2020-05-31T08:20:23Z</time>
      </trkpt>
      <trkpt lat="43.34734" lon="2.69323">
        <ele>318</ele>
        <time>2020-05-31T08:20:30Z</time>
      </trkpt>
      <trkpt lat="43.3473" lon="2.6931">
        <ele>319</ele>
        <time>2020-05-31T08:20:33Z</time>
      </trkpt>
      <trkpt lat="43.34721" lon="2.69288">
        <ele>319</ele>
        <time>2020-05-31T08:20:39Z</time>
      </trkpt>
      <trkpt lat="43.34719" lon="2.69284">
        <ele>319</ele>
        <time>2020-05-31T08:20:40Z</time>
      </trkpt>
      <trkpt lat="43.34702" lon="2.69261">
        <ele>319</ele>
        <time>2020-05-31T08:20:48Z</time>
      </trkpt>
      <trkpt lat="43.34697" lon="2.69255">
        <ele>319</ele>
        <time>2020-05-31T08:20:50Z</time>
      </trkpt>
      <trkpt lat="43.34683" lon="2.69237">
        <ele>321</ele>
        <time>2020-05-31T08:20:56Z</time>
      </trkpt>
      <trkpt lat="43.34671" lon="2.69222">
        <ele>323</ele>
        <time>2020-05-31T08:21:01Z</time>
      </trkpt>
      <trkpt lat="43.34653" lon="2.69213">
        <ele>324</ele>
        <time>2020-05-31T08:21:07Z</time>
      </trkpt>
      <trkpt lat="43.34646" lon="2.69213">
        <ele>324</ele>
        <time>2020-05-31T08:21:09Z</time>
      </trkpt>
      <trkpt lat="43.3463" lon="2.69216">
        <ele>325</ele>
        <time>2020-05-31T08:21:14Z</time>
      </trkpt>
      <trkpt lat="43.34617" lon="2.69221">
        <ele>325</ele>
        <time>2020-05-31T08:21:18Z</time>
      </trkpt>
      <trkpt lat="43.34601" lon="2.69227">
        <ele>324</ele>
        <time>2020-05-31T08:21:23Z</time>
      </trkpt>
      <trkpt lat="43.34594" lon="2.69229">
        <ele>324</ele>
        <time>2020-05-31T08:21:25Z</time>
      </trkpt>
      <trkpt lat="43.34585" lon="2.69232">
        <ele>324</ele>
        <time>2020-05-31T08:21:28Z</time>
      </trkpt>
      <trkpt lat="43.34579" lon="2.69234">
        <ele>324</ele>
        <time>2020-05-31T08:21:30Z</time>
      </trkpt>
      <trkpt lat="43.34572" lon="2.69237">
        <ele>324</ele>
        <time>2020-05-31T08:21:32Z</time>
      </trkpt>
      <trkpt lat="43.34549" lon="2.69244">
        <ele>326</ele>
        <time>2020-05-31T08:21:39Z</time>
      </trkpt>
      <trkpt lat="43.34546" lon="2.69244">
        <ele>327</ele>
        <time>2020-05-31T08:21:40Z</time>
      </trkpt>
      <trkpt lat="43.3454" lon="2.69242">
        <ele>327</ele>
        <time>2020-05-31T08:21:42Z</time>
      </trkpt>
      <trkpt lat="43.34534" lon="2.69237">
        <ele>329</ele>
        <time>2020-05-31T08:21:45Z</time>
      </trkpt>
      <trkpt lat="43.34533" lon="2.69235">
        <ele>329</ele>
        <time>2020-05-31T08:21:46Z</time>
      </trkpt>
      <trkpt lat="43.34532" lon="2.69233">
        <ele>329</ele>
        <time>2020-05-31T08:21:47Z</time>
      </trkpt>
      <trkpt lat="43.34532" lon="2.69225">
        <ele>330</ele>
        <time>2020-05-31T08:21:49Z</time>
      </trkpt>
      <trkpt lat="43.3454" lon="2.6919">
        <ele>331</ele>
        <time>2020-05-31T08:21:57Z</time>
      </trkpt>
      <trkpt lat="43.34555" lon="2.69165">
        <ele>332</ele>
        <time>2020-05-31T08:22:04Z</time>
      </trkpt>
      <trkpt lat="43.3457" lon="2.69152">
        <ele>332</ele>
        <time>2020-05-31T08:22:09Z</time>
      </trkpt>
      <trkpt lat="43.34579" lon="2.69146">
        <ele>331</ele>
        <time>2020-05-31T08:22:12Z</time>
      </trkpt>
      <trkpt lat="43.34588" lon="2.69141">
        <ele>331</ele>
        <time>2020-05-31T08:22:15Z</time>
      </trkpt>
      <trkpt lat="43.346" lon="2.69135">
        <ele>331</ele>
        <time>2020-05-31T08:22:19Z</time>
      </trkpt>
      <trkpt lat="43.34603" lon="2.69134">
        <ele>331</ele>
        <time>2020-05-31T08:22:20Z</time>
      </trkpt>
      <trkpt lat="43.34614" lon="2.69128">
        <ele>332</ele>
        <time>2020-05-31T08:22:24Z</time>
      </trkpt>
      <trkpt lat="43.34625" lon="2.69123">
        <ele>333</ele>
        <time>2020-05-31T08:22:28Z</time>
      </trkpt>
      <trkpt lat="43.34627" lon="2.69121">
        <ele>334</ele>
        <time>2020-05-31T08:22:29Z</time>
      </trkpt>
      <trkpt lat="43.3464" lon="2.69113">
        <ele>335</ele>
        <time>2020-05-31T08:22:34Z</time>
      </trkpt>
      <trkpt lat="43.34652" lon="2.69102">
        <ele>336</ele>
        <time>2020-05-31T08:22:39Z</time>
      </trkpt>
      <trkpt lat="43.34654" lon="2.691">
        <ele>337</ele>
        <time>2020-05-31T08:22:40Z</time>
      </trkpt>
      <trkpt lat="43.34658" lon="2.69095">
        <ele>337</ele>
        <time>2020-05-31T08:22:42Z</time>
      </trkpt>
      <trkpt lat="43.34666" lon="2.69086">
        <ele>337</ele>
        <time>2020-05-31T08:22:46Z</time>
      </trkpt>
      <trkpt lat="43.3467" lon="2.69081">
        <ele>338</ele>
        <time>2020-05-31T08:22:48Z</time>
      </trkpt>
      <trkpt lat="43.34671" lon="2.69079">
        <ele>338</ele>
        <time>2020-05-31T08:22:49Z</time>
      </trkpt>
      <trkpt lat="43.34682" lon="2.69062">
        <ele>340</ele>
        <time>2020-05-31T08:22:56Z</time>
      </trkpt>
      <trkpt lat="43.34683" lon="2.69059">
        <ele>340</ele>
        <time>2020-05-31T08:22:57Z</time>
      </trkpt>
      <trkpt lat="43.34686" lon="2.69051">
        <ele>341</ele>
        <time>2020-05-31T08:23:00Z</time>
      </trkpt>
      <trkpt lat="43.34693" lon="2.69037">
        <ele>343</ele>
        <time>2020-05-31T08:23:05Z</time>
      </trkpt>
      <trkpt lat="43.34695" lon="2.69033">
        <ele>344</ele>
        <time>2020-05-31T08:23:06Z</time>
      </trkpt>
      <trkpt lat="43.34702" lon="2.69017">
        <ele>346</ele>
        <time>2020-05-31T08:23:11Z</time>
      </trkpt>
      <trkpt lat="43.34711" lon="2.68999">
        <ele>349</ele>
        <time>2020-05-31T08:23:17Z</time>
      </trkpt>
      <trkpt lat="43.34716" lon="2.68987">
        <ele>349</ele>
        <time>2020-05-31T08:23:21Z</time>
      </trkpt>
      <trkpt lat="43.3472" lon="2.68978">
        <ele>349</ele>
        <time>2020-05-31T08:23:24Z</time>
      </trkpt>
      <trkpt lat="43.34726" lon="2.68968">
        <ele>350</ele>
        <time>2020-05-31T08:23:28Z</time>
      </trkpt>
      <trkpt lat="43.34727" lon="2.68965">
        <ele>350</ele>
        <time>2020-05-31T08:23:29Z</time>
      </trkpt>
      <trkpt lat="43.34733" lon="2.68951">
        <ele>350</ele>
        <time>2020-05-31T08:23:34Z</time>
      </trkpt>
      <trkpt lat="43.34736" lon="2.68946">
        <ele>351</ele>
        <time>2020-05-31T08:23:36Z</time>
      </trkpt>
      <trkpt lat="43.3474" lon="2.68941">
        <ele>351</ele>
        <time>2020-05-31T08:23:38Z</time>
      </trkpt>
      <trkpt lat="43.34749" lon="2.68924">
        <ele>351</ele>
        <time>2020-05-31T08:23:44Z</time>
      </trkpt>
      <trkpt lat="43.3475" lon="2.68921">
        <ele>352</ele>
        <time>2020-05-31T08:23:45Z</time>
      </trkpt>
      <trkpt lat="43.34761" lon="2.68901">
        <ele>352</ele>
        <time>2020-05-31T08:23:52Z</time>
      </trkpt>
      <trkpt lat="43.34764" lon="2.68895">
        <ele>353</ele>
        <time>2020-05-31T08:23:54Z</time>
      </trkpt>
      <trkpt lat="43.34765" lon="2.68891">
        <ele>353</ele>
        <time>2020-05-31T08:23:55Z</time>
      </trkpt>
      <trkpt lat="43.34776" lon="2.68869">
        <ele>352</ele>
        <time>2020-05-31T08:24:02Z</time>
      </trkpt>
      <trkpt lat="43.34777" lon="2.68866">
        <ele>352</ele>
        <time>2020-05-31T08:24:03Z</time>
      </trkpt>
      <trkpt lat="43.34789" lon="2.68842">
        <ele>353</ele>
        <time>2020-05-31T08:24:10Z</time>
      </trkpt>
      <trkpt lat="43.34807" lon="2.68809">
        <ele>353</ele>
        <time>2020-05-31T08:24:20Z</time>
      </trkpt>
      <trkpt lat="43.34824" lon="2.68791">
        <ele>354</ele>
        <time>2020-05-31T08:24:27Z</time>
      </trkpt>
      <trkpt lat="43.34845" lon="2.68779">
        <ele>355</ele>
        <time>2020-05-31T08:24:34Z</time>
      </trkpt>
      <trkpt lat="43.34863" lon="2.68771">
        <ele>355</ele>
        <time>2020-05-31T08:24:40Z</time>
      </trkpt>
      <trkpt lat="43.34866" lon="2.6877">
        <ele>355</ele>
        <time>2020-05-31T08:24:41Z</time>
      </trkpt>
      <trkpt lat="43.34883" lon="2.68761">
        <ele>355</ele>
        <time>2020-05-31T08:24:46Z</time>
      </trkpt>
      <trkpt lat="43.34898" lon="2.68753">
        <ele>355</ele>
        <time>2020-05-31T08:24:50Z</time>
      </trkpt>
      <trkpt lat="43.34929" lon="2.68741">
        <ele>356</ele>
        <time>2020-05-31T08:24:57Z</time>
      </trkpt>
      <trkpt lat="43.34934" lon="2.68739">
        <ele>356</ele>
        <time>2020-05-31T08:24:58Z</time>
      </trkpt>
      <trkpt lat="43.34953" lon="2.68729">
        <ele>356</ele>
        <time>2020-05-31T08:25:02Z</time>
      </trkpt>
      <trkpt lat="43.34957" lon="2.68725">
        <ele>356</ele>
        <time>2020-05-31T08:25:03Z</time>
      </trkpt>
      <trkpt lat="43.34962" lon="2.68721">
        <ele>355</ele>
        <time>2020-05-31T08:25:04Z</time>
      </trkpt>
      <trkpt lat="43.34982" lon="2.68693">
        <ele>354</ele>
        <time>2020-05-31T08:25:09Z</time>
      </trkpt>
      <trkpt lat="43.3499" lon="2.68679">
        <ele>354</ele>
        <time>2020-05-31T08:25:11Z</time>
      </trkpt>
      <trkpt lat="43.34998" lon="2.68664">
        <ele>355</ele>
        <time>2020-05-31T08:25:13Z</time>
      </trkpt>
      <trkpt lat="43.35011" lon="2.68643">
        <ele>355</ele>
        <time>2020-05-31T08:25:16Z</time>
      </trkpt>
      <trkpt lat="43.3503" lon="2.68616">
        <ele>356</ele>
        <time>2020-05-31T08:25:20Z</time>
      </trkpt>
      <trkpt lat="43.35048" lon="2.68592">
        <ele>357</ele>
        <time>2020-05-31T08:25:24Z</time>
      </trkpt>
      <trkpt lat="43.35053" lon="2.68586">
        <ele>357</ele>
        <time>2020-05-31T08:25:25Z</time>
      </trkpt>
      <trkpt lat="43.35062" lon="2.68577">
        <ele>357</ele>
        <time>2020-05-31T08:25:27Z</time>
      </trkpt>
      <trkpt lat="43.3507" lon="2.68569">
        <ele>357</ele>
        <time>2020-05-31T08:25:29Z</time>
      </trkpt>
      <trkpt lat="43.35074" lon="2.68566">
        <ele>357</ele>
        <time>2020-05-31T08:25:30Z</time>
      </trkpt>
      <trkpt lat="43.35086" lon="2.68552">
        <ele>358</ele>
        <time>2020-05-31T08:25:34Z</time>
      </trkpt>
      <trkpt lat="43.35092" lon="2.68546">
        <ele>358</ele>
        <time>2020-05-31T08:25:36Z</time>
      </trkpt>
      <trkpt lat="43.35095" lon="2.68543">
        <ele>359</ele>
        <time>2020-05-31T08:25:37Z</time>
      </trkpt>
      <trkpt lat="43.35101" lon="2.68537">
        <ele>359</ele>
        <time>2020-05-31T08:25:39Z</time>
      </trkpt>
      <trkpt lat="43.35113" lon="2.68524">
        <ele>361</ele>
        <time>2020-05-31T08:25:43Z</time>
      </trkpt>
      <trkpt lat="43.35124" lon="2.68512">
        <ele>362</ele>
        <time>2020-05-31T08:25:47Z</time>
      </trkpt>
      <trkpt lat="43.35133" lon="2.68504">
        <ele>362</ele>
        <time>2020-05-31T08:25:50Z</time>
      </trkpt>
      <trkpt lat="43.35136" lon="2.68502">
        <ele>362</ele>
        <time>2020-05-31T08:25:51Z</time>
      </trkpt>
      <trkpt lat="43.35157" lon="2.68484">
        <ele>364</ele>
        <time>2020-05-31T08:25:58Z</time>
      </trkpt>
      <trkpt lat="43.35162" lon="2.68479">
        <ele>365</ele>
        <time>2020-05-31T08:26:00Z</time>
      </trkpt>
      <trkpt lat="43.35165" lon="2.68477">
        <ele>365</ele>
        <time>2020-05-31T08:26:01Z</time>
      </trkpt>
      <trkpt lat="43.35178" lon="2.68465">
        <ele>366</ele>
        <time>2020-05-31T08:26:06Z</time>
      </trkpt>
      <trkpt lat="43.35182" lon="2.6846">
        <ele>366</ele>
        <time>2020-05-31T08:26:08Z</time>
      </trkpt>
      <trkpt lat="43.35188" lon="2.68453">
        <ele>367</ele>
        <time>2020-05-31T08:26:11Z</time>
      </trkpt>
      <trkpt lat="43.35191" lon="2.68446">
        <ele>367</ele>
        <time>2020-05-31T08:26:14Z</time>
      </trkpt>
      <trkpt lat="43.35194" lon="2.68441">
        <ele>368</ele>
        <time>2020-05-31T08:26:16Z</time>
      </trkpt>
      <trkpt lat="43.35202" lon="2.68425">
        <ele>369</ele>
        <time>2020-05-31T08:26:22Z</time>
      </trkpt>
      <trkpt lat="43.35203" lon="2.68421">
        <ele>369</ele>
        <time>2020-05-31T08:26:23Z</time>
      </trkpt>
      <trkpt lat="43.35206" lon="2.68409">
        <ele>370</ele>
        <time>2020-05-31T08:26:27Z</time>
      </trkpt>
      <trkpt lat="43.3521" lon="2.68401">
        <ele>371</ele>
        <time>2020-05-31T08:26:30Z</time>
      </trkpt>
      <trkpt lat="43.3521" lon="2.68398">
        <ele>371</ele>
        <time>2020-05-31T08:26:31Z</time>
      </trkpt>
      <trkpt lat="43.35216" lon="2.68384">
        <ele>373</ele>
        <time>2020-05-31T08:26:36Z</time>
      </trkpt>
      <trkpt lat="43.35218" lon="2.68379">
        <ele>373</ele>
        <time>2020-05-31T08:26:38Z</time>
      </trkpt>
      <trkpt lat="43.35219" lon="2.68376">
        <ele>374</ele>
        <time>2020-05-31T08:26:39Z</time>
      </trkpt>
      <trkpt lat="43.35228" lon="2.68356">
        <ele>375</ele>
        <time>2020-05-31T08:26:46Z</time>
      </trkpt>
      <trkpt lat="43.35229" lon="2.68353">
        <ele>376</ele>
        <time>2020-05-31T08:26:47Z</time>
      </trkpt>
      <trkpt lat="43.35233" lon="2.68341">
        <ele>376</ele>
        <time>2020-05-31T08:26:51Z</time>
      </trkpt>
      <trkpt lat="43.3524" lon="2.68325">
        <ele>377</ele>
        <time>2020-05-31T08:26:57Z</time>
      </trkpt>
      <trkpt lat="43.35254" lon="2.68298">
        <ele>378</ele>
        <time>2020-05-31T08:27:07Z</time>
      </trkpt>
      <trkpt lat="43.35258" lon="2.68289">
        <ele>378</ele>
        <time>2020-05-31T08:27:10Z</time>
      </trkpt>
      <trkpt lat="43.35266" lon="2.6828">
        <ele>379</ele>
        <time>2020-05-31T08:27:14Z</time>
      </trkpt>
      <trkpt lat="43.35271" lon="2.68272">
        <ele>379</ele>
        <time>2020-05-31T08:27:17Z</time>
      </trkpt>
      <trkpt lat="43.3528" lon="2.68256">
        <ele>380</ele>
        <time>2020-05-31T08:27:23Z</time>
      </trkpt>
      <trkpt lat="43.35287" lon="2.68246">
        <ele>381</ele>
        <time>2020-05-31T08:27:27Z</time>
      </trkpt>
      <trkpt lat="43.35295" lon="2.68235">
        <ele>382</ele>
        <time>2020-05-31T08:27:32Z</time>
      </trkpt>
      <trkpt lat="43.35296" lon="2.68232">
        <ele>382</ele>
        <time>2020-05-31T08:27:33Z</time>
      </trkpt>
      <trkpt lat="43.35297" lon="2.68229">
        <ele>382</ele>
        <time>2020-05-31T08:27:34Z</time>
      </trkpt>
      <trkpt lat="43.35305" lon="2.68217">
        <ele>383</ele>
        <time>2020-05-31T08:27:39Z</time>
      </trkpt>
      <trkpt lat="43.35309" lon="2.6821">
        <ele>383</ele>
        <time>2020-05-31T08:27:42Z</time>
      </trkpt>
      <trkpt lat="43.35314" lon="2.68202">
        <ele>384</ele>
        <time>2020-05-31T08:27:45Z</time>
      </trkpt>
      <trkpt lat="43.35325" lon="2.68186">
        <ele>384</ele>
        <time>2020-05-31T08:27:51Z</time>
      </trkpt>
      <trkpt lat="43.35336" lon="2.68168">
        <ele>385</ele>
        <time>2020-05-31T08:27:58Z</time>
      </trkpt>
      <trkpt lat="43.35338" lon="2.68165">
        <ele>385</ele>
        <time>2020-05-31T08:27:59Z</time>
      </trkpt>
      <trkpt lat="43.35344" lon="2.68152">
        <ele>386</ele>
        <time>2020-05-31T08:28:04Z</time>
      </trkpt>
      <trkpt lat="43.35352" lon="2.68135">
        <ele>387</ele>
        <time>2020-05-31T08:28:10Z</time>
      </trkpt>
      <trkpt lat="43.35353" lon="2.68128">
        <ele>388</ele>
        <time>2020-05-31T08:28:12Z</time>
      </trkpt>
      <trkpt lat="43.35357" lon="2.6811">
        <ele>389</ele>
        <time>2020-05-31T08:28:17Z</time>
      </trkpt>
      <trkpt lat="43.35358" lon="2.68102">
        <ele>390</ele>
        <time>2020-05-31T08:28:19Z</time>
      </trkpt>
      <trkpt lat="43.35364" lon="2.68067">
        <ele>392</ele>
        <time>2020-05-31T08:28:28Z</time>
      </trkpt>
      <trkpt lat="43.35365" lon="2.68049">
        <ele>393</ele>
        <time>2020-05-31T08:28:32Z</time>
      </trkpt>
      <trkpt lat="43.35365" lon="2.6803">
        <ele>394</ele>
        <time>2020-05-31T08:28:36Z</time>
      </trkpt>
      <trkpt lat="43.35365" lon="2.68004">
        <ele>395</ele>
        <time>2020-05-31T08:28:41Z</time>
      </trkpt>
      <trkpt lat="43.35365" lon="2.67988">
        <ele>396</ele>
        <time>2020-05-31T08:28:44Z</time>
      </trkpt>
      <trkpt lat="43.35364" lon="2.67968">
        <ele>397</ele>
        <time>2020-05-31T08:28:48Z</time>
      </trkpt>
      <trkpt lat="43.35364" lon="2.67954">
        <ele>397</ele>
        <time>2020-05-31T08:28:51Z</time>
      </trkpt>
      <trkpt lat="43.35362" lon="2.67931">
        <ele>397</ele>
        <time>2020-05-31T08:28:56Z</time>
      </trkpt>
      <trkpt lat="43.35361" lon="2.67912">
        <ele>396</ele>
        <time>2020-05-31T08:29:00Z</time>
      </trkpt>
      <trkpt lat="43.35357" lon="2.6788">
        <ele>396</ele>
        <time>2020-05-31T08:29:06Z</time>
      </trkpt>
      <trkpt lat="43.35356" lon="2.67867">
        <ele>396</ele>
        <time>2020-05-31T08:29:08Z</time>
      </trkpt>
      <trkpt lat="43.35358" lon="2.6782">
        <ele>395</ele>
        <time>2020-05-31T08:29:14Z</time>
      </trkpt>
      <trkpt lat="43.35364" lon="2.67779">
        <ele>393</ele>
        <time>2020-05-31T08:29:19Z</time>
      </trkpt>
      <trkpt lat="43.35368" lon="2.67746">
        <ele>391</ele>
        <time>2020-05-31T08:29:23Z</time>
      </trkpt>
      <trkpt lat="43.35371" lon="2.6773">
        <ele>391</ele>
        <time>2020-05-31T08:29:25Z</time>
      </trkpt>
      <trkpt lat="43.35376" lon="2.67684">
        <ele>392</ele>
        <time>2020-05-31T08:29:31Z</time>
      </trkpt>
      <trkpt lat="43.35385" lon="2.67617">
        <ele>394</ele>
        <time>2020-05-31T08:29:40Z</time>
      </trkpt>
      <trkpt lat="43.35386" lon="2.6761">
        <ele>394</ele>
        <time>2020-05-31T08:29:41Z</time>
      </trkpt>
      <trkpt lat="43.35392" lon="2.67562">
        <ele>393</ele>
        <time>2020-05-31T08:29:48Z</time>
      </trkpt>
      <trkpt lat="43.35398" lon="2.67506">
        <ele>395</ele>
        <time>2020-05-31T08:29:56Z</time>
      </trkpt>
      <trkpt lat="43.35399" lon="2.67493">
        <ele>395</ele>
        <time>2020-05-31T08:29:58Z</time>
      </trkpt>
      <trkpt lat="43.35402" lon="2.67464">
        <ele>397</ele>
        <time>2020-05-31T08:30:03Z</time>
      </trkpt>
      <trkpt lat="43.35403" lon="2.67455">
        <ele>397</ele>
        <time>2020-05-31T08:30:05Z</time>
      </trkpt>
      <trkpt lat="43.35406" lon="2.6743">
        <ele>398</ele>
        <time>2020-05-31T08:30:10Z</time>
      </trkpt>
      <trkpt lat="43.35407" lon="2.67425">
        <ele>398</ele>
        <time>2020-05-31T08:30:11Z</time>
      </trkpt>
      <trkpt lat="43.3541" lon="2.67401">
        <ele>399</ele>
        <time>2020-05-31T08:30:15Z</time>
      </trkpt>
      <trkpt lat="43.35413" lon="2.67373">
        <ele>399</ele>
        <time>2020-05-31T08:30:20Z</time>
      </trkpt>
      <trkpt lat="43.35416" lon="2.67355">
        <ele>399</ele>
        <time>2020-05-31T08:30:23Z</time>
      </trkpt>
      <trkpt lat="43.35418" lon="2.67324">
        <ele>400</ele>
        <time>2020-05-31T08:30:28Z</time>
      </trkpt>
      <trkpt lat="43.35416" lon="2.67299">
        <ele>401</ele>
        <time>2020-05-31T08:30:32Z</time>
      </trkpt>
      <trkpt lat="43.35414" lon="2.67284">
        <ele>401</ele>
        <time>2020-05-31T08:30:35Z</time>
      </trkpt>
      <trkpt lat="43.35413" lon="2.67279">
        <ele>401</ele>
        <time>2020-05-31T08:30:36Z</time>
      </trkpt>
      <trkpt lat="43.35408" lon="2.67248">
        <ele>402</ele>
        <time>2020-05-31T08:30:42Z</time>
      </trkpt>
      <trkpt lat="43.35406" lon="2.67232">
        <ele>403</ele>
        <time>2020-05-31T08:30:45Z</time>
      </trkpt>
      <trkpt lat="43.35394" lon="2.67187">
        <ele>405</ele>
        <time>2020-05-31T08:30:53Z</time>
      </trkpt>
      <trkpt lat="43.35393" lon="2.67182">
        <ele>405</ele>
        <time>2020-05-31T08:30:54Z</time>
      </trkpt>
      <trkpt lat="43.35386" lon="2.67163">
        <ele>405</ele>
        <time>2020-05-31T08:30:58Z</time>
      </trkpt>
      <trkpt lat="43.35378" lon="2.67145">
        <ele>406</ele>
        <time>2020-05-31T08:31:02Z</time>
      </trkpt>
      <trkpt lat="43.35373" lon="2.67133">
        <ele>406</ele>
        <time>2020-05-31T08:31:05Z</time>
      </trkpt>
      <trkpt lat="43.35367" lon="2.67119">
        <ele>407</ele>
        <time>2020-05-31T08:31:09Z</time>
      </trkpt>
      <trkpt lat="43.35364" lon="2.67111">
        <ele>407</ele>
        <time>2020-05-31T08:31:11Z</time>
      </trkpt>
      <trkpt lat="43.35362" lon="2.67104">
        <ele>407</ele>
        <time>2020-05-31T08:31:13Z</time>
      </trkpt>
      <trkpt lat="43.35359" lon="2.67087">
        <ele>408</ele>
        <time>2020-05-31T08:31:17Z</time>
      </trkpt>
      <trkpt lat="43.35356" lon="2.67074">
        <ele>409</ele>
        <time>2020-05-31T08:31:20Z</time>
      </trkpt>
      <trkpt lat="43.35355" lon="2.67064">
        <ele>410</ele>
        <time>2020-05-31T08:31:22Z</time>
      </trkpt>
      <trkpt lat="43.35352" lon="2.67043">
        <ele>412</ele>
        <time>2020-05-31T08:31:26Z</time>
      </trkpt>
      <trkpt lat="43.35352" lon="2.67038">
        <ele>413</ele>
        <time>2020-05-31T08:31:27Z</time>
      </trkpt>
      <trkpt lat="43.35351" lon="2.67033">
        <ele>413</ele>
        <time>2020-05-31T08:31:28Z</time>
      </trkpt>
      <trkpt lat="43.35347" lon="2.67007">
        <ele>414</ele>
        <time>2020-05-31T08:31:33Z</time>
      </trkpt>
      <trkpt lat="43.35343" lon="2.66987">
        <ele>414</ele>
        <time>2020-05-31T08:31:37Z</time>
      </trkpt>
      <trkpt lat="43.35339" lon="2.66961">
        <ele>414</ele>
        <time>2020-05-31T08:31:42Z</time>
      </trkpt>
      <trkpt lat="43.35336" lon="2.6694">
        <ele>413</ele>
        <time>2020-05-31T08:31:46Z</time>
      </trkpt>
      <trkpt lat="43.35332" lon="2.66885">
        <ele>415</ele>
        <time>2020-05-31T08:31:56Z</time>
      </trkpt>
      <trkpt lat="43.35336" lon="2.66857">
        <ele>417</ele>
        <time>2020-05-31T08:32:01Z</time>
      </trkpt>
      <trkpt lat="43.35339" lon="2.66846">
        <ele>417</ele>
        <time>2020-05-31T08:32:03Z</time>
      </trkpt>
      <trkpt lat="43.35341" lon="2.66835">
        <ele>417</ele>
        <time>2020-05-31T08:32:05Z</time>
      </trkpt>
      <trkpt lat="43.35349" lon="2.66798">
        <ele>417</ele>
        <time>2020-05-31T08:32:12Z</time>
      </trkpt>
      <trkpt lat="43.35355" lon="2.66777">
        <ele>417</ele>
        <time>2020-05-31T08:32:16Z</time>
      </trkpt>
      <trkpt lat="43.35362" lon="2.66756">
        <ele>417</ele>
        <time>2020-05-31T08:32:20Z</time>
      </trkpt>
      <trkpt lat="43.35364" lon="2.66752">
        <ele>417</ele>
        <time>2020-05-31T08:32:21Z</time>
      </trkpt>
      <trkpt lat="43.35377" lon="2.6672">
        <ele>417</ele>
        <time>2020-05-31T08:32:27Z</time>
      </trkpt>
      <trkpt lat="43.35395" lon="2.6668">
        <ele>418</ele>
        <time>2020-05-31T08:32:34Z</time>
      </trkpt>
      <trkpt lat="43.3541" lon="2.66653">
        <ele>419</ele>
        <time>2020-05-31T08:32:38Z</time>
      </trkpt>
      <trkpt lat="43.35417" lon="2.66638">
        <ele>420</ele>
        <time>2020-05-31T08:32:40Z</time>
      </trkpt>
      <trkpt lat="43.35431" lon="2.66612">
        <ele>421</ele>
        <time>2020-05-31T08:32:44Z</time>
      </trkpt>
      <trkpt lat="43.35438" lon="2.666">
        <ele>420</ele>
        <time>2020-05-31T08:32:46Z</time>
      </trkpt>
      <trkpt lat="43.35464" lon="2.66554">
        <ele>418</ele>
        <time>2020-05-31T08:32:53Z</time>
      </trkpt>
      <trkpt lat="43.35471" lon="2.6654">
        <ele>418</ele>
        <time>2020-05-31T08:32:55Z</time>
      </trkpt>
      <trkpt lat="43.35481" lon="2.66517">
        <ele>417</ele>
        <time>2020-05-31T08:32:58Z</time>
      </trkpt>
      <trkpt lat="43.35483" lon="2.66508">
        <ele>417</ele>
        <time>2020-05-31T08:32:59Z</time>
      </trkpt>
      <trkpt lat="43.35485" lon="2.66498">
        <ele>417</ele>
        <time>2020-05-31T08:33:00Z</time>
      </trkpt>
      <trkpt lat="43.35488" lon="2.66477">
        <ele>417</ele>
        <time>2020-05-31T08:33:02Z</time>
      </trkpt>
      <trkpt lat="43.35489" lon="2.66467">
        <ele>417</ele>
        <time>2020-05-31T08:33:03Z</time>
      </trkpt>
      <trkpt lat="43.35489" lon="2.66457">
        <ele>418</ele>
        <time>2020-05-31T08:33:04Z</time>
      </trkpt>
      <trkpt lat="43.3549" lon="2.66447">
        <ele>418</ele>
        <time>2020-05-31T08:33:05Z</time>
      </trkpt>
      <trkpt lat="43.35492" lon="2.66429">
        <ele>418</ele>
        <time>2020-05-31T08:33:07Z</time>
      </trkpt>
      <trkpt lat="43.35497" lon="2.66392">
        <ele>420</ele>
        <time>2020-05-31T08:33:11Z</time>
      </trkpt>
      <trkpt lat="43.35504" lon="2.66347">
        <ele>419</ele>
        <time>2020-05-31T08:33:16Z</time>
      </trkpt>
      <trkpt lat="43.35507" lon="2.66338">
        <ele>419</ele>
        <time>2020-05-31T08:33:17Z</time>
      </trkpt>
      <trkpt lat="43.35526" lon="2.66292">
        <ele>421</ele>
        <time>2020-05-31T08:33:23Z</time>
      </trkpt>
      <trkpt lat="43.35528" lon="2.66286">
        <ele>421</ele>
        <time>2020-05-31T08:33:24Z</time>
      </trkpt>
      <trkpt lat="43.35534" lon="2.66273">
        <ele>422</ele>
        <time>2020-05-31T08:33:26Z</time>
      </trkpt>
      <trkpt lat="43.35543" lon="2.6625">
        <ele>422</ele>
        <time>2020-05-31T08:33:30Z</time>
      </trkpt>
      <trkpt lat="43.35559" lon="2.66209">
        <ele>423</ele>
        <time>2020-05-31T08:33:37Z</time>
      </trkpt>
      <trkpt lat="43.35567" lon="2.6619">
        <ele>424</ele>
        <time>2020-05-31T08:33:40Z</time>
      </trkpt>
      <trkpt lat="43.35573" lon="2.66169">
        <ele>425</ele>
        <time>2020-05-31T08:33:43Z</time>
      </trkpt>
      <trkpt lat="43.35576" lon="2.66155">
        <ele>426</ele>
        <time>2020-05-31T08:33:45Z</time>
      </trkpt>
      <trkpt lat="43.35582" lon="2.66135">
        <ele>426</ele>
        <time>2020-05-31T08:33:48Z</time>
      </trkpt>
      <trkpt lat="43.35591" lon="2.661">
        <ele>427</ele>
        <time>2020-05-31T08:33:53Z</time>
      </trkpt>
      <trkpt lat="43.35605" lon="2.66055">
        <ele>426</ele>
        <time>2020-05-31T08:34:00Z</time>
      </trkpt>
      <trkpt lat="43.35621" lon="2.66019">
        <ele>426</ele>
        <time>2020-05-31T08:34:06Z</time>
      </trkpt>
      <trkpt lat="43.35626" lon="2.66008">
        <ele>426</ele>
        <time>2020-05-31T08:34:08Z</time>
      </trkpt>
      <trkpt lat="43.35636" lon="2.65984">
        <ele>428</ele>
        <time>2020-05-31T08:34:13Z</time>
      </trkpt>
      <trkpt lat="43.3564" lon="2.65975">
        <ele>429</ele>
        <time>2020-05-31T08:34:15Z</time>
      </trkpt>
      <trkpt lat="43.35652" lon="2.65945">
        <ele>432</ele>
        <time>2020-05-31T08:34:22Z</time>
      </trkpt>
      <trkpt lat="43.35654" lon="2.6594">
        <ele>432</ele>
        <time>2020-05-31T08:34:23Z</time>
      </trkpt>
      <trkpt lat="43.35655" lon="2.65936">
        <ele>432</ele>
        <time>2020-05-31T08:34:24Z</time>
      </trkpt>
      <trkpt lat="43.35664" lon="2.65906">
        <ele>433</ele>
        <time>2020-05-31T08:34:31Z</time>
      </trkpt>
      <trkpt lat="43.35665" lon="2.65902">
        <ele>433</ele>
        <time>2020-05-31T08:34:32Z</time>
      </trkpt>
      <trkpt lat="43.35673" lon="2.65875">
        <ele>434</ele>
        <time>2020-05-31T08:34:38Z</time>
      </trkpt>
      <trkpt lat="43.35681" lon="2.65838">
        <ele>435</ele>
        <time>2020-05-31T08:34:45Z</time>
      </trkpt>
      <trkpt lat="43.35685" lon="2.65815">
        <ele>436</ele>
        <time>2020-05-31T08:34:49Z</time>
      </trkpt>
      <trkpt lat="43.35688" lon="2.65789">
        <ele>437</ele>
        <time>2020-05-31T08:34:53Z</time>
      </trkpt>
      <trkpt lat="43.3569" lon="2.65761">
        <ele>438</ele>
        <time>2020-05-31T08:34:57Z</time>
      </trkpt>
      <trkpt lat="43.35691" lon="2.65747">
        <ele>438</ele>
        <time>2020-05-31T08:34:59Z</time>
      </trkpt>
      <trkpt lat="43.35692" lon="2.65734">
        <ele>438</ele>
        <time>2020-05-31T08:35:01Z</time>
      </trkpt>
      <trkpt lat="43.35693" lon="2.65693">
        <ele>438</ele>
        <time>2020-05-31T08:35:07Z</time>
      </trkpt>
      <trkpt lat="43.35689" lon="2.6565">
        <ele>439</ele>
        <time>2020-05-31T08:35:13Z</time>
      </trkpt>
      <trkpt lat="43.35688" lon="2.65642">
        <ele>439</ele>
        <time>2020-05-31T08:35:14Z</time>
      </trkpt>
      <trkpt lat="43.35683" lon="2.65586">
        <ele>439</ele>
        <time>2020-05-31T08:35:21Z</time>
      </trkpt>
      <trkpt lat="43.35689" lon="2.65521">
        <ele>439</ele>
        <time>2020-05-31T08:35:29Z</time>
      </trkpt>
      <trkpt lat="43.35703" lon="2.65466">
        <ele>440</ele>
        <time>2020-05-31T08:35:36Z</time>
      </trkpt>
      <trkpt lat="43.35716" lon="2.65422">
        <ele>440</ele>
        <time>2020-05-31T08:35:42Z</time>
      </trkpt>
      <trkpt lat="43.35721" lon="2.65399">
        <ele>440</ele>
        <time>2020-05-31T08:35:45Z</time>
      </trkpt>
      <trkpt lat="43.35732" lon="2.65342">
        <ele>440</ele>
        <time>2020-05-31T08:35:52Z</time>
      </trkpt>
      <trkpt lat="43.35743" lon="2.65283">
        <ele>440</ele>
        <time>2020-05-31T08:35:59Z</time>
      </trkpt>
      <trkpt lat="43.35745" lon="2.65264">
        <ele>439</ele>
        <time>2020-05-31T08:36:01Z</time>
      </trkpt>
      <trkpt lat="43.35746" lon="2.65244">
        <ele>438</ele>
        <time>2020-05-31T08:36:03Z</time>
      </trkpt>
      <trkpt lat="43.35743" lon="2.65223">
        <ele>436</ele>
        <time>2020-05-31T08:36:05Z</time>
      </trkpt>
      <trkpt lat="43.35741" lon="2.65212">
        <ele>436</ele>
        <time>2020-05-31T08:36:06Z</time>
      </trkpt>
      <trkpt lat="43.35735" lon="2.65177">
        <ele>434</ele>
        <time>2020-05-31T08:36:09Z</time>
      </trkpt>
      <trkpt lat="43.35733" lon="2.65165">
        <ele>434</ele>
        <time>2020-05-31T08:36:10Z</time>
      </trkpt>
      <trkpt lat="43.35731" lon="2.65152">
        <ele>434</ele>
        <time>2020-05-31T08:36:11Z</time>
      </trkpt>
      <trkpt lat="43.35726" lon="2.65125">
        <ele>434</ele>
        <time>2020-05-31T08:36:13Z</time>
      </trkpt>
      <trkpt lat="43.35713" lon="2.65057">
        <ele>433</ele>
        <time>2020-05-31T08:36:18Z</time>
      </trkpt>
      <trkpt lat="43.35711" lon="2.65043">
        <ele>432</ele>
        <time>2020-05-31T08:36:19Z</time>
      </trkpt>
      <trkpt lat="43.35704" lon="2.65001">
        <ele>431</ele>
        <time>2020-05-31T08:36:22Z</time>
      </trkpt>
      <trkpt lat="43.35698" lon="2.64957">
        <ele>430</ele>
        <time>2020-05-31T08:36:25Z</time>
      </trkpt>
      <trkpt lat="43.35696" lon="2.64942">
        <ele>430</ele>
        <time>2020-05-31T08:36:26Z</time>
      </trkpt>
      <trkpt lat="43.35694" lon="2.64928">
        <ele>429</ele>
        <time>2020-05-31T08:36:27Z</time>
      </trkpt>
      <trkpt lat="43.35693" lon="2.64914">
        <ele>429</ele>
        <time>2020-05-31T08:36:28Z</time>
      </trkpt>
      <trkpt lat="43.35693" lon="2.64901">
        <ele>429</ele>
        <time>2020-05-31T08:36:29Z</time>
      </trkpt>
      <trkpt lat="43.35693" lon="2.64875">
        <ele>429</ele>
        <time>2020-05-31T08:36:31Z</time>
      </trkpt>
      <trkpt lat="43.35696" lon="2.64798">
        <ele>430</ele>
        <time>2020-05-31T08:36:37Z</time>
      </trkpt>
      <trkpt lat="43.35698" lon="2.64773">
        <ele>430</ele>
        <time>2020-05-31T08:36:39Z</time>
      </trkpt>
      <trkpt lat="43.357" lon="2.64761">
        <ele>430</ele>
        <time>2020-05-31T08:36:40Z</time>
      </trkpt>
      <trkpt lat="43.35711" lon="2.647">
        <ele>432</ele>
        <time>2020-05-31T08:36:45Z</time>
      </trkpt>
      <trkpt lat="43.35716" lon="2.64678">
        <ele>433</ele>
        <time>2020-05-31T08:36:47Z</time>
      </trkpt>
      <trkpt lat="43.35721" lon="2.64645">
        <ele>434</ele>
        <time>2020-05-31T08:36:50Z</time>
      </trkpt>
      <trkpt lat="43.35722" lon="2.64634">
        <ele>433</ele>
        <time>2020-05-31T08:36:51Z</time>
      </trkpt>
      <trkpt lat="43.35728" lon="2.64554">
        <ele>430</ele>
        <time>2020-05-31T08:36:58Z</time>
      </trkpt>
      <trkpt lat="43.35729" lon="2.64543">
        <ele>430</ele>
        <time>2020-05-31T08:36:59Z</time>
      </trkpt>
      <trkpt lat="43.35732" lon="2.6451">
        <ele>430</ele>
        <time>2020-05-31T08:37:02Z</time>
      </trkpt>
      <trkpt lat="43.35738" lon="2.64478">
        <ele>431</ele>
        <time>2020-05-31T08:37:05Z</time>
      </trkpt>
      <trkpt lat="43.35739" lon="2.64468">
        <ele>431</ele>
        <time>2020-05-31T08:37:06Z</time>
      </trkpt>
      <trkpt lat="43.35741" lon="2.64458">
        <ele>432</ele>
        <time>2020-05-31T08:37:07Z</time>
      </trkpt>
      <trkpt lat="43.35745" lon="2.64438">
        <ele>431</ele>
        <time>2020-05-31T08:37:09Z</time>
      </trkpt>
      <trkpt lat="43.35752" lon="2.64408">
        <ele>429</ele>
        <time>2020-05-31T08:37:12Z</time>
      </trkpt>
      <trkpt lat="43.35755" lon="2.64397">
        <ele>428</ele>
        <time>2020-05-31T08:37:13Z</time>
      </trkpt>
      <trkpt lat="43.35764" lon="2.64352">
        <ele>428</ele>
        <time>2020-05-31T08:37:17Z</time>
      </trkpt>
      <trkpt lat="43.35766" lon="2.64341">
        <ele>428</ele>
        <time>2020-05-31T08:37:18Z</time>
      </trkpt>
      <trkpt lat="43.35769" lon="2.64331">
        <ele>428</ele>
        <time>2020-05-31T08:37:19Z</time>
      </trkpt>
      <trkpt lat="43.35785" lon="2.64253">
        <ele>428</ele>
        <time>2020-05-31T08:37:26Z</time>
      </trkpt>
      <trkpt lat="43.35787" lon="2.64242">
        <ele>428</ele>
        <time>2020-05-31T08:37:27Z</time>
      </trkpt>
      <trkpt lat="43.35802" lon="2.64164">
        <ele>429</ele>
        <time>2020-05-31T08:37:34Z</time>
      </trkpt>
      <trkpt lat="43.35804" lon="2.64153">
        <ele>429</ele>
        <time>2020-05-31T08:37:35Z</time>
      </trkpt>
      <trkpt lat="43.35807" lon="2.6413">
        <ele>429</ele>
        <time>2020-05-31T08:37:37Z</time>
      </trkpt>
      <trkpt lat="43.35813" lon="2.64075">
        <ele>428</ele>
        <time>2020-05-31T08:37:42Z</time>
      </trkpt>
      <trkpt lat="43.35813" lon="2.6401">
        <ele>427</ele>
        <time>2020-05-31T08:37:48Z</time>
      </trkpt>
      <trkpt lat="43.35812" lon="2.63999">
        <ele>427</ele>
        <time>2020-05-31T08:37:49Z</time>
      </trkpt>
      <trkpt lat="43.35806" lon="2.63919">
        <ele>425</ele>
        <time>2020-05-31T08:37:56Z</time>
      </trkpt>
      <trkpt lat="43.35804" lon="2.63908">
        <ele>424</ele>
        <time>2020-05-31T08:37:57Z</time>
      </trkpt>
      <trkpt lat="43.35801" lon="2.63885">
        <ele>424</ele>
        <time>2020-05-31T08:37:59Z</time>
      </trkpt>
      <trkpt lat="43.35796" lon="2.63851">
        <ele>425</ele>
        <time>2020-05-31T08:38:02Z</time>
      </trkpt>
      <trkpt lat="43.35793" lon="2.63828">
        <ele>426</ele>
        <time>2020-05-31T08:38:04Z</time>
      </trkpt>
      <trkpt lat="43.35787" lon="2.63794">
        <ele>424</ele>
        <time>2020-05-31T08:38:07Z</time>
      </trkpt>
      <trkpt lat="43.35788" lon="2.63771">
        <ele>423</ele>
        <time>2020-05-31T08:38:09Z</time>
      </trkpt>
      <trkpt lat="43.35786" lon="2.63726">
        <ele>423</ele>
        <time>2020-05-31T08:38:13Z</time>
      </trkpt>
      <trkpt lat="43.35776" lon="2.63674">
        <ele>422</ele>
        <time>2020-05-31T08:38:18Z</time>
      </trkpt>
      <trkpt lat="43.35765" lon="2.63631">
        <ele>421</ele>
        <time>2020-05-31T08:38:22Z</time>
      </trkpt>
      <trkpt lat="43.35763" lon="2.6362">
        <ele>421</ele>
        <time>2020-05-31T08:38:23Z</time>
      </trkpt>
      <trkpt lat="43.35761" lon="2.63608">
        <ele>420</ele>
        <time>2020-05-31T08:38:24Z</time>
      </trkpt>
      <trkpt lat="43.3576" lon="2.63595">
        <ele>419</ele>
        <time>2020-05-31T08:38:25Z</time>
      </trkpt>
      <trkpt lat="43.3576" lon="2.63555">
        <ele>418</ele>
        <time>2020-05-31T08:38:28Z</time>
      </trkpt>
      <trkpt lat="43.35762" lon="2.6353">
        <ele>418</ele>
        <time>2020-05-31T08:38:30Z</time>
      </trkpt>
      <trkpt lat="43.35765" lon="2.63518">
        <ele>418</ele>
        <time>2020-05-31T08:38:31Z</time>
      </trkpt>
      <trkpt lat="43.35768" lon="2.63507">
        <ele>419</ele>
        <time>2020-05-31T08:38:32Z</time>
      </trkpt>
      <trkpt lat="43.35778" lon="2.63454">
        <ele>420</ele>
        <time>2020-05-31T08:38:37Z</time>
      </trkpt>
      <trkpt lat="43.35786" lon="2.63435">
        <ele>420</ele>
        <time>2020-05-31T08:38:39Z</time>
      </trkpt>
      <trkpt lat="43.35791" lon="2.63428">
        <ele>420</ele>
        <time>2020-05-31T08:38:40Z</time>
      </trkpt>
      <trkpt lat="43.35797" lon="2.63423">
        <ele>421</ele>
        <time>2020-05-31T08:38:41Z</time>
      </trkpt>
      <trkpt lat="43.3581" lon="2.63418">
        <ele>422</ele>
        <time>2020-05-31T08:38:43Z</time>
      </trkpt>
      <trkpt lat="43.35816" lon="2.63415">
        <ele>422</ele>
        <time>2020-05-31T08:38:44Z</time>
      </trkpt>
      <trkpt lat="43.35821" lon="2.63412">
        <ele>423</ele>
        <time>2020-05-31T08:38:45Z</time>
      </trkpt>
      <trkpt lat="43.35826" lon="2.63408">
        <ele>423</ele>
        <time>2020-05-31T08:38:46Z</time>
      </trkpt>
      <trkpt lat="43.35831" lon="2.63404">
        <ele>423</ele>
        <time>2020-05-31T08:38:47Z</time>
      </trkpt>
      <trkpt lat="43.3584" lon="2.63397">
        <ele>424</ele>
        <time>2020-05-31T08:38:49Z</time>
      </trkpt>
      <trkpt lat="43.35859" lon="2.63379">
        <ele>424</ele>
        <time>2020-05-31T08:38:54Z</time>
      </trkpt>
      <trkpt lat="43.35863" lon="2.63375">
        <ele>425</ele>
        <time>2020-05-31T08:38:55Z</time>
      </trkpt>
      <trkpt lat="43.35867" lon="2.63372">
        <ele>425</ele>
        <time>2020-05-31T08:38:56Z</time>
      </trkpt>
      <trkpt lat="43.35884" lon="2.6336">
        <ele>425</ele>
        <time>2020-05-31T08:39:00Z</time>
      </trkpt>
      <trkpt lat="43.35903" lon="2.63351">
        <ele>426</ele>
        <time>2020-05-31T08:39:05Z</time>
      </trkpt>
      <trkpt lat="43.35923" lon="2.63342">
        <ele>425</ele>
        <time>2020-05-31T08:39:09Z</time>
      </trkpt>
      <trkpt lat="43.35928" lon="2.63339">
        <ele>424</ele>
        <time>2020-05-31T08:39:10Z</time>
      </trkpt>
      <trkpt lat="43.35935" lon="2.63336">
        <ele>424</ele>
        <time>2020-05-31T08:39:11Z</time>
      </trkpt>
      <trkpt lat="43.35942" lon="2.63333">
        <ele>423</ele>
        <time>2020-05-31T08:39:12Z</time>
      </trkpt>
      <trkpt lat="43.35949" lon="2.63331">
        <ele>422</ele>
        <time>2020-05-31T08:39:13Z</time>
      </trkpt>
      <trkpt lat="43.35957" lon="2.63328">
        <ele>422</ele>
        <time>2020-05-31T08:39:14Z</time>
      </trkpt>
      <trkpt lat="43.35982" lon="2.63323">
        <ele>421</ele>
        <time>2020-05-31T08:39:17Z</time>
      </trkpt>
      <trkpt lat="43.36015" lon="2.63315">
        <ele>421</ele>
        <time>2020-05-31T08:39:21Z</time>
      </trkpt>
      <trkpt lat="43.36031" lon="2.63312">
        <ele>421</ele>
        <time>2020-05-31T08:39:23Z</time>
      </trkpt>
      <trkpt lat="43.36039" lon="2.63312">
        <ele>421</ele>
        <time>2020-05-31T08:39:24Z</time>
      </trkpt>
      <trkpt lat="43.36081" lon="2.63315">
        <ele>418</ele>
        <time>2020-05-31T08:39:29Z</time>
      </trkpt>
      <trkpt lat="43.361" lon="2.63316">
        <ele>417</ele>
        <time>2020-05-31T08:39:31Z</time>
      </trkpt>
      <trkpt lat="43.3611" lon="2.63315">
        <ele>416</ele>
        <time>2020-05-31T08:39:32Z</time>
      </trkpt>
      <trkpt lat="43.36121" lon="2.63313">
        <ele>415</ele>
        <time>2020-05-31T08:39:33Z</time>
      </trkpt>
      <trkpt lat="43.36141" lon="2.63308">
        <ele>414</ele>
        <time>2020-05-31T08:39:35Z</time>
      </trkpt>
      <trkpt lat="43.36162" lon="2.63303">
        <ele>414</ele>
        <time>2020-05-31T08:39:37Z</time>
      </trkpt>
      <trkpt lat="43.36192" lon="2.63296">
        <ele>414</ele>
        <time>2020-05-31T08:39:40Z</time>
      </trkpt>
      <trkpt lat="43.3622" lon="2.63288">
        <ele>412</ele>
        <time>2020-05-31T08:39:43Z</time>
      </trkpt>
      <trkpt lat="43.36246" lon="2.6328">
        <ele>411</ele>
        <time>2020-05-31T08:39:46Z</time>
      </trkpt>
      <trkpt lat="43.36293" lon="2.63265">
        <ele>412</ele>
        <time>2020-05-31T08:39:52Z</time>
      </trkpt>
      <trkpt lat="43.363" lon="2.63262">
        <ele>412</ele>
        <time>2020-05-31T08:39:53Z</time>
      </trkpt>
      <trkpt lat="43.36324" lon="2.63246">
        <ele>413</ele>
        <time>2020-05-31T08:39:57Z</time>
      </trkpt>
      <trkpt lat="43.3633" lon="2.63242">
        <ele>413</ele>
        <time>2020-05-31T08:39:58Z</time>
      </trkpt>
      <trkpt lat="43.36345" lon="2.63232">
        <ele>413</ele>
        <time>2020-05-31T08:40:01Z</time>
      </trkpt>
      <trkpt lat="43.36349" lon="2.63227">
        <ele>413</ele>
        <time>2020-05-31T08:40:02Z</time>
      </trkpt>
      <trkpt lat="43.36352" lon="2.63221">
        <ele>414</ele>
        <time>2020-05-31T08:40:03Z</time>
      </trkpt>
      <trkpt lat="43.36354" lon="2.63208">
        <ele>414</ele>
        <time>2020-05-31T08:40:05Z</time>
      </trkpt>
      <trkpt lat="43.36353" lon="2.63202">
        <ele>415</ele>
        <time>2020-05-31T08:40:06Z</time>
      </trkpt>
      <trkpt lat="43.3635" lon="2.63188">
        <ele>415</ele>
        <time>2020-05-31T08:40:08Z</time>
      </trkpt>
      <trkpt lat="43.36343" lon="2.63166">
        <ele>416</ele>
        <time>2020-05-31T08:40:11Z</time>
      </trkpt>
      <trkpt lat="43.3634" lon="2.6315">
        <ele>416</ele>
        <time>2020-05-31T08:40:13Z</time>
      </trkpt>
      <trkpt lat="43.36336" lon="2.63119">
        <ele>416</ele>
        <time>2020-05-31T08:40:17Z</time>
      </trkpt>
      <trkpt lat="43.36333" lon="2.63092">
        <ele>416</ele>
        <time>2020-05-31T08:40:21Z</time>
      </trkpt>
      <trkpt lat="43.3633" lon="2.63074">
        <ele>417</ele>
        <time>2020-05-31T08:40:24Z</time>
      </trkpt>
      <trkpt lat="43.36326" lon="2.63059">
        <ele>417</ele>
        <time>2020-05-31T08:40:28Z</time>
      </trkpt>
      <trkpt lat="43.36324" lon="2.63051">
        <ele>417</ele>
        <time>2020-05-31T08:40:32Z</time>
      </trkpt>
      <trkpt lat="43.36323" lon="2.63038">
        <ele>417</ele>
        <time>2020-05-31T08:45:31Z</time>
      </trkpt>
      <trkpt lat="43.36323" lon="2.63036">
        <ele>417</ele>
        <time>2020-05-31T08:45:32Z</time>
      </trkpt>
      <trkpt lat="43.36323" lon="2.63031">
        <ele>417</ele>
        <time>2020-05-31T08:45:34Z</time>
      </trkpt>
      <trkpt lat="43.36323" lon="2.63019">
        <ele>417</ele>
        <time>2020-05-31T08:45:38Z</time>
      </trkpt>
      <trkpt lat="43.36323" lon="2.63009">
        <ele>417</ele>
        <time>2020-05-31T08:45:41Z</time>
      </trkpt>
      <trkpt lat="43.3632" lon="2.62988">
        <ele>417</ele>
        <time>2020-05-31T08:45:47Z</time>
      </trkpt>
      <trkpt lat="43.36314" lon="2.62983">
        <ele>416</ele>
        <time>2020-05-31T08:45:49Z</time>
      </trkpt>
      <trkpt lat="43.36306" lon="2.62978">
        <ele>416</ele>
        <time>2020-05-31T08:45:51Z</time>
      </trkpt>
      <trkpt lat="43.36301" lon="2.62976">
        <ele>415</ele>
        <time>2020-05-31T08:45:52Z</time>
      </trkpt>
      <trkpt lat="43.36285" lon="2.62967">
        <ele>415</ele>
        <time>2020-05-31T08:45:55Z</time>
      </trkpt>
      <trkpt lat="43.36279" lon="2.62963">
        <ele>415</ele>
        <time>2020-05-31T08:45:56Z</time>
      </trkpt>
      <trkpt lat="43.36273" lon="2.62958">
        <ele>415</ele>
        <time>2020-05-31T08:45:57Z</time>
      </trkpt>
      <trkpt lat="43.36267" lon="2.62952">
        <ele>415</ele>
        <time>2020-05-31T08:45:58Z</time>
      </trkpt>
      <trkpt lat="43.36262" lon="2.62944">
        <ele>415</ele>
        <time>2020-05-31T08:45:59Z</time>
      </trkpt>
      <trkpt lat="43.36258" lon="2.62935">
        <ele>415</ele>
        <time>2020-05-31T08:46:00Z</time>
      </trkpt>
      <trkpt lat="43.36254" lon="2.62926">
        <ele>414</ele>
        <time>2020-05-31T08:46:01Z</time>
      </trkpt>
      <trkpt lat="43.36247" lon="2.62906">
        <ele>413</ele>
        <time>2020-05-31T08:46:03Z</time>
      </trkpt>
      <trkpt lat="43.36236" lon="2.62874">
        <ele>412</ele>
        <time>2020-05-31T08:46:06Z</time>
      </trkpt>
      <trkpt lat="43.3622" lon="2.62831">
        <ele>412</ele>
        <time>2020-05-31T08:46:10Z</time>
      </trkpt>
      <trkpt lat="43.36207" lon="2.62797">
        <ele>411</ele>
        <time>2020-05-31T08:46:13Z</time>
      </trkpt>
      <trkpt lat="43.36193" lon="2.62763">
        <ele>407</ele>
        <time>2020-05-31T08:46:16Z</time>
      </trkpt>
      <trkpt lat="43.36183" lon="2.62739">
        <ele>405</ele>
        <time>2020-05-31T08:46:18Z</time>
      </trkpt>
      <trkpt lat="43.36176" lon="2.62729">
        <ele>405</ele>
        <time>2020-05-31T08:46:19Z</time>
      </trkpt>
      <trkpt lat="43.36169" lon="2.6272">
        <ele>405</ele>
        <time>2020-05-31T08:46:20Z</time>
      </trkpt>
      <trkpt lat="43.3616" lon="2.62712">
        <ele>404</ele>
        <time>2020-05-31T08:46:21Z</time>
      </trkpt>
      <trkpt lat="43.3615" lon="2.62707">
        <ele>403</ele>
        <time>2020-05-31T08:46:22Z</time>
      </trkpt>
      <trkpt lat="43.3614" lon="2.62704">
        <ele>404</ele>
        <time>2020-05-31T08:46:23Z</time>
      </trkpt>
      <trkpt lat="43.3613" lon="2.62704">
        <ele>403</ele>
        <time>2020-05-31T08:46:24Z</time>
      </trkpt>
      <trkpt lat="43.36099" lon="2.62706">
        <ele>404</ele>
        <time>2020-05-31T08:46:27Z</time>
      </trkpt>
      <trkpt lat="43.36069" lon="2.62707">
        <ele>404</ele>
        <time>2020-05-31T08:46:30Z</time>
      </trkpt>
      <trkpt lat="43.36061" lon="2.62704">
        <ele>404</ele>
        <time>2020-05-31T08:46:31Z</time>
      </trkpt>
      <trkpt lat="43.36054" lon="2.62699">
        <ele>403</ele>
        <time>2020-05-31T08:46:32Z</time>
      </trkpt>
      <trkpt lat="43.36048" lon="2.6269">
        <ele>404</ele>
        <time>2020-05-31T08:46:33Z</time>
      </trkpt>
      <trkpt lat="43.36044" lon="2.62679">
        <ele>404</ele>
        <time>2020-05-31T08:46:34Z</time>
      </trkpt>
      <trkpt lat="43.36045" lon="2.62667">
        <ele>403</ele>
        <time>2020-05-31T08:46:35Z</time>
      </trkpt>
      <trkpt lat="43.36048" lon="2.62657">
        <ele>404</ele>
        <time>2020-05-31T08:46:36Z</time>
      </trkpt>
      <trkpt lat="43.36055" lon="2.62649">
        <ele>404</ele>
        <time>2020-05-31T08:46:37Z</time>
      </trkpt>
      <trkpt lat="43.36062" lon="2.62643">
        <ele>403</ele>
        <time>2020-05-31T08:46:38Z</time>
      </trkpt>
      <trkpt lat="43.36087" lon="2.6263">
        <ele>401</ele>
        <time>2020-05-31T08:46:41Z</time>
      </trkpt>
      <trkpt lat="43.36095" lon="2.62624">
        <ele>400</ele>
        <time>2020-05-31T08:46:42Z</time>
      </trkpt>
      <trkpt lat="43.36102" lon="2.62617">
        <ele>399</ele>
        <time>2020-05-31T08:46:43Z</time>
      </trkpt>
      <trkpt lat="43.3611" lon="2.62609">
        <ele>398</ele>
        <time>2020-05-31T08:46:44Z</time>
      </trkpt>
      <trkpt lat="43.36117" lon="2.626">
        <ele>398</ele>
        <time>2020-05-31T08:46:45Z</time>
      </trkpt>
      <trkpt lat="43.36128" lon="2.62578">
        <ele>398</ele>
        <time>2020-05-31T08:46:47Z</time>
      </trkpt>
      <trkpt lat="43.36132" lon="2.62566">
        <ele>398</ele>
        <time>2020-05-31T08:46:48Z</time>
      </trkpt>
      <trkpt lat="43.36137" lon="2.62554">
        <ele>397</ele>
        <time>2020-05-31T08:46:49Z</time>
      </trkpt>
      <trkpt lat="43.36146" lon="2.62514">
        <ele>397</ele>
        <time>2020-05-31T08:46:52Z</time>
      </trkpt>
      <trkpt lat="43.36148" lon="2.6247">
        <ele>396</ele>
        <time>2020-05-31T08:46:55Z</time>
      </trkpt>
      <trkpt lat="43.36148" lon="2.62455">
        <ele>395</ele>
        <time>2020-05-31T08:46:56Z</time>
      </trkpt>
      <trkpt lat="43.36146" lon="2.6241">
        <ele>393</ele>
        <time>2020-05-31T08:46:59Z</time>
      </trkpt>
      <trkpt lat="43.36143" lon="2.62363">
        <ele>392</ele>
        <time>2020-05-31T08:47:02Z</time>
      </trkpt>
      <trkpt lat="43.3614" lon="2.62331">
        <ele>390</ele>
        <time>2020-05-31T08:47:04Z</time>
      </trkpt>
      <trkpt lat="43.36137" lon="2.62316">
        <ele>390</ele>
        <time>2020-05-31T08:47:05Z</time>
      </trkpt>
      <trkpt lat="43.36132" lon="2.62301">
        <ele>391</ele>
        <time>2020-05-31T08:47:06Z</time>
      </trkpt>
      <trkpt lat="43.36125" lon="2.62288">
        <ele>392</ele>
        <time>2020-05-31T08:47:07Z</time>
      </trkpt>
      <trkpt lat="43.36115" lon="2.62279">
        <ele>392</ele>
        <time>2020-05-31T08:47:08Z</time>
      </trkpt>
      <trkpt lat="43.36104" lon="2.62272">
        <ele>391</ele>
        <time>2020-05-31T08:47:09Z</time>
      </trkpt>
      <trkpt lat="43.36093" lon="2.62266">
        <ele>389</ele>
        <time>2020-05-31T08:47:10Z</time>
      </trkpt>
      <trkpt lat="43.36068" lon="2.6226">
        <ele>388</ele>
        <time>2020-05-31T08:47:12Z</time>
      </trkpt>
      <trkpt lat="43.36056" lon="2.62259">
        <ele>387</ele>
        <time>2020-05-31T08:47:13Z</time>
      </trkpt>
      <trkpt lat="43.36044" lon="2.62259">
        <ele>387</ele>
        <time>2020-05-31T08:47:14Z</time>
      </trkpt>
      <trkpt lat="43.36031" lon="2.6226">
        <ele>386</ele>
        <time>2020-05-31T08:47:15Z</time>
      </trkpt>
      <trkpt lat="43.36019" lon="2.62263">
        <ele>387</ele>
        <time>2020-05-31T08:47:16Z</time>
      </trkpt>
      <trkpt lat="43.36008" lon="2.62268">
        <ele>387</ele>
        <time>2020-05-31T08:47:17Z</time>
      </trkpt>
      <trkpt lat="43.35996" lon="2.62271">
        <ele>388</ele>
        <time>2020-05-31T08:47:18Z</time>
      </trkpt>
      <trkpt lat="43.35975" lon="2.6227">
        <ele>389</ele>
        <time>2020-05-31T08:47:20Z</time>
      </trkpt>
      <trkpt lat="43.35959" lon="2.62257">
        <ele>390</ele>
        <time>2020-05-31T08:47:22Z</time>
      </trkpt>
      <trkpt lat="43.35954" lon="2.62245">
        <ele>390</ele>
        <time>2020-05-31T08:47:23Z</time>
      </trkpt>
      <trkpt lat="43.35953" lon="2.62233">
        <ele>390</ele>
        <time>2020-05-31T08:47:24Z</time>
      </trkpt>
      <trkpt lat="43.35959" lon="2.62207">
        <ele>387</ele>
        <time>2020-05-31T08:47:26Z</time>
      </trkpt>
      <trkpt lat="43.35973" lon="2.62152">
        <ele>381</ele>
        <time>2020-05-31T08:47:30Z</time>
      </trkpt>
      <trkpt lat="43.35974" lon="2.62136">
        <ele>381</ele>
        <time>2020-05-31T08:47:31Z</time>
      </trkpt>
      <trkpt lat="43.35974" lon="2.62104">
        <ele>380</ele>
        <time>2020-05-31T08:47:33Z</time>
      </trkpt>
      <trkpt lat="43.35973" lon="2.62088">
        <ele>381</ele>
        <time>2020-05-31T08:47:34Z</time>
      </trkpt>
      <trkpt lat="43.35967" lon="2.62055">
        <ele>382</ele>
        <time>2020-05-31T08:47:36Z</time>
      </trkpt>
      <trkpt lat="43.35966" lon="2.62039">
        <ele>382</ele>
        <time>2020-05-31T08:47:37Z</time>
      </trkpt>
      <trkpt lat="43.35966" lon="2.62022">
        <ele>381</ele>
        <time>2020-05-31T08:47:38Z</time>
      </trkpt>
      <trkpt lat="43.35969" lon="2.62005">
        <ele>380</ele>
        <time>2020-05-31T08:47:39Z</time>
      </trkpt>
      <trkpt lat="43.35981" lon="2.61977">
        <ele>379</ele>
        <time>2020-05-31T08:47:41Z</time>
      </trkpt>
      <trkpt lat="43.3599" lon="2.61966">
        <ele>378</ele>
        <time>2020-05-31T08:47:42Z</time>
      </trkpt>
      <trkpt lat="43.36001" lon="2.61959">
        <ele>378</ele>
        <time>2020-05-31T08:47:43Z</time>
      </trkpt>
      <trkpt lat="43.36012" lon="2.61955">
        <ele>375</ele>
        <time>2020-05-31T08:47:44Z</time>
      </trkpt>
      <trkpt lat="43.36022" lon="2.61948">
        <ele>374</ele>
        <time>2020-05-31T08:47:45Z</time>
      </trkpt>
      <trkpt lat="43.36031" lon="2.61938">
        <ele>372</ele>
        <time>2020-05-31T08:47:46Z</time>
      </trkpt>
      <trkpt lat="43.36037" lon="2.61926">
        <ele>370</ele>
        <time>2020-05-31T08:47:47Z</time>
      </trkpt>
      <trkpt lat="43.36048" lon="2.619">
        <ele>368</ele>
        <time>2020-05-31T08:47:49Z</time>
      </trkpt>
      <trkpt lat="43.36052" lon="2.61886">
        <ele>368</ele>
        <time>2020-05-31T08:47:50Z</time>
      </trkpt>
      <trkpt lat="43.36054" lon="2.61871">
        <ele>368</ele>
        <time>2020-05-31T08:47:51Z</time>
      </trkpt>
      <trkpt lat="43.36052" lon="2.61856">
        <ele>368</ele>
        <time>2020-05-31T08:47:52Z</time>
      </trkpt>
      <trkpt lat="43.3604" lon="2.61829">
        <ele>367</ele>
        <time>2020-05-31T08:47:54Z</time>
      </trkpt>
      <trkpt lat="43.36031" lon="2.61818">
        <ele>367</ele>
        <time>2020-05-31T08:47:55Z</time>
      </trkpt>
      <trkpt lat="43.36022" lon="2.61809">
        <ele>366</ele>
        <time>2020-05-31T08:47:56Z</time>
      </trkpt>
      <trkpt lat="43.36" lon="2.61799">
        <ele>365</ele>
        <time>2020-05-31T08:47:58Z</time>
      </trkpt>
      <trkpt lat="43.35945" lon="2.61796">
        <ele>363</ele>
        <time>2020-05-31T08:48:03Z</time>
      </trkpt>
      <trkpt lat="43.35934" lon="2.61799">
        <ele>364</ele>
        <time>2020-05-31T08:48:04Z</time>
      </trkpt>
      <trkpt lat="43.35922" lon="2.61801">
        <ele>364</ele>
        <time>2020-05-31T08:48:05Z</time>
      </trkpt>
      <trkpt lat="43.35912" lon="2.61799">
        <ele>365</ele>
        <time>2020-05-31T08:48:06Z</time>
      </trkpt>
      <trkpt lat="43.35901" lon="2.61794">
        <ele>366</ele>
        <time>2020-05-31T08:48:07Z</time>
      </trkpt>
      <trkpt lat="43.35893" lon="2.61784">
        <ele>366</ele>
        <time>2020-05-31T08:48:08Z</time>
      </trkpt>
      <trkpt lat="43.35888" lon="2.61771">
        <ele>365</ele>
        <time>2020-05-31T08:48:09Z</time>
      </trkpt>
      <trkpt lat="43.35885" lon="2.61756">
        <ele>365</ele>
        <time>2020-05-31T08:48:10Z</time>
      </trkpt>
      <trkpt lat="43.35884" lon="2.61742">
        <ele>364</ele>
        <time>2020-05-31T08:48:11Z</time>
      </trkpt>
      <trkpt lat="43.35883" lon="2.61727">
        <ele>362</ele>
        <time>2020-05-31T08:48:12Z</time>
      </trkpt>
      <trkpt lat="43.35881" lon="2.61712">
        <ele>361</ele>
        <time>2020-05-31T08:48:13Z</time>
      </trkpt>
      <trkpt lat="43.35871" lon="2.61684">
        <ele>360</ele>
        <time>2020-05-31T08:48:15Z</time>
      </trkpt>
      <trkpt lat="43.35863" lon="2.61674">
        <ele>360</ele>
        <time>2020-05-31T08:48:16Z</time>
      </trkpt>
      <trkpt lat="43.35847" lon="2.61655">
        <ele>360</ele>
        <time>2020-05-31T08:48:18Z</time>
      </trkpt>
      <trkpt lat="43.35829" lon="2.61641">
        <ele>360</ele>
        <time>2020-05-31T08:48:20Z</time>
      </trkpt>
      <trkpt lat="43.3579" lon="2.61628">
        <ele>358</ele>
        <time>2020-05-31T08:48:24Z</time>
      </trkpt>
      <trkpt lat="43.35779" lon="2.61627">
        <ele>357</ele>
        <time>2020-05-31T08:48:25Z</time>
      </trkpt>
      <trkpt lat="43.35768" lon="2.61627">
        <ele>356</ele>
        <time>2020-05-31T08:48:26Z</time>
      </trkpt>
      <trkpt lat="43.35736" lon="2.61626">
        <ele>354</ele>
        <time>2020-05-31T08:48:29Z</time>
      </trkpt>
      <trkpt lat="43.35714" lon="2.61627">
        <ele>354</ele>
        <time>2020-05-31T08:48:31Z</time>
      </trkpt>
      <trkpt lat="43.3568" lon="2.61624">
        <ele>354</ele>
        <time>2020-05-31T08:48:34Z</time>
      </trkpt>
      <trkpt lat="43.35669" lon="2.61622">
        <ele>354</ele>
        <time>2020-05-31T08:48:35Z</time>
      </trkpt>
      <trkpt lat="43.35647" lon="2.61616">
        <ele>352</ele>
        <time>2020-05-31T08:48:37Z</time>
      </trkpt>
      <trkpt lat="43.35636" lon="2.61611">
        <ele>351</ele>
        <time>2020-05-31T08:48:38Z</time>
      </trkpt>
      <trkpt lat="43.35625" lon="2.61606">
        <ele>350</ele>
        <time>2020-05-31T08:48:39Z</time>
      </trkpt>
      <trkpt lat="43.35614" lon="2.61601">
        <ele>349</ele>
        <time>2020-05-31T08:48:40Z</time>
      </trkpt>
      <trkpt lat="43.35581" lon="2.61585">
        <ele>348</ele>
        <time>2020-05-31T08:48:43Z</time>
      </trkpt>
      <trkpt lat="43.35547" lon="2.61568">
        <ele>346</ele>
        <time>2020-05-31T08:48:46Z</time>
      </trkpt>
      <trkpt lat="43.35523" lon="2.61557">
        <ele>345</ele>
        <time>2020-05-31T08:48:48Z</time>
      </trkpt>
      <trkpt lat="43.35485" lon="2.61538">
        <ele>342</ele>
        <time>2020-05-31T08:48:51Z</time>
      </trkpt>
      <trkpt lat="43.35458" lon="2.61525">
        <ele>340</ele>
        <time>2020-05-31T08:48:53Z</time>
      </trkpt>
      <trkpt lat="43.35431" lon="2.61512">
        <ele>338</ele>
        <time>2020-05-31T08:48:55Z</time>
      </trkpt>
      <trkpt lat="43.35417" lon="2.61506">
        <ele>337</ele>
        <time>2020-05-31T08:48:56Z</time>
      </trkpt>
      <trkpt lat="43.35388" lon="2.61495">
        <ele>336</ele>
        <time>2020-05-31T08:48:58Z</time>
      </trkpt>
      <trkpt lat="43.35373" lon="2.61491">
        <ele>336</ele>
        <time>2020-05-31T08:48:59Z</time>
      </trkpt>
      <trkpt lat="43.35343" lon="2.61485">
        <ele>334</ele>
        <time>2020-05-31T08:49:01Z</time>
      </trkpt>
      <trkpt lat="43.35328" lon="2.61482">
        <ele>334</ele>
        <time>2020-05-31T08:49:02Z</time>
      </trkpt>
      <trkpt lat="43.35313" lon="2.61478">
        <ele>333</ele>
        <time>2020-05-31T08:49:03Z</time>
      </trkpt>
      <trkpt lat="43.35284" lon="2.61468">
        <ele>333</ele>
        <time>2020-05-31T08:49:05Z</time>
      </trkpt>
      <trkpt lat="43.3527" lon="2.6146">
        <ele>332</ele>
        <time>2020-05-31T08:49:06Z</time>
      </trkpt>
      <trkpt lat="43.35256" lon="2.6145">
        <ele>331</ele>
        <time>2020-05-31T08:49:07Z</time>
      </trkpt>
      <trkpt lat="43.35244" lon="2.61439">
        <ele>330</ele>
        <time>2020-05-31T08:49:08Z</time>
      </trkpt>
      <trkpt lat="43.35231" lon="2.61428">
        <ele>330</ele>
        <time>2020-05-31T08:49:09Z</time>
      </trkpt>
      <trkpt lat="43.35218" lon="2.61417">
        <ele>330</ele>
        <time>2020-05-31T08:49:10Z</time>
      </trkpt>
      <trkpt lat="43.35192" lon="2.61396">
        <ele>328</ele>
        <time>2020-05-31T08:49:12Z</time>
      </trkpt>
      <trkpt lat="43.35178" lon="2.61387">
        <ele>326</ele>
        <time>2020-05-31T08:49:13Z</time>
      </trkpt>
      <trkpt lat="43.35163" lon="2.6138">
        <ele>324</ele>
        <time>2020-05-31T08:49:14Z</time>
      </trkpt>
      <trkpt lat="43.35134" lon="2.6137">
        <ele>321</ele>
        <time>2020-05-31T08:49:16Z</time>
      </trkpt>
      <trkpt lat="43.35119" lon="2.61367">
        <ele>320</ele>
        <time>2020-05-31T08:49:17Z</time>
      </trkpt>
      <trkpt lat="43.35104" lon="2.61366">
        <ele>319</ele>
        <time>2020-05-31T08:49:18Z</time>
      </trkpt>
      <trkpt lat="43.35088" lon="2.61368">
        <ele>320</ele>
        <time>2020-05-31T08:49:19Z</time>
      </trkpt>
      <trkpt lat="43.35073" lon="2.61371">
        <ele>320</ele>
        <time>2020-05-31T08:49:20Z</time>
      </trkpt>
      <trkpt lat="43.35059" lon="2.61375">
        <ele>320</ele>
        <time>2020-05-31T08:49:21Z</time>
      </trkpt>
      <trkpt lat="43.35015" lon="2.61387">
        <ele>317</ele>
        <time>2020-05-31T08:49:24Z</time>
      </trkpt>
      <trkpt lat="43.35" lon="2.61391">
        <ele>315</ele>
        <time>2020-05-31T08:49:25Z</time>
      </trkpt>
      <trkpt lat="43.34971" lon="2.61398">
        <ele>312</ele>
        <time>2020-05-31T08:49:27Z</time>
      </trkpt>
      <trkpt lat="43.34929" lon="2.61406">
        <ele>310</ele>
        <time>2020-05-31T08:49:30Z</time>
      </trkpt>
      <trkpt lat="43.34916" lon="2.61412">
        <ele>309</ele>
        <time>2020-05-31T08:49:31Z</time>
      </trkpt>
      <trkpt lat="43.34906" lon="2.61422">
        <ele>309</ele>
        <time>2020-05-31T08:49:32Z</time>
      </trkpt>
      <trkpt lat="43.34897" lon="2.61436">
        <ele>309</ele>
        <time>2020-05-31T08:49:33Z</time>
      </trkpt>
      <trkpt lat="43.3489" lon="2.61451">
        <ele>309</ele>
        <time>2020-05-31T08:49:34Z</time>
      </trkpt>
      <trkpt lat="43.3487" lon="2.61496">
        <ele>306</ele>
        <time>2020-05-31T08:49:37Z</time>
      </trkpt>
      <trkpt lat="43.34858" lon="2.61525">
        <ele>303</ele>
        <time>2020-05-31T08:49:39Z</time>
      </trkpt>
      <trkpt lat="43.34841" lon="2.61567">
        <ele>300</ele>
        <time>2020-05-31T08:49:42Z</time>
      </trkpt>
      <trkpt lat="43.34835" lon="2.61581">
        <ele>300</ele>
        <time>2020-05-31T08:49:43Z</time>
      </trkpt>
      <trkpt lat="43.34829" lon="2.61595">
        <ele>299</ele>
        <time>2020-05-31T08:49:44Z</time>
      </trkpt>
      <trkpt lat="43.34818" lon="2.61622">
        <ele>299</ele>
        <time>2020-05-31T08:49:46Z</time>
      </trkpt>
      <trkpt lat="43.348" lon="2.61663">
        <ele>296</ele>
        <time>2020-05-31T08:49:49Z</time>
      </trkpt>
      <trkpt lat="43.34788" lon="2.61688">
        <ele>294</ele>
        <time>2020-05-31T08:49:51Z</time>
      </trkpt>
      <trkpt lat="43.34784" lon="2.61715">
        <ele>291</ele>
        <time>2020-05-31T08:49:53Z</time>
      </trkpt>
      <trkpt lat="43.34788" lon="2.61726">
        <ele>291</ele>
        <time>2020-05-31T08:49:54Z</time>
      </trkpt>
      <trkpt lat="43.34795" lon="2.61736">
        <ele>291</ele>
        <time>2020-05-31T08:49:55Z</time>
      </trkpt>
      <trkpt lat="43.34804" lon="2.61744">
        <ele>292</ele>
        <time>2020-05-31T08:49:56Z</time>
      </trkpt>
      <trkpt lat="43.34831" lon="2.61763">
        <ele>293</ele>
        <time>2020-05-31T08:49:59Z</time>
      </trkpt>
      <trkpt lat="43.3484" lon="2.6177">
        <ele>293</ele>
        <time>2020-05-31T08:50:00Z</time>
      </trkpt>
      <trkpt lat="43.34855" lon="2.61791">
        <ele>291</ele>
        <time>2020-05-31T08:50:02Z</time>
      </trkpt>
      <trkpt lat="43.34864" lon="2.61817">
        <ele>288</ele>
        <time>2020-05-31T08:50:04Z</time>
      </trkpt>
      <trkpt lat="43.3487" lon="2.61828">
        <ele>288</ele>
        <time>2020-05-31T08:50:05Z</time>
      </trkpt>
      <trkpt lat="43.34878" lon="2.61837">
        <ele>288</ele>
        <time>2020-05-31T08:50:06Z</time>
      </trkpt>
      <trkpt lat="43.34896" lon="2.6185">
        <ele>289</ele>
        <time>2020-05-31T08:50:08Z</time>
      </trkpt>
      <trkpt lat="43.34904" lon="2.61857">
        <ele>290</ele>
        <time>2020-05-31T08:50:09Z</time>
      </trkpt>
      <trkpt lat="43.34919" lon="2.61876">
        <ele>291</ele>
        <time>2020-05-31T08:50:11Z</time>
      </trkpt>
      <trkpt lat="43.34924" lon="2.619">
        <ele>292</ele>
        <time>2020-05-31T08:50:13Z</time>
      </trkpt>
      <trkpt lat="43.34915" lon="2.61925">
        <ele>292</ele>
        <time>2020-05-31T08:50:15Z</time>
      </trkpt>
      <trkpt lat="43.34907" lon="2.61933">
        <ele>293</ele>
        <time>2020-05-31T08:50:16Z</time>
      </trkpt>
      <trkpt lat="43.34899" lon="2.61936">
        <ele>294</ele>
        <time>2020-05-31T08:50:17Z</time>
      </trkpt>
      <trkpt lat="43.34884" lon="2.61929">
        <ele>294</ele>
        <time>2020-05-31T08:50:19Z</time>
      </trkpt>
      <trkpt lat="43.34868" lon="2.61916">
        <ele>292</ele>
        <time>2020-05-31T08:50:21Z</time>
      </trkpt>
      <trkpt lat="43.3485" lon="2.61905">
        <ele>291</ele>
        <time>2020-05-31T08:50:23Z</time>
      </trkpt>
      <trkpt lat="43.34833" lon="2.61892">
        <ele>288</ele>
        <time>2020-05-31T08:50:25Z</time>
      </trkpt>
      <trkpt lat="43.34807" lon="2.6187">
        <ele>286</ele>
        <time>2020-05-31T08:50:28Z</time>
      </trkpt>
      <trkpt lat="43.34799" lon="2.61862">
        <ele>286</ele>
        <time>2020-05-31T08:50:29Z</time>
      </trkpt>
      <trkpt lat="43.34762" lon="2.61836">
        <ele>285</ele>
        <time>2020-05-31T08:50:33Z</time>
      </trkpt>
      <trkpt lat="43.34752" lon="2.61832">
        <ele>285</ele>
        <time>2020-05-31T08:50:34Z</time>
      </trkpt>
      <trkpt lat="43.34741" lon="2.61829">
        <ele>285</ele>
        <time>2020-05-31T08:50:35Z</time>
      </trkpt>
      <trkpt lat="43.3472" lon="2.61825">
        <ele>285</ele>
        <time>2020-05-31T08:50:37Z</time>
      </trkpt>
      <trkpt lat="43.34699" lon="2.61818">
        <ele>284</ele>
        <time>2020-05-31T08:50:39Z</time>
      </trkpt>
      <trkpt lat="43.34689" lon="2.61812">
        <ele>284</ele>
        <time>2020-05-31T08:50:40Z</time>
      </trkpt>
      <trkpt lat="43.34671" lon="2.61795">
        <ele>283</ele>
        <time>2020-05-31T08:50:42Z</time>
      </trkpt>
      <trkpt lat="43.34659" lon="2.61771">
        <ele>282</ele>
        <time>2020-05-31T08:50:44Z</time>
      </trkpt>
      <trkpt lat="43.34655" lon="2.61756">
        <ele>282</ele>
        <time>2020-05-31T08:50:45Z</time>
      </trkpt>
      <trkpt lat="43.34654" lon="2.6174">
        <ele>282</ele>
        <time>2020-05-31T08:50:46Z</time>
      </trkpt>
      <trkpt lat="43.34656" lon="2.61725">
        <ele>282</ele>
        <time>2020-05-31T08:50:47Z</time>
      </trkpt>
      <trkpt lat="43.34659" lon="2.61709">
        <ele>281</ele>
        <time>2020-05-31T08:50:48Z</time>
      </trkpt>
      <trkpt lat="43.34663" lon="2.61695">
        <ele>280</ele>
        <time>2020-05-31T08:50:49Z</time>
      </trkpt>
      <trkpt lat="43.34669" lon="2.61681">
        <ele>279</ele>
        <time>2020-05-31T08:50:50Z</time>
      </trkpt>
      <trkpt lat="43.34673" lon="2.61666">
        <ele>278</ele>
        <time>2020-05-31T08:50:51Z</time>
      </trkpt>
      <trkpt lat="43.34675" lon="2.61651">
        <ele>278</ele>
        <time>2020-05-31T08:50:52Z</time>
      </trkpt>
      <trkpt lat="43.34674" lon="2.61635">
        <ele>278</ele>
        <time>2020-05-31T08:50:53Z</time>
      </trkpt>
      <trkpt lat="43.3467" lon="2.6162">
        <ele>277</ele>
        <time>2020-05-31T08:50:54Z</time>
      </trkpt>
      <trkpt lat="43.34664" lon="2.61606">
        <ele>277</ele>
        <time>2020-05-31T08:50:55Z</time>
      </trkpt>
      <trkpt lat="43.3465" lon="2.6158">
        <ele>277</ele>
        <time>2020-05-31T08:50:57Z</time>
      </trkpt>
      <trkpt lat="43.3464" lon="2.6155">
        <ele>275</ele>
        <time>2020-05-31T08:50:59Z</time>
      </trkpt>
      <trkpt lat="43.34632" lon="2.61537">
        <ele>274</ele>
        <time>2020-05-31T08:51:00Z</time>
      </trkpt>
      <trkpt lat="43.34622" lon="2.61527">
        <ele>273</ele>
        <time>2020-05-31T08:51:01Z</time>
      </trkpt>
      <trkpt lat="43.34611" lon="2.61519">
        <ele>272</ele>
        <time>2020-05-31T08:51:02Z</time>
      </trkpt>
      <trkpt lat="43.34599" lon="2.61513">
        <ele>271</ele>
        <time>2020-05-31T08:51:03Z</time>
      </trkpt>
      <trkpt lat="43.34563" lon="2.61498">
        <ele>268</ele>
        <time>2020-05-31T08:51:06Z</time>
      </trkpt>
      <trkpt lat="43.34552" lon="2.61492">
        <ele>268</ele>
        <time>2020-05-31T08:51:07Z</time>
      </trkpt>
      <trkpt lat="43.3453" lon="2.61477">
        <ele>266</ele>
        <time>2020-05-31T08:51:09Z</time>
      </trkpt>
      <trkpt lat="43.34519" lon="2.6147">
        <ele>264</ele>
        <time>2020-05-31T08:51:10Z</time>
      </trkpt>
      <trkpt lat="43.34507" lon="2.61467">
        <ele>264</ele>
        <time>2020-05-31T08:51:11Z</time>
      </trkpt>
      <trkpt lat="43.34495" lon="2.61468">
        <ele>263</ele>
        <time>2020-05-31T08:51:12Z</time>
      </trkpt>
      <trkpt lat="43.34473" lon="2.61481">
        <ele>263</ele>
        <time>2020-05-31T08:51:14Z</time>
      </trkpt>
      <trkpt lat="43.34453" lon="2.61501">
        <ele>264</ele>
        <time>2020-05-31T08:51:16Z</time>
      </trkpt>
      <trkpt lat="43.34434" lon="2.61524">
        <ele>264</ele>
        <time>2020-05-31T08:51:18Z</time>
      </trkpt>
      <trkpt lat="43.34417" lon="2.6155">
        <ele>262</ele>
        <time>2020-05-31T08:51:20Z</time>
      </trkpt>
      <trkpt lat="43.3441" lon="2.61564">
        <ele>262</ele>
        <time>2020-05-31T08:51:21Z</time>
      </trkpt>
      <trkpt lat="43.34404" lon="2.6158">
        <ele>262</ele>
        <time>2020-05-31T08:51:22Z</time>
      </trkpt>
      <trkpt lat="43.34398" lon="2.61596">
        <ele>261</ele>
        <time>2020-05-31T08:51:23Z</time>
      </trkpt>
      <trkpt lat="43.34393" lon="2.61613">
        <ele>261</ele>
        <time>2020-05-31T08:51:24Z</time>
      </trkpt>
      <trkpt lat="43.34387" lon="2.61628">
        <ele>261</ele>
        <time>2020-05-31T08:51:25Z</time>
      </trkpt>
      <trkpt lat="43.34371" lon="2.61656">
        <ele>261</ele>
        <time>2020-05-31T08:51:27Z</time>
      </trkpt>
      <trkpt lat="43.34361" lon="2.61667">
        <ele>261</ele>
        <time>2020-05-31T08:51:28Z</time>
      </trkpt>
      <trkpt lat="43.3435" lon="2.61677">
        <ele>261</ele>
        <time>2020-05-31T08:51:29Z</time>
      </trkpt>
      <trkpt lat="43.34339" lon="2.61686">
        <ele>260</ele>
        <time>2020-05-31T08:51:30Z</time>
      </trkpt>
      <trkpt lat="43.34329" lon="2.61696">
        <ele>260</ele>
        <time>2020-05-31T08:51:31Z</time>
      </trkpt>
      <trkpt lat="43.34319" lon="2.61707">
        <ele>260</ele>
        <time>2020-05-31T08:51:32Z</time>
      </trkpt>
      <trkpt lat="43.34301" lon="2.61733">
        <ele>260</ele>
        <time>2020-05-31T08:51:34Z</time>
      </trkpt>
      <trkpt lat="43.34278" lon="2.61777">
        <ele>259</ele>
        <time>2020-05-31T08:51:37Z</time>
      </trkpt>
      <trkpt lat="43.34269" lon="2.6179">
        <ele>259</ele>
        <time>2020-05-31T08:51:38Z</time>
      </trkpt>
      <trkpt lat="43.34228" lon="2.6183">
        <ele>255</ele>
        <time>2020-05-31T08:51:42Z</time>
      </trkpt>
      <trkpt lat="43.34217" lon="2.61839">
        <ele>255</ele>
        <time>2020-05-31T08:51:43Z</time>
      </trkpt>
      <trkpt lat="43.34198" lon="2.61861">
        <ele>254</ele>
        <time>2020-05-31T08:51:45Z</time>
      </trkpt>
      <trkpt lat="43.3419" lon="2.61874">
        <ele>253</ele>
        <time>2020-05-31T08:51:46Z</time>
      </trkpt>
      <trkpt lat="43.34173" lon="2.61898">
        <ele>251</ele>
        <time>2020-05-31T08:51:48Z</time>
      </trkpt>
      <trkpt lat="43.34147" lon="2.61934">
        <ele>248</ele>
        <time>2020-05-31T08:51:51Z</time>
      </trkpt>
      <trkpt lat="43.3413" lon="2.61959">
        <ele>246</ele>
        <time>2020-05-31T08:51:53Z</time>
      </trkpt>
      <trkpt lat="43.34113" lon="2.61984">
        <ele>244</ele>
        <time>2020-05-31T08:51:55Z</time>
      </trkpt>
      <trkpt lat="43.34104" lon="2.61997">
        <ele>243</ele>
        <time>2020-05-31T08:51:56Z</time>
      </trkpt>
      <trkpt lat="43.34086" lon="2.62021">
        <ele>242</ele>
        <time>2020-05-31T08:51:58Z</time>
      </trkpt>
      <trkpt lat="43.34077" lon="2.62033">
        <ele>241</ele>
        <time>2020-05-31T08:51:59Z</time>
      </trkpt>
      <trkpt lat="43.3406" lon="2.62057">
        <ele>238</ele>
        <time>2020-05-31T08:52:01Z</time>
      </trkpt>
      <trkpt lat="43.34044" lon="2.62081">
        <ele>236</ele>
        <time>2020-05-31T08:52:03Z</time>
      </trkpt>
      <trkpt lat="43.34036" lon="2.62092">
        <ele>236</ele>
        <time>2020-05-31T08:52:04Z</time>
      </trkpt>
      <trkpt lat="43.34028" lon="2.62104">
        <ele>235</ele>
        <time>2020-05-31T08:52:05Z</time>
      </trkpt>
      <trkpt lat="43.34021" lon="2.62114">
        <ele>235</ele>
        <time>2020-05-31T08:52:06Z</time>
      </trkpt>
      <trkpt lat="43.34014" lon="2.62125">
        <ele>234</ele>
        <time>2020-05-31T08:52:07Z</time>
      </trkpt>
      <trkpt lat="43.33997" lon="2.62144">
        <ele>232</ele>
        <time>2020-05-31T08:52:09Z</time>
      </trkpt>
      <trkpt lat="43.33987" lon="2.6215">
        <ele>231</ele>
        <time>2020-05-31T08:52:10Z</time>
      </trkpt>
      <trkpt lat="43.33976" lon="2.62153">
        <ele>230</ele>
        <time>2020-05-31T08:52:11Z</time>
      </trkpt>
      <trkpt lat="43.33955" lon="2.62151">
        <ele>230</ele>
        <time>2020-05-31T08:52:13Z</time>
      </trkpt>
      <trkpt lat="43.33938" lon="2.62142">
        <ele>230</ele>
        <time>2020-05-31T08:52:15Z</time>
      </trkpt>
      <trkpt lat="43.33932" lon="2.62135">
        <ele>231</ele>
        <time>2020-05-31T08:52:16Z</time>
      </trkpt>
      <trkpt lat="43.33928" lon="2.62127">
        <ele>231</ele>
        <time>2020-05-31T08:52:17Z</time>
      </trkpt>
      <trkpt lat="43.33926" lon="2.62117">
        <ele>231</ele>
        <time>2020-05-31T08:52:18Z</time>
      </trkpt>
      <trkpt lat="43.33925" lon="2.62107">
        <ele>231</ele>
        <time>2020-05-31T08:52:19Z</time>
      </trkpt>
      <trkpt lat="43.33925" lon="2.62098">
        <ele>231</ele>
        <time>2020-05-31T08:52:20Z</time>
      </trkpt>
      <trkpt lat="43.33925" lon="2.62088">
        <ele>231</ele>
        <time>2020-05-31T08:52:21Z</time>
      </trkpt>
      <trkpt lat="43.33924" lon="2.6205">
        <ele>230</ele>
        <time>2020-05-31T08:52:25Z</time>
      </trkpt>
      <trkpt lat="43.33923" lon="2.62014">
        <ele>230</ele>
        <time>2020-05-31T08:52:29Z</time>
      </trkpt>
      <trkpt lat="43.33923" lon="2.62004">
        <ele>230</ele>
        <time>2020-05-31T08:52:30Z</time>
      </trkpt>
      <trkpt lat="43.33923" lon="2.61995">
        <ele>230</ele>
        <time>2020-05-31T08:52:31Z</time>
      </trkpt>
      <trkpt lat="43.33923" lon="2.61986">
        <ele>230</ele>
        <time>2020-05-31T08:52:32Z</time>
      </trkpt>
      <trkpt lat="43.33922" lon="2.61949">
        <ele>231</ele>
        <time>2020-05-31T08:52:36Z</time>
      </trkpt>
      <trkpt lat="43.33922" lon="2.6194">
        <ele>231</ele>
        <time>2020-05-31T08:52:37Z</time>
      </trkpt>
      <trkpt lat="43.33921" lon="2.61912">
        <ele>231</ele>
        <time>2020-05-31T08:52:40Z</time>
      </trkpt>
      <trkpt lat="43.33919" lon="2.61834">
        <ele>231</ele>
        <time>2020-05-31T08:52:48Z</time>
      </trkpt>
      <trkpt lat="43.33919" lon="2.61824">
        <ele>231</ele>
        <time>2020-05-31T08:52:49Z</time>
      </trkpt>
      <trkpt lat="43.33918" lon="2.61814">
        <ele>231</ele>
        <time>2020-05-31T08:52:50Z</time>
      </trkpt>
      <trkpt lat="43.33914" lon="2.61785">
        <ele>230</ele>
        <time>2020-05-31T08:52:53Z</time>
      </trkpt>
      <trkpt lat="43.33911" lon="2.61776">
        <ele>230</ele>
        <time>2020-05-31T08:52:54Z</time>
      </trkpt>
      <trkpt lat="43.33907" lon="2.61768">
        <ele>230</ele>
        <time>2020-05-31T08:52:55Z</time>
      </trkpt>
      <trkpt lat="43.33892" lon="2.61746">
        <ele>229</ele>
        <time>2020-05-31T08:52:58Z</time>
      </trkpt>
      <trkpt lat="43.33886" lon="2.61739">
        <ele>229</ele>
        <time>2020-05-31T08:52:59Z</time>
      </trkpt>
      <trkpt lat="43.33881" lon="2.61732">
        <ele>228</ele>
        <time>2020-05-31T08:53:00Z</time>
      </trkpt>
      <trkpt lat="43.33856" lon="2.61702">
        <ele>225</ele>
        <time>2020-05-31T08:53:04Z</time>
      </trkpt>
      <trkpt lat="43.3385" lon="2.61694">
        <ele>225</ele>
        <time>2020-05-31T08:53:05Z</time>
      </trkpt>
      <trkpt lat="43.33837" lon="2.61678">
        <ele>225</ele>
        <time>2020-05-31T08:53:07Z</time>
      </trkpt>
      <trkpt lat="43.33811" lon="2.61645">
        <ele>225</ele>
        <time>2020-05-31T08:53:11Z</time>
      </trkpt>
      <trkpt lat="43.33797" lon="2.61628">
        <ele>224</ele>
        <time>2020-05-31T08:53:13Z</time>
      </trkpt>
      <trkpt lat="43.33784" lon="2.61612">
        <ele>224</ele>
        <time>2020-05-31T08:53:15Z</time>
      </trkpt>
      <trkpt lat="43.33778" lon="2.61602">
        <ele>224</ele>
        <time>2020-05-31T08:53:16Z</time>
      </trkpt>
      <trkpt lat="43.33775" lon="2.6159">
        <ele>225</ele>
        <time>2020-05-31T08:53:17Z</time>
      </trkpt>
      <trkpt lat="43.33774" lon="2.61577">
        <ele>225</ele>
        <time>2020-05-31T08:53:18Z</time>
      </trkpt>
      <trkpt lat="43.33777" lon="2.61565">
        <ele>224</ele>
        <time>2020-05-31T08:53:19Z</time>
      </trkpt>
      <trkpt lat="43.33781" lon="2.61554">
        <ele>224</ele>
        <time>2020-05-31T08:53:20Z</time>
      </trkpt>
      <trkpt lat="43.33785" lon="2.61544">
        <ele>223</ele>
        <time>2020-05-31T08:53:21Z</time>
      </trkpt>
      <trkpt lat="43.3379" lon="2.61533">
        <ele>223</ele>
        <time>2020-05-31T08:53:22Z</time>
      </trkpt>
      <trkpt lat="43.33795" lon="2.61522">
        <ele>222</ele>
        <time>2020-05-31T08:53:23Z</time>
      </trkpt>
      <trkpt lat="43.3381" lon="2.61488">
        <ele>218</ele>
        <time>2020-05-31T08:53:26Z</time>
      </trkpt>
      <trkpt lat="43.33819" lon="2.61464">
        <ele>216</ele>
        <time>2020-05-31T08:53:28Z</time>
      </trkpt>
      <trkpt lat="43.33827" lon="2.6144">
        <ele>213</ele>
        <time>2020-05-31T08:53:30Z</time>
      </trkpt>
      <trkpt lat="43.3383" lon="2.61427">
        <ele>212</ele>
        <time>2020-05-31T08:53:31Z</time>
      </trkpt>
      <trkpt lat="43.33832" lon="2.61414">
        <ele>211</ele>
        <time>2020-05-31T08:53:32Z</time>
      </trkpt>
      <trkpt lat="43.33834" lon="2.61387">
        <ele>212</ele>
        <time>2020-05-31T08:53:34Z</time>
      </trkpt>
      <trkpt lat="43.33837" lon="2.61359">
        <ele>214</ele>
        <time>2020-05-31T08:53:36Z</time>
      </trkpt>
      <trkpt lat="43.33843" lon="2.61333">
        <ele>214</ele>
        <time>2020-05-31T08:53:38Z</time>
      </trkpt>
      <trkpt lat="43.33847" lon="2.61321">
        <ele>213</ele>
        <time>2020-05-31T08:53:39Z</time>
      </trkpt>
      <trkpt lat="43.33851" lon="2.61308">
        <ele>211</ele>
        <time>2020-05-31T08:53:40Z</time>
      </trkpt>
      <trkpt lat="43.33865" lon="2.61271">
        <ele>210</ele>
        <time>2020-05-31T08:53:43Z</time>
      </trkpt>
      <trkpt lat="43.33877" lon="2.61232">
        <ele>211</ele>
        <time>2020-05-31T08:53:46Z</time>
      </trkpt>
      <trkpt lat="43.33881" lon="2.61218">
        <ele>211</ele>
        <time>2020-05-31T08:53:47Z</time>
      </trkpt>
      <trkpt lat="43.33892" lon="2.61177">
        <ele>210</ele>
        <time>2020-05-31T08:53:50Z</time>
      </trkpt>
      <trkpt lat="43.33901" lon="2.61134">
        <ele>206</ele>
        <time>2020-05-31T08:53:53Z</time>
      </trkpt>
      <trkpt lat="43.33903" lon="2.6112">
        <ele>205</ele>
        <time>2020-05-31T08:53:54Z</time>
      </trkpt>
      <trkpt lat="43.33908" lon="2.6109">
        <ele>204</ele>
        <time>2020-05-31T08:53:56Z</time>
      </trkpt>
      <trkpt lat="43.33912" lon="2.6106">
        <ele>203</ele>
        <time>2020-05-31T08:53:58Z</time>
      </trkpt>
      <trkpt lat="43.33915" lon="2.61029">
        <ele>202</ele>
        <time>2020-05-31T08:54:00Z</time>
      </trkpt>
      <trkpt lat="43.33916" lon="2.61013">
        <ele>201</ele>
        <time>2020-05-31T08:54:01Z</time>
      </trkpt>
      <trkpt lat="43.33916" lon="2.60997">
        <ele>201</ele>
        <time>2020-05-31T08:54:02Z</time>
      </trkpt>
      <trkpt lat="43.33914" lon="2.60965">
        <ele>200</ele>
        <time>2020-05-31T08:54:04Z</time>
      </trkpt>
      <trkpt lat="43.33913" lon="2.60949">
        <ele>199</ele>
        <time>2020-05-31T08:54:05Z</time>
      </trkpt>
      <trkpt lat="43.33913" lon="2.60932">
        <ele>198</ele>
        <time>2020-05-31T08:54:06Z</time>
      </trkpt>
      <trkpt lat="43.33911" lon="2.60899">
        <ele>197</ele>
        <time>2020-05-31T08:54:08Z</time>
      </trkpt>
      <trkpt lat="43.3391" lon="2.60883">
        <ele>197</ele>
        <time>2020-05-31T08:54:09Z</time>
      </trkpt>
      <trkpt lat="43.33909" lon="2.60849">
        <ele>197</ele>
        <time>2020-05-31T08:54:11Z</time>
      </trkpt>
      <trkpt lat="43.33908" lon="2.60833">
        <ele>197</ele>
        <time>2020-05-31T08:54:12Z</time>
      </trkpt>
      <trkpt lat="43.33905" lon="2.60818">
        <ele>197</ele>
        <time>2020-05-31T08:54:13Z</time>
      </trkpt>
      <trkpt lat="43.33899" lon="2.60804">
        <ele>196</ele>
        <time>2020-05-31T08:54:14Z</time>
      </trkpt>
      <trkpt lat="43.33891" lon="2.60793">
        <ele>195</ele>
        <time>2020-05-31T08:54:15Z</time>
      </trkpt>
      <trkpt lat="43.33881" lon="2.60784">
        <ele>194</ele>
        <time>2020-05-31T08:54:16Z</time>
      </trkpt>
      <trkpt lat="43.3386" lon="2.6077">
        <ele>192</ele>
        <time>2020-05-31T08:54:18Z</time>
      </trkpt>
      <trkpt lat="43.33829" lon="2.60749">
        <ele>192</ele>
        <time>2020-05-31T08:54:21Z</time>
      </trkpt>
      <trkpt lat="43.33808" lon="2.60735">
        <ele>192</ele>
        <time>2020-05-31T08:54:23Z</time>
      </trkpt>
      <trkpt lat="43.33776" lon="2.60714">
        <ele>191</ele>
        <time>2020-05-31T08:54:26Z</time>
      </trkpt>
      <trkpt lat="43.33766" lon="2.60707">
        <ele>191</ele>
        <time>2020-05-31T08:54:27Z</time>
      </trkpt>
      <trkpt lat="43.33756" lon="2.60699">
        <ele>190</ele>
        <time>2020-05-31T08:54:28Z</time>
      </trkpt>
      <trkpt lat="43.33735" lon="2.60685">
        <ele>188</ele>
        <time>2020-05-31T08:54:30Z</time>
      </trkpt>
      <trkpt lat="43.33683" lon="2.60648">
        <ele>182</ele>
        <time>2020-05-31T08:54:35Z</time>
      </trkpt>
      <trkpt lat="43.33673" lon="2.60641">
        <ele>181</ele>
        <time>2020-05-31T08:54:36Z</time>
      </trkpt>
      <trkpt lat="43.33642" lon="2.60618">
        <ele>182</ele>
        <time>2020-05-31T08:54:39Z</time>
      </trkpt>
      <trkpt lat="43.33632" lon="2.6061">
        <ele>182</ele>
        <time>2020-05-31T08:54:40Z</time>
      </trkpt>
      <trkpt lat="43.33599" lon="2.60592">
        <ele>180</ele>
        <time>2020-05-31T08:54:43Z</time>
      </trkpt>
      <trkpt lat="43.33576" lon="2.60586">
        <ele>180</ele>
        <time>2020-05-31T08:54:45Z</time>
      </trkpt>
      <trkpt lat="43.33542" lon="2.60577">
        <ele>177</ele>
        <time>2020-05-31T08:54:48Z</time>
      </trkpt>
      <trkpt lat="43.3352" lon="2.60572">
        <ele>175</ele>
        <time>2020-05-31T08:54:50Z</time>
      </trkpt>
      <trkpt lat="43.33464" lon="2.60558">
        <ele>173</ele>
        <time>2020-05-31T08:54:55Z</time>
      </trkpt>
      <trkpt lat="43.33454" lon="2.60556">
        <ele>173</ele>
        <time>2020-05-31T08:54:56Z</time>
      </trkpt>
      <trkpt lat="43.33443" lon="2.60554">
        <ele>172</ele>
        <time>2020-05-31T08:54:57Z</time>
      </trkpt>
      <trkpt lat="43.33411" lon="2.60552">
        <ele>173</ele>
        <time>2020-05-31T08:55:00Z</time>
      </trkpt>
      <trkpt lat="43.33369" lon="2.60549">
        <ele>173</ele>
        <time>2020-05-31T08:55:04Z</time>
      </trkpt>
      <trkpt lat="43.33349" lon="2.60548">
        <ele>173</ele>
        <time>2020-05-31T08:55:06Z</time>
      </trkpt>
      <trkpt lat="43.33309" lon="2.60539">
        <ele>172</ele>
        <time>2020-05-31T08:55:10Z</time>
      </trkpt>
      <trkpt lat="43.3328" lon="2.60529">
        <ele>170</ele>
        <time>2020-05-31T08:55:13Z</time>
      </trkpt>
      <trkpt lat="43.33261" lon="2.60521">
        <ele>168</ele>
        <time>2020-05-31T08:55:15Z</time>
      </trkpt>
      <trkpt lat="43.33241" lon="2.60515">
        <ele>167</ele>
        <time>2020-05-31T08:55:17Z</time>
      </trkpt>
      <trkpt lat="43.33196" lon="2.60499">
        <ele>168</ele>
        <time>2020-05-31T08:55:22Z</time>
      </trkpt>
      <trkpt lat="43.33187" lon="2.60494">
        <ele>168</ele>
        <time>2020-05-31T08:55:23Z</time>
      </trkpt>
      <trkpt lat="43.33179" lon="2.60487">
        <ele>168</ele>
        <time>2020-05-31T08:55:24Z</time>
      </trkpt>
      <trkpt lat="43.33167" lon="2.60468">
        <ele>166</ele>
        <time>2020-05-31T08:55:26Z</time>
      </trkpt>
      <trkpt lat="43.33162" lon="2.60458">
        <ele>166</ele>
        <time>2020-05-31T08:55:27Z</time>
      </trkpt>
      <trkpt lat="43.33151" lon="2.60437">
        <ele>165</ele>
        <time>2020-05-31T08:55:29Z</time>
      </trkpt>
      <trkpt lat="43.33139" lon="2.60417">
        <ele>165</ele>
        <time>2020-05-31T08:55:31Z</time>
      </trkpt>
      <trkpt lat="43.33132" lon="2.60408">
        <ele>165</ele>
        <time>2020-05-31T08:55:32Z</time>
      </trkpt>
      <trkpt lat="43.33117" lon="2.60391">
        <ele>165</ele>
        <time>2020-05-31T08:55:34Z</time>
      </trkpt>
      <trkpt lat="43.33092" lon="2.60368">
        <ele>165</ele>
        <time>2020-05-31T08:55:37Z</time>
      </trkpt>
      <trkpt lat="43.33069" lon="2.60346">
        <ele>165</ele>
        <time>2020-05-31T08:55:40Z</time>
      </trkpt>
      <trkpt lat="43.33063" lon="2.60338">
        <ele>165</ele>
        <time>2020-05-31T08:55:41Z</time>
      </trkpt>
      <trkpt lat="43.33057" lon="2.6033">
        <ele>165</ele>
        <time>2020-05-31T08:55:42Z</time>
      </trkpt>
      <trkpt lat="43.33054" lon="2.6032">
        <ele>164</ele>
        <time>2020-05-31T08:55:43Z</time>
      </trkpt>
      <trkpt lat="43.33053" lon="2.603">
        <ele>162</ele>
        <time>2020-05-31T08:55:45Z</time>
      </trkpt>
      <trkpt lat="43.33056" lon="2.60281">
        <ele>160</ele>
        <time>2020-05-31T08:55:47Z</time>
      </trkpt>
      <trkpt lat="43.33061" lon="2.60264">
        <ele>159</ele>
        <time>2020-05-31T08:55:49Z</time>
      </trkpt>
      <trkpt lat="43.33069" lon="2.60239">
        <ele>159</ele>
        <time>2020-05-31T08:55:53Z</time>
      </trkpt>
      <trkpt lat="43.33078" lon="2.60209">
        <ele>160</ele>
        <time>2020-05-31T08:55:59Z</time>
      </trkpt>
      <trkpt lat="43.3308" lon="2.60198">
        <ele>161</ele>
        <time>2020-05-31T08:56:01Z</time>
      </trkpt>
      <trkpt lat="43.33077" lon="2.60172">
        <ele>162</ele>
        <time>2020-05-31T08:56:06Z</time>
      </trkpt>
      <trkpt lat="43.33068" lon="2.6015">
        <ele>162</ele>
        <time>2020-05-31T08:56:11Z</time>
      </trkpt>
      <trkpt lat="43.33062" lon="2.60139">
        <ele>162</ele>
        <time>2020-05-31T08:56:14Z</time>
      </trkpt>
      <trkpt lat="43.33059" lon="2.60135">
        <ele>162</ele>
        <time>2020-05-31T08:56:15Z</time>
      </trkpt>
      <trkpt lat="43.33049" lon="2.60112">
        <ele>161</ele>
        <time>2020-05-31T08:56:20Z</time>
      </trkpt>
      <trkpt lat="43.33047" lon="2.60107">
        <ele>161</ele>
        <time>2020-05-31T08:56:21Z</time>
      </trkpt>
      <trkpt lat="43.33038" lon="2.60091">
        <ele>160</ele>
        <time>2020-05-31T08:56:24Z</time>
      </trkpt>
      <trkpt lat="43.33033" lon="2.60079">
        <ele>160</ele>
        <time>2020-05-31T08:56:26Z</time>
      </trkpt>
      <trkpt lat="43.33025" lon="2.60063">
        <ele>160</ele>
        <time>2020-05-31T08:56:29Z</time>
      </trkpt>
      <trkpt lat="43.33017" lon="2.60048">
        <ele>160</ele>
        <time>2020-05-31T08:56:32Z</time>
      </trkpt>
      <trkpt lat="43.33014" lon="2.60044">
        <ele>160</ele>
        <time>2020-05-31T08:56:33Z</time>
      </trkpt>
      <trkpt lat="43.33008" lon="2.60036">
        <ele>160</ele>
        <time>2020-05-31T08:56:35Z</time>
      </trkpt>
      <trkpt lat="43.33004" lon="2.60034">
        <ele>160</ele>
        <time>2020-05-31T08:56:36Z</time>
      </trkpt>
      <trkpt lat="43.33" lon="2.60032">
        <ele>160</ele>
        <time>2020-05-31T08:56:37Z</time>
      </trkpt>
      <trkpt lat="43.32989" lon="2.6003">
        <ele>160</ele>
        <time>2020-05-31T08:56:39Z</time>
      </trkpt>
      <trkpt lat="43.32983" lon="2.60029">
        <ele>160</ele>
        <time>2020-05-31T08:56:40Z</time>
      </trkpt>
      <trkpt lat="43.32968" lon="2.60026">
        <ele>161</ele>
        <time>2020-05-31T08:56:43Z</time>
      </trkpt>
      <trkpt lat="43.32964" lon="2.60025">
        <ele>161</ele>
        <time>2020-05-31T08:56:44Z</time>
      </trkpt>
      <trkpt lat="43.32959" lon="2.60025">
        <ele>161</ele>
        <time>2020-05-31T08:56:45Z</time>
      </trkpt>
      <trkpt lat="43.32953" lon="2.60024">
        <ele>161</ele>
        <time>2020-05-31T08:56:46Z</time>
      </trkpt>
      <trkpt lat="43.32937" lon="2.60025">
        <ele>161</ele>
        <time>2020-05-31T08:56:49Z</time>
      </trkpt>
      <trkpt lat="43.32916" lon="2.60021">
        <ele>161</ele>
        <time>2020-05-31T08:56:53Z</time>
      </trkpt>
      <trkpt lat="43.32911" lon="2.6002">
        <ele>161</ele>
        <time>2020-05-31T08:56:54Z</time>
      </trkpt>
      <trkpt lat="43.32888" lon="2.60017">
        <ele>161</ele>
        <time>2020-05-31T08:56:58Z</time>
      </trkpt>
      <trkpt lat="43.32877" lon="2.60018">
        <ele>161</ele>
        <time>2020-05-31T08:57:00Z</time>
      </trkpt>
      <trkpt lat="43.32867" lon="2.60016">
        <ele>161</ele>
        <time>2020-05-31T08:57:02Z</time>
      </trkpt>
      <trkpt lat="43.32861" lon="2.60011">
        <ele>161</ele>
        <time>2020-05-31T08:57:04Z</time>
      </trkpt>
      <trkpt lat="43.32858" lon="2.60006">
        <ele>161</ele>
        <time>2020-05-31T08:57:06Z</time>
      </trkpt>
      <trkpt lat="43.32858" lon="2.60001">
        <ele>161</ele>
        <time>2020-05-31T08:57:09Z</time>
      </trkpt>
      <trkpt lat="43.32858" lon="2.60001">
        <ele>161</ele>
        <time>2020-05-31T08:57:10Z</time>
      </trkpt>
      <trkpt lat="43.32859" lon="2.59988">
        <ele>162</ele>
        <time>2020-05-31T08:58:30Z</time>
      </trkpt>
      <trkpt lat="43.32859" lon="2.59986">
        <ele>162</ele>
        <time>2020-05-31T08:58:31Z</time>
      </trkpt>
      <trkpt lat="43.32859" lon="2.59984">
        <ele>162</ele>
        <time>2020-05-31T08:58:32Z</time>
      </trkpt>
      <trkpt lat="43.3286" lon="2.59982">
        <ele>162</ele>
        <time>2020-05-31T08:58:33Z</time>
      </trkpt>
      <trkpt lat="43.3286" lon="2.59973">
        <ele>162</ele>
        <time>2020-05-31T08:58:36Z</time>
      </trkpt>
      <trkpt lat="43.32861" lon="2.59966">
        <ele>162</ele>
        <time>2020-05-31T08:58:38Z</time>
      </trkpt>
      <trkpt lat="43.32866" lon="2.59939">
        <ele>163</ele>
        <time>2020-05-31T08:58:45Z</time>
      </trkpt>
      <trkpt lat="43.32867" lon="2.59935">
        <ele>163</ele>
        <time>2020-05-31T08:58:46Z</time>
      </trkpt>
      <trkpt lat="43.32873" lon="2.59913">
        <ele>163</ele>
        <time>2020-05-31T08:58:51Z</time>
      </trkpt>
      <trkpt lat="43.32874" lon="2.59909">
        <ele>163</ele>
        <time>2020-05-31T08:58:52Z</time>
      </trkpt>
      <trkpt lat="43.32875" lon="2.59905">
        <ele>164</ele>
        <time>2020-05-31T08:58:53Z</time>
      </trkpt>
      <trkpt lat="43.32882" lon="2.59881">
        <ele>164</ele>
        <time>2020-05-31T08:58:59Z</time>
      </trkpt>
      <trkpt lat="43.3289" lon="2.59855">
        <ele>164</ele>
        <time>2020-05-31T08:59:06Z</time>
      </trkpt>
      <trkpt lat="43.32897" lon="2.59816">
        <ele>164</ele>
        <time>2020-05-31T08:59:15Z</time>
      </trkpt>
      <trkpt lat="43.32903" lon="2.59761">
        <ele>164</ele>
        <time>2020-05-31T08:59:26Z</time>
      </trkpt>
      <trkpt lat="43.32907" lon="2.59714">
        <ele>165</ele>
        <time>2020-05-31T08:59:35Z</time>
      </trkpt>
      <trkpt lat="43.32905" lon="2.59704">
        <ele>165</ele>
        <time>2020-05-31T08:59:37Z</time>
      </trkpt>
      <trkpt lat="43.32903" lon="2.597">
        <ele>165</ele>
        <time>2020-05-31T08:59:38Z</time>
      </trkpt>
      <trkpt lat="43.32901" lon="2.59695">
        <ele>165</ele>
        <time>2020-05-31T08:59:39Z</time>
      </trkpt>
      <trkpt lat="43.32898" lon="2.59691">
        <ele>166</ele>
        <time>2020-05-31T08:59:40Z</time>
      </trkpt>
      <trkpt lat="43.32891" lon="2.59684">
        <ele>166</ele>
        <time>2020-05-31T08:59:42Z</time>
      </trkpt>
      <trkpt lat="43.32884" lon="2.59678">
        <ele>165</ele>
        <time>2020-05-31T08:59:44Z</time>
      </trkpt>
      <trkpt lat="43.32858" lon="2.59669">
        <ele>165</ele>
        <time>2020-05-31T08:59:50Z</time>
      </trkpt>
      <trkpt lat="43.3282" lon="2.5966">
        <ele>164</ele>
        <time>2020-05-31T08:59:58Z</time>
      </trkpt>
      <trkpt lat="43.32786" lon="2.59653">
        <ele>164</ele>
        <time>2020-05-31T09:00:05Z</time>
      </trkpt>
      <trkpt lat="43.32739" lon="2.59645">
        <ele>165</ele>
        <time>2020-05-31T09:00:14Z</time>
      </trkpt>
      <trkpt lat="43.32714" lon="2.59642">
        <ele>167</ele>
        <time>2020-05-31T09:00:19Z</time>
      </trkpt>
      <trkpt lat="43.32699" lon="2.59641">
        <ele>170</ele>
        <time>2020-05-31T09:00:22Z</time>
      </trkpt>
      <trkpt lat="43.32679" lon="2.5964">
        <ele>170</ele>
        <time>2020-05-31T09:00:26Z</time>
      </trkpt>
      <trkpt lat="43.32661" lon="2.59636">
        <ele>170</ele>
        <time>2020-05-31T09:00:30Z</time>
      </trkpt>
      <trkpt lat="43.32657" lon="2.59634">
        <ele>170</ele>
        <time>2020-05-31T09:00:31Z</time>
      </trkpt>
      <trkpt lat="43.32636" lon="2.59621">
        <ele>170</ele>
        <time>2020-05-31T09:00:36Z</time>
      </trkpt>
      <trkpt lat="43.32607" lon="2.59595">
        <ele>170</ele>
        <time>2020-05-31T09:00:43Z</time>
      </trkpt>
      <trkpt lat="43.32603" lon="2.59591">
        <ele>170</ele>
        <time>2020-05-31T09:00:44Z</time>
      </trkpt>
      <trkpt lat="43.326" lon="2.59586">
        <ele>170</ele>
        <time>2020-05-31T09:00:45Z</time>
      </trkpt>
      <trkpt lat="43.32595" lon="2.59576">
        <ele>171</ele>
        <time>2020-05-31T09:00:47Z</time>
      </trkpt>
      <trkpt lat="43.32588" lon="2.5956">
        <ele>172</ele>
        <time>2020-05-31T09:00:50Z</time>
      </trkpt>
      <trkpt lat="43.32584" lon="2.59551">
        <ele>173</ele>
        <time>2020-05-31T09:00:52Z</time>
      </trkpt>
      <trkpt lat="43.32574" lon="2.5953">
        <ele>175</ele>
        <time>2020-05-31T09:00:57Z</time>
      </trkpt>
      <trkpt lat="43.32563" lon="2.59514">
        <ele>176</ele>
        <time>2020-05-31T09:01:02Z</time>
      </trkpt>
      <trkpt lat="43.32559" lon="2.59508">
        <ele>177</ele>
        <time>2020-05-31T09:01:04Z</time>
      </trkpt>
      <trkpt lat="43.32552" lon="2.59499">
        <ele>177</ele>
        <time>2020-05-31T09:01:07Z</time>
      </trkpt>
      <trkpt lat="43.32546" lon="2.5949">
        <ele>178</ele>
        <time>2020-05-31T09:01:10Z</time>
      </trkpt>
      <trkpt lat="43.32542" lon="2.59485">
        <ele>179</ele>
        <time>2020-05-31T09:01:12Z</time>
      </trkpt>
      <trkpt lat="43.32538" lon="2.59479">
        <ele>179</ele>
        <time>2020-05-31T09:01:14Z</time>
      </trkpt>
      <trkpt lat="43.32529" lon="2.59466">
        <ele>181</ele>
        <time>2020-05-31T09:01:18Z</time>
      </trkpt>
      <trkpt lat="43.32527" lon="2.59462">
        <ele>182</ele>
        <time>2020-05-31T09:01:19Z</time>
      </trkpt>
      <trkpt lat="43.32513" lon="2.59447">
        <ele>183</ele>
        <time>2020-05-31T09:01:24Z</time>
      </trkpt>
      <trkpt lat="43.32511" lon="2.59444">
        <ele>183</ele>
        <time>2020-05-31T09:01:25Z</time>
      </trkpt>
      <trkpt lat="43.32498" lon="2.59428">
        <ele>185</ele>
        <time>2020-05-31T09:01:30Z</time>
      </trkpt>
      <trkpt lat="43.3249" lon="2.59418">
        <ele>185</ele>
        <time>2020-05-31T09:01:33Z</time>
      </trkpt>
      <trkpt lat="43.32474" lon="2.59397">
        <ele>186</ele>
        <time>2020-05-31T09:01:39Z</time>
      </trkpt>
      <trkpt lat="43.32472" lon="2.59393">
        <ele>187</ele>
        <time>2020-05-31T09:01:40Z</time>
      </trkpt>
      <trkpt lat="43.32463" lon="2.59372">
        <ele>189</ele>
        <time>2020-05-31T09:01:45Z</time>
      </trkpt>
      <trkpt lat="43.32461" lon="2.59364">
        <ele>189</ele>
        <time>2020-05-31T09:01:47Z</time>
      </trkpt>
      <trkpt lat="43.32457" lon="2.59352">
        <ele>190</ele>
        <time>2020-05-31T09:01:50Z</time>
      </trkpt>
      <trkpt lat="43.32453" lon="2.59331">
        <ele>191</ele>
        <time>2020-05-31T09:01:55Z</time>
      </trkpt>
      <trkpt lat="43.32442" lon="2.59312">
        <ele>192</ele>
        <time>2020-05-31T09:02:01Z</time>
      </trkpt>
      <trkpt lat="43.3244" lon="2.59309">
        <ele>192</ele>
        <time>2020-05-31T09:02:02Z</time>
      </trkpt>
      <trkpt lat="43.32423" lon="2.59291">
        <ele>191</ele>
        <time>2020-05-31T09:02:09Z</time>
      </trkpt>
      <trkpt lat="43.3242" lon="2.59289">
        <ele>191</ele>
        <time>2020-05-31T09:02:10Z</time>
      </trkpt>
      <trkpt lat="43.32398" lon="2.59274">
        <ele>192</ele>
        <time>2020-05-31T09:02:18Z</time>
      </trkpt>
      <trkpt lat="43.32393" lon="2.5927">
        <ele>192</ele>
        <time>2020-05-31T09:02:20Z</time>
      </trkpt>
      <trkpt lat="43.32379" lon="2.59261">
        <ele>194</ele>
        <time>2020-05-31T09:02:25Z</time>
      </trkpt>
      <trkpt lat="43.32365" lon="2.59252">
        <ele>195</ele>
        <time>2020-05-31T09:02:30Z</time>
      </trkpt>
      <trkpt lat="43.32359" lon="2.59249">
        <ele>196</ele>
        <time>2020-05-31T09:02:32Z</time>
      </trkpt>
      <trkpt lat="43.32345" lon="2.59242">
        <ele>196</ele>
        <time>2020-05-31T09:02:37Z</time>
      </trkpt>
      <trkpt lat="43.32334" lon="2.59235">
        <ele>197</ele>
        <time>2020-05-31T09:02:41Z</time>
      </trkpt>
      <trkpt lat="43.32329" lon="2.59232">
        <ele>197</ele>
        <time>2020-05-31T09:02:43Z</time>
      </trkpt>
      <trkpt lat="43.32315" lon="2.59223">
        <ele>198</ele>
        <time>2020-05-31T09:02:48Z</time>
      </trkpt>
      <trkpt lat="43.32303" lon="2.59217">
        <ele>199</ele>
        <time>2020-05-31T09:02:52Z</time>
      </trkpt>
      <trkpt lat="43.32292" lon="2.59211">
        <ele>200</ele>
        <time>2020-05-31T09:02:56Z</time>
      </trkpt>
      <trkpt lat="43.32278" lon="2.59203">
        <ele>201</ele>
        <time>2020-05-31T09:03:01Z</time>
      </trkpt>
      <trkpt lat="43.32264" lon="2.59194">
        <ele>201</ele>
        <time>2020-05-31T09:03:06Z</time>
      </trkpt>
      <trkpt lat="43.32255" lon="2.59189">
        <ele>201</ele>
        <time>2020-05-31T09:03:09Z</time>
      </trkpt>
      <trkpt lat="43.32249" lon="2.59184">
        <ele>200</ele>
        <time>2020-05-31T09:03:11Z</time>
      </trkpt>
      <trkpt lat="43.32243" lon="2.59179">
        <ele>200</ele>
        <time>2020-05-31T09:03:13Z</time>
      </trkpt>
      <trkpt lat="43.32234" lon="2.59171">
        <ele>200</ele>
        <time>2020-05-31T09:03:16Z</time>
      </trkpt>
      <trkpt lat="43.3221" lon="2.59147">
        <ele>199</ele>
        <time>2020-05-31T09:03:23Z</time>
      </trkpt>
      <trkpt lat="43.32195" lon="2.59133">
        <ele>198</ele>
        <time>2020-05-31T09:03:26Z</time>
      </trkpt>
      <trkpt lat="43.32184" lon="2.59122">
        <ele>197</ele>
        <time>2020-05-31T09:03:28Z</time>
      </trkpt>
      <trkpt lat="43.32178" lon="2.59115">
        <ele>196</ele>
        <time>2020-05-31T09:03:29Z</time>
      </trkpt>
      <trkpt lat="43.32172" lon="2.59108">
        <ele>196</ele>
        <time>2020-05-31T09:03:30Z</time>
      </trkpt>
      <trkpt lat="43.32162" lon="2.59091">
        <ele>194</ele>
        <time>2020-05-31T09:03:32Z</time>
      </trkpt>
      <trkpt lat="43.32154" lon="2.59069">
        <ele>193</ele>
        <time>2020-05-31T09:03:34Z</time>
      </trkpt>
      <trkpt lat="43.32152" lon="2.59058">
        <ele>193</ele>
        <time>2020-05-31T09:03:35Z</time>
      </trkpt>
      <trkpt lat="43.32146" lon="2.59008">
        <ele>193</ele>
        <time>2020-05-31T09:03:39Z</time>
      </trkpt>
      <trkpt lat="43.32145" lon="2.58996">
        <ele>193</ele>
        <time>2020-05-31T09:03:40Z</time>
      </trkpt>
      <trkpt lat="43.32139" lon="2.58971">
        <ele>194</ele>
        <time>2020-05-31T09:03:42Z</time>
      </trkpt>
      <trkpt lat="43.32134" lon="2.58959">
        <ele>194</ele>
        <time>2020-05-31T09:03:43Z</time>
      </trkpt>
      <trkpt lat="43.32129" lon="2.58948">
        <ele>194</ele>
        <time>2020-05-31T09:03:44Z</time>
      </trkpt>
      <trkpt lat="43.32122" lon="2.58938">
        <ele>194</ele>
        <time>2020-05-31T09:03:45Z</time>
      </trkpt>
      <trkpt lat="43.32116" lon="2.58927">
        <ele>194</ele>
        <time>2020-05-31T09:03:46Z</time>
      </trkpt>
      <trkpt lat="43.32111" lon="2.58914">
        <ele>193</ele>
        <time>2020-05-31T09:03:47Z</time>
      </trkpt>
      <trkpt lat="43.32109" lon="2.589">
        <ele>193</ele>
        <time>2020-05-31T09:03:48Z</time>
      </trkpt>
      <trkpt lat="43.32109" lon="2.58885">
        <ele>192</ele>
        <time>2020-05-31T09:03:49Z</time>
      </trkpt>
      <trkpt lat="43.3211" lon="2.5887">
        <ele>192</ele>
        <time>2020-05-31T09:03:50Z</time>
      </trkpt>
      <trkpt lat="43.32112" lon="2.58856">
        <ele>191</ele>
        <time>2020-05-31T09:03:51Z</time>
      </trkpt>
      <trkpt lat="43.32115" lon="2.58842">
        <ele>191</ele>
        <time>2020-05-31T09:03:52Z</time>
      </trkpt>
      <trkpt lat="43.32122" lon="2.58813">
        <ele>190</ele>
        <time>2020-05-31T09:03:54Z</time>
      </trkpt>
      <trkpt lat="43.3213" lon="2.58767">
        <ele>187</ele>
        <time>2020-05-31T09:03:57Z</time>
      </trkpt>
      <trkpt lat="43.32131" lon="2.58751">
        <ele>186</ele>
        <time>2020-05-31T09:03:58Z</time>
      </trkpt>
      <trkpt lat="43.32129" lon="2.58735">
        <ele>186</ele>
        <time>2020-05-31T09:03:59Z</time>
      </trkpt>
      <trkpt lat="43.32126" lon="2.5872">
        <ele>186</ele>
        <time>2020-05-31T09:04:00Z</time>
      </trkpt>
      <trkpt lat="43.32121" lon="2.58706">
        <ele>186</ele>
        <time>2020-05-31T09:04:01Z</time>
      </trkpt>
      <trkpt lat="43.32115" lon="2.58692">
        <ele>185</ele>
        <time>2020-05-31T09:04:02Z</time>
      </trkpt>
      <trkpt lat="43.32109" lon="2.58679">
        <ele>184</ele>
        <time>2020-05-31T09:04:03Z</time>
      </trkpt>
      <trkpt lat="43.32071" lon="2.58619">
        <ele>183</ele>
        <time>2020-05-31T09:04:08Z</time>
      </trkpt>
      <trkpt lat="43.32062" lon="2.58609">
        <ele>183</ele>
        <time>2020-05-31T09:04:09Z</time>
      </trkpt>
      <trkpt lat="43.32053" lon="2.58599">
        <ele>183</ele>
        <time>2020-05-31T09:04:10Z</time>
      </trkpt>
      <trkpt lat="43.32032" lon="2.58584">
        <ele>181</ele>
        <time>2020-05-31T09:04:12Z</time>
      </trkpt>
      <trkpt lat="43.32021" lon="2.58578">
        <ele>181</ele>
        <time>2020-05-31T09:04:13Z</time>
      </trkpt>
      <trkpt lat="43.31999" lon="2.58566">
        <ele>179</ele>
        <time>2020-05-31T09:04:15Z</time>
      </trkpt>
      <trkpt lat="43.31977" lon="2.58553">
        <ele>178</ele>
        <time>2020-05-31T09:04:17Z</time>
      </trkpt>
      <trkpt lat="43.31956" lon="2.58539">
        <ele>178</ele>
        <time>2020-05-31T09:04:19Z</time>
      </trkpt>
      <trkpt lat="43.31946" lon="2.5853">
        <ele>178</ele>
        <time>2020-05-31T09:04:20Z</time>
      </trkpt>
      <trkpt lat="43.31937" lon="2.58521">
        <ele>177</ele>
        <time>2020-05-31T09:04:21Z</time>
      </trkpt>
      <trkpt lat="43.3191" lon="2.58488">
        <ele>173</ele>
        <time>2020-05-31T09:04:24Z</time>
      </trkpt>
      <trkpt lat="43.31902" lon="2.58476">
        <ele>172</ele>
        <time>2020-05-31T09:04:25Z</time>
      </trkpt>
      <trkpt lat="43.31859" lon="2.58423">
        <ele>171</ele>
        <time>2020-05-31T09:04:30Z</time>
      </trkpt>
      <trkpt lat="43.31828" lon="2.584">
        <ele>171</ele>
        <time>2020-05-31T09:04:33Z</time>
      </trkpt>
      <trkpt lat="43.31818" lon="2.58394">
        <ele>171</ele>
        <time>2020-05-31T09:04:34Z</time>
      </trkpt>
      <trkpt lat="43.31807" lon="2.58388">
        <ele>171</ele>
        <time>2020-05-31T09:04:35Z</time>
      </trkpt>
      <trkpt lat="43.31796" lon="2.58383">
        <ele>171</ele>
        <time>2020-05-31T09:04:36Z</time>
      </trkpt>
      <trkpt lat="43.31762" lon="2.58368">
        <ele>171</ele>
        <time>2020-05-31T09:04:39Z</time>
      </trkpt>
      <trkpt lat="43.3174" lon="2.58359">
        <ele>171</ele>
        <time>2020-05-31T09:04:41Z</time>
      </trkpt>
      <trkpt lat="43.31719" lon="2.58346">
        <ele>170</ele>
        <time>2020-05-31T09:04:43Z</time>
      </trkpt>
      <trkpt lat="43.3171" lon="2.58337">
        <ele>169</ele>
        <time>2020-05-31T09:04:44Z</time>
      </trkpt>
      <trkpt lat="43.31702" lon="2.58327">
        <ele>169</ele>
        <time>2020-05-31T09:04:45Z</time>
      </trkpt>
      <trkpt lat="43.31686" lon="2.58304">
        <ele>169</ele>
        <time>2020-05-31T09:04:47Z</time>
      </trkpt>
      <trkpt lat="43.31678" lon="2.58292">
        <ele>168</ele>
        <time>2020-05-31T09:04:48Z</time>
      </trkpt>
      <trkpt lat="43.31655" lon="2.58254">
        <ele>166</ele>
        <time>2020-05-31T09:04:51Z</time>
      </trkpt>
      <trkpt lat="43.31646" lon="2.58242">
        <ele>165</ele>
        <time>2020-05-31T09:04:52Z</time>
      </trkpt>
      <trkpt lat="43.31636" lon="2.58232">
        <ele>164</ele>
        <time>2020-05-31T09:04:53Z</time>
      </trkpt>
      <trkpt lat="43.31626" lon="2.58224">
        <ele>164</ele>
        <time>2020-05-31T09:04:54Z</time>
      </trkpt>
      <trkpt lat="43.31615" lon="2.58217">
        <ele>162</ele>
        <time>2020-05-31T09:04:55Z</time>
      </trkpt>
      <trkpt lat="43.3158" lon="2.58201">
        <ele>161</ele>
        <time>2020-05-31T09:04:58Z</time>
      </trkpt>
      <trkpt lat="43.31567" lon="2.58198">
        <ele>161</ele>
        <time>2020-05-31T09:04:59Z</time>
      </trkpt>
      <trkpt lat="43.31543" lon="2.58196">
        <ele>160</ele>
        <time>2020-05-31T09:05:01Z</time>
      </trkpt>
      <trkpt lat="43.31531" lon="2.58196">
        <ele>159</ele>
        <time>2020-05-31T09:05:02Z</time>
      </trkpt>
      <trkpt lat="43.31519" lon="2.58195">
        <ele>157</ele>
        <time>2020-05-31T09:05:03Z</time>
      </trkpt>
      <trkpt lat="43.31507" lon="2.58192">
        <ele>156</ele>
        <time>2020-05-31T09:05:04Z</time>
      </trkpt>
      <trkpt lat="43.31495" lon="2.58187">
        <ele>154</ele>
        <time>2020-05-31T09:05:05Z</time>
      </trkpt>
      <trkpt lat="43.31483" lon="2.5818">
        <ele>154</ele>
        <time>2020-05-31T09:05:06Z</time>
      </trkpt>
      <trkpt lat="43.31448" lon="2.58156">
        <ele>151</ele>
        <time>2020-05-31T09:05:09Z</time>
      </trkpt>
      <trkpt lat="43.31436" lon="2.5815">
        <ele>151</ele>
        <time>2020-05-31T09:05:10Z</time>
      </trkpt>
      <trkpt lat="43.31423" lon="2.58147">
        <ele>150</ele>
        <time>2020-05-31T09:05:11Z</time>
      </trkpt>
      <trkpt lat="43.31396" lon="2.58146">
        <ele>148</ele>
        <time>2020-05-31T09:05:13Z</time>
      </trkpt>
      <trkpt lat="43.31383" lon="2.58147">
        <ele>147</ele>
        <time>2020-05-31T09:05:14Z</time>
      </trkpt>
      <trkpt lat="43.3137" lon="2.58146">
        <ele>147</ele>
        <time>2020-05-31T09:05:15Z</time>
      </trkpt>
      <trkpt lat="43.31346" lon="2.58138">
        <ele>146</ele>
        <time>2020-05-31T09:05:17Z</time>
      </trkpt>
      <trkpt lat="43.31314" lon="2.58113">
        <ele>145</ele>
        <time>2020-05-31T09:05:20Z</time>
      </trkpt>
      <trkpt lat="43.31295" lon="2.58094">
        <ele>144</ele>
        <time>2020-05-31T09:05:22Z</time>
      </trkpt>
      <trkpt lat="43.31271" lon="2.58061">
        <ele>144</ele>
        <time>2020-05-31T09:05:25Z</time>
      </trkpt>
      <trkpt lat="43.31265" lon="2.58049">
        <ele>145</ele>
        <time>2020-05-31T09:05:26Z</time>
      </trkpt>
      <trkpt lat="43.3125" lon="2.58012">
        <ele>147</ele>
        <time>2020-05-31T09:05:29Z</time>
      </trkpt>
      <trkpt lat="43.31244" lon="2.57986">
        <ele>148</ele>
        <time>2020-05-31T09:05:31Z</time>
      </trkpt>
      <trkpt lat="43.31233" lon="2.57935">
        <ele>149</ele>
        <time>2020-05-31T09:05:35Z</time>
      </trkpt>
      <trkpt lat="43.3123" lon="2.57923">
        <ele>149</ele>
        <time>2020-05-31T09:05:36Z</time>
      </trkpt>
      <trkpt lat="43.31224" lon="2.57886">
        <ele>150</ele>
        <time>2020-05-31T09:05:39Z</time>
      </trkpt>
      <trkpt lat="43.3122" lon="2.57861">
        <ele>149</ele>
        <time>2020-05-31T09:05:41Z</time>
      </trkpt>
      <trkpt lat="43.31219" lon="2.57848">
        <ele>149</ele>
        <time>2020-05-31T09:05:42Z</time>
      </trkpt>
      <trkpt lat="43.31212" lon="2.57798">
        <ele>149</ele>
        <time>2020-05-31T09:05:46Z</time>
      </trkpt>
      <trkpt lat="43.31207" lon="2.57759">
        <ele>149</ele>
        <time>2020-05-31T09:05:49Z</time>
      </trkpt>
      <trkpt lat="43.31206" lon="2.57746">
        <ele>148</ele>
        <time>2020-05-31T09:05:50Z</time>
      </trkpt>
      <trkpt lat="43.31193" lon="2.57682">
        <ele>147</ele>
        <time>2020-05-31T09:05:55Z</time>
      </trkpt>
      <trkpt lat="43.31191" lon="2.57669">
        <ele>147</ele>
        <time>2020-05-31T09:05:56Z</time>
      </trkpt>
      <trkpt lat="43.31187" lon="2.57655">
        <ele>147</ele>
        <time>2020-05-31T09:05:57Z</time>
      </trkpt>
      <trkpt lat="43.31174" lon="2.57601">
        <ele>145</ele>
        <time>2020-05-31T09:06:01Z</time>
      </trkpt>
      <trkpt lat="43.3117" lon="2.57587">
        <ele>145</ele>
        <time>2020-05-31T09:06:02Z</time>
      </trkpt>
      <trkpt lat="43.31167" lon="2.57574">
        <ele>145</ele>
        <time>2020-05-31T09:06:03Z</time>
      </trkpt>
      <trkpt lat="43.31163" lon="2.57559">
        <ele>144</ele>
        <time>2020-05-31T09:06:04Z</time>
      </trkpt>
      <trkpt lat="43.31155" lon="2.57531">
        <ele>144</ele>
        <time>2020-05-31T09:06:06Z</time>
      </trkpt>
      <trkpt lat="43.31139" lon="2.57471">
        <ele>141</ele>
        <time>2020-05-31T09:06:10Z</time>
      </trkpt>
      <trkpt lat="43.31135" lon="2.57456">
        <ele>141</ele>
        <time>2020-05-31T09:06:11Z</time>
      </trkpt>
      <trkpt lat="43.31126" lon="2.57425">
        <ele>140</ele>
        <time>2020-05-31T09:06:13Z</time>
      </trkpt>
      <trkpt lat="43.31122" lon="2.5741">
        <ele>140</ele>
        <time>2020-05-31T09:06:14Z</time>
      </trkpt>
      <trkpt lat="43.31118" lon="2.57394">
        <ele>139</ele>
        <time>2020-05-31T09:06:15Z</time>
      </trkpt>
      <trkpt lat="43.3111" lon="2.57363">
        <ele>138</ele>
        <time>2020-05-31T09:06:17Z</time>
      </trkpt>
      <trkpt lat="43.31108" lon="2.57347">
        <ele>138</ele>
        <time>2020-05-31T09:06:18Z</time>
      </trkpt>
      <trkpt lat="43.31107" lon="2.57331">
        <ele>138</ele>
        <time>2020-05-31T09:06:19Z</time>
      </trkpt>
      <trkpt lat="43.31108" lon="2.57315">
        <ele>138</ele>
        <time>2020-05-31T09:06:20Z</time>
      </trkpt>
      <trkpt lat="43.31109" lon="2.57299">
        <ele>137</ele>
        <time>2020-05-31T09:06:21Z</time>
      </trkpt>
      <trkpt lat="43.31111" lon="2.57283">
        <ele>137</ele>
        <time>2020-05-31T09:06:22Z</time>
      </trkpt>
      <trkpt lat="43.31113" lon="2.57252">
        <ele>137</ele>
        <time>2020-05-31T09:06:24Z</time>
      </trkpt>
      <trkpt lat="43.31113" lon="2.57222">
        <ele>137</ele>
        <time>2020-05-31T09:06:26Z</time>
      </trkpt>
      <trkpt lat="43.31112" lon="2.57207">
        <ele>137</ele>
        <time>2020-05-31T09:06:27Z</time>
      </trkpt>
      <trkpt lat="43.3111" lon="2.57164">
        <ele>138</ele>
        <time>2020-05-31T09:06:30Z</time>
      </trkpt>
      <trkpt lat="43.31107" lon="2.57125">
        <ele>140</ele>
        <time>2020-05-31T09:06:33Z</time>
      </trkpt>
      <trkpt lat="43.31106" lon="2.57112">
        <ele>140</ele>
        <time>2020-05-31T09:06:34Z</time>
      </trkpt>
      <trkpt lat="43.31105" lon="2.57099">
        <ele>140</ele>
        <time>2020-05-31T09:06:35Z</time>
      </trkpt>
      <trkpt lat="43.31104" lon="2.57087">
        <ele>140</ele>
        <time>2020-05-31T09:06:36Z</time>
      </trkpt>
      <trkpt lat="43.31103" lon="2.57062">
        <ele>141</ele>
        <time>2020-05-31T09:06:38Z</time>
      </trkpt>
      <trkpt lat="43.31102" lon="2.5705">
        <ele>141</ele>
        <time>2020-05-31T09:06:39Z</time>
      </trkpt>
      <trkpt lat="43.31101" lon="2.57038">
        <ele>141</ele>
        <time>2020-05-31T09:06:40Z</time>
      </trkpt>
      <trkpt lat="43.31096" lon="2.5696">
        <ele>144</ele>
        <time>2020-05-31T09:06:47Z</time>
      </trkpt>
      <trkpt lat="43.31095" lon="2.56949">
        <ele>144</ele>
        <time>2020-05-31T09:06:48Z</time>
      </trkpt>
      <trkpt lat="43.31092" lon="2.56885">
        <ele>145</ele>
        <time>2020-05-31T09:06:54Z</time>
      </trkpt>
      <trkpt lat="43.31092" lon="2.56876">
        <ele>145</ele>
        <time>2020-05-31T09:06:55Z</time>
      </trkpt>
      <trkpt lat="43.31091" lon="2.56866">
        <ele>145</ele>
        <time>2020-05-31T09:06:56Z</time>
      </trkpt>
      <trkpt lat="43.31089" lon="2.56824">
        <ele>145</ele>
        <time>2020-05-31T09:07:01Z</time>
      </trkpt>
      <trkpt lat="43.31087" lon="2.56775">
        <ele>148</ele>
        <time>2020-05-31T09:07:07Z</time>
      </trkpt>
      <trkpt lat="43.31089" lon="2.5675">
        <ele>148</ele>
        <time>2020-05-31T09:07:10Z</time>
      </trkpt>
      <trkpt lat="43.31092" lon="2.56726">
        <ele>148</ele>
        <time>2020-05-31T09:07:13Z</time>
      </trkpt>
      <trkpt lat="43.311" lon="2.56653">
        <ele>149</ele>
        <time>2020-05-31T09:07:22Z</time>
      </trkpt>
      <trkpt lat="43.31106" lon="2.56591">
        <ele>152</ele>
        <time>2020-05-31T09:07:30Z</time>
      </trkpt>
      <trkpt lat="43.31108" lon="2.56572">
        <ele>152</ele>
        <time>2020-05-31T09:07:33Z</time>
      </trkpt>
      <trkpt lat="43.31109" lon="2.56548">
        <ele>152</ele>
        <time>2020-05-31T09:07:37Z</time>
      </trkpt>
      <trkpt lat="43.31106" lon="2.56521">
        <ele>152</ele>
        <time>2020-05-31T09:07:41Z</time>
      </trkpt>
      <trkpt lat="43.31105" lon="2.56514">
        <ele>152</ele>
        <time>2020-05-31T09:07:42Z</time>
      </trkpt>
      <trkpt lat="43.31093" lon="2.56469">
        <ele>152</ele>
        <time>2020-05-31T09:07:48Z</time>
      </trkpt>
      <trkpt lat="43.31091" lon="2.56462">
        <ele>152</ele>
        <time>2020-05-31T09:07:49Z</time>
      </trkpt>
      <trkpt lat="43.31076" lon="2.56402">
        <ele>151</ele>
        <time>2020-05-31T09:07:57Z</time>
      </trkpt>
      <trkpt lat="43.31072" lon="2.56386">
        <ele>151</ele>
        <time>2020-05-31T09:07:59Z</time>
      </trkpt>
      <trkpt lat="43.31056" lon="2.56342">
        <ele>152</ele>
        <time>2020-05-31T09:08:05Z</time>
      </trkpt>
      <trkpt lat="43.31047" lon="2.56333">
        <ele>151</ele>
        <time>2020-05-31T09:08:07Z</time>
      </trkpt>
      <trkpt lat="43.31041" lon="2.5633">
        <ele>151</ele>
        <time>2020-05-31T09:08:08Z</time>
      </trkpt>
      <trkpt lat="43.31034" lon="2.56329">
        <ele>150</ele>
        <time>2020-05-31T09:08:09Z</time>
      </trkpt>
      <trkpt lat="43.31021" lon="2.56331">
        <ele>150</ele>
        <time>2020-05-31T09:08:11Z</time>
      </trkpt>
      <trkpt lat="43.30999" lon="2.56338">
        <ele>150</ele>
        <time>2020-05-31T09:08:14Z</time>
      </trkpt>
      <trkpt lat="43.30984" lon="2.56338">
        <ele>150</ele>
        <time>2020-05-31T09:08:16Z</time>
      </trkpt>
      <trkpt lat="43.30962" lon="2.56338">
        <ele>150</ele>
        <time>2020-05-31T09:08:19Z</time>
      </trkpt>
      <trkpt lat="43.30932" lon="2.56338">
        <ele>149</ele>
        <time>2020-05-31T09:08:23Z</time>
      </trkpt>
      <trkpt lat="43.30873" lon="2.5634">
        <ele>149</ele>
        <time>2020-05-31T09:08:31Z</time>
      </trkpt>
      <trkpt lat="43.30858" lon="2.56341">
        <ele>149</ele>
        <time>2020-05-31T09:08:33Z</time>
      </trkpt>
      <trkpt lat="43.30799" lon="2.56347">
        <ele>149</ele>
        <time>2020-05-31T09:08:41Z</time>
      </trkpt>
      <trkpt lat="43.30792" lon="2.56349">
        <ele>149</ele>
        <time>2020-05-31T09:08:42Z</time>
      </trkpt>
      <trkpt lat="43.30737" lon="2.56363">
        <ele>147</ele>
        <time>2020-05-31T09:08:50Z</time>
      </trkpt>
      <trkpt lat="43.3073" lon="2.56365">
        <ele>147</ele>
        <time>2020-05-31T09:08:51Z</time>
      </trkpt>
      <trkpt lat="43.30711" lon="2.56371">
        <ele>147</ele>
        <time>2020-05-31T09:08:54Z</time>
      </trkpt>
      <trkpt lat="43.30704" lon="2.56372">
        <ele>147</ele>
        <time>2020-05-31T09:08:55Z</time>
      </trkpt>
      <trkpt lat="43.30698" lon="2.56373">
        <ele>147</ele>
        <time>2020-05-31T09:08:56Z</time>
      </trkpt>
      <trkpt lat="43.30678" lon="2.56375">
        <ele>148</ele>
        <time>2020-05-31T09:08:59Z</time>
      </trkpt>
      <trkpt lat="43.30672" lon="2.56375">
        <ele>148</ele>
        <time>2020-05-31T09:09:00Z</time>
      </trkpt>
      <trkpt lat="43.30632" lon="2.56376">
        <ele>147</ele>
        <time>2020-05-31T09:09:06Z</time>
      </trkpt>
      <trkpt lat="43.30618" lon="2.56377">
        <ele>147</ele>
        <time>2020-05-31T09:09:08Z</time>
      </trkpt>
      <trkpt lat="43.30576" lon="2.56378">
        <ele>147</ele>
        <time>2020-05-31T09:09:14Z</time>
      </trkpt>
      <trkpt lat="43.30569" lon="2.56378">
        <ele>147</ele>
        <time>2020-05-31T09:09:15Z</time>
      </trkpt>
      <trkpt lat="43.30562" lon="2.56378">
        <ele>147</ele>
        <time>2020-05-31T09:09:16Z</time>
      </trkpt>
      <trkpt lat="43.30555" lon="2.56378">
        <ele>147</ele>
        <time>2020-05-31T09:09:17Z</time>
      </trkpt>
      <trkpt lat="43.30541" lon="2.56377">
        <ele>147</ele>
        <time>2020-05-31T09:09:19Z</time>
      </trkpt>
      <trkpt lat="43.30519" lon="2.56377">
        <ele>147</ele>
        <time>2020-05-31T09:09:22Z</time>
      </trkpt>
      <trkpt lat="43.30482" lon="2.56376">
        <ele>147</ele>
        <time>2020-05-31T09:09:27Z</time>
      </trkpt>
      <trkpt lat="43.3043" lon="2.56374">
        <ele>144</ele>
        <time>2020-05-31T09:09:34Z</time>
      </trkpt>
      <trkpt lat="43.30392" lon="2.56373">
        <ele>144</ele>
        <time>2020-05-31T09:09:39Z</time>
      </trkpt>
      <trkpt lat="43.3037" lon="2.56373">
        <ele>144</ele>
        <time>2020-05-31T09:09:42Z</time>
      </trkpt>
      <trkpt lat="43.30325" lon="2.56378">
        <ele>145</ele>
        <time>2020-05-31T09:09:48Z</time>
      </trkpt>
      <trkpt lat="43.30287" lon="2.56386">
        <ele>143</ele>
        <time>2020-05-31T09:09:53Z</time>
      </trkpt>
      <trkpt lat="43.30249" lon="2.56395">
        <ele>142</ele>
        <time>2020-05-31T09:09:58Z</time>
      </trkpt>
      <trkpt lat="43.30219" lon="2.56402">
        <ele>142</ele>
        <time>2020-05-31T09:10:02Z</time>
      </trkpt>
      <trkpt lat="43.30189" lon="2.56409">
        <ele>142</ele>
        <time>2020-05-31T09:10:06Z</time>
      </trkpt>
      <trkpt lat="43.30174" lon="2.56414">
        <ele>141</ele>
        <time>2020-05-31T09:10:08Z</time>
      </trkpt>
      <trkpt lat="43.3016" lon="2.56422">
        <ele>140</ele>
        <time>2020-05-31T09:10:10Z</time>
      </trkpt>
      <trkpt lat="43.30147" lon="2.56434">
        <ele>140</ele>
        <time>2020-05-31T09:10:12Z</time>
      </trkpt>
      <trkpt lat="43.30141" lon="2.5644">
        <ele>139</ele>
        <time>2020-05-31T09:10:13Z</time>
      </trkpt>
      <trkpt lat="43.30136" lon="2.56447">
        <ele>140</ele>
        <time>2020-05-31T09:10:14Z</time>
      </trkpt>
      <trkpt lat="43.3013" lon="2.56454">
        <ele>140</ele>
        <time>2020-05-31T09:10:15Z</time>
      </trkpt>
      <trkpt lat="43.30118" lon="2.56469">
        <ele>140</ele>
        <time>2020-05-31T09:10:17Z</time>
      </trkpt>
      <trkpt lat="43.30112" lon="2.56476">
        <ele>140</ele>
        <time>2020-05-31T09:10:18Z</time>
      </trkpt>
      <trkpt lat="43.30106" lon="2.56482">
        <ele>139</ele>
        <time>2020-05-31T09:10:19Z</time>
      </trkpt>
      <trkpt lat="43.30099" lon="2.56489">
        <ele>139</ele>
        <time>2020-05-31T09:10:20Z</time>
      </trkpt>
      <trkpt lat="43.30092" lon="2.56495">
        <ele>139</ele>
        <time>2020-05-31T09:10:21Z</time>
      </trkpt>
      <trkpt lat="43.30085" lon="2.56501">
        <ele>139</ele>
        <time>2020-05-31T09:10:22Z</time>
      </trkpt>
      <trkpt lat="43.3007" lon="2.56512">
        <ele>138</ele>
        <time>2020-05-31T09:10:24Z</time>
      </trkpt>
      <trkpt lat="43.30063" lon="2.56518">
        <ele>138</ele>
        <time>2020-05-31T09:10:25Z</time>
      </trkpt>
      <trkpt lat="43.30027" lon="2.56545">
        <ele>137</ele>
        <time>2020-05-31T09:10:30Z</time>
      </trkpt>
      <trkpt lat="43.30014" lon="2.56556">
        <ele>137</ele>
        <time>2020-05-31T09:10:32Z</time>
      </trkpt>
      <trkpt lat="43.2999" lon="2.56582">
        <ele>136</ele>
        <time>2020-05-31T09:10:36Z</time>
      </trkpt>
      <trkpt lat="43.29984" lon="2.56588">
        <ele>136</ele>
        <time>2020-05-31T09:10:37Z</time>
      </trkpt>
      <trkpt lat="43.29979" lon="2.56595">
        <ele>136</ele>
        <time>2020-05-31T09:10:38Z</time>
      </trkpt>
      <trkpt lat="43.29967" lon="2.56608">
        <ele>135</ele>
        <time>2020-05-31T09:10:40Z</time>
      </trkpt>
      <trkpt lat="43.29949" lon="2.56628">
        <ele>135</ele>
        <time>2020-05-31T09:10:43Z</time>
      </trkpt>
      <trkpt lat="43.29923" lon="2.56655">
        <ele>134</ele>
        <time>2020-05-31T09:10:47Z</time>
      </trkpt>
      <trkpt lat="43.29917" lon="2.56661">
        <ele>134</ele>
        <time>2020-05-31T09:10:48Z</time>
      </trkpt>
      <trkpt lat="43.29911" lon="2.56667">
        <ele>134</ele>
        <time>2020-05-31T09:10:49Z</time>
      </trkpt>
      <trkpt lat="43.29884" lon="2.56689">
        <ele>134</ele>
        <time>2020-05-31T09:10:53Z</time>
      </trkpt>
      <trkpt lat="43.29876" lon="2.56694">
        <ele>134</ele>
        <time>2020-05-31T09:10:54Z</time>
      </trkpt>
      <trkpt lat="43.29862" lon="2.56704">
        <ele>134</ele>
        <time>2020-05-31T09:10:56Z</time>
      </trkpt>
      <trkpt lat="43.29848" lon="2.56715">
        <ele>134</ele>
        <time>2020-05-31T09:10:58Z</time>
      </trkpt>
      <trkpt lat="43.29825" lon="2.56731">
        <ele>134</ele>
        <time>2020-05-31T09:11:01Z</time>
      </trkpt>
      <trkpt lat="43.29802" lon="2.56743">
        <ele>133</ele>
        <time>2020-05-31T09:11:04Z</time>
      </trkpt>
      <trkpt lat="43.29794" lon="2.56746">
        <ele>133</ele>
        <time>2020-05-31T09:11:05Z</time>
      </trkpt>
      <trkpt lat="43.29778" lon="2.56752">
        <ele>133</ele>
        <time>2020-05-31T09:11:07Z</time>
      </trkpt>
      <trkpt lat="43.29744" lon="2.56762">
        <ele>132</ele>
        <time>2020-05-31T09:11:11Z</time>
      </trkpt>
      <trkpt lat="43.29735" lon="2.56765">
        <ele>131</ele>
        <time>2020-05-31T09:11:12Z</time>
      </trkpt>
      <trkpt lat="43.29727" lon="2.56769">
        <ele>131</ele>
        <time>2020-05-31T09:11:13Z</time>
      </trkpt>
      <trkpt lat="43.29701" lon="2.56785">
        <ele>130</ele>
        <time>2020-05-31T09:11:16Z</time>
      </trkpt>
      <trkpt lat="43.29683" lon="2.56796">
        <ele>130</ele>
        <time>2020-05-31T09:11:18Z</time>
      </trkpt>
      <trkpt lat="43.29674" lon="2.56802">
        <ele>130</ele>
        <time>2020-05-31T09:11:19Z</time>
      </trkpt>
      <trkpt lat="43.29665" lon="2.56807">
        <ele>129</ele>
        <time>2020-05-31T09:11:20Z</time>
      </trkpt>
      <trkpt lat="43.29647" lon="2.56817">
        <ele>128</ele>
        <time>2020-05-31T09:11:22Z</time>
      </trkpt>
      <trkpt lat="43.2962" lon="2.56832">
        <ele>128</ele>
        <time>2020-05-31T09:11:25Z</time>
      </trkpt>
      <trkpt lat="43.2961" lon="2.56835">
        <ele>128</ele>
        <time>2020-05-31T09:11:26Z</time>
      </trkpt>
      <trkpt lat="43.296" lon="2.56837">
        <ele>128</ele>
        <time>2020-05-31T09:11:27Z</time>
      </trkpt>
      <trkpt lat="43.2959" lon="2.56838">
        <ele>128</ele>
        <time>2020-05-31T09:11:28Z</time>
      </trkpt>
      <trkpt lat="43.29579" lon="2.56839">
        <ele>128</ele>
        <time>2020-05-31T09:11:29Z</time>
      </trkpt>
      <trkpt lat="43.29568" lon="2.56838">
        <ele>127</ele>
        <time>2020-05-31T09:11:30Z</time>
      </trkpt>
      <trkpt lat="43.29557" lon="2.56837">
        <ele>127</ele>
        <time>2020-05-31T09:11:31Z</time>
      </trkpt>
      <trkpt lat="43.29547" lon="2.56836">
        <ele>126</ele>
        <time>2020-05-31T09:11:32Z</time>
      </trkpt>
      <trkpt lat="43.29526" lon="2.56836">
        <ele>126</ele>
        <time>2020-05-31T09:11:34Z</time>
      </trkpt>
      <trkpt lat="43.29515" lon="2.56837">
        <ele>126</ele>
        <time>2020-05-31T09:11:35Z</time>
      </trkpt>
      <trkpt lat="43.29505" lon="2.56838">
        <ele>126</ele>
        <time>2020-05-31T09:11:36Z</time>
      </trkpt>
      <trkpt lat="43.29487" lon="2.5684">
        <ele>126</ele>
        <time>2020-05-31T09:11:38Z</time>
      </trkpt>
      <trkpt lat="43.2947" lon="2.56843">
        <ele>126</ele>
        <time>2020-05-31T09:11:40Z</time>
      </trkpt>
      <trkpt lat="43.29454" lon="2.56846">
        <ele>126</ele>
        <time>2020-05-31T09:11:42Z</time>
      </trkpt>
      <trkpt lat="43.29439" lon="2.56851">
        <ele>126</ele>
        <time>2020-05-31T09:11:44Z</time>
      </trkpt>
      <trkpt lat="43.29395" lon="2.56868">
        <ele>125</ele>
        <time>2020-05-31T09:11:50Z</time>
      </trkpt>
      <trkpt lat="43.29388" lon="2.5687">
        <ele>124</ele>
        <time>2020-05-31T09:11:51Z</time>
      </trkpt>
      <trkpt lat="43.29363" lon="2.56878">
        <ele>124</ele>
        <time>2020-05-31T09:11:55Z</time>
      </trkpt>
      <trkpt lat="43.29344" lon="2.56886">
        <ele>124</ele>
        <time>2020-05-31T09:11:58Z</time>
      </trkpt>
      <trkpt lat="43.29325" lon="2.56893">
        <ele>124</ele>
        <time>2020-05-31T09:12:01Z</time>
      </trkpt>
      <trkpt lat="43.29318" lon="2.56895">
        <ele>124</ele>
        <time>2020-05-31T09:12:02Z</time>
      </trkpt>
      <trkpt lat="43.29312" lon="2.56895">
        <ele>124</ele>
        <time>2020-05-31T09:12:03Z</time>
      </trkpt>
      <trkpt lat="43.29291" lon="2.56894">
        <ele>124</ele>
        <time>2020-05-31T09:12:06Z</time>
      </trkpt>
      <trkpt lat="43.29277" lon="2.56891">
        <ele>124</ele>
        <time>2020-05-31T09:12:08Z</time>
      </trkpt>
      <trkpt lat="43.29265" lon="2.56883">
        <ele>124</ele>
        <time>2020-05-31T09:12:10Z</time>
      </trkpt>
      <trkpt lat="43.29261" lon="2.56876">
        <ele>124</ele>
        <time>2020-05-31T09:12:11Z</time>
      </trkpt>
      <trkpt lat="43.29257" lon="2.56869">
        <ele>124</ele>
        <time>2020-05-31T09:12:12Z</time>
      </trkpt>
      <trkpt lat="43.29254" lon="2.5686">
        <ele>124</ele>
        <time>2020-05-31T09:12:13Z</time>
      </trkpt>
      <trkpt lat="43.29252" lon="2.56852">
        <ele>124</ele>
        <time>2020-05-31T09:12:14Z</time>
      </trkpt>
      <trkpt lat="43.29248" lon="2.56835">
        <ele>124</ele>
        <time>2020-05-31T09:12:16Z</time>
      </trkpt>
      <trkpt lat="43.29244" lon="2.56811">
        <ele>124</ele>
        <time>2020-05-31T09:12:19Z</time>
      </trkpt>
      <trkpt lat="43.29241" lon="2.56788">
        <ele>125</ele>
        <time>2020-05-31T09:12:22Z</time>
      </trkpt>
      <trkpt lat="43.29237" lon="2.56771">
        <ele>126</ele>
        <time>2020-05-31T09:12:24Z</time>
      </trkpt>
      <trkpt lat="43.29234" lon="2.56762">
        <ele>126</ele>
        <time>2020-05-31T09:12:25Z</time>
      </trkpt>
      <trkpt lat="43.29221" lon="2.56738">
        <ele>128</ele>
        <time>2020-05-31T09:12:28Z</time>
      </trkpt>
      <trkpt lat="43.29213" lon="2.56723">
        <ele>130</ele>
        <time>2020-05-31T09:12:30Z</time>
      </trkpt>
      <trkpt lat="43.29203" lon="2.56696">
        <ele>131</ele>
        <time>2020-05-31T09:12:33Z</time>
      </trkpt>
      <trkpt lat="43.29198" lon="2.56681">
        <ele>132</ele>
        <time>2020-05-31T09:12:35Z</time>
      </trkpt>
      <trkpt lat="43.29195" lon="2.56675">
        <ele>132</ele>
        <time>2020-05-31T09:12:36Z</time>
      </trkpt>
      <trkpt lat="43.29191" lon="2.56669">
        <ele>133</ele>
        <time>2020-05-31T09:12:37Z</time>
      </trkpt>
      <trkpt lat="43.29185" lon="2.56657">
        <ele>133</ele>
        <time>2020-05-31T09:12:39Z</time>
      </trkpt>
      <trkpt lat="43.29182" lon="2.56652">
        <ele>133</ele>
        <time>2020-05-31T09:12:40Z</time>
      </trkpt>
      <trkpt lat="43.29178" lon="2.56648">
        <ele>134</ele>
        <time>2020-05-31T09:12:41Z</time>
      </trkpt>
      <trkpt lat="43.29169" lon="2.56639">
        <ele>134</ele>
        <time>2020-05-31T09:12:43Z</time>
      </trkpt>
      <trkpt lat="43.29164" lon="2.56636">
        <ele>135</ele>
        <time>2020-05-31T09:12:44Z</time>
      </trkpt>
      <trkpt lat="43.29144" lon="2.56624">
        <ele>135</ele>
        <time>2020-05-31T09:12:48Z</time>
      </trkpt>
      <trkpt lat="43.29125" lon="2.56612">
        <ele>136</ele>
        <time>2020-05-31T09:12:52Z</time>
      </trkpt>
      <trkpt lat="43.29112" lon="2.56603">
        <ele>137</ele>
        <time>2020-05-31T09:12:55Z</time>
      </trkpt>
      <trkpt lat="43.29108" lon="2.566">
        <ele>137</ele>
        <time>2020-05-31T09:12:56Z</time>
      </trkpt>
      <trkpt lat="43.29097" lon="2.56591">
        <ele>138</ele>
        <time>2020-05-31T09:12:59Z</time>
      </trkpt>
      <trkpt lat="43.29089" lon="2.56586">
        <ele>138</ele>
        <time>2020-05-31T09:13:01Z</time>
      </trkpt>
      <trkpt lat="43.29085" lon="2.56584">
        <ele>138</ele>
        <time>2020-05-31T09:13:02Z</time>
      </trkpt>
      <trkpt lat="43.29078" lon="2.56579">
        <ele>139</ele>
        <time>2020-05-31T09:13:04Z</time>
      </trkpt>
      <trkpt lat="43.29065" lon="2.56573">
        <ele>140</ele>
        <time>2020-05-31T09:13:07Z</time>
      </trkpt>
      <trkpt lat="43.29051" lon="2.56569">
        <ele>141</ele>
        <time>2020-05-31T09:13:11Z</time>
      </trkpt>
      <trkpt lat="43.2904" lon="2.56561">
        <ele>141</ele>
        <time>2020-05-31T09:13:16Z</time>
      </trkpt>
      <trkpt lat="43.29044" lon="2.56546">
        <ele>140</ele>
        <time>2020-05-31T09:13:19Z</time>
      </trkpt>
      <trkpt lat="43.29055" lon="2.56516">
        <ele>140</ele>
        <time>2020-05-31T09:13:24Z</time>
      </trkpt>
      <trkpt lat="43.29057" lon="2.56509">
        <ele>140</ele>
        <time>2020-05-31T09:13:25Z</time>
      </trkpt>
      <trkpt lat="43.29067" lon="2.56482">
        <ele>140</ele>
        <time>2020-05-31T09:13:29Z</time>
      </trkpt>
      <trkpt lat="43.29077" lon="2.56455">
        <ele>140</ele>
        <time>2020-05-31T09:13:33Z</time>
      </trkpt>
      <trkpt lat="43.29092" lon="2.56409">
        <ele>139</ele>
        <time>2020-05-31T09:13:39Z</time>
      </trkpt>
      <trkpt lat="43.29108" lon="2.56364">
        <ele>138</ele>
        <time>2020-05-31T09:13:45Z</time>
      </trkpt>
      <trkpt lat="43.29111" lon="2.56358">
        <ele>138</ele>
        <time>2020-05-31T09:13:46Z</time>
      </trkpt>
      <trkpt lat="43.29112" lon="2.5635">
        <ele>138</ele>
        <time>2020-05-31T09:13:47Z</time>
      </trkpt>
      <trkpt lat="43.29113" lon="2.56343">
        <ele>138</ele>
        <time>2020-05-31T09:13:48Z</time>
      </trkpt>
      <trkpt lat="43.29113" lon="2.56327">
        <ele>138</ele>
        <time>2020-05-31T09:13:50Z</time>
      </trkpt>
      <trkpt lat="43.29104" lon="2.5628">
        <ele>138</ele>
        <time>2020-05-31T09:13:56Z</time>
      </trkpt>
      <trkpt lat="43.29104" lon="2.56273">
        <ele>138</ele>
        <time>2020-05-31T09:13:57Z</time>
      </trkpt>
      <trkpt lat="43.29104" lon="2.56265">
        <ele>138</ele>
        <time>2020-05-31T09:13:58Z</time>
      </trkpt>
      <trkpt lat="43.29103" lon="2.56258">
        <ele>138</ele>
        <time>2020-05-31T09:13:59Z</time>
      </trkpt>
      <trkpt lat="43.29103" lon="2.56226">
        <ele>139</ele>
        <time>2020-05-31T09:14:03Z</time>
      </trkpt>
      <trkpt lat="43.29103" lon="2.56193">
        <ele>139</ele>
        <time>2020-05-31T09:14:07Z</time>
      </trkpt>
      <trkpt lat="43.29103" lon="2.56168">
        <ele>140</ele>
        <time>2020-05-31T09:14:10Z</time>
      </trkpt>
      <trkpt lat="43.29103" lon="2.56151">
        <ele>139</ele>
        <time>2020-05-31T09:14:12Z</time>
      </trkpt>
      <trkpt lat="43.29101" lon="2.56108">
        <ele>138</ele>
        <time>2020-05-31T09:14:17Z</time>
      </trkpt>
      <trkpt lat="43.29096" lon="2.56046">
        <ele>137</ele>
        <time>2020-05-31T09:14:24Z</time>
      </trkpt>
      <trkpt lat="43.2909" lon="2.56">
        <ele>137</ele>
        <time>2020-05-31T09:14:29Z</time>
      </trkpt>
      <trkpt lat="43.29086" lon="2.55981">
        <ele>137</ele>
        <time>2020-05-31T09:14:31Z</time>
      </trkpt>
      <trkpt lat="43.29069" lon="2.55931">
        <ele>135</ele>
        <time>2020-05-31T09:14:36Z</time>
      </trkpt>
      <trkpt lat="43.29055" lon="2.55901">
        <ele>134</ele>
        <time>2020-05-31T09:14:39Z</time>
      </trkpt>
      <trkpt lat="43.29045" lon="2.55879">
        <ele>134</ele>
        <time>2020-05-31T09:14:41Z</time>
      </trkpt>
      <trkpt lat="43.29035" lon="2.55857">
        <ele>133</ele>
        <time>2020-05-31T09:14:43Z</time>
      </trkpt>
      <trkpt lat="43.2903" lon="2.55846">
        <ele>133</ele>
        <time>2020-05-31T09:14:44Z</time>
      </trkpt>
      <trkpt lat="43.29014" lon="2.55811">
        <ele>132</ele>
        <time>2020-05-31T09:14:47Z</time>
      </trkpt>
      <trkpt lat="43.28998" lon="2.55775">
        <ele>131</ele>
        <time>2020-05-31T09:14:50Z</time>
      </trkpt>
      <trkpt lat="43.28985" lon="2.55753">
        <ele>130</ele>
        <time>2020-05-31T09:14:52Z</time>
      </trkpt>
      <trkpt lat="43.28972" lon="2.55731">
        <ele>128</ele>
        <time>2020-05-31T09:14:54Z</time>
      </trkpt>
      <trkpt lat="43.28947" lon="2.55687">
        <ele>126</ele>
        <time>2020-05-31T09:14:58Z</time>
      </trkpt>
      <trkpt lat="43.28941" lon="2.55676">
        <ele>126</ele>
        <time>2020-05-31T09:14:59Z</time>
      </trkpt>
      <trkpt lat="43.28917" lon="2.55634">
        <ele>127</ele>
        <time>2020-05-31T09:15:03Z</time>
      </trkpt>
      <trkpt lat="43.28905" lon="2.55613">
        <ele>127</ele>
        <time>2020-05-31T09:15:05Z</time>
      </trkpt>
      <trkpt lat="43.28893" lon="2.55594">
        <ele>127</ele>
        <time>2020-05-31T09:15:07Z</time>
      </trkpt>
      <trkpt lat="43.28852" lon="2.55544">
        <ele>126</ele>
        <time>2020-05-31T09:15:13Z</time>
      </trkpt>
      <trkpt lat="43.28805" lon="2.55507">
        <ele>122</ele>
        <time>2020-05-31T09:15:19Z</time>
      </trkpt>
      <trkpt lat="43.2879" lon="2.55495">
        <ele>122</ele>
        <time>2020-05-31T09:15:21Z</time>
      </trkpt>
      <trkpt lat="43.28782" lon="2.55488">
        <ele>122</ele>
        <time>2020-05-31T09:15:22Z</time>
      </trkpt>
      <trkpt lat="43.28773" lon="2.55482">
        <ele>121</ele>
        <time>2020-05-31T09:15:23Z</time>
      </trkpt>
      <trkpt lat="43.2874" lon="2.55454">
        <ele>120</ele>
        <time>2020-05-31T09:15:27Z</time>
      </trkpt>
      <trkpt lat="43.28722" lon="2.55439">
        <ele>119</ele>
        <time>2020-05-31T09:15:29Z</time>
      </trkpt>
      <trkpt lat="43.28705" lon="2.55425">
        <ele>117</ele>
        <time>2020-05-31T09:15:31Z</time>
      </trkpt>
      <trkpt lat="43.28697" lon="2.55418">
        <ele>117</ele>
        <time>2020-05-31T09:15:32Z</time>
      </trkpt>
      <trkpt lat="43.28671" lon="2.55399">
        <ele>117</ele>
        <time>2020-05-31T09:15:35Z</time>
      </trkpt>
      <trkpt lat="43.2863" lon="2.55382">
        <ele>117</ele>
        <time>2020-05-31T09:15:40Z</time>
      </trkpt>
      <trkpt lat="43.28615" lon="2.55378">
        <ele>118</ele>
        <time>2020-05-31T09:15:42Z</time>
      </trkpt>
      <trkpt lat="43.28609" lon="2.55377">
        <ele>118</ele>
        <time>2020-05-31T09:15:43Z</time>
      </trkpt>
      <trkpt lat="43.28602" lon="2.55377">
        <ele>119</ele>
        <time>2020-05-31T09:15:44Z</time>
      </trkpt>
      <trkpt lat="43.28596" lon="2.55378">
        <ele>120</ele>
        <time>2020-05-31T09:15:45Z</time>
      </trkpt>
      <trkpt lat="43.2859" lon="2.55379">
        <ele>120</ele>
        <time>2020-05-31T09:15:46Z</time>
      </trkpt>
      <trkpt lat="43.28574" lon="2.55386">
        <ele>121</ele>
        <time>2020-05-31T09:15:49Z</time>
      </trkpt>
      <trkpt lat="43.28553" lon="2.55397">
        <ele>122</ele>
        <time>2020-05-31T09:15:53Z</time>
      </trkpt>
      <trkpt lat="43.28549" lon="2.55399">
        <ele>123</ele>
        <time>2020-05-31T09:15:54Z</time>
      </trkpt>
      <trkpt lat="43.2854" lon="2.55405">
        <ele>123</ele>
        <time>2020-05-31T09:15:56Z</time>
      </trkpt>
      <trkpt lat="43.28535" lon="2.55407">
        <ele>124</ele>
        <time>2020-05-31T09:15:57Z</time>
      </trkpt>
      <trkpt lat="43.2851" lon="2.55419">
        <ele>125</ele>
        <time>2020-05-31T09:16:03Z</time>
      </trkpt>
      <trkpt lat="43.28506" lon="2.55421">
        <ele>125</ele>
        <time>2020-05-31T09:16:04Z</time>
      </trkpt>
      <trkpt lat="43.28495" lon="2.55425">
        <ele>125</ele>
        <time>2020-05-31T09:16:07Z</time>
      </trkpt>
      <trkpt lat="43.28471" lon="2.55435">
        <ele>127</ele>
        <time>2020-05-31T09:16:14Z</time>
      </trkpt>
      <trkpt lat="43.28452" lon="2.55442">
        <ele>129</ele>
        <time>2020-05-31T09:16:20Z</time>
      </trkpt>
      <trkpt lat="43.28446" lon="2.55445">
        <ele>129</ele>
        <time>2020-05-31T09:16:22Z</time>
      </trkpt>
      <trkpt lat="43.28437" lon="2.55448">
        <ele>130</ele>
        <time>2020-05-31T09:16:25Z</time>
      </trkpt>
      <trkpt lat="43.28421" lon="2.55458">
        <ele>131</ele>
        <time>2020-05-31T09:16:31Z</time>
      </trkpt>
      <trkpt lat="43.28412" lon="2.55464">
        <ele>131</ele>
        <time>2020-05-31T09:16:34Z</time>
      </trkpt>
      <trkpt lat="43.28399" lon="2.55472">
        <ele>131</ele>
        <time>2020-05-31T09:16:39Z</time>
      </trkpt>
      <trkpt lat="43.28379" lon="2.55475">
        <ele>132</ele>
        <time>2020-05-31T09:16:46Z</time>
      </trkpt>
      <trkpt lat="43.28376" lon="2.55474">
        <ele>132</ele>
        <time>2020-05-31T09:16:47Z</time>
      </trkpt>
      <trkpt lat="43.28363" lon="2.55464">
        <ele>134</ele>
        <time>2020-05-31T09:16:52Z</time>
      </trkpt>
      <trkpt lat="43.28361" lon="2.55462">
        <ele>134</ele>
        <time>2020-05-31T09:16:53Z</time>
      </trkpt>
      <trkpt lat="43.28354" lon="2.55448">
        <ele>135</ele>
        <time>2020-05-31T09:16:57Z</time>
      </trkpt>
      <trkpt lat="43.28351" lon="2.55439">
        <ele>136</ele>
        <time>2020-05-31T09:16:59Z</time>
      </trkpt>
      <trkpt lat="43.28348" lon="2.55422">
        <ele>138</ele>
        <time>2020-05-31T09:17:03Z</time>
      </trkpt>
      <trkpt lat="43.28349" lon="2.55414">
        <ele>138</ele>
        <time>2020-05-31T09:17:05Z</time>
      </trkpt>
      <trkpt lat="43.28349" lon="2.55409">
        <ele>138</ele>
        <time>2020-05-31T09:17:06Z</time>
      </trkpt>
      <trkpt lat="43.28355" lon="2.55381">
        <ele>140</ele>
        <time>2020-05-31T09:17:13Z</time>
      </trkpt>
      <trkpt lat="43.28356" lon="2.55377">
        <ele>140</ele>
        <time>2020-05-31T09:17:14Z</time>
      </trkpt>
      <trkpt lat="43.28363" lon="2.55352">
        <ele>141</ele>
        <time>2020-05-31T09:17:20Z</time>
      </trkpt>
      <trkpt lat="43.28366" lon="2.55343">
        <ele>141</ele>
        <time>2020-05-31T09:17:22Z</time>
      </trkpt>
      <trkpt lat="43.2837" lon="2.55327">
        <ele>142</ele>
        <time>2020-05-31T09:17:26Z</time>
      </trkpt>
      <trkpt lat="43.28374" lon="2.55314">
        <ele>142</ele>
        <time>2020-05-31T09:17:29Z</time>
      </trkpt>
      <trkpt lat="43.28378" lon="2.55298">
        <ele>143</ele>
        <time>2020-05-31T09:17:33Z</time>
      </trkpt>
      <trkpt lat="43.28383" lon="2.55276">
        <ele>144</ele>
        <time>2020-05-31T09:17:38Z</time>
      </trkpt>
      <trkpt lat="43.28385" lon="2.55268">
        <ele>144</ele>
        <time>2020-05-31T09:17:40Z</time>
      </trkpt>
      <trkpt lat="43.28391" lon="2.55237">
        <ele>145</ele>
        <time>2020-05-31T09:17:47Z</time>
      </trkpt>
      <trkpt lat="43.28393" lon="2.55205">
        <ele>146</ele>
        <time>2020-05-31T09:17:54Z</time>
      </trkpt>
      <trkpt lat="43.28393" lon="2.55186">
        <ele>146</ele>
        <time>2020-05-31T09:17:58Z</time>
      </trkpt>
      <trkpt lat="43.28394" lon="2.55161">
        <ele>146</ele>
        <time>2020-05-31T09:18:03Z</time>
      </trkpt>
      <trkpt lat="43.28395" lon="2.55117">
        <ele>148</ele>
        <time>2020-05-31T09:18:11Z</time>
      </trkpt>
      <trkpt lat="43.28395" lon="2.55111">
        <ele>148</ele>
        <time>2020-05-31T09:18:12Z</time>
      </trkpt>
      <trkpt lat="43.28396" lon="2.55075">
        <ele>149</ele>
        <time>2020-05-31T09:18:19Z</time>
      </trkpt>
      <trkpt lat="43.28396" lon="2.55065">
        <ele>150</ele>
        <time>2020-05-31T09:18:21Z</time>
      </trkpt>
      <trkpt lat="43.28397" lon="2.55028">
        <ele>151</ele>
        <time>2020-05-31T09:18:28Z</time>
      </trkpt>
      <trkpt lat="43.28397" lon="2.55018">
        <ele>150</ele>
        <time>2020-05-31T09:18:30Z</time>
      </trkpt>
      <trkpt lat="43.28399" lon="2.54987">
        <ele>150</ele>
        <time>2020-05-31T09:18:36Z</time>
      </trkpt>
      <trkpt lat="43.28397" lon="2.54945">
        <ele>150</ele>
        <time>2020-05-31T09:18:44Z</time>
      </trkpt>
      <trkpt lat="43.28395" lon="2.54935">
        <ele>151</ele>
        <time>2020-05-31T09:18:46Z</time>
      </trkpt>
      <trkpt lat="43.2838" lon="2.54902">
        <ele>152</ele>
        <time>2020-05-31T09:18:53Z</time>
      </trkpt>
      <trkpt lat="43.28366" lon="2.54876">
        <ele>153</ele>
        <time>2020-05-31T09:18:58Z</time>
      </trkpt>
      <trkpt lat="43.28358" lon="2.54863">
        <ele>154</ele>
        <time>2020-05-31T09:19:01Z</time>
      </trkpt>
      <trkpt lat="43.28337" lon="2.54828">
        <ele>155</ele>
        <time>2020-05-31T09:19:09Z</time>
      </trkpt>
      <trkpt lat="43.28328" lon="2.54817">
        <ele>155</ele>
        <time>2020-05-31T09:19:12Z</time>
      </trkpt>
      <trkpt lat="43.28314" lon="2.54799">
        <ele>156</ele>
        <time>2020-05-31T09:19:17Z</time>
      </trkpt>
      <trkpt lat="43.28304" lon="2.54788">
        <ele>156</ele>
        <time>2020-05-31T09:19:20Z</time>
      </trkpt>
      <trkpt lat="43.28289" lon="2.5477">
        <ele>156</ele>
        <time>2020-05-31T09:19:25Z</time>
      </trkpt>
      <trkpt lat="43.28284" lon="2.54762">
        <ele>157</ele>
        <time>2020-05-31T09:19:27Z</time>
      </trkpt>
      <trkpt lat="43.28257" lon="2.54726">
        <ele>157</ele>
        <time>2020-05-31T09:19:36Z</time>
      </trkpt>
      <trkpt lat="43.28254" lon="2.54721">
        <ele>158</ele>
        <time>2020-05-31T09:19:37Z</time>
      </trkpt>
      <trkpt lat="43.28233" lon="2.5469">
        <ele>157</ele>
        <time>2020-05-31T09:19:44Z</time>
      </trkpt>
      <trkpt lat="43.28226" lon="2.54681">
        <ele>157</ele>
        <time>2020-05-31T09:19:46Z</time>
      </trkpt>
      <trkpt lat="43.28223" lon="2.54677">
        <ele>157</ele>
        <time>2020-05-31T09:19:47Z</time>
      </trkpt>
      <trkpt lat="43.28214" lon="2.54663">
        <ele>157</ele>
        <time>2020-05-31T09:19:50Z</time>
      </trkpt>
      <trkpt lat="43.28195" lon="2.54631">
        <ele>157</ele>
        <time>2020-05-31T09:19:56Z</time>
      </trkpt>
      <trkpt lat="43.28192" lon="2.54625">
        <ele>157</ele>
        <time>2020-05-31T09:19:57Z</time>
      </trkpt>
      <trkpt lat="43.28187" lon="2.54612">
        <ele>158</ele>
        <time>2020-05-31T09:19:59Z</time>
      </trkpt>
      <trkpt lat="43.28186" lon="2.54605">
        <ele>158</ele>
        <time>2020-05-31T09:20:00Z</time>
      </trkpt>
      <trkpt lat="43.28184" lon="2.5459">
        <ele>158</ele>
        <time>2020-05-31T09:20:02Z</time>
      </trkpt>
      <trkpt lat="43.28185" lon="2.54568">
        <ele>158</ele>
        <time>2020-05-31T09:20:05Z</time>
      </trkpt>
      <trkpt lat="43.28194" lon="2.54491">
        <ele>161</ele>
        <time>2020-05-31T09:20:15Z</time>
      </trkpt>
      <trkpt lat="43.28196" lon="2.54475">
        <ele>161</ele>
        <time>2020-05-31T09:20:17Z</time>
      </trkpt>
      <trkpt lat="43.28203" lon="2.54419">
        <ele>161</ele>
        <time>2020-05-31T09:20:24Z</time>
      </trkpt>
      <trkpt lat="43.28205" lon="2.54395">
        <ele>161</ele>
        <time>2020-05-31T09:20:27Z</time>
      </trkpt>
      <trkpt lat="43.28213" lon="2.54333">
        <ele>162</ele>
        <time>2020-05-31T09:20:35Z</time>
      </trkpt>
      <trkpt lat="43.28225" lon="2.54288">
        <ele>162</ele>
        <time>2020-05-31T09:20:41Z</time>
      </trkpt>
      <trkpt lat="43.28227" lon="2.54281">
        <ele>162</ele>
        <time>2020-05-31T09:20:42Z</time>
      </trkpt>
      <trkpt lat="43.2823" lon="2.54274">
        <ele>162</ele>
        <time>2020-05-31T09:20:43Z</time>
      </trkpt>
      <trkpt lat="43.28245" lon="2.54235">
        <ele>162</ele>
        <time>2020-05-31T09:20:49Z</time>
      </trkpt>
      <trkpt lat="43.28255" lon="2.54208">
        <ele>162</ele>
        <time>2020-05-31T09:20:53Z</time>
      </trkpt>
      <trkpt lat="43.2827" lon="2.54168">
        <ele>162</ele>
        <time>2020-05-31T09:20:59Z</time>
      </trkpt>
      <trkpt lat="43.2829" lon="2.54117">
        <ele>164</ele>
        <time>2020-05-31T09:21:06Z</time>
      </trkpt>
      <trkpt lat="43.28306" lon="2.54074">
        <ele>163</ele>
        <time>2020-05-31T09:21:12Z</time>
      </trkpt>
      <trkpt lat="43.28309" lon="2.54067">
        <ele>163</ele>
        <time>2020-05-31T09:21:13Z</time>
      </trkpt>
      <trkpt lat="43.2832" lon="2.54038">
        <ele>162</ele>
        <time>2020-05-31T09:21:17Z</time>
      </trkpt>
      <trkpt lat="43.28334" lon="2.54001">
        <ele>162</ele>
        <time>2020-05-31T09:21:22Z</time>
      </trkpt>
      <trkpt lat="43.28347" lon="2.53964">
        <ele>162</ele>
        <time>2020-05-31T09:21:27Z</time>
      </trkpt>
      <trkpt lat="43.28364" lon="2.53903">
        <ele>163</ele>
        <time>2020-05-31T09:21:35Z</time>
      </trkpt>
      <trkpt lat="43.28374" lon="2.53864">
        <ele>163</ele>
        <time>2020-05-31T09:21:40Z</time>
      </trkpt>
      <trkpt lat="43.28386" lon="2.53827">
        <ele>164</ele>
        <time>2020-05-31T09:21:45Z</time>
      </trkpt>
      <trkpt lat="43.28391" lon="2.53812">
        <ele>164</ele>
        <time>2020-05-31T09:21:47Z</time>
      </trkpt>
      <trkpt lat="43.28393" lon="2.53805">
        <ele>164</ele>
        <time>2020-05-31T09:21:48Z</time>
      </trkpt>
      <trkpt lat="43.28403" lon="2.53775">
        <ele>164</ele>
        <time>2020-05-31T09:21:52Z</time>
      </trkpt>
      <trkpt lat="43.2841" lon="2.53753">
        <ele>164</ele>
        <time>2020-05-31T09:21:55Z</time>
      </trkpt>
      <trkpt lat="43.28432" lon="2.53685">
        <ele>165</ele>
        <time>2020-05-31T09:22:04Z</time>
      </trkpt>
      <trkpt lat="43.28455" lon="2.53615">
        <ele>166</ele>
        <time>2020-05-31T09:22:13Z</time>
      </trkpt>
      <trkpt lat="43.28457" lon="2.53608">
        <ele>166</ele>
        <time>2020-05-31T09:22:14Z</time>
      </trkpt>
      <trkpt lat="43.28473" lon="2.53559">
        <ele>166</ele>
        <time>2020-05-31T09:22:21Z</time>
      </trkpt>
      <trkpt lat="43.28474" lon="2.53552">
        <ele>167</ele>
        <time>2020-05-31T09:22:22Z</time>
      </trkpt>
      <trkpt lat="43.28483" lon="2.53501">
        <ele>167</ele>
        <time>2020-05-31T09:22:29Z</time>
      </trkpt>
      <trkpt lat="43.28486" lon="2.53454">
        <ele>167</ele>
        <time>2020-05-31T09:22:35Z</time>
      </trkpt>
      <trkpt lat="43.28485" lon="2.53437">
        <ele>167</ele>
        <time>2020-05-31T09:22:37Z</time>
      </trkpt>
      <trkpt lat="43.28474" lon="2.5338">
        <ele>168</ele>
        <time>2020-05-31T09:22:44Z</time>
      </trkpt>
      <trkpt lat="43.28472" lon="2.53372">
        <ele>168</ele>
        <time>2020-05-31T09:22:45Z</time>
      </trkpt>
      <trkpt lat="43.28462" lon="2.53306">
        <ele>165</ele>
        <time>2020-05-31T09:22:53Z</time>
      </trkpt>
      <trkpt lat="43.28462" lon="2.53286">
        <ele>164</ele>
        <time>2020-05-31T09:22:55Z</time>
      </trkpt>
      <trkpt lat="43.28463" lon="2.53276">
        <ele>163</ele>
        <time>2020-05-31T09:22:56Z</time>
      </trkpt>
      <trkpt lat="43.28464" lon="2.53265">
        <ele>162</ele>
        <time>2020-05-31T09:22:57Z</time>
      </trkpt>
      <trkpt lat="43.28471" lon="2.53221">
        <ele>161</ele>
        <time>2020-05-31T09:23:01Z</time>
      </trkpt>
      <trkpt lat="43.28473" lon="2.53209">
        <ele>162</ele>
        <time>2020-05-31T09:23:02Z</time>
      </trkpt>
      <trkpt lat="43.28475" lon="2.53197">
        <ele>162</ele>
        <time>2020-05-31T09:23:03Z</time>
      </trkpt>
      <trkpt lat="43.28483" lon="2.53159">
        <ele>161</ele>
        <time>2020-05-31T09:23:06Z</time>
      </trkpt>
      <trkpt lat="43.28488" lon="2.53131">
        <ele>160</ele>
        <time>2020-05-31T09:23:08Z</time>
      </trkpt>
      <trkpt lat="43.28489" lon="2.53117">
        <ele>159</ele>
        <time>2020-05-31T09:23:09Z</time>
      </trkpt>
      <trkpt lat="43.28492" lon="2.53087">
        <ele>156</ele>
        <time>2020-05-31T09:23:11Z</time>
      </trkpt>
      <trkpt lat="43.28493" lon="2.53055">
        <ele>154</ele>
        <time>2020-05-31T09:23:13Z</time>
      </trkpt>
      <trkpt lat="43.28494" lon="2.5304">
        <ele>153</ele>
        <time>2020-05-31T09:23:14Z</time>
      </trkpt>
      <trkpt lat="43.28496" lon="2.52991">
        <ele>154</ele>
        <time>2020-05-31T09:23:17Z</time>
      </trkpt>
      <trkpt lat="43.28495" lon="2.52957">
        <ele>155</ele>
        <time>2020-05-31T09:23:19Z</time>
      </trkpt>
      <trkpt lat="43.28494" lon="2.5294">
        <ele>155</ele>
        <time>2020-05-31T09:23:20Z</time>
      </trkpt>
      <trkpt lat="43.28487" lon="2.52888">
        <ele>151</ele>
        <time>2020-05-31T09:23:23Z</time>
      </trkpt>
      <trkpt lat="43.28482" lon="2.52852">
        <ele>152</ele>
        <time>2020-05-31T09:23:25Z</time>
      </trkpt>
      <trkpt lat="43.2848" lon="2.52816">
        <ele>149</ele>
        <time>2020-05-31T09:23:27Z</time>
      </trkpt>
      <trkpt lat="43.28481" lon="2.52797">
        <ele>148</ele>
        <time>2020-05-31T09:23:28Z</time>
      </trkpt>
      <trkpt lat="43.28481" lon="2.52778">
        <ele>147</ele>
        <time>2020-05-31T09:23:29Z</time>
      </trkpt>
      <trkpt lat="43.28484" lon="2.5274">
        <ele>142</ele>
        <time>2020-05-31T09:23:31Z</time>
      </trkpt>
      <trkpt lat="43.28483" lon="2.52702">
        <ele>138</ele>
        <time>2020-05-31T09:23:33Z</time>
      </trkpt>
      <trkpt lat="43.2848" lon="2.52684">
        <ele>137</ele>
        <time>2020-05-31T09:23:34Z</time>
      </trkpt>
      <trkpt lat="43.28474" lon="2.52666">
        <ele>137</ele>
        <time>2020-05-31T09:23:35Z</time>
      </trkpt>
      <trkpt lat="43.28466" lon="2.5265">
        <ele>137</ele>
        <time>2020-05-31T09:23:36Z</time>
      </trkpt>
      <trkpt lat="43.28457" lon="2.52636">
        <ele>136</ele>
        <time>2020-05-31T09:23:37Z</time>
      </trkpt>
      <trkpt lat="43.28447" lon="2.52624">
        <ele>134</ele>
        <time>2020-05-31T09:23:38Z</time>
      </trkpt>
      <trkpt lat="43.28424" lon="2.52603">
        <ele>133</ele>
        <time>2020-05-31T09:23:40Z</time>
      </trkpt>
      <trkpt lat="43.28402" lon="2.52582">
        <ele>132</ele>
        <time>2020-05-31T09:23:42Z</time>
      </trkpt>
      <trkpt lat="43.28392" lon="2.5257">
        <ele>131</ele>
        <time>2020-05-31T09:23:43Z</time>
      </trkpt>
      <trkpt lat="43.28382" lon="2.52557">
        <ele>130</ele>
        <time>2020-05-31T09:23:44Z</time>
      </trkpt>
      <trkpt lat="43.28374" lon="2.52543">
        <ele>129</ele>
        <time>2020-05-31T09:23:45Z</time>
      </trkpt>
      <trkpt lat="43.2836" lon="2.52512">
        <ele>129</ele>
        <time>2020-05-31T09:23:47Z</time>
      </trkpt>
      <trkpt lat="43.28352" lon="2.52498">
        <ele>128</ele>
        <time>2020-05-31T09:23:48Z</time>
      </trkpt>
      <trkpt lat="43.28342" lon="2.52486">
        <ele>128</ele>
        <time>2020-05-31T09:23:49Z</time>
      </trkpt>
      <trkpt lat="43.28331" lon="2.52476">
        <ele>127</ele>
        <time>2020-05-31T09:23:50Z</time>
      </trkpt>
      <trkpt lat="43.28319" lon="2.52468">
        <ele>126</ele>
        <time>2020-05-31T09:23:51Z</time>
      </trkpt>
      <trkpt lat="43.28307" lon="2.52462">
        <ele>125</ele>
        <time>2020-05-31T09:23:52Z</time>
      </trkpt>
      <trkpt lat="43.28295" lon="2.52455">
        <ele>124</ele>
        <time>2020-05-31T09:23:53Z</time>
      </trkpt>
      <trkpt lat="43.28272" lon="2.52439">
        <ele>123</ele>
        <time>2020-05-31T09:23:55Z</time>
      </trkpt>
      <trkpt lat="43.28262" lon="2.5243">
        <ele>123</ele>
        <time>2020-05-31T09:23:56Z</time>
      </trkpt>
      <trkpt lat="43.28251" lon="2.5242">
        <ele>123</ele>
        <time>2020-05-31T09:23:57Z</time>
      </trkpt>
      <trkpt lat="43.28241" lon="2.52411">
        <ele>122</ele>
        <time>2020-05-31T09:23:58Z</time>
      </trkpt>
      <trkpt lat="43.28196" lon="2.5238">
        <ele>119</ele>
        <time>2020-05-31T09:24:02Z</time>
      </trkpt>
      <trkpt lat="43.28172" lon="2.52369">
        <ele>117</ele>
        <time>2020-05-31T09:24:04Z</time>
      </trkpt>
      <trkpt lat="43.2816" lon="2.52363">
        <ele>117</ele>
        <time>2020-05-31T09:24:05Z</time>
      </trkpt>
      <trkpt lat="43.28148" lon="2.52357">
        <ele>117</ele>
        <time>2020-05-31T09:24:06Z</time>
      </trkpt>
      <trkpt lat="43.28124" lon="2.52345">
        <ele>115</ele>
        <time>2020-05-31T09:24:08Z</time>
      </trkpt>
      <trkpt lat="43.28111" lon="2.5234">
        <ele>115</ele>
        <time>2020-05-31T09:24:09Z</time>
      </trkpt>
      <trkpt lat="43.28099" lon="2.52335">
        <ele>114</ele>
        <time>2020-05-31T09:24:10Z</time>
      </trkpt>
      <trkpt lat="43.28087" lon="2.52331">
        <ele>113</ele>
        <time>2020-05-31T09:24:11Z</time>
      </trkpt>
      <trkpt lat="43.28075" lon="2.5233">
        <ele>112</ele>
        <time>2020-05-31T09:24:12Z</time>
      </trkpt>
      <trkpt lat="43.28063" lon="2.5233">
        <ele>111</ele>
        <time>2020-05-31T09:24:13Z</time>
      </trkpt>
      <trkpt lat="43.28038" lon="2.5233">
        <ele>110</ele>
        <time>2020-05-31T09:24:15Z</time>
      </trkpt>
      <trkpt lat="43.28014" lon="2.5232">
        <ele>108</ele>
        <time>2020-05-31T09:24:17Z</time>
      </trkpt>
      <trkpt lat="43.28003" lon="2.52313">
        <ele>107</ele>
        <time>2020-05-31T09:24:18Z</time>
      </trkpt>
      <trkpt lat="43.27992" lon="2.52306">
        <ele>107</ele>
        <time>2020-05-31T09:24:19Z</time>
      </trkpt>
      <trkpt lat="43.27969" lon="2.52292">
        <ele>105</ele>
        <time>2020-05-31T09:24:21Z</time>
      </trkpt>
      <trkpt lat="43.27946" lon="2.52278">
        <ele>105</ele>
        <time>2020-05-31T09:24:23Z</time>
      </trkpt>
      <trkpt lat="43.27934" lon="2.52272">
        <ele>104</ele>
        <time>2020-05-31T09:24:24Z</time>
      </trkpt>
      <trkpt lat="43.27922" lon="2.52267">
        <ele>104</ele>
        <time>2020-05-31T09:24:25Z</time>
      </trkpt>
      <trkpt lat="43.2791" lon="2.52264">
        <ele>103</ele>
        <time>2020-05-31T09:24:26Z</time>
      </trkpt>
      <trkpt lat="43.27898" lon="2.52259">
        <ele>102</ele>
        <time>2020-05-31T09:24:27Z</time>
      </trkpt>
      <trkpt lat="43.27888" lon="2.52253">
        <ele>102</ele>
        <time>2020-05-31T09:24:28Z</time>
      </trkpt>
      <trkpt lat="43.27878" lon="2.52244">
        <ele>101</ele>
        <time>2020-05-31T09:24:29Z</time>
      </trkpt>
      <trkpt lat="43.27871" lon="2.52232">
        <ele>100</ele>
        <time>2020-05-31T09:24:30Z</time>
      </trkpt>
      <trkpt lat="43.27866" lon="2.52218">
        <ele>100</ele>
        <time>2020-05-31T09:24:31Z</time>
      </trkpt>
      <trkpt lat="43.27863" lon="2.52203">
        <ele>100</ele>
        <time>2020-05-31T09:24:32Z</time>
      </trkpt>
      <trkpt lat="43.27861" lon="2.52187">
        <ele>99</ele>
        <time>2020-05-31T09:24:33Z</time>
      </trkpt>
      <trkpt lat="43.27859" lon="2.52172">
        <ele>99</ele>
        <time>2020-05-31T09:24:34Z</time>
      </trkpt>
      <trkpt lat="43.27857" lon="2.52158">
        <ele>98</ele>
        <time>2020-05-31T09:24:35Z</time>
      </trkpt>
      <trkpt lat="43.27852" lon="2.52145">
        <ele>98</ele>
        <time>2020-05-31T09:24:36Z</time>
      </trkpt>
      <trkpt lat="43.27845" lon="2.52134">
        <ele>98</ele>
        <time>2020-05-31T09:24:37Z</time>
      </trkpt>
      <trkpt lat="43.27836" lon="2.52126">
        <ele>97</ele>
        <time>2020-05-31T09:24:38Z</time>
      </trkpt>
      <trkpt lat="43.27827" lon="2.52123">
        <ele>95</ele>
        <time>2020-05-31T09:24:39Z</time>
      </trkpt>
      <trkpt lat="43.27817" lon="2.52124">
        <ele>94</ele>
        <time>2020-05-31T09:24:40Z</time>
      </trkpt>
      <trkpt lat="43.27809" lon="2.5213">
        <ele>93</ele>
        <time>2020-05-31T09:24:41Z</time>
      </trkpt>
      <trkpt lat="43.27801" lon="2.5214">
        <ele>92</ele>
        <time>2020-05-31T09:24:42Z</time>
      </trkpt>
      <trkpt lat="43.27786" lon="2.5216">
        <ele>90</ele>
        <time>2020-05-31T09:24:44Z</time>
      </trkpt>
      <trkpt lat="43.27777" lon="2.52168">
        <ele>89</ele>
        <time>2020-05-31T09:24:45Z</time>
      </trkpt>
      <trkpt lat="43.27768" lon="2.52172">
        <ele>88</ele>
        <time>2020-05-31T09:24:46Z</time>
      </trkpt>
      <trkpt lat="43.27749" lon="2.52167">
        <ele>85</ele>
        <time>2020-05-31T09:24:48Z</time>
      </trkpt>
      <trkpt lat="43.2774" lon="2.52162">
        <ele>85</ele>
        <time>2020-05-31T09:24:49Z</time>
      </trkpt>
      <trkpt lat="43.27702" lon="2.52141">
        <ele>85</ele>
        <time>2020-05-31T09:24:53Z</time>
      </trkpt>
      <trkpt lat="43.27693" lon="2.52136">
        <ele>86</ele>
        <time>2020-05-31T09:24:54Z</time>
      </trkpt>
      <trkpt lat="43.27652" lon="2.52111">
        <ele>87</ele>
        <time>2020-05-31T09:24:59Z</time>
      </trkpt>
      <trkpt lat="43.27631" lon="2.52095">
        <ele>87</ele>
        <time>2020-05-31T09:25:02Z</time>
      </trkpt>
      <trkpt lat="43.27619" lon="2.52082">
        <ele>86</ele>
        <time>2020-05-31T09:25:04Z</time>
      </trkpt>
      <trkpt lat="43.27609" lon="2.52067">
        <ele>86</ele>
        <time>2020-05-31T09:25:06Z</time>
      </trkpt>
      <trkpt lat="43.27595" lon="2.52042">
        <ele>86</ele>
        <time>2020-05-31T09:25:09Z</time>
      </trkpt>
      <trkpt lat="43.27576" lon="2.5201">
        <ele>86</ele>
        <time>2020-05-31T09:25:13Z</time>
      </trkpt>
      <trkpt lat="43.27567" lon="2.51994">
        <ele>86</ele>
        <time>2020-05-31T09:25:15Z</time>
      </trkpt>
      <trkpt lat="43.27549" lon="2.51963">
        <ele>85</ele>
        <time>2020-05-31T09:25:20Z</time>
      </trkpt>
      <trkpt lat="43.27541" lon="2.51957">
        <ele>85</ele>
        <time>2020-05-31T09:25:24Z</time>
      </trkpt>
      <trkpt lat="43.27534" lon="2.51956">
        <ele>85</ele>
        <time>2020-05-31T09:25:26Z</time>
      </trkpt>
      <trkpt lat="43.27526" lon="2.51956">
        <ele>84</ele>
        <time>2020-05-31T09:25:28Z</time>
      </trkpt>
      <trkpt lat="43.27522" lon="2.51956">
        <ele>84</ele>
        <time>2020-05-31T09:25:29Z</time>
      </trkpt>
      <trkpt lat="43.27507" lon="2.51956">
        <ele>83</ele>
        <time>2020-05-31T09:25:32Z</time>
      </trkpt>
      <trkpt lat="43.27487" lon="2.51958">
        <ele>82</ele>
        <time>2020-05-31T09:25:36Z</time>
      </trkpt>
      <trkpt lat="43.27482" lon="2.51958">
        <ele>81</ele>
        <time>2020-05-31T09:25:37Z</time>
      </trkpt>
      <trkpt lat="43.27477" lon="2.51958">
        <ele>81</ele>
        <time>2020-05-31T09:25:38Z</time>
      </trkpt>
      <trkpt lat="43.27457" lon="2.5196">
        <ele>80</ele>
        <time>2020-05-31T09:25:42Z</time>
      </trkpt>
      <trkpt lat="43.27441" lon="2.51961">
        <ele>80</ele>
        <time>2020-05-31T09:25:45Z</time>
      </trkpt>
      <trkpt lat="43.27435" lon="2.51962">
        <ele>80</ele>
        <time>2020-05-31T09:25:46Z</time>
      </trkpt>
      <trkpt lat="43.2742" lon="2.51962">
        <ele>81</ele>
        <time>2020-05-31T09:25:49Z</time>
      </trkpt>
      <trkpt lat="43.27377" lon="2.51963">
        <ele>82</ele>
        <time>2020-05-31T09:25:57Z</time>
      </trkpt>
      <trkpt lat="43.27372" lon="2.51963">
        <ele>82</ele>
        <time>2020-05-31T09:25:58Z</time>
      </trkpt>
      <trkpt lat="43.27355" lon="2.51964">
        <ele>83</ele>
        <time>2020-05-31T09:26:01Z</time>
      </trkpt>
      <trkpt lat="43.27344" lon="2.51965">
        <ele>83</ele>
        <time>2020-05-31T09:26:03Z</time>
      </trkpt>
      <trkpt lat="43.27323" lon="2.51967">
        <ele>84</ele>
        <time>2020-05-31T09:26:07Z</time>
      </trkpt>
      <trkpt lat="43.27299" lon="2.51971">
        <ele>84</ele>
        <time>2020-05-31T09:26:11Z</time>
      </trkpt>
      <trkpt lat="43.27276" lon="2.51973">
        <ele>83</ele>
        <time>2020-05-31T09:26:15Z</time>
      </trkpt>
      <trkpt lat="43.2727" lon="2.51971">
        <ele>84</ele>
        <time>2020-05-31T09:26:16Z</time>
      </trkpt>
      <trkpt lat="43.27262" lon="2.51965">
        <ele>84</ele>
        <time>2020-05-31T09:26:18Z</time>
      </trkpt>
      <trkpt lat="43.27259" lon="2.5196">
        <ele>84</ele>
        <time>2020-05-31T09:26:19Z</time>
      </trkpt>
      <trkpt lat="43.27256" lon="2.51955">
        <ele>84</ele>
        <time>2020-05-31T09:26:20Z</time>
      </trkpt>
      <trkpt lat="43.27247" lon="2.51938">
        <ele>85</ele>
        <time>2020-05-31T09:26:23Z</time>
      </trkpt>
      <trkpt lat="43.27235" lon="2.5191">
        <ele>85</ele>
        <time>2020-05-31T09:26:28Z</time>
      </trkpt>
      <trkpt lat="43.27232" lon="2.51905">
        <ele>85</ele>
        <time>2020-05-31T09:26:29Z</time>
      </trkpt>
      <trkpt lat="43.27222" lon="2.51885">
        <ele>86</ele>
        <time>2020-05-31T09:26:33Z</time>
      </trkpt>
      <trkpt lat="43.27219" lon="2.5188">
        <ele>87</ele>
        <time>2020-05-31T09:26:34Z</time>
      </trkpt>
      <trkpt lat="43.27214" lon="2.51869">
        <ele>87</ele>
        <time>2020-05-31T09:26:36Z</time>
      </trkpt>
      <trkpt lat="43.27211" lon="2.51865">
        <ele>88</ele>
        <time>2020-05-31T09:26:37Z</time>
      </trkpt>
      <trkpt lat="43.27209" lon="2.51861">
        <ele>88</ele>
        <time>2020-05-31T09:26:38Z</time>
      </trkpt>
      <trkpt lat="43.27203" lon="2.51853">
        <ele>89</ele>
        <time>2020-05-31T09:26:40Z</time>
      </trkpt>
      <trkpt lat="43.27195" lon="2.51847">
        <ele>89</ele>
        <time>2020-05-31T09:26:42Z</time>
      </trkpt>
      <trkpt lat="43.27191" lon="2.51846">
        <ele>90</ele>
        <time>2020-05-31T09:26:43Z</time>
      </trkpt>
      <trkpt lat="43.27183" lon="2.51843">
        <ele>91</ele>
        <time>2020-05-31T09:26:45Z</time>
      </trkpt>
      <trkpt lat="43.27166" lon="2.51837">
        <ele>93</ele>
        <time>2020-05-31T09:26:50Z</time>
      </trkpt>
      <trkpt lat="43.2715" lon="2.51832">
        <ele>93</ele>
        <time>2020-05-31T09:26:55Z</time>
      </trkpt>
      <trkpt lat="43.27146" lon="2.51831">
        <ele>93</ele>
        <time>2020-05-31T09:26:56Z</time>
      </trkpt>
      <trkpt lat="43.27121" lon="2.5183">
        <ele>91</ele>
        <time>2020-05-31T09:27:03Z</time>
      </trkpt>
      <trkpt lat="43.27117" lon="2.51831">
        <ele>91</ele>
        <time>2020-05-31T09:27:04Z</time>
      </trkpt>
      <trkpt lat="43.27113" lon="2.51832">
        <ele>91</ele>
        <time>2020-05-31T09:27:05Z</time>
      </trkpt>
      <trkpt lat="43.271" lon="2.51837">
        <ele>90</ele>
        <time>2020-05-31T09:27:08Z</time>
      </trkpt>
      <trkpt lat="43.27096" lon="2.5184">
        <ele>90</ele>
        <time>2020-05-31T09:27:09Z</time>
      </trkpt>
      <trkpt lat="43.27074" lon="2.51862">
        <ele>90</ele>
        <time>2020-05-31T09:27:15Z</time>
      </trkpt>
      <trkpt lat="43.27069" lon="2.51866">
        <ele>90</ele>
        <time>2020-05-31T09:27:16Z</time>
      </trkpt>
      <trkpt lat="43.27057" lon="2.51869">
        <ele>90</ele>
        <time>2020-05-31T09:27:18Z</time>
      </trkpt>
      <trkpt lat="43.27051" lon="2.51868">
        <ele>90</ele>
        <time>2020-05-31T09:27:19Z</time>
      </trkpt>
      <trkpt lat="43.27045" lon="2.51865">
        <ele>89</ele>
        <time>2020-05-31T09:27:20Z</time>
      </trkpt>
      <trkpt lat="43.27039" lon="2.51863">
        <ele>89</ele>
        <time>2020-05-31T09:27:21Z</time>
      </trkpt>
      <trkpt lat="43.27021" lon="2.51856">
        <ele>88</ele>
        <time>2020-05-31T09:27:24Z</time>
      </trkpt>
      <trkpt lat="43.2701" lon="2.5185">
        <ele>87</ele>
        <time>2020-05-31T09:27:26Z</time>
      </trkpt>
      <trkpt lat="43.27004" lon="2.51845">
        <ele>87</ele>
        <time>2020-05-31T09:27:27Z</time>
      </trkpt>
      <trkpt lat="43.26978" lon="2.51827">
        <ele>87</ele>
        <time>2020-05-31T09:27:31Z</time>
      </trkpt>
      <trkpt lat="43.26964" lon="2.51817">
        <ele>86</ele>
        <time>2020-05-31T09:27:33Z</time>
      </trkpt>
      <trkpt lat="43.26944" lon="2.51801">
        <ele>86</ele>
        <time>2020-05-31T09:27:36Z</time>
      </trkpt>
      <trkpt lat="43.2693" lon="2.5179">
        <ele>85</ele>
        <time>2020-05-31T09:27:38Z</time>
      </trkpt>
      <trkpt lat="43.26923" lon="2.51786">
        <ele>84</ele>
        <time>2020-05-31T09:27:39Z</time>
      </trkpt>
      <trkpt lat="43.26916" lon="2.51781">
        <ele>84</ele>
        <time>2020-05-31T09:27:40Z</time>
      </trkpt>
      <trkpt lat="43.26896" lon="2.51767">
        <ele>83</ele>
        <time>2020-05-31T09:27:43Z</time>
      </trkpt>
      <trkpt lat="43.26871" lon="2.5175">
        <ele>83</ele>
        <time>2020-05-31T09:27:47Z</time>
      </trkpt>
      <trkpt lat="43.2685" lon="2.51734">
        <ele>84</ele>
        <time>2020-05-31T09:27:52Z</time>
      </trkpt>
      <trkpt lat="43.26841" lon="2.51729">
        <ele>84</ele>
        <time>2020-05-31T09:27:54Z</time>
      </trkpt>
      <trkpt lat="43.26832" lon="2.51724">
        <ele>84</ele>
        <time>2020-05-31T09:27:56Z</time>
      </trkpt>
      <trkpt lat="43.26828" lon="2.51722">
        <ele>85</ele>
        <time>2020-05-31T09:27:57Z</time>
      </trkpt>
      <trkpt lat="43.26814" lon="2.51713">
        <ele>86</ele>
        <time>2020-05-31T09:28:00Z</time>
      </trkpt>
      <trkpt lat="43.26795" lon="2.51702">
        <ele>86</ele>
        <time>2020-05-31T09:28:04Z</time>
      </trkpt>
      <trkpt lat="43.26786" lon="2.51697">
        <ele>87</ele>
        <time>2020-05-31T09:28:06Z</time>
      </trkpt>
      <trkpt lat="43.26761" lon="2.51684">
        <ele>89</ele>
        <time>2020-05-31T09:28:11Z</time>
      </trkpt>
      <trkpt lat="43.26752" lon="2.51681">
        <ele>90</ele>
        <time>2020-05-31T09:28:13Z</time>
      </trkpt>
      <trkpt lat="43.26748" lon="2.51679">
        <ele>90</ele>
        <time>2020-05-31T09:28:14Z</time>
      </trkpt>
      <trkpt lat="43.2674" lon="2.51674">
        <ele>91</ele>
        <time>2020-05-31T09:28:16Z</time>
      </trkpt>
      <trkpt lat="43.26732" lon="2.51669">
        <ele>92</ele>
        <time>2020-05-31T09:28:18Z</time>
      </trkpt>
      <trkpt lat="43.26725" lon="2.51663">
        <ele>92</ele>
        <time>2020-05-31T09:28:20Z</time>
      </trkpt>
      <trkpt lat="43.26717" lon="2.51657">
        <ele>93</ele>
        <time>2020-05-31T09:28:22Z</time>
      </trkpt>
      <trkpt lat="43.26713" lon="2.51653">
        <ele>93</ele>
        <time>2020-05-31T09:28:23Z</time>
      </trkpt>
      <trkpt lat="43.26706" lon="2.51644">
        <ele>94</ele>
        <time>2020-05-31T09:28:25Z</time>
      </trkpt>
      <trkpt lat="43.26697" lon="2.51631">
        <ele>94</ele>
        <time>2020-05-31T09:28:28Z</time>
      </trkpt>
      <trkpt lat="43.26691" lon="2.51622">
        <ele>94</ele>
        <time>2020-05-31T09:28:30Z</time>
      </trkpt>
      <trkpt lat="43.26686" lon="2.51612">
        <ele>94</ele>
        <time>2020-05-31T09:28:32Z</time>
      </trkpt>
      <trkpt lat="43.2668" lon="2.51602">
        <ele>94</ele>
        <time>2020-05-31T09:28:34Z</time>
      </trkpt>
      <trkpt lat="43.26677" lon="2.51597">
        <ele>94</ele>
        <time>2020-05-31T09:28:35Z</time>
      </trkpt>
      <trkpt lat="43.26668" lon="2.51575">
        <ele>93</ele>
        <time>2020-05-31T09:28:39Z</time>
      </trkpt>
      <trkpt lat="43.26655" lon="2.51544">
        <ele>92</ele>
        <time>2020-05-31T09:28:44Z</time>
      </trkpt>
      <trkpt lat="43.26652" lon="2.51537">
        <ele>92</ele>
        <time>2020-05-31T09:28:45Z</time>
      </trkpt>
      <trkpt lat="43.2665" lon="2.51531">
        <ele>92</ele>
        <time>2020-05-31T09:28:46Z</time>
      </trkpt>
      <trkpt lat="43.26631" lon="2.51488">
        <ele>92</ele>
        <time>2020-05-31T09:28:52Z</time>
      </trkpt>
      <trkpt lat="43.26621" lon="2.51467">
        <ele>91</ele>
        <time>2020-05-31T09:28:55Z</time>
      </trkpt>
      <trkpt lat="43.26604" lon="2.51429">
        <ele>91</ele>
        <time>2020-05-31T09:29:00Z</time>
      </trkpt>
      <trkpt lat="43.26587" lon="2.51378">
        <ele>90</ele>
        <time>2020-05-31T09:29:06Z</time>
      </trkpt>
      <trkpt lat="43.26582" lon="2.51359">
        <ele>90</ele>
        <time>2020-05-31T09:29:08Z</time>
      </trkpt>
      <trkpt lat="43.26579" lon="2.51351">
        <ele>90</ele>
        <time>2020-05-31T09:29:09Z</time>
      </trkpt>
      <trkpt lat="43.26571" lon="2.51334">
        <ele>90</ele>
        <time>2020-05-31T09:29:11Z</time>
      </trkpt>
      <trkpt lat="43.26567" lon="2.51326">
        <ele>89</ele>
        <time>2020-05-31T09:29:12Z</time>
      </trkpt>
      <trkpt lat="43.26555" lon="2.51314">
        <ele>88</ele>
        <time>2020-05-31T09:29:14Z</time>
      </trkpt>
      <trkpt lat="43.26542" lon="2.51306">
        <ele>88</ele>
        <time>2020-05-31T09:29:16Z</time>
      </trkpt>
      <trkpt lat="43.26528" lon="2.51301">
        <ele>87</ele>
        <time>2020-05-31T09:29:18Z</time>
      </trkpt>
      <trkpt lat="43.26513" lon="2.51301">
        <ele>85</ele>
        <time>2020-05-31T09:29:20Z</time>
      </trkpt>
      <trkpt lat="43.2649" lon="2.51304">
        <ele>84</ele>
        <time>2020-05-31T09:29:23Z</time>
      </trkpt>
      <trkpt lat="43.26474" lon="2.5131">
        <ele>83</ele>
        <time>2020-05-31T09:29:25Z</time>
      </trkpt>
      <trkpt lat="43.26465" lon="2.51312">
        <ele>82</ele>
        <time>2020-05-31T09:29:26Z</time>
      </trkpt>
      <trkpt lat="43.26416" lon="2.51329">
        <ele>79</ele>
        <time>2020-05-31T09:29:32Z</time>
      </trkpt>
      <trkpt lat="43.26408" lon="2.51332">
        <ele>79</ele>
        <time>2020-05-31T09:29:33Z</time>
      </trkpt>
      <trkpt lat="43.264" lon="2.51333">
        <ele>79</ele>
        <time>2020-05-31T09:29:34Z</time>
      </trkpt>
      <trkpt lat="43.26383" lon="2.51329">
        <ele>78</ele>
        <time>2020-05-31T09:29:36Z</time>
      </trkpt>
      <trkpt lat="43.26338" lon="2.51302">
        <ele>77</ele>
        <time>2020-05-31T09:29:42Z</time>
      </trkpt>
      <trkpt lat="43.26311" lon="2.51281">
        <ele>76</ele>
        <time>2020-05-31T09:29:46Z</time>
      </trkpt>
      <trkpt lat="43.26306" lon="2.51273">
        <ele>76</ele>
        <time>2020-05-31T09:29:47Z</time>
      </trkpt>
      <trkpt lat="43.26301" lon="2.51265">
        <ele>76</ele>
        <time>2020-05-31T09:29:48Z</time>
      </trkpt>
      <trkpt lat="43.26292" lon="2.51247">
        <ele>76</ele>
        <time>2020-05-31T09:29:50Z</time>
      </trkpt>
      <trkpt lat="43.26288" lon="2.51238">
        <ele>76</ele>
        <time>2020-05-31T09:29:51Z</time>
      </trkpt>
      <trkpt lat="43.26258" lon="2.51179">
        <ele>76</ele>
        <time>2020-05-31T09:29:58Z</time>
      </trkpt>
      <trkpt lat="43.26246" lon="2.51167">
        <ele>76</ele>
        <time>2020-05-31T09:30:00Z</time>
      </trkpt>
      <trkpt lat="43.26232" lon="2.51159">
        <ele>76</ele>
        <time>2020-05-31T09:30:02Z</time>
      </trkpt>
      <trkpt lat="43.26175" lon="2.51133">
        <ele>76</ele>
        <time>2020-05-31T09:30:10Z</time>
      </trkpt>
      <trkpt lat="43.26168" lon="2.51129">
        <ele>76</ele>
        <time>2020-05-31T09:30:11Z</time>
      </trkpt>
      <trkpt lat="43.26131" lon="2.51099">
        <ele>78</ele>
        <time>2020-05-31T09:30:17Z</time>
      </trkpt>
      <trkpt lat="43.26089" lon="2.5105">
        <ele>77</ele>
        <time>2020-05-31T09:30:25Z</time>
      </trkpt>
      <trkpt lat="43.26084" lon="2.51045">
        <ele>77</ele>
        <time>2020-05-31T09:30:26Z</time>
      </trkpt>
      <trkpt lat="43.26074" lon="2.51035">
        <ele>77</ele>
        <time>2020-05-31T09:30:28Z</time>
      </trkpt>
      <trkpt lat="43.26056" lon="2.51024">
        <ele>78</ele>
        <time>2020-05-31T09:30:31Z</time>
      </trkpt>
      <trkpt lat="43.26043" lon="2.51019">
        <ele>78</ele>
        <time>2020-05-31T09:30:33Z</time>
      </trkpt>
      <trkpt lat="43.26023" lon="2.51013">
        <ele>78</ele>
        <time>2020-05-31T09:30:36Z</time>
      </trkpt>
      <trkpt lat="43.26017" lon="2.51009">
        <ele>78</ele>
        <time>2020-05-31T09:30:37Z</time>
      </trkpt>
      <trkpt lat="43.2601" lon="2.51005">
        <ele>78</ele>
        <time>2020-05-31T09:30:38Z</time>
      </trkpt>
      <trkpt lat="43.26005" lon="2.51">
        <ele>78</ele>
        <time>2020-05-31T09:30:39Z</time>
      </trkpt>
      <trkpt lat="43.26" lon="2.50994">
        <ele>77</ele>
        <time>2020-05-31T09:30:40Z</time>
      </trkpt>
      <trkpt lat="43.25995" lon="2.50987">
        <ele>77</ele>
        <time>2020-05-31T09:30:41Z</time>
      </trkpt>
      <trkpt lat="43.25978" lon="2.50958">
        <ele>77</ele>
        <time>2020-05-31T09:30:45Z</time>
      </trkpt>
      <trkpt lat="43.25941" lon="2.50896">
        <ele>78</ele>
        <time>2020-05-31T09:30:54Z</time>
      </trkpt>
      <trkpt lat="43.25936" lon="2.50891">
        <ele>78</ele>
        <time>2020-05-31T09:30:55Z</time>
      </trkpt>
      <trkpt lat="43.25931" lon="2.50886">
        <ele>78</ele>
        <time>2020-05-31T09:30:56Z</time>
      </trkpt>
      <trkpt lat="43.2592" lon="2.50879">
        <ele>79</ele>
        <time>2020-05-31T09:30:58Z</time>
      </trkpt>
      <trkpt lat="43.25915" lon="2.50878">
        <ele>79</ele>
        <time>2020-05-31T09:30:59Z</time>
      </trkpt>
      <trkpt lat="43.25909" lon="2.50879">
        <ele>79</ele>
        <time>2020-05-31T09:31:00Z</time>
      </trkpt>
      <trkpt lat="43.25897" lon="2.50883">
        <ele>80</ele>
        <time>2020-05-31T09:31:02Z</time>
      </trkpt>
      <trkpt lat="43.25892" lon="2.50887">
        <ele>80</ele>
        <time>2020-05-31T09:31:03Z</time>
      </trkpt>
      <trkpt lat="43.25871" lon="2.50903">
        <ele>80</ele>
        <time>2020-05-31T09:31:07Z</time>
      </trkpt>
      <trkpt lat="43.25851" lon="2.50919">
        <ele>80</ele>
        <time>2020-05-31T09:31:11Z</time>
      </trkpt>
      <trkpt lat="43.25814" lon="2.50945">
        <ele>79</ele>
        <time>2020-05-31T09:31:18Z</time>
      </trkpt>
      <trkpt lat="43.25804" lon="2.50948">
        <ele>78</ele>
        <time>2020-05-31T09:31:20Z</time>
      </trkpt>
      <trkpt lat="43.25757" lon="2.5095">
        <ele>77</ele>
        <time>2020-05-31T09:31:28Z</time>
      </trkpt>
      <trkpt lat="43.25745" lon="2.50951">
        <ele>77</ele>
        <time>2020-05-31T09:31:30Z</time>
      </trkpt>
      <trkpt lat="43.25687" lon="2.50953">
        <ele>76</ele>
        <time>2020-05-31T09:31:40Z</time>
      </trkpt>
      <trkpt lat="43.25636" lon="2.50953">
        <ele>78</ele>
        <time>2020-05-31T09:31:49Z</time>
      </trkpt>
      <trkpt lat="43.25592" lon="2.50939">
        <ele>81</ele>
        <time>2020-05-31T09:31:57Z</time>
      </trkpt>
      <trkpt lat="43.25587" lon="2.50937">
        <ele>81</ele>
        <time>2020-05-31T09:31:58Z</time>
      </trkpt>
      <trkpt lat="43.25536" lon="2.50909">
        <ele>81</ele>
        <time>2020-05-31T09:32:07Z</time>
      </trkpt>
      <trkpt lat="43.255" lon="2.50895">
        <ele>81</ele>
        <time>2020-05-31T09:32:13Z</time>
      </trkpt>
      <trkpt lat="43.25487" lon="2.50895">
        <ele>82</ele>
        <time>2020-05-31T09:32:15Z</time>
      </trkpt>
      <trkpt lat="43.25481" lon="2.50896">
        <ele>82</ele>
        <time>2020-05-31T09:32:16Z</time>
      </trkpt>
      <trkpt lat="43.25462" lon="2.50899">
        <ele>83</ele>
        <time>2020-05-31T09:32:19Z</time>
      </trkpt>
      <trkpt lat="43.25438" lon="2.50904">
        <ele>84</ele>
        <time>2020-05-31T09:32:23Z</time>
      </trkpt>
      <trkpt lat="43.25426" lon="2.50906">
        <ele>84</ele>
        <time>2020-05-31T09:32:25Z</time>
      </trkpt>
      <trkpt lat="43.2542" lon="2.50906">
        <ele>84</ele>
        <time>2020-05-31T09:32:26Z</time>
      </trkpt>
      <trkpt lat="43.25415" lon="2.50903">
        <ele>84</ele>
        <time>2020-05-31T09:32:27Z</time>
      </trkpt>
      <trkpt lat="43.2541" lon="2.50899">
        <ele>84</ele>
        <time>2020-05-31T09:32:28Z</time>
      </trkpt>
      <trkpt lat="43.25405" lon="2.50893">
        <ele>85</ele>
        <time>2020-05-31T09:32:29Z</time>
      </trkpt>
      <trkpt lat="43.25402" lon="2.50886">
        <ele>85</ele>
        <time>2020-05-31T09:32:30Z</time>
      </trkpt>
      <trkpt lat="43.25398" lon="2.50871">
        <ele>85</ele>
        <time>2020-05-31T09:32:32Z</time>
      </trkpt>
      <trkpt lat="43.25387" lon="2.50799">
        <ele>85</ele>
        <time>2020-05-31T09:32:41Z</time>
      </trkpt>
      <trkpt lat="43.25386" lon="2.50783">
        <ele>85</ele>
        <time>2020-05-31T09:32:43Z</time>
      </trkpt>
      <trkpt lat="43.25384" lon="2.50752">
        <ele>85</ele>
        <time>2020-05-31T09:32:47Z</time>
      </trkpt>
      <trkpt lat="43.25384" lon="2.50736">
        <ele>85</ele>
        <time>2020-05-31T09:32:49Z</time>
      </trkpt>
      <trkpt lat="43.25384" lon="2.50696">
        <ele>85</ele>
        <time>2020-05-31T09:32:54Z</time>
      </trkpt>
      <trkpt lat="43.25384" lon="2.5068">
        <ele>84</ele>
        <time>2020-05-31T09:32:56Z</time>
      </trkpt>
      <trkpt lat="43.25384" lon="2.50655">
        <ele>83</ele>
        <time>2020-05-31T09:32:59Z</time>
      </trkpt>
      <trkpt lat="43.25384" lon="2.5059">
        <ele>84</ele>
        <time>2020-05-31T09:33:07Z</time>
      </trkpt>
      <trkpt lat="43.25384" lon="2.50582">
        <ele>84</ele>
        <time>2020-05-31T09:33:08Z</time>
      </trkpt>
      <trkpt lat="43.25381" lon="2.50566">
        <ele>84</ele>
        <time>2020-05-31T09:33:10Z</time>
      </trkpt>
      <trkpt lat="43.25378" lon="2.50559">
        <ele>84</ele>
        <time>2020-05-31T09:33:11Z</time>
      </trkpt>
      <trkpt lat="43.25375" lon="2.50552">
        <ele>85</ele>
        <time>2020-05-31T09:33:12Z</time>
      </trkpt>
      <trkpt lat="43.25367" lon="2.5054">
        <ele>85</ele>
        <time>2020-05-31T09:33:14Z</time>
      </trkpt>
      <trkpt lat="43.25362" lon="2.50535">
        <ele>85</ele>
        <time>2020-05-31T09:33:15Z</time>
      </trkpt>
      <trkpt lat="43.25356" lon="2.50531">
        <ele>86</ele>
        <time>2020-05-31T09:33:16Z</time>
      </trkpt>
      <trkpt lat="43.25345" lon="2.50525">
        <ele>86</ele>
        <time>2020-05-31T09:33:18Z</time>
      </trkpt>
      <trkpt lat="43.25339" lon="2.50523">
        <ele>86</ele>
        <time>2020-05-31T09:33:19Z</time>
      </trkpt>
      <trkpt lat="43.25284" lon="2.50502">
        <ele>88</ele>
        <time>2020-05-31T09:33:29Z</time>
      </trkpt>
      <trkpt lat="43.25247" lon="2.50489">
        <ele>87</ele>
        <time>2020-05-31T09:33:35Z</time>
      </trkpt>
      <trkpt lat="43.25191" lon="2.50468">
        <ele>86</ele>
        <time>2020-05-31T09:33:44Z</time>
      </trkpt>
      <trkpt lat="43.25155" lon="2.50454">
        <ele>85</ele>
        <time>2020-05-31T09:33:50Z</time>
      </trkpt>
      <trkpt lat="43.25143" lon="2.5045">
        <ele>85</ele>
        <time>2020-05-31T09:33:52Z</time>
      </trkpt>
      <trkpt lat="43.25086" lon="2.50428">
        <ele>87</ele>
        <time>2020-05-31T09:34:02Z</time>
      </trkpt>
      <trkpt lat="43.25075" lon="2.50424">
        <ele>88</ele>
        <time>2020-05-31T09:34:04Z</time>
      </trkpt>
      <trkpt lat="43.25029" lon="2.50407">
        <ele>87</ele>
        <time>2020-05-31T09:34:12Z</time>
      </trkpt>
      <trkpt lat="43.25" lon="2.50396">
        <ele>87</ele>
        <time>2020-05-31T09:34:17Z</time>
      </trkpt>
      <trkpt lat="43.24971" lon="2.50385">
        <ele>87</ele>
        <time>2020-05-31T09:34:22Z</time>
      </trkpt>
      <trkpt lat="43.24937" lon="2.50372">
        <ele>88</ele>
        <time>2020-05-31T09:34:28Z</time>
      </trkpt>
      <trkpt lat="43.24895" lon="2.50361">
        <ele>90</ele>
        <time>2020-05-31T09:34:35Z</time>
      </trkpt>
      <trkpt lat="43.24883" lon="2.5036">
        <ele>90</ele>
        <time>2020-05-31T09:34:37Z</time>
      </trkpt>
      <trkpt lat="43.24877" lon="2.5036">
        <ele>90</ele>
        <time>2020-05-31T09:34:38Z</time>
      </trkpt>
      <trkpt lat="43.2485" lon="2.50361">
        <ele>89</ele>
        <time>2020-05-31T09:34:42Z</time>
      </trkpt>
      <trkpt lat="43.24793" lon="2.50365">
        <ele>88</ele>
        <time>2020-05-31T09:34:50Z</time>
      </trkpt>
      <trkpt lat="43.24786" lon="2.50366">
        <ele>88</ele>
        <time>2020-05-31T09:34:51Z</time>
      </trkpt>
      <trkpt lat="43.24757" lon="2.50367">
        <ele>88</ele>
        <time>2020-05-31T09:34:55Z</time>
      </trkpt>
      <trkpt lat="43.24722" lon="2.5037">
        <ele>87</ele>
        <time>2020-05-31T09:35:00Z</time>
      </trkpt>
      <trkpt lat="43.24707" lon="2.50371">
        <ele>87</ele>
        <time>2020-05-31T09:35:02Z</time>
      </trkpt>
      <trkpt lat="43.24685" lon="2.50373">
        <ele>86</ele>
        <time>2020-05-31T09:35:05Z</time>
      </trkpt>
      <trkpt lat="43.24654" lon="2.50375">
        <ele>86</ele>
        <time>2020-05-31T09:35:09Z</time>
      </trkpt>
      <trkpt lat="43.24639" lon="2.50376">
        <ele>87</ele>
        <time>2020-05-31T09:35:11Z</time>
      </trkpt>
      <trkpt lat="43.24587" lon="2.50379">
        <ele>86</ele>
        <time>2020-05-31T09:35:18Z</time>
      </trkpt>
      <trkpt lat="43.24564" lon="2.5038">
        <ele>86</ele>
        <time>2020-05-31T09:35:21Z</time>
      </trkpt>
      <trkpt lat="43.24557" lon="2.50381">
        <ele>86</ele>
        <time>2020-05-31T09:35:22Z</time>
      </trkpt>
      <trkpt lat="43.2452" lon="2.50383">
        <ele>86</ele>
        <time>2020-05-31T09:35:27Z</time>
      </trkpt>
      <trkpt lat="43.24513" lon="2.50383">
        <ele>85</ele>
        <time>2020-05-31T09:35:28Z</time>
      </trkpt>
      <trkpt lat="43.24477" lon="2.50386">
        <ele>85</ele>
        <time>2020-05-31T09:35:33Z</time>
      </trkpt>
      <trkpt lat="43.2442" lon="2.50389">
        <ele>87</ele>
        <time>2020-05-31T09:35:41Z</time>
      </trkpt>
      <trkpt lat="43.24406" lon="2.5039">
        <ele>88</ele>
        <time>2020-05-31T09:35:43Z</time>
      </trkpt>
      <trkpt lat="43.24385" lon="2.50391">
        <ele>89</ele>
        <time>2020-05-31T09:35:46Z</time>
      </trkpt>
      <trkpt lat="43.24364" lon="2.50392">
        <ele>89</ele>
        <time>2020-05-31T09:35:49Z</time>
      </trkpt>
      <trkpt lat="43.24343" lon="2.50394">
        <ele>88</ele>
        <time>2020-05-31T09:35:52Z</time>
      </trkpt>
      <trkpt lat="43.24328" lon="2.50395">
        <ele>88</ele>
        <time>2020-05-31T09:35:54Z</time>
      </trkpt>
      <trkpt lat="43.24314" lon="2.50396">
        <ele>88</ele>
        <time>2020-05-31T09:35:56Z</time>
      </trkpt>
      <trkpt lat="43.24307" lon="2.50396">
        <ele>88</ele>
        <time>2020-05-31T09:35:57Z</time>
      </trkpt>
      <trkpt lat="43.2427" lon="2.50399">
        <ele>88</ele>
        <time>2020-05-31T09:36:02Z</time>
      </trkpt>
      <trkpt lat="43.24256" lon="2.50399">
        <ele>88</ele>
        <time>2020-05-31T09:36:04Z</time>
      </trkpt>
      <trkpt lat="43.24197" lon="2.50403">
        <ele>89</ele>
        <time>2020-05-31T09:36:12Z</time>
      </trkpt>
      <trkpt lat="43.24175" lon="2.50404">
        <ele>89</ele>
        <time>2020-05-31T09:36:15Z</time>
      </trkpt>
      <trkpt lat="43.24138" lon="2.50407">
        <ele>89</ele>
        <time>2020-05-31T09:36:20Z</time>
      </trkpt>
      <trkpt lat="43.24123" lon="2.50408">
        <ele>89</ele>
        <time>2020-05-31T09:36:22Z</time>
      </trkpt>
      <trkpt lat="43.24108" lon="2.50409">
        <ele>89</ele>
        <time>2020-05-31T09:36:24Z</time>
      </trkpt>
      <trkpt lat="43.24101" lon="2.50409">
        <ele>89</ele>
        <time>2020-05-31T09:36:25Z</time>
      </trkpt>
      <trkpt lat="43.24078" lon="2.50411">
        <ele>89</ele>
        <time>2020-05-31T09:36:28Z</time>
      </trkpt>
      <trkpt lat="43.24063" lon="2.50412">
        <ele>89</ele>
        <time>2020-05-31T09:36:30Z</time>
      </trkpt>
      <trkpt lat="43.24055" lon="2.50412">
        <ele>89</ele>
        <time>2020-05-31T09:36:31Z</time>
      </trkpt>
      <trkpt lat="43.2404" lon="2.50413">
        <ele>89</ele>
        <time>2020-05-31T09:36:33Z</time>
      </trkpt>
      <trkpt lat="43.24033" lon="2.50413">
        <ele>89</ele>
        <time>2020-05-31T09:36:34Z</time>
      </trkpt>
      <trkpt lat="43.24018" lon="2.50411">
        <ele>89</ele>
        <time>2020-05-31T09:36:36Z</time>
      </trkpt>
      <trkpt lat="43.23998" lon="2.50405">
        <ele>90</ele>
        <time>2020-05-31T09:36:39Z</time>
      </trkpt>
      <trkpt lat="43.23972" lon="2.50398">
        <ele>90</ele>
        <time>2020-05-31T09:36:43Z</time>
      </trkpt>
      <trkpt lat="43.23954" lon="2.50392">
        <ele>91</ele>
        <time>2020-05-31T09:36:46Z</time>
      </trkpt>
      <trkpt lat="43.23927" lon="2.50383">
        <ele>92</ele>
        <time>2020-05-31T09:36:51Z</time>
      </trkpt>
      <trkpt lat="43.23917" lon="2.50379">
        <ele>93</ele>
        <time>2020-05-31T09:36:53Z</time>
      </trkpt>
      <trkpt lat="43.23908" lon="2.50374">
        <ele>93</ele>
        <time>2020-05-31T09:36:55Z</time>
      </trkpt>
      <trkpt lat="43.23895" lon="2.50366">
        <ele>94</ele>
        <time>2020-05-31T09:36:58Z</time>
      </trkpt>
      <trkpt lat="43.23891" lon="2.50363">
        <ele>94</ele>
        <time>2020-05-31T09:36:59Z</time>
      </trkpt>
      <trkpt lat="43.23878" lon="2.50348">
        <ele>95</ele>
        <time>2020-05-31T09:37:03Z</time>
      </trkpt>
      <trkpt lat="43.23875" lon="2.50344">
        <ele>95</ele>
        <time>2020-05-31T09:37:04Z</time>
      </trkpt>
      <trkpt lat="43.23869" lon="2.50335">
        <ele>95</ele>
        <time>2020-05-31T09:37:06Z</time>
      </trkpt>
      <trkpt lat="43.23855" lon="2.50308">
        <ele>97</ele>
        <time>2020-05-31T09:37:12Z</time>
      </trkpt>
      <trkpt lat="43.2385" lon="2.50299">
        <ele>97</ele>
        <time>2020-05-31T09:37:14Z</time>
      </trkpt>
      <trkpt lat="43.23843" lon="2.50286">
        <ele>97</ele>
        <time>2020-05-31T09:37:17Z</time>
      </trkpt>
      <trkpt lat="43.23836" lon="2.50272">
        <ele>98</ele>
        <time>2020-05-31T09:37:20Z</time>
      </trkpt>
      <trkpt lat="43.23828" lon="2.50259">
        <ele>98</ele>
        <time>2020-05-31T09:37:23Z</time>
      </trkpt>
      <trkpt lat="43.23804" lon="2.50223">
        <ele>98</ele>
        <time>2020-05-31T09:37:31Z</time>
      </trkpt>
      <trkpt lat="43.23775" lon="2.50183">
        <ele>97</ele>
        <time>2020-05-31T09:37:39Z</time>
      </trkpt>
      <trkpt lat="43.23737" lon="2.50129">
        <ele>98</ele>
        <time>2020-05-31T09:37:49Z</time>
      </trkpt>
      <trkpt lat="43.23729" lon="2.50118">
        <ele>99</ele>
        <time>2020-05-31T09:37:51Z</time>
      </trkpt>
      <trkpt lat="43.23725" lon="2.50112">
        <ele>99</ele>
        <time>2020-05-31T09:37:52Z</time>
      </trkpt>
      <trkpt lat="43.23717" lon="2.50101">
        <ele>99</ele>
        <time>2020-05-31T09:37:54Z</time>
      </trkpt>
      <trkpt lat="43.23698" lon="2.50073">
        <ele>99</ele>
        <time>2020-05-31T09:37:59Z</time>
      </trkpt>
      <trkpt lat="43.23689" lon="2.50061">
        <ele>98</ele>
        <time>2020-05-31T09:38:01Z</time>
      </trkpt>
      <trkpt lat="43.23685" lon="2.50055">
        <ele>98</ele>
        <time>2020-05-31T09:38:02Z</time>
      </trkpt>
      <trkpt lat="43.23648" lon="2.50001">
        <ele>99</ele>
        <time>2020-05-31T09:38:11Z</time>
      </trkpt>
      <trkpt lat="43.2364" lon="2.49989">
        <ele>100</ele>
        <time>2020-05-31T09:38:13Z</time>
      </trkpt>
      <trkpt lat="43.23627" lon="2.49971">
        <ele>100</ele>
        <time>2020-05-31T09:38:16Z</time>
      </trkpt>
      <trkpt lat="43.23621" lon="2.49957">
        <ele>101</ele>
        <time>2020-05-31T09:38:18Z</time>
      </trkpt>
      <trkpt lat="43.23605" lon="2.4991">
        <ele>103</ele>
        <time>2020-05-31T09:38:24Z</time>
      </trkpt>
      <trkpt lat="43.2359" lon="2.49869">
        <ele>101</ele>
        <time>2020-05-31T09:38:29Z</time>
      </trkpt>
      <trkpt lat="43.23586" lon="2.49861">
        <ele>101</ele>
        <time>2020-05-31T09:38:30Z</time>
      </trkpt>
      <trkpt lat="43.23565" lon="2.49826">
        <ele>98</ele>
        <time>2020-05-31T09:38:34Z</time>
      </trkpt>
      <trkpt lat="43.23559" lon="2.49816">
        <ele>98</ele>
        <time>2020-05-31T09:38:35Z</time>
      </trkpt>
      <trkpt lat="43.23554" lon="2.49806">
        <ele>98</ele>
        <time>2020-05-31T09:38:36Z</time>
      </trkpt>
      <trkpt lat="43.2355" lon="2.49794">
        <ele>97</ele>
        <time>2020-05-31T09:38:37Z</time>
      </trkpt>
      <trkpt lat="43.23543" lon="2.49771">
        <ele>96</ele>
        <time>2020-05-31T09:38:39Z</time>
      </trkpt>
      <trkpt lat="43.23539" lon="2.49746">
        <ele>95</ele>
        <time>2020-05-31T09:38:41Z</time>
      </trkpt>
      <trkpt lat="43.23532" lon="2.4971">
        <ele>95</ele>
        <time>2020-05-31T09:38:44Z</time>
      </trkpt>
      <trkpt lat="43.23522" lon="2.49652">
        <ele>94</ele>
        <time>2020-05-31T09:38:49Z</time>
      </trkpt>
      <trkpt lat="43.2352" lon="2.4964">
        <ele>94</ele>
        <time>2020-05-31T09:38:50Z</time>
      </trkpt>
      <trkpt lat="43.2351" lon="2.49595">
        <ele>94</ele>
        <time>2020-05-31T09:38:54Z</time>
      </trkpt>
      <trkpt lat="43.23506" lon="2.49585">
        <ele>94</ele>
        <time>2020-05-31T09:38:55Z</time>
      </trkpt>
      <trkpt lat="43.235" lon="2.49576">
        <ele>94</ele>
        <time>2020-05-31T09:38:56Z</time>
      </trkpt>
      <trkpt lat="43.23485" lon="2.49564">
        <ele>95</ele>
        <time>2020-05-31T09:38:58Z</time>
      </trkpt>
      <trkpt lat="43.23477" lon="2.4956">
        <ele>95</ele>
        <time>2020-05-31T09:38:59Z</time>
      </trkpt>
      <trkpt lat="43.23461" lon="2.49557">
        <ele>94</ele>
        <time>2020-05-31T09:39:01Z</time>
      </trkpt>
      <trkpt lat="43.23454" lon="2.49555">
        <ele>95</ele>
        <time>2020-05-31T09:39:02Z</time>
      </trkpt>
      <trkpt lat="43.23432" lon="2.4955">
        <ele>95</ele>
        <time>2020-05-31T09:39:05Z</time>
      </trkpt>
      <trkpt lat="43.23425" lon="2.49549">
        <ele>95</ele>
        <time>2020-05-31T09:39:06Z</time>
      </trkpt>
      <trkpt lat="43.23419" lon="2.49547">
        <ele>95</ele>
        <time>2020-05-31T09:39:07Z</time>
      </trkpt>
      <trkpt lat="43.23412" lon="2.49546">
        <ele>95</ele>
        <time>2020-05-31T09:39:08Z</time>
      </trkpt>
      <trkpt lat="43.23399" lon="2.49542">
        <ele>96</ele>
        <time>2020-05-31T09:39:10Z</time>
      </trkpt>
      <trkpt lat="43.23385" lon="2.49538">
        <ele>97</ele>
        <time>2020-05-31T09:39:12Z</time>
      </trkpt>
      <trkpt lat="43.23372" lon="2.49535">
        <ele>98</ele>
        <time>2020-05-31T09:39:14Z</time>
      </trkpt>
      <trkpt lat="43.23353" lon="2.49531">
        <ele>98</ele>
        <time>2020-05-31T09:39:18Z</time>
      </trkpt>
      <trkpt lat="43.23329" lon="2.49524">
        <ele>99</ele>
        <time>2020-05-31T09:39:22Z</time>
      </trkpt>
      <trkpt lat="43.23282" lon="2.49512">
        <ele>101</ele>
        <time>2020-05-31T09:39:30Z</time>
      </trkpt>
      <trkpt lat="43.23229" lon="2.49498">
        <ele>101</ele>
        <time>2020-05-31T09:39:39Z</time>
      </trkpt>
      <trkpt lat="43.23218" lon="2.49496">
        <ele>101</ele>
        <time>2020-05-31T09:39:41Z</time>
      </trkpt>
      <trkpt lat="43.2319" lon="2.49489">
        <ele>100</ele>
        <time>2020-05-31T09:39:46Z</time>
      </trkpt>
      <trkpt lat="43.23178" lon="2.49486">
        <ele>100</ele>
        <time>2020-05-31T09:39:48Z</time>
      </trkpt>
      <trkpt lat="43.23167" lon="2.49483">
        <ele>100</ele>
        <time>2020-05-31T09:39:50Z</time>
      </trkpt>
      <trkpt lat="43.23128" lon="2.49474">
        <ele>100</ele>
        <time>2020-05-31T09:39:57Z</time>
      </trkpt>
      <trkpt lat="43.23117" lon="2.4947">
        <ele>101</ele>
        <time>2020-05-31T09:39:59Z</time>
      </trkpt>
      <trkpt lat="43.2307" lon="2.49458">
        <ele>101</ele>
        <time>2020-05-31T09:40:08Z</time>
      </trkpt>
      <trkpt lat="43.23044" lon="2.49452">
        <ele>101</ele>
        <time>2020-05-31T09:40:13Z</time>
      </trkpt>
      <trkpt lat="43.23029" lon="2.4945">
        <ele>101</ele>
        <time>2020-05-31T09:40:16Z</time>
      </trkpt>
      <trkpt lat="43.23019" lon="2.49449">
        <ele>102</ele>
        <time>2020-05-31T09:40:18Z</time>
      </trkpt>
      <trkpt lat="43.23014" lon="2.49449">
        <ele>103</ele>
        <time>2020-05-31T09:40:19Z</time>
      </trkpt>
      <trkpt lat="43.22989" lon="2.49449">
        <ele>105</ele>
        <time>2020-05-31T09:40:24Z</time>
      </trkpt>
      <trkpt lat="43.22967" lon="2.49449">
        <ele>105</ele>
        <time>2020-05-31T09:40:28Z</time>
      </trkpt>
      <trkpt lat="43.22956" lon="2.49449">
        <ele>105</ele>
        <time>2020-05-31T09:40:30Z</time>
      </trkpt>
      <trkpt lat="43.22931" lon="2.49449">
        <ele>105</ele>
        <time>2020-05-31T09:40:34Z</time>
      </trkpt>
      <trkpt lat="43.22924" lon="2.49449">
        <ele>105</ele>
        <time>2020-05-31T09:40:35Z</time>
      </trkpt>
      <trkpt lat="43.22894" lon="2.49448">
        <ele>104</ele>
        <time>2020-05-31T09:40:39Z</time>
      </trkpt>
      <trkpt lat="43.2287" lon="2.49448">
        <ele>102</ele>
        <time>2020-05-31T09:40:42Z</time>
      </trkpt>
      <trkpt lat="43.22837" lon="2.49448">
        <ele>101</ele>
        <time>2020-05-31T09:40:46Z</time>
      </trkpt>
      <trkpt lat="43.22788" lon="2.49448">
        <ele>103</ele>
        <time>2020-05-31T09:40:52Z</time>
      </trkpt>
      <trkpt lat="43.22773" lon="2.4945">
        <ele>103</ele>
        <time>2020-05-31T09:40:54Z</time>
      </trkpt>
      <trkpt lat="43.22767" lon="2.49453">
        <ele>103</ele>
        <time>2020-05-31T09:40:55Z</time>
      </trkpt>
      <trkpt lat="43.22761" lon="2.49457">
        <ele>103</ele>
        <time>2020-05-31T09:40:56Z</time>
      </trkpt>
      <trkpt lat="43.22733" lon="2.49482">
        <ele>101</ele>
        <time>2020-05-31T09:41:01Z</time>
      </trkpt>
      <trkpt lat="43.2272" lon="2.49486">
        <ele>101</ele>
        <time>2020-05-31T09:41:03Z</time>
      </trkpt>
      <trkpt lat="43.22713" lon="2.49487">
        <ele>101</ele>
        <time>2020-05-31T09:41:04Z</time>
      </trkpt>
      <trkpt lat="43.22706" lon="2.49486">
        <ele>101</ele>
        <time>2020-05-31T09:41:05Z</time>
      </trkpt>
      <trkpt lat="43.227" lon="2.49483">
        <ele>101</ele>
        <time>2020-05-31T09:41:06Z</time>
      </trkpt>
      <trkpt lat="43.22694" lon="2.4948">
        <ele>101</ele>
        <time>2020-05-31T09:41:07Z</time>
      </trkpt>
      <trkpt lat="43.22688" lon="2.49475">
        <ele>101</ele>
        <time>2020-05-31T09:41:08Z</time>
      </trkpt>
      <trkpt lat="43.22664" lon="2.49458">
        <ele>99</ele>
        <time>2020-05-31T09:41:12Z</time>
      </trkpt>
      <trkpt lat="43.22646" lon="2.49448">
        <ele>99</ele>
        <time>2020-05-31T09:41:15Z</time>
      </trkpt>
      <trkpt lat="43.22639" lon="2.49446">
        <ele>99</ele>
        <time>2020-05-31T09:41:16Z</time>
      </trkpt>
      <trkpt lat="43.22632" lon="2.49445">
        <ele>100</ele>
        <time>2020-05-31T09:41:17Z</time>
      </trkpt>
      <trkpt lat="43.22613" lon="2.49444">
        <ele>101</ele>
        <time>2020-05-31T09:41:20Z</time>
      </trkpt>
      <trkpt lat="43.22606" lon="2.49442">
        <ele>101</ele>
        <time>2020-05-31T09:41:21Z</time>
      </trkpt>
      <trkpt lat="43.22594" lon="2.49435">
        <ele>101</ele>
        <time>2020-05-31T09:41:23Z</time>
      </trkpt>
      <trkpt lat="43.22577" lon="2.49421">
        <ele>102</ele>
        <time>2020-05-31T09:41:26Z</time>
      </trkpt>
      <trkpt lat="43.22543" lon="2.49383">
        <ele>102</ele>
        <time>2020-05-31T09:41:33Z</time>
      </trkpt>
      <trkpt lat="43.22517" lon="2.49334">
        <ele>101</ele>
        <time>2020-05-31T09:41:39Z</time>
      </trkpt>
      <trkpt lat="43.22506" lon="2.49316">
        <ele>99</ele>
        <time>2020-05-31T09:41:41Z</time>
      </trkpt>
      <trkpt lat="43.22495" lon="2.49297">
        <ele>97</ele>
        <time>2020-05-31T09:41:43Z</time>
      </trkpt>
      <trkpt lat="43.22481" lon="2.49279">
        <ele>95</ele>
        <time>2020-05-31T09:41:45Z</time>
      </trkpt>
      <trkpt lat="43.22474" lon="2.4927">
        <ele>94</ele>
        <time>2020-05-31T09:41:46Z</time>
      </trkpt>
      <trkpt lat="43.22467" lon="2.49262">
        <ele>94</ele>
        <time>2020-05-31T09:41:47Z</time>
      </trkpt>
      <trkpt lat="43.2246" lon="2.49254">
        <ele>94</ele>
        <time>2020-05-31T09:41:48Z</time>
      </trkpt>
      <trkpt lat="43.22424" lon="2.49213">
        <ele>93</ele>
        <time>2020-05-31T09:41:53Z</time>
      </trkpt>
      <trkpt lat="43.2241" lon="2.49197">
        <ele>92</ele>
        <time>2020-05-31T09:41:55Z</time>
      </trkpt>
      <trkpt lat="43.22382" lon="2.49167">
        <ele>93</ele>
        <time>2020-05-31T09:41:59Z</time>
      </trkpt>
      <trkpt lat="43.22376" lon="2.49159">
        <ele>93</ele>
        <time>2020-05-31T09:42:00Z</time>
      </trkpt>
      <trkpt lat="43.22363" lon="2.49144">
        <ele>93</ele>
        <time>2020-05-31T09:42:02Z</time>
      </trkpt>
      <trkpt lat="43.22318" lon="2.49095">
        <ele>94</ele>
        <time>2020-05-31T09:42:09Z</time>
      </trkpt>
      <trkpt lat="43.22306" lon="2.49081">
        <ele>94</ele>
        <time>2020-05-31T09:42:11Z</time>
      </trkpt>
      <trkpt lat="43.223" lon="2.49074">
        <ele>94</ele>
        <time>2020-05-31T09:42:12Z</time>
      </trkpt>
      <trkpt lat="43.22295" lon="2.49066">
        <ele>94</ele>
        <time>2020-05-31T09:42:13Z</time>
      </trkpt>
      <trkpt lat="43.2229" lon="2.49058">
        <ele>94</ele>
        <time>2020-05-31T09:42:14Z</time>
      </trkpt>
      <trkpt lat="43.22286" lon="2.49049">
        <ele>95</ele>
        <time>2020-05-31T09:42:15Z</time>
      </trkpt>
      <trkpt lat="43.22283" lon="2.4904">
        <ele>95</ele>
        <time>2020-05-31T09:42:16Z</time>
      </trkpt>
      <trkpt lat="43.22275" lon="2.49">
        <ele>94</ele>
        <time>2020-05-31T09:42:20Z</time>
      </trkpt>
      <trkpt lat="43.22271" lon="2.48981">
        <ele>94</ele>
        <time>2020-05-31T09:42:22Z</time>
      </trkpt>
      <trkpt lat="43.22259" lon="2.48925">
        <ele>96</ele>
        <time>2020-05-31T09:42:28Z</time>
      </trkpt>
      <trkpt lat="43.22255" lon="2.48908">
        <ele>96</ele>
        <time>2020-05-31T09:42:30Z</time>
      </trkpt>
      <trkpt lat="43.22245" lon="2.48864">
        <ele>98</ele>
        <time>2020-05-31T09:42:35Z</time>
      </trkpt>
      <trkpt lat="43.22242" lon="2.48847">
        <ele>98</ele>
        <time>2020-05-31T09:42:37Z</time>
      </trkpt>
      <trkpt lat="43.22237" lon="2.48821">
        <ele>99</ele>
        <time>2020-05-31T09:42:40Z</time>
      </trkpt>
      <trkpt lat="43.22228" lon="2.4878">
        <ele>99</ele>
        <time>2020-05-31T09:42:45Z</time>
      </trkpt>
      <trkpt lat="43.22224" lon="2.48763">
        <ele>99</ele>
        <time>2020-05-31T09:42:47Z</time>
      </trkpt>
      <trkpt lat="43.2221" lon="2.48696">
        <ele>100</ele>
        <time>2020-05-31T09:42:55Z</time>
      </trkpt>
      <trkpt lat="43.22195" lon="2.48638">
        <ele>99</ele>
        <time>2020-05-31T09:43:02Z</time>
      </trkpt>
      <trkpt lat="43.22176" lon="2.48594">
        <ele>99</ele>
        <time>2020-05-31T09:43:08Z</time>
      </trkpt>
      <trkpt lat="43.22158" lon="2.48561">
        <ele>100</ele>
        <time>2020-05-31T09:43:13Z</time>
      </trkpt>
      <trkpt lat="43.22151" lon="2.48548">
        <ele>101</ele>
        <time>2020-05-31T09:43:15Z</time>
      </trkpt>
      <trkpt lat="43.22137" lon="2.48517">
        <ele>103</ele>
        <time>2020-05-31T09:43:20Z</time>
      </trkpt>
      <trkpt lat="43.22133" lon="2.48504">
        <ele>105</ele>
        <time>2020-05-31T09:43:22Z</time>
      </trkpt>
      <trkpt lat="43.22128" lon="2.48485">
        <ele>106</ele>
        <time>2020-05-31T09:43:25Z</time>
      </trkpt>
      <trkpt lat="43.22126" lon="2.48478">
        <ele>106</ele>
        <time>2020-05-31T09:43:26Z</time>
      </trkpt>
      <trkpt lat="43.22125" lon="2.48472">
        <ele>106</ele>
        <time>2020-05-31T09:43:27Z</time>
      </trkpt>
      <trkpt lat="43.22123" lon="2.48459">
        <ele>107</ele>
        <time>2020-05-31T09:43:29Z</time>
      </trkpt>
      <trkpt lat="43.22116" lon="2.48407">
        <ele>109</ele>
        <time>2020-05-31T09:43:37Z</time>
      </trkpt>
      <trkpt lat="43.22112" lon="2.48383">
        <ele>109</ele>
        <time>2020-05-31T09:43:41Z</time>
      </trkpt>
      <trkpt lat="43.22111" lon="2.48371">
        <ele>110</ele>
        <time>2020-05-31T09:43:43Z</time>
      </trkpt>
      <trkpt lat="43.2211" lon="2.48359">
        <ele>110</ele>
        <time>2020-05-31T09:43:45Z</time>
      </trkpt>
      <trkpt lat="43.22109" lon="2.48353">
        <ele>110</ele>
        <time>2020-05-31T09:43:46Z</time>
      </trkpt>
      <trkpt lat="43.22106" lon="2.48337">
        <ele>111</ele>
        <time>2020-05-31T09:43:49Z</time>
      </trkpt>
      <trkpt lat="43.22105" lon="2.48332">
        <ele>111</ele>
        <time>2020-05-31T09:43:50Z</time>
      </trkpt>
      <trkpt lat="43.22103" lon="2.48316">
        <ele>112</ele>
        <time>2020-05-31T09:43:53Z</time>
      </trkpt>
      <trkpt lat="43.22098" lon="2.48295">
        <ele>113</ele>
        <time>2020-05-31T09:43:57Z</time>
      </trkpt>
      <trkpt lat="43.22094" lon="2.48284">
        <ele>114</ele>
        <time>2020-05-31T09:43:59Z</time>
      </trkpt>
      <trkpt lat="43.22091" lon="2.4828">
        <ele>115</ele>
        <time>2020-05-31T09:44:00Z</time>
      </trkpt>
      <trkpt lat="43.22085" lon="2.48271">
        <ele>115</ele>
        <time>2020-05-31T09:44:02Z</time>
      </trkpt>
      <trkpt lat="43.22075" lon="2.4826">
        <ele>116</ele>
        <time>2020-05-31T09:44:05Z</time>
      </trkpt>
      <trkpt lat="43.22062" lon="2.48253">
        <ele>117</ele>
        <time>2020-05-31T09:44:08Z</time>
      </trkpt>
      <trkpt lat="43.22058" lon="2.48252">
        <ele>117</ele>
        <time>2020-05-31T09:44:09Z</time>
      </trkpt>
      <trkpt lat="43.22038" lon="2.48249">
        <ele>119</ele>
        <time>2020-05-31T09:44:14Z</time>
      </trkpt>
      <trkpt lat="43.22022" lon="2.4825">
        <ele>121</ele>
        <time>2020-05-31T09:44:18Z</time>
      </trkpt>
      <trkpt lat="43.2201" lon="2.48251">
        <ele>121</ele>
        <time>2020-05-31T09:44:21Z</time>
      </trkpt>
      <trkpt lat="43.2198" lon="2.48252">
        <ele>121</ele>
        <time>2020-05-31T09:44:28Z</time>
      </trkpt>
      <trkpt lat="43.21977" lon="2.4825">
        <ele>121</ele>
        <time>2020-05-31T09:44:29Z</time>
      </trkpt>
      <trkpt lat="43.21966" lon="2.48246">
        <ele>120</ele>
        <time>2020-05-31T09:44:32Z</time>
      </trkpt>
      <trkpt lat="43.21954" lon="2.4824">
        <ele>120</ele>
        <time>2020-05-31T09:44:35Z</time>
      </trkpt>
      <trkpt lat="43.21925" lon="2.48216">
        <ele>118</ele>
        <time>2020-05-31T09:44:42Z</time>
      </trkpt>
      <trkpt lat="43.21896" lon="2.48186">
        <ele>118</ele>
        <time>2020-05-31T09:44:49Z</time>
      </trkpt>
      <trkpt lat="43.21888" lon="2.48177">
        <ele>118</ele>
        <time>2020-05-31T09:44:51Z</time>
      </trkpt>
      <trkpt lat="43.21885" lon="2.48171">
        <ele>118</ele>
        <time>2020-05-31T09:44:52Z</time>
      </trkpt>
      <trkpt lat="43.21882" lon="2.48165">
        <ele>118</ele>
        <time>2020-05-31T09:44:53Z</time>
      </trkpt>
      <trkpt lat="43.21879" lon="2.48159">
        <ele>118</ele>
        <time>2020-05-31T09:44:54Z</time>
      </trkpt>
      <trkpt lat="43.21877" lon="2.48152">
        <ele>118</ele>
        <time>2020-05-31T09:44:55Z</time>
      </trkpt>
      <trkpt lat="43.21876" lon="2.48137">
        <ele>120</ele>
        <time>2020-05-31T09:44:57Z</time>
      </trkpt>
      <trkpt lat="43.21876" lon="2.48122">
        <ele>121</ele>
        <time>2020-05-31T09:44:59Z</time>
      </trkpt>
      <trkpt lat="43.21878" lon="2.48101">
        <ele>122</ele>
        <time>2020-05-31T09:45:02Z</time>
      </trkpt>
      <trkpt lat="43.21879" lon="2.48094">
        <ele>122</ele>
        <time>2020-05-31T09:45:03Z</time>
      </trkpt>
      <trkpt lat="43.2188" lon="2.48068">
        <ele>123</ele>
        <time>2020-05-31T09:45:07Z</time>
      </trkpt>
      <trkpt lat="43.21879" lon="2.48062">
        <ele>123</ele>
        <time>2020-05-31T09:45:08Z</time>
      </trkpt>
      <trkpt lat="43.21877" lon="2.4805">
        <ele>124</ele>
        <time>2020-05-31T09:45:10Z</time>
      </trkpt>
      <trkpt lat="43.21872" lon="2.48041">
        <ele>124</ele>
        <time>2020-05-31T09:45:12Z</time>
      </trkpt>
      <trkpt lat="43.21868" lon="2.48037">
        <ele>124</ele>
        <time>2020-05-31T09:45:13Z</time>
      </trkpt>
      <trkpt lat="43.21864" lon="2.48034">
        <ele>124</ele>
        <time>2020-05-31T09:45:14Z</time>
      </trkpt>
      <trkpt lat="43.21854" lon="2.48031">
        <ele>124</ele>
        <time>2020-05-31T09:45:16Z</time>
      </trkpt>
      <trkpt lat="43.21849" lon="2.48031">
        <ele>124</ele>
        <time>2020-05-31T09:45:17Z</time>
      </trkpt>
      <trkpt lat="43.21843" lon="2.48032">
        <ele>124</ele>
        <time>2020-05-31T09:45:18Z</time>
      </trkpt>
      <trkpt lat="43.21822" lon="2.4804">
        <ele>123</ele>
        <time>2020-05-31T09:45:22Z</time>
      </trkpt>
      <trkpt lat="43.21817" lon="2.48041">
        <ele>122</ele>
        <time>2020-05-31T09:45:23Z</time>
      </trkpt>
      <trkpt lat="43.21807" lon="2.48039">
        <ele>122</ele>
        <time>2020-05-31T09:45:25Z</time>
      </trkpt>
      <trkpt lat="43.21802" lon="2.48035">
        <ele>122</ele>
        <time>2020-05-31T09:45:26Z</time>
      </trkpt>
      <trkpt lat="43.21799" lon="2.48029">
        <ele>122</ele>
        <time>2020-05-31T09:45:27Z</time>
      </trkpt>
      <trkpt lat="43.21798" lon="2.48022">
        <ele>123</ele>
        <time>2020-05-31T09:45:28Z</time>
      </trkpt>
      <trkpt lat="43.21798" lon="2.48015">
        <ele>123</ele>
        <time>2020-05-31T09:45:29Z</time>
      </trkpt>
      <trkpt lat="43.21799" lon="2.48008">
        <ele>124</ele>
        <time>2020-05-31T09:45:30Z</time>
      </trkpt>
      <trkpt lat="43.21804" lon="2.47988">
        <ele>125</ele>
        <time>2020-05-31T09:45:33Z</time>
      </trkpt>
      <trkpt lat="43.21805" lon="2.47982">
        <ele>125</ele>
        <time>2020-05-31T09:45:34Z</time>
      </trkpt>
      <trkpt lat="43.21811" lon="2.47957">
        <ele>125</ele>
        <time>2020-05-31T09:45:38Z</time>
      </trkpt>
      <trkpt lat="43.21812" lon="2.47951">
        <ele>125</ele>
        <time>2020-05-31T09:45:39Z</time>
      </trkpt>
      <trkpt lat="43.21812" lon="2.47945">
        <ele>125</ele>
        <time>2020-05-31T09:45:40Z</time>
      </trkpt>
      <trkpt lat="43.21809" lon="2.47912">
        <ele>126</ele>
        <time>2020-05-31T09:45:45Z</time>
      </trkpt>
      <trkpt lat="43.21808" lon="2.47907">
        <ele>126</ele>
        <time>2020-05-31T09:45:46Z</time>
      </trkpt>
      <trkpt lat="43.21803" lon="2.47896">
        <ele>126</ele>
        <time>2020-05-31T09:45:48Z</time>
      </trkpt>
      <trkpt lat="43.218" lon="2.47891">
        <ele>126</ele>
        <time>2020-05-31T09:45:49Z</time>
      </trkpt>
      <trkpt lat="43.21796" lon="2.47888">
        <ele>126</ele>
        <time>2020-05-31T09:45:50Z</time>
      </trkpt>
      <trkpt lat="43.21792" lon="2.47885">
        <ele>126</ele>
        <time>2020-05-31T09:45:51Z</time>
      </trkpt>
      <trkpt lat="43.21778" lon="2.47877">
        <ele>125</ele>
        <time>2020-05-31T09:45:54Z</time>
      </trkpt>
      <trkpt lat="43.21751" lon="2.47868">
        <ele>124</ele>
        <time>2020-05-31T09:46:00Z</time>
      </trkpt>
      <trkpt lat="43.21747" lon="2.47867">
        <ele>124</ele>
        <time>2020-05-31T09:46:01Z</time>
      </trkpt>
      <trkpt lat="43.21735" lon="2.47864">
        <ele>124</ele>
        <time>2020-05-31T09:46:05Z</time>
      </trkpt>
      <trkpt lat="43.21733" lon="2.47863">
        <ele>124</ele>
        <time>2020-05-31T09:46:07Z</time>
      </trkpt>
      <trkpt lat="43.21736" lon="2.47867">
        <ele>124</ele>
        <time>2020-05-31T09:46:44Z</time>
      </trkpt>
      <trkpt lat="43.21737" lon="2.4787">
        <ele>124</ele>
        <time>2020-05-31T09:46:45Z</time>
      </trkpt>
      <trkpt lat="43.21737" lon="2.47874">
        <ele>124</ele>
        <time>2020-05-31T09:46:46Z</time>
      </trkpt>
      <trkpt lat="43.21736" lon="2.4788">
        <ele>123</ele>
        <time>2020-05-31T09:46:47Z</time>
      </trkpt>
      <trkpt lat="43.21734" lon="2.47887">
        <ele>123</ele>
        <time>2020-05-31T09:46:48Z</time>
      </trkpt>
      <trkpt lat="43.21732" lon="2.47895">
        <ele>122</ele>
        <time>2020-05-31T09:46:49Z</time>
      </trkpt>
      <trkpt lat="43.21729" lon="2.47905">
        <ele>122</ele>
        <time>2020-05-31T09:46:50Z</time>
      </trkpt>
      <trkpt lat="43.21726" lon="2.47916">
        <ele>121</ele>
        <time>2020-05-31T09:46:51Z</time>
      </trkpt>
      <trkpt lat="43.21723" lon="2.47927">
        <ele>121</ele>
        <time>2020-05-31T09:46:52Z</time>
      </trkpt>
      <trkpt lat="43.21715" lon="2.47958">
        <ele>119</ele>
        <time>2020-05-31T09:46:55Z</time>
      </trkpt>
      <trkpt lat="43.21714" lon="2.47964">
        <ele>119</ele>
        <time>2020-05-31T09:46:56Z</time>
      </trkpt>
      <trkpt lat="43.21714" lon="2.4797">
        <ele>119</ele>
        <time>2020-05-31T09:46:57Z</time>
      </trkpt>
      <trkpt lat="43.21714" lon="2.47974">
        <ele>118</ele>
        <time>2020-05-31T09:46:58Z</time>
      </trkpt>
      <trkpt lat="43.21715" lon="2.47979">
        <ele>118</ele>
        <time>2020-05-31T09:46:59Z</time>
      </trkpt>
      <trkpt lat="43.21717" lon="2.47984">
        <ele>118</ele>
        <time>2020-05-31T09:47:00Z</time>
      </trkpt>
      <trkpt lat="43.21719" lon="2.47991">
        <ele>117</ele>
        <time>2020-05-31T09:47:02Z</time>
      </trkpt>
      <trkpt lat="43.21722" lon="2.47994">
        <ele>117</ele>
        <time>2020-05-31T09:47:05Z</time>
      </trkpt>
      <trkpt lat="43.21722" lon="2.47995">
        <ele>117</ele>
        <time>2020-05-31T09:47:06Z</time>
      </trkpt>
      <trkpt lat="43.21722" lon="2.47994">
        <ele>117</ele>
        <time>2020-05-31T09:47:10Z</time>
      </trkpt>
      <trkpt lat="43.21722" lon="2.47994">
        <ele>117</ele>
        <time>2020-05-31T09:47:11Z</time>
      </trkpt>
    </trkseg>
  </trk>
</gpx>